<?xml version='1.0' encoding='UTF-8'?><gpx version="1.1" creator="JPX - https://github.com/jenetics/jpx" xmlns="http://www.topografix.com/GPX/1/1"><trk><trkseg><trkpt lat="44.77061" lon="10.7681883"><ele>31.000000000000004</ele><time>2026-04-26T14:13:25.005Z</time></trkpt><trkpt lat="44.770535" lon="10.7681133"><ele>31.0</ele><time>2026-04-26T14:13:26.505Z</time></trkpt><trkpt lat="44.770635" lon="10.7681267"><ele>31.0</ele><time>2026-04-26T14:13:28.504Z</time></trkpt><trkpt lat="44.7705967" lon="10.7680133"><ele>31.0</ele><time>2026-04-26T14:13:36.504Z</time></trkpt><trkpt lat="44.7706017" lon="10.767905"><ele>31.000000000000004</ele><time>2026-04-26T14:13:39.503Z</time></trkpt><trkpt lat="44.7706817" lon="10.7678967"><ele>31.0</ele><time>2026-04-26T14:13:42.503Z</time></trkpt><trkpt lat="44.7707767" lon="10.7679633"><ele>31.000000000000004</ele><time>2026-04-26T14:13:44.503Z</time></trkpt><trkpt lat="44.77087" lon="10.7680233"><ele>31.0</ele><time>2026-04-26T14:13:46.503Z</time></trkpt><trkpt lat="44.7709317" lon="10.76806"><ele>31.0</ele><time>2026-04-26T14:13:49.504Z</time></trkpt><trkpt lat="44.771" lon="10.7680917"><ele>31.0</ele><time>2026-04-26T14:13:52.503Z</time></trkpt><trkpt lat="44.7711083" lon="10.7681083"><ele>31.000000000000004</ele><time>2026-04-26T14:13:54.504Z</time></trkpt><trkpt lat="44.771175" lon="10.76812"><ele>31.0</ele><time>2026-04-26T14:13:55.503Z</time></trkpt><trkpt lat="44.7712533" lon="10.7681233"><ele>31.200000000000003</ele><time>2026-04-26T14:13:56.504Z</time></trkpt><trkpt lat="44.771345" lon="10.7681117"><ele>31.400000000000002</ele><time>2026-04-26T14:13:57.504Z</time></trkpt><trkpt lat="44.7714217" lon="10.7681133"><ele>31.6</ele><time>2026-04-26T14:13:58.503Z</time></trkpt><trkpt lat="44.7715217" lon="10.76814"><ele>31.8</ele><time>2026-04-26T14:13:59.503Z</time></trkpt><trkpt lat="44.77162" lon="10.7682133"><ele>32.0</ele><time>2026-04-26T14:14:00.504Z</time></trkpt><trkpt lat="44.7717183" lon="10.7683033"><ele>32.0</ele><time>2026-04-26T14:14:01.503Z</time></trkpt><trkpt lat="44.7717967" lon="10.7684133"><ele>32.0</ele><time>2026-04-26T14:14:02.503Z</time></trkpt><trkpt lat="44.7718633" lon="10.7685"><ele>32.0</ele><time>2026-04-26T14:14:03.503Z</time></trkpt><trkpt lat="44.77192" lon="10.7685783"><ele>32.0</ele><time>2026-04-26T14:14:04.503Z</time></trkpt><trkpt lat="44.771995" lon="10.7686933"><ele>32.0</ele><time>2026-04-26T14:14:06.504Z</time></trkpt><trkpt lat="44.772085" lon="10.768705"><ele>32.0</ele><time>2026-04-26T14:14:08.504Z</time></trkpt><trkpt lat="44.77217" lon="10.76857"><ele>32.0</ele><time>2026-04-26T14:14:10.503Z</time></trkpt><trkpt lat="44.7722167" lon="10.7684567"><ele>32.0</ele><time>2026-04-26T14:14:11.503Z</time></trkpt><trkpt lat="44.772275" lon="10.7683283"><ele>32.0</ele><time>2026-04-26T14:14:12.503Z</time></trkpt><trkpt lat="44.772345" lon="10.7681883"><ele>32.0</ele><time>2026-04-26T14:14:13.503Z</time></trkpt><trkpt lat="44.77241" lon="10.7680567"><ele>32.0</ele><time>2026-04-26T14:14:14.503Z</time></trkpt><trkpt lat="44.772475" lon="10.76793"><ele>32.0</ele><time>2026-04-26T14:14:15.504Z</time></trkpt><trkpt lat="44.7725467" lon="10.7678067"><ele>32.0</ele><time>2026-04-26T14:14:16.503Z</time></trkpt><trkpt lat="44.7726167" lon="10.76768"><ele>31.5</ele><time>2026-04-26T14:14:17.503Z</time></trkpt><trkpt lat="44.77269" lon="10.76754"><ele>31.0</ele><time>2026-04-26T14:14:18.503Z</time></trkpt><trkpt lat="44.7727667" lon="10.7673983"><ele>30.5</ele><time>2026-04-26T14:14:19.503Z</time></trkpt><trkpt lat="44.7728383" lon="10.7672517"><ele>30.0</ele><time>2026-04-26T14:14:20.503Z</time></trkpt><trkpt lat="44.7729167" lon="10.7671017"><ele>30.0</ele><time>2026-04-26T14:14:21.503Z</time></trkpt><trkpt lat="44.7729917" lon="10.7669567"><ele>30.0</ele><time>2026-04-26T14:14:22.503Z</time></trkpt><trkpt lat="44.7730667" lon="10.7668033"><ele>30.0</ele><time>2026-04-26T14:14:23.504Z</time></trkpt><trkpt lat="44.7731433" lon="10.7666467"><ele>30.0</ele><time>2026-04-26T14:14:24.503Z</time></trkpt><trkpt lat="44.7732283" lon="10.7664917"><ele>30.0</ele><time>2026-04-26T14:14:25.503Z</time></trkpt><trkpt lat="44.7733133" lon="10.7663367"><ele>30.0</ele><time>2026-04-26T14:14:26.504Z</time></trkpt><trkpt lat="44.7733933" lon="10.7661733"><ele>30.0</ele><time>2026-04-26T14:14:27.503Z</time></trkpt><trkpt lat="44.7734833" lon="10.7660117"><ele>30.0</ele><time>2026-04-26T14:14:28.504Z</time></trkpt><trkpt lat="44.773575" lon="10.7658383"><ele>30.333333333333336</ele><time>2026-04-26T14:14:29.503Z</time></trkpt><trkpt lat="44.7736633" lon="10.76566"><ele>30.666666666666668</ele><time>2026-04-26T14:14:30.503Z</time></trkpt><trkpt lat="44.7737483" lon="10.7654833"><ele>31.0</ele><time>2026-04-26T14:14:31.503Z</time></trkpt><trkpt lat="44.773835" lon="10.7653067"><ele>30.0</ele><time>2026-04-26T14:14:32.503Z</time></trkpt><trkpt lat="44.7739217" lon="10.7651283"><ele>29.0</ele><time>2026-04-26T14:14:33.504Z</time></trkpt><trkpt lat="44.774015" lon="10.764955"><ele>28.0</ele><time>2026-04-26T14:14:34.503Z</time></trkpt><trkpt lat="44.774105" lon="10.764775"><ele>28.0</ele><time>2026-04-26T14:14:35.503Z</time></trkpt><trkpt lat="44.7742" lon="10.7645867"><ele>28.0</ele><time>2026-04-26T14:14:36.504Z</time></trkpt><trkpt lat="44.7742917" lon="10.764395"><ele>28.0</ele><time>2026-04-26T14:14:37.503Z</time></trkpt><trkpt lat="44.7743883" lon="10.7642"><ele>28.666666666666668</ele><time>2026-04-26T14:14:38.504Z</time></trkpt><trkpt lat="44.774485" lon="10.76401"><ele>29.333333333333336</ele><time>2026-04-26T14:14:39.503Z</time></trkpt><trkpt lat="44.77458" lon="10.7638083"><ele>30.0</ele><time>2026-04-26T14:14:40.504Z</time></trkpt><trkpt lat="44.7746717" lon="10.763605"><ele>30.0</ele><time>2026-04-26T14:14:41.503Z</time></trkpt><trkpt lat="44.7747617" lon="10.7634"><ele>30.0</ele><time>2026-04-26T14:14:42.503Z</time></trkpt><trkpt lat="44.774855" lon="10.7631867"><ele>30.0</ele><time>2026-04-26T14:14:43.504Z</time></trkpt><trkpt lat="44.7749533" lon="10.762965"><ele>30.0</ele><time>2026-04-26T14:14:44.504Z</time></trkpt><trkpt lat="44.77506" lon="10.762745"><ele>30.0</ele><time>2026-04-26T14:14:45.503Z</time></trkpt><trkpt lat="44.7751617" lon="10.7625383"><ele>30.0</ele><time>2026-04-26T14:14:46.503Z</time></trkpt><trkpt lat="44.7752567" lon="10.76234"><ele>30.0</ele><time>2026-04-26T14:14:47.504Z</time></trkpt><trkpt lat="44.77535" lon="10.7621433"><ele>30.0</ele><time>2026-04-26T14:14:48.503Z</time></trkpt><trkpt lat="44.7754383" lon="10.7619433"><ele>30.0</ele><time>2026-04-26T14:14:49.503Z</time></trkpt><trkpt lat="44.77551" lon="10.7617367"><ele>30.0</ele><time>2026-04-26T14:14:50.503Z</time></trkpt><trkpt lat="44.7755667" lon="10.7615333"><ele>30.0</ele><time>2026-04-26T14:14:51.504Z</time></trkpt><trkpt lat="44.7756133" lon="10.761315"><ele>30.0</ele><time>2026-04-26T14:14:52.504Z</time></trkpt><trkpt lat="44.7756683" lon="10.76109"><ele>30.0</ele><time>2026-04-26T14:14:53.503Z</time></trkpt><trkpt lat="44.7757267" lon="10.76086"><ele>30.0</ele><time>2026-04-26T14:14:54.503Z</time></trkpt><trkpt lat="44.77578" lon="10.7606233"><ele>30.0</ele><time>2026-04-26T14:14:55.504Z</time></trkpt><trkpt lat="44.77582" lon="10.7603833"><ele>30.0</ele><time>2026-04-26T14:14:56.503Z</time></trkpt><trkpt lat="44.77585" lon="10.76013"><ele>30.0</ele><time>2026-04-26T14:14:57.503Z</time></trkpt><trkpt lat="44.77587" lon="10.7598717"><ele>30.0</ele><time>2026-04-26T14:14:58.503Z</time></trkpt><trkpt lat="44.7758833" lon="10.7596133"><ele>30.0</ele><time>2026-04-26T14:14:59.504Z</time></trkpt><trkpt lat="44.7758983" lon="10.75938"><ele>30.0</ele><time>2026-04-26T14:15:00.503Z</time></trkpt><trkpt lat="44.7759117" lon="10.75916"><ele>30.0</ele><time>2026-04-26T14:15:01.504Z</time></trkpt><trkpt lat="44.7759267" lon="10.758935"><ele>30.0</ele><time>2026-04-26T14:15:02.503Z</time></trkpt><trkpt lat="44.7759383" lon="10.7587117"><ele>30.0</ele><time>2026-04-26T14:15:03.504Z</time></trkpt><trkpt lat="44.7759483" lon="10.7584883"><ele>30.0</ele><time>2026-04-26T14:15:04.503Z</time></trkpt><trkpt lat="44.7759617" lon="10.7582583"><ele>30.0</ele><time>2026-04-26T14:15:05.503Z</time></trkpt><trkpt lat="44.7759717" lon="10.758035"><ele>30.0</ele><time>2026-04-26T14:15:06.504Z</time></trkpt><trkpt lat="44.77598" lon="10.757805"><ele>30.0</ele><time>2026-04-26T14:15:07.504Z</time></trkpt><trkpt lat="44.7759883" lon="10.75758"><ele>30.0</ele><time>2026-04-26T14:15:08.504Z</time></trkpt><trkpt lat="44.7759983" lon="10.7573667"><ele>30.0</ele><time>2026-04-26T14:15:09.504Z</time></trkpt><trkpt lat="44.7760067" lon="10.7571733"><ele>30.0</ele><time>2026-04-26T14:15:10.504Z</time></trkpt><trkpt lat="44.77602" lon="10.7569883"><ele>30.0</ele><time>2026-04-26T14:15:11.504Z</time></trkpt><trkpt lat="44.7760233" lon="10.756815"><ele>29.666666666666668</ele><time>2026-04-26T14:15:12.504Z</time></trkpt><trkpt lat="44.7760283" lon="10.756665"><ele>29.333333333333336</ele><time>2026-04-26T14:15:13.504Z</time></trkpt><trkpt lat="44.7760267" lon="10.75653"><ele>29.0</ele><time>2026-04-26T14:15:14.503Z</time></trkpt><trkpt lat="44.7760267" lon="10.756415"><ele>28.666666666666668</ele><time>2026-04-26T14:15:15.504Z</time></trkpt><trkpt lat="44.7760333" lon="10.7563033"><ele>28.333333333333336</ele><time>2026-04-26T14:15:16.504Z</time></trkpt><trkpt lat="44.776045" lon="10.7562"><ele>28.0</ele><time>2026-04-26T14:15:17.504Z</time></trkpt><trkpt lat="44.77607" lon="10.7560883"><ele>28.0</ele><time>2026-04-26T14:15:18.504Z</time></trkpt><trkpt lat="44.7761233" lon="10.7559683"><ele>28.0</ele><time>2026-04-26T14:15:19.504Z</time></trkpt><trkpt lat="44.77621" lon="10.7558833"><ele>28.0</ele><time>2026-04-26T14:15:20.503Z</time></trkpt><trkpt lat="44.7763183" lon="10.7558167"><ele>28.0</ele><time>2026-04-26T14:15:21.503Z</time></trkpt><trkpt lat="44.7764483" lon="10.7557617"><ele>28.0</ele><time>2026-04-26T14:15:22.504Z</time></trkpt><trkpt lat="44.7765767" lon="10.7557083"><ele>28.0</ele><time>2026-04-26T14:15:23.504Z</time></trkpt><trkpt lat="44.7767167" lon="10.7556683"><ele>28.0</ele><time>2026-04-26T14:15:24.504Z</time></trkpt><trkpt lat="44.7768683" lon="10.755635"><ele>28.0</ele><time>2026-04-26T14:15:25.503Z</time></trkpt><trkpt lat="44.7770267" lon="10.7555917"><ele>28.0</ele><time>2026-04-26T14:15:26.503Z</time></trkpt><trkpt lat="44.7771967" lon="10.7555483"><ele>28.0</ele><time>2026-04-26T14:15:27.503Z</time></trkpt><trkpt lat="44.77737" lon="10.7554967"><ele>28.0</ele><time>2026-04-26T14:15:28.503Z</time></trkpt><trkpt lat="44.7775517" lon="10.7554283"><ele>28.0</ele><time>2026-04-26T14:15:29.504Z</time></trkpt><trkpt lat="44.7777417" lon="10.7553733"><ele>28.0</ele><time>2026-04-26T14:15:30.504Z</time></trkpt><trkpt lat="44.77793" lon="10.7553417"><ele>28.0</ele><time>2026-04-26T14:15:31.504Z</time></trkpt><trkpt lat="44.7781217" lon="10.7553283"><ele>28.0</ele><time>2026-04-26T14:15:32.503Z</time></trkpt><trkpt lat="44.778315" lon="10.7553033"><ele>28.0</ele><time>2026-04-26T14:15:33.503Z</time></trkpt><trkpt lat="44.7785117" lon="10.7552617"><ele>28.0</ele><time>2026-04-26T14:15:34.503Z</time></trkpt><trkpt lat="44.7787067" lon="10.7551833"><ele>28.333333333333336</ele><time>2026-04-26T14:15:35.504Z</time></trkpt><trkpt lat="44.7789" lon="10.7550933"><ele>28.666666666666664</ele><time>2026-04-26T14:15:36.504Z</time></trkpt><trkpt lat="44.7790983" lon="10.7550117"><ele>29.0</ele><time>2026-04-26T14:15:37.504Z</time></trkpt><trkpt lat="44.7792983" lon="10.7549367"><ele>29.333333333333332</ele><time>2026-04-26T14:15:38.503Z</time></trkpt><trkpt lat="44.7794983" lon="10.7548483"><ele>29.666666666666664</ele><time>2026-04-26T14:15:39.504Z</time></trkpt><trkpt lat="44.779695" lon="10.7547433"><ele>30.0</ele><time>2026-04-26T14:15:40.503Z</time></trkpt><trkpt lat="44.7798917" lon="10.7546283"><ele>30.0</ele><time>2026-04-26T14:15:41.504Z</time></trkpt><trkpt lat="44.7800783" lon="10.75453"><ele>30.0</ele><time>2026-04-26T14:15:42.503Z</time></trkpt><trkpt lat="44.7802817" lon="10.7544667"><ele>30.0</ele><time>2026-04-26T14:15:43.503Z</time></trkpt><trkpt lat="44.7804867" lon="10.7544233"><ele>30.0</ele><time>2026-04-26T14:15:44.504Z</time></trkpt><trkpt lat="44.7806883" lon="10.7543767"><ele>30.0</ele><time>2026-04-26T14:15:45.503Z</time></trkpt><trkpt lat="44.780885" lon="10.75433"><ele>30.0</ele><time>2026-04-26T14:15:46.503Z</time></trkpt><trkpt lat="44.781085" lon="10.7542867"><ele>29.666666666666664</ele><time>2026-04-26T14:15:47.504Z</time></trkpt><trkpt lat="44.7812767" lon="10.754245"><ele>29.333333333333332</ele><time>2026-04-26T14:15:48.504Z</time></trkpt><trkpt lat="44.7814733" lon="10.7541967"><ele>29.0</ele><time>2026-04-26T14:15:49.504Z</time></trkpt><trkpt lat="44.7816717" lon="10.7541517"><ele>29.0</ele><time>2026-04-26T14:15:50.503Z</time></trkpt><trkpt lat="44.7818683" lon="10.7541117"><ele>29.0</ele><time>2026-04-26T14:15:51.503Z</time></trkpt><trkpt lat="44.78207" lon="10.754065"><ele>29.0</ele><time>2026-04-26T14:15:52.503Z</time></trkpt><trkpt lat="44.7822667" lon="10.754015"><ele>29.0</ele><time>2026-04-26T14:15:53.503Z</time></trkpt><trkpt lat="44.7824683" lon="10.75397"><ele>29.0</ele><time>2026-04-26T14:15:54.503Z</time></trkpt><trkpt lat="44.7826717" lon="10.75394"><ele>29.0</ele><time>2026-04-26T14:15:55.504Z</time></trkpt><trkpt lat="44.782875" lon="10.7539183"><ele>29.0</ele><time>2026-04-26T14:15:56.503Z</time></trkpt><trkpt lat="44.7830817" lon="10.753905"><ele>29.0</ele><time>2026-04-26T14:15:57.503Z</time></trkpt><trkpt lat="44.78329" lon="10.7538933"><ele>29.0</ele><time>2026-04-26T14:15:58.504Z</time></trkpt><trkpt lat="44.783495" lon="10.753875"><ele>29.0</ele><time>2026-04-26T14:15:59.503Z</time></trkpt><trkpt lat="44.783705" lon="10.7538483"><ele>29.0</ele><time>2026-04-26T14:16:00.503Z</time></trkpt><trkpt lat="44.7839117" lon="10.75381"><ele>29.0</ele><time>2026-04-26T14:16:01.504Z</time></trkpt><trkpt lat="44.78411" lon="10.75377"><ele>29.0</ele><time>2026-04-26T14:16:02.503Z</time></trkpt><trkpt lat="44.784295" lon="10.753735"><ele>29.0</ele><time>2026-04-26T14:16:03.503Z</time></trkpt><trkpt lat="44.7844767" lon="10.7536983"><ele>29.0</ele><time>2026-04-26T14:16:04.504Z</time></trkpt><trkpt lat="44.7846483" lon="10.7536683"><ele>28.333333333333332</ele><time>2026-04-26T14:16:05.503Z</time></trkpt><trkpt lat="44.7848267" lon="10.753645"><ele>27.666666666666664</ele><time>2026-04-26T14:16:06.503Z</time></trkpt><trkpt lat="44.7849983" lon="10.753615"><ele>27.0</ele><time>2026-04-26T14:16:07.503Z</time></trkpt><trkpt lat="44.7851583" lon="10.7535833"><ele>28.0</ele><time>2026-04-26T14:16:08.503Z</time></trkpt><trkpt lat="44.7853067" lon="10.7535317"><ele>29.0</ele><time>2026-04-26T14:16:09.504Z</time></trkpt><trkpt lat="44.7854517" lon="10.753455"><ele>30.0</ele><time>2026-04-26T14:16:10.504Z</time></trkpt><trkpt lat="44.785595" lon="10.753365"><ele>30.0</ele><time>2026-04-26T14:16:11.504Z</time></trkpt><trkpt lat="44.78574" lon="10.7532733"><ele>30.0</ele><time>2026-04-26T14:16:12.504Z</time></trkpt><trkpt lat="44.7858767" lon="10.75318"><ele>30.0</ele><time>2026-04-26T14:16:13.504Z</time></trkpt><trkpt lat="44.7860067" lon="10.75308"><ele>30.333333333333336</ele><time>2026-04-26T14:16:14.503Z</time></trkpt><trkpt lat="44.7861433" lon="10.752975"><ele>30.666666666666668</ele><time>2026-04-26T14:16:15.504Z</time></trkpt><trkpt lat="44.7862783" lon="10.7528867"><ele>31.0</ele><time>2026-04-26T14:16:16.503Z</time></trkpt><trkpt lat="44.7864133" lon="10.7528033"><ele>31.0</ele><time>2026-04-26T14:16:17.504Z</time></trkpt><trkpt lat="44.786545" lon="10.7527267"><ele>31.0</ele><time>2026-04-26T14:16:18.503Z</time></trkpt><trkpt lat="44.78669" lon="10.752655"><ele>31.0</ele><time>2026-04-26T14:16:19.504Z</time></trkpt><trkpt lat="44.7868383" lon="10.7525783"><ele>30.0</ele><time>2026-04-26T14:16:20.504Z</time></trkpt><trkpt lat="44.7869967" lon="10.7524967"><ele>29.0</ele><time>2026-04-26T14:16:21.503Z</time></trkpt><trkpt lat="44.787155" lon="10.7524217"><ele>28.0</ele><time>2026-04-26T14:16:22.504Z</time></trkpt><trkpt lat="44.7873133" lon="10.7523383"><ele>28.0</ele><time>2026-04-26T14:16:23.503Z</time></trkpt><trkpt lat="44.78746" lon="10.7522467"><ele>28.0</ele><time>2026-04-26T14:16:24.504Z</time></trkpt><trkpt lat="44.787595" lon="10.7521433"><ele>28.0</ele><time>2026-04-26T14:16:25.503Z</time></trkpt><trkpt lat="44.7877333" lon="10.7520317"><ele>29.0</ele><time>2026-04-26T14:16:26.504Z</time></trkpt><trkpt lat="44.78787" lon="10.7519167"><ele>30.0</ele><time>2026-04-26T14:16:27.503Z</time></trkpt><trkpt lat="44.788005" lon="10.7518"><ele>31.0</ele><time>2026-04-26T14:16:28.503Z</time></trkpt><trkpt lat="44.7881383" lon="10.75169"><ele>30.666666666666668</ele><time>2026-04-26T14:16:29.503Z</time></trkpt><trkpt lat="44.7882717" lon="10.7515817"><ele>30.333333333333336</ele><time>2026-04-26T14:16:30.504Z</time></trkpt><trkpt lat="44.788405" lon="10.7514667"><ele>30.0</ele><time>2026-04-26T14:16:31.503Z</time></trkpt><trkpt lat="44.788535" lon="10.7513583"><ele>30.0</ele><time>2026-04-26T14:16:32.504Z</time></trkpt><trkpt lat="44.78866" lon="10.7512483"><ele>30.0</ele><time>2026-04-26T14:16:33.503Z</time></trkpt><trkpt lat="44.7887767" lon="10.7511467"><ele>30.0</ele><time>2026-04-26T14:16:34.503Z</time></trkpt><trkpt lat="44.788885" lon="10.7510533"><ele>30.0</ele><time>2026-04-26T14:16:35.503Z</time></trkpt><trkpt lat="44.7891" lon="10.7508817"><ele>30.0</ele><time>2026-04-26T14:16:37.503Z</time></trkpt><trkpt lat="44.7892117" lon="10.75082"><ele>30.0</ele><time>2026-04-26T14:16:38.503Z</time></trkpt><trkpt lat="44.7893333" lon="10.750765"><ele>30.0</ele><time>2026-04-26T14:16:39.504Z</time></trkpt><trkpt lat="44.7894817" lon="10.7507483"><ele>30.0</ele><time>2026-04-26T14:16:40.504Z</time></trkpt><trkpt lat="44.7896317" lon="10.75077"><ele>30.0</ele><time>2026-04-26T14:16:41.503Z</time></trkpt><trkpt lat="44.78978" lon="10.7508033"><ele>30.0</ele><time>2026-04-26T14:16:42.503Z</time></trkpt><trkpt lat="44.789915" lon="10.7508617"><ele>30.0</ele><time>2026-04-26T14:16:43.504Z</time></trkpt><trkpt lat="44.79004" lon="10.750915"><ele>30.0</ele><time>2026-04-26T14:16:44.503Z</time></trkpt><trkpt lat="44.7901567" lon="10.750955"><ele>30.0</ele><time>2026-04-26T14:16:45.504Z</time></trkpt><trkpt lat="44.790275" lon="10.7509933"><ele>30.0</ele><time>2026-04-26T14:16:46.503Z</time></trkpt><trkpt lat="44.7903867" lon="10.7510267"><ele>30.0</ele><time>2026-04-26T14:16:47.503Z</time></trkpt><trkpt lat="44.7904967" lon="10.7510783"><ele>30.0</ele><time>2026-04-26T14:16:48.503Z</time></trkpt><trkpt lat="44.7906083" lon="10.7511217"><ele>30.2</ele><time>2026-04-26T14:16:49.504Z</time></trkpt><trkpt lat="44.7907083" lon="10.75116"><ele>30.4</ele><time>2026-04-26T14:16:50.503Z</time></trkpt><trkpt lat="44.7908117" lon="10.7511883"><ele>30.6</ele><time>2026-04-26T14:16:51.504Z</time></trkpt><trkpt lat="44.790895" lon="10.7512117"><ele>30.8</ele><time>2026-04-26T14:16:52.503Z</time></trkpt><trkpt lat="44.79098" lon="10.7512367"><ele>31.0</ele><time>2026-04-26T14:16:53.503Z</time></trkpt><trkpt lat="44.7910683" lon="10.7512383"><ele>30.6</ele><time>2026-04-26T14:16:54.504Z</time></trkpt><trkpt lat="44.7911633" lon="10.7512383"><ele>30.200000000000003</ele><time>2026-04-26T14:16:55.504Z</time></trkpt><trkpt lat="44.791255" lon="10.7512317"><ele>29.799999999999997</ele><time>2026-04-26T14:16:56.504Z</time></trkpt><trkpt lat="44.791345" lon="10.7512217"><ele>29.4</ele><time>2026-04-26T14:16:57.504Z</time></trkpt><trkpt lat="44.7914383" lon="10.7512083"><ele>29.0</ele><time>2026-04-26T14:16:58.503Z</time></trkpt><trkpt lat="44.79154" lon="10.7511983"><ele>29.0</ele><time>2026-04-26T14:16:59.504Z</time></trkpt><trkpt lat="44.7916383" lon="10.751185"><ele>29.0</ele><time>2026-04-26T14:17:00.504Z</time></trkpt><trkpt lat="44.79174" lon="10.7511817"><ele>29.0</ele><time>2026-04-26T14:17:01.503Z</time></trkpt><trkpt lat="44.7918367" lon="10.7511783"><ele>29.0</ele><time>2026-04-26T14:17:02.503Z</time></trkpt><trkpt lat="44.791935" lon="10.7511817"><ele>29.0</ele><time>2026-04-26T14:17:03.504Z</time></trkpt><trkpt lat="44.7920317" lon="10.7511883"><ele>28.999999999999996</ele><time>2026-04-26T14:17:04.503Z</time></trkpt><trkpt lat="44.7921183" lon="10.7512067"><ele>29.0</ele><time>2026-04-26T14:17:05.503Z</time></trkpt><trkpt lat="44.792205" lon="10.75121"><ele>29.0</ele><time>2026-04-26T14:17:06.504Z</time></trkpt><trkpt lat="44.7922833" lon="10.7512167"><ele>29.0</ele><time>2026-04-26T14:17:07.503Z</time></trkpt><trkpt lat="44.7923667" lon="10.7512283"><ele>28.999999999999996</ele><time>2026-04-26T14:17:08.504Z</time></trkpt><trkpt lat="44.7924517" lon="10.7512333"><ele>29.0</ele><time>2026-04-26T14:17:09.503Z</time></trkpt><trkpt lat="44.792535" lon="10.7512383"><ele>28.999999999999996</ele><time>2026-04-26T14:17:10.504Z</time></trkpt><trkpt lat="44.7926217" lon="10.751245"><ele>29.0</ele><time>2026-04-26T14:17:11.503Z</time></trkpt><trkpt lat="44.7927083" lon="10.7512517"><ele>29.0</ele><time>2026-04-26T14:17:12.504Z</time></trkpt><trkpt lat="44.792785" lon="10.75126"><ele>29.0</ele><time>2026-04-26T14:17:13.503Z</time></trkpt><trkpt lat="44.7928617" lon="10.751265"><ele>28.999999999999996</ele><time>2026-04-26T14:17:14.504Z</time></trkpt><trkpt lat="44.79293" lon="10.75127"><ele>29.0</ele><time>2026-04-26T14:17:15.503Z</time></trkpt><trkpt lat="44.7929933" lon="10.7512683"><ele>29.166666666666664</ele><time>2026-04-26T14:17:16.504Z</time></trkpt><trkpt lat="44.7930583" lon="10.75127"><ele>29.333333333333332</ele><time>2026-04-26T14:17:17.504Z</time></trkpt><trkpt lat="44.793125" lon="10.751265"><ele>29.5</ele><time>2026-04-26T14:17:18.504Z</time></trkpt><trkpt lat="44.79319" lon="10.7512517"><ele>29.666666666666664</ele><time>2026-04-26T14:17:19.504Z</time></trkpt><trkpt lat="44.7932667" lon="10.75125"><ele>29.833333333333332</ele><time>2026-04-26T14:17:20.504Z</time></trkpt><trkpt lat="44.7933583" lon="10.751245"><ele>30.0</ele><time>2026-04-26T14:17:21.504Z</time></trkpt><trkpt lat="44.793455" lon="10.75124"><ele>29.75</ele><time>2026-04-26T14:17:22.503Z</time></trkpt><trkpt lat="44.793565" lon="10.751255"><ele>29.5</ele><time>2026-04-26T14:17:23.503Z</time></trkpt><trkpt lat="44.7936767" lon="10.7512617"><ele>29.25</ele><time>2026-04-26T14:17:24.504Z</time></trkpt><trkpt lat="44.7937933" lon="10.75124"><ele>29.0</ele><time>2026-04-26T14:17:25.504Z</time></trkpt><trkpt lat="44.793905" lon="10.7512183"><ele>29.0</ele><time>2026-04-26T14:17:26.504Z</time></trkpt><trkpt lat="44.794025" lon="10.751175"><ele>29.0</ele><time>2026-04-26T14:17:27.503Z</time></trkpt><trkpt lat="44.7941417" lon="10.751125"><ele>29.0</ele><time>2026-04-26T14:17:28.503Z</time></trkpt><trkpt lat="44.7942617" lon="10.7510667"><ele>29.0</ele><time>2026-04-26T14:17:29.504Z</time></trkpt><trkpt lat="44.7943983" lon="10.7509917"><ele>29.0</ele><time>2026-04-26T14:17:30.503Z</time></trkpt><trkpt lat="44.7945233" lon="10.7509033"><ele>29.0</ele><time>2026-04-26T14:17:31.504Z</time></trkpt><trkpt lat="44.7946467" lon="10.7508083"><ele>29.0</ele><time>2026-04-26T14:17:32.503Z</time></trkpt><trkpt lat="44.7947617" lon="10.7507167"><ele>29.0</ele><time>2026-04-26T14:17:33.504Z</time></trkpt><trkpt lat="44.7948667" lon="10.7506283"><ele>29.0</ele><time>2026-04-26T14:17:34.503Z</time></trkpt><trkpt lat="44.7949667" lon="10.7505417"><ele>29.0</ele><time>2026-04-26T14:17:35.503Z</time></trkpt><trkpt lat="44.7950583" lon="10.7504567"><ele>29.0</ele><time>2026-04-26T14:17:36.503Z</time></trkpt><trkpt lat="44.7951533" lon="10.7503633"><ele>29.0</ele><time>2026-04-26T14:17:37.503Z</time></trkpt><trkpt lat="44.79524" lon="10.75025"><ele>29.6</ele><time>2026-04-26T14:17:38.503Z</time></trkpt><trkpt lat="44.7953167" lon="10.7501417"><ele>30.2</ele><time>2026-04-26T14:17:39.504Z</time></trkpt><trkpt lat="44.7953767" lon="10.750035"><ele>30.800000000000004</ele><time>2026-04-26T14:17:40.504Z</time></trkpt><trkpt lat="44.795435" lon="10.74992"><ele>31.400000000000002</ele><time>2026-04-26T14:17:41.503Z</time></trkpt><trkpt lat="44.7954783" lon="10.749785"><ele>32.0</ele><time>2026-04-26T14:17:42.504Z</time></trkpt><trkpt lat="44.7955083" lon="10.74965"><ele>31.999999999999996</ele><time>2026-04-26T14:17:43.504Z</time></trkpt><trkpt lat="44.7955233" lon="10.7495267"><ele>32.0</ele><time>2026-04-26T14:17:44.503Z</time></trkpt><trkpt lat="44.7955283" lon="10.7494"><ele>32.0</ele><time>2026-04-26T14:17:45.503Z</time></trkpt><trkpt lat="44.7955183" lon="10.74929"><ele>32.0</ele><time>2026-04-26T14:17:46.503Z</time></trkpt><trkpt lat="44.7955117" lon="10.7492017"><ele>31.999999999999996</ele><time>2026-04-26T14:17:47.503Z</time></trkpt><trkpt lat="44.7955383" lon="10.749035"><ele>32.0</ele><time>2026-04-26T14:17:49.503Z</time></trkpt><trkpt lat="44.79564" lon="10.7489083"><ele>31.8</ele><time>2026-04-26T14:17:51.504Z</time></trkpt><trkpt lat="44.7957183" lon="10.7488683"><ele>31.6</ele><time>2026-04-26T14:17:52.503Z</time></trkpt><trkpt lat="44.7958133" lon="10.7488483"><ele>31.400000000000002</ele><time>2026-04-26T14:17:53.503Z</time></trkpt><trkpt lat="44.7959117" lon="10.748845"><ele>31.200000000000003</ele><time>2026-04-26T14:17:54.503Z</time></trkpt><trkpt lat="44.7960067" lon="10.7488417"><ele>31.0</ele><time>2026-04-26T14:17:55.503Z</time></trkpt><trkpt lat="44.7961017" lon="10.7488333"><ele>31.0</ele><time>2026-04-26T14:17:56.503Z</time></trkpt><trkpt lat="44.7962033" lon="10.74883"><ele>31.0</ele><time>2026-04-26T14:17:57.504Z</time></trkpt><trkpt lat="44.7963033" lon="10.74883"><ele>31.0</ele><time>2026-04-26T14:17:58.503Z</time></trkpt><trkpt lat="44.796405" lon="10.7488233"><ele>31.0</ele><time>2026-04-26T14:17:59.503Z</time></trkpt><trkpt lat="44.7965117" lon="10.748815"><ele>31.0</ele><time>2026-04-26T14:18:00.503Z</time></trkpt><trkpt lat="44.7966167" lon="10.7488117"><ele>31.0</ele><time>2026-04-26T14:18:01.503Z</time></trkpt><trkpt lat="44.79672" lon="10.7488167"><ele>31.0</ele><time>2026-04-26T14:18:02.503Z</time></trkpt><trkpt lat="44.796825" lon="10.74881"><ele>31.0</ele><time>2026-04-26T14:18:03.504Z</time></trkpt><trkpt lat="44.7969283" lon="10.7488133"><ele>31.0</ele><time>2026-04-26T14:18:04.504Z</time></trkpt><trkpt lat="44.7970383" lon="10.7488083"><ele>31.0</ele><time>2026-04-26T14:18:05.504Z</time></trkpt><trkpt lat="44.7971517" lon="10.7487917"><ele>30.6</ele><time>2026-04-26T14:18:06.504Z</time></trkpt><trkpt lat="44.7972567" lon="10.74877"><ele>30.200000000000003</ele><time>2026-04-26T14:18:07.503Z</time></trkpt><trkpt lat="44.7973483" lon="10.7487567"><ele>29.799999999999997</ele><time>2026-04-26T14:18:08.503Z</time></trkpt><trkpt lat="44.79744" lon="10.748745"><ele>29.4</ele><time>2026-04-26T14:18:09.504Z</time></trkpt><trkpt lat="44.7975283" lon="10.7487367"><ele>29.0</ele><time>2026-04-26T14:18:10.504Z</time></trkpt><trkpt lat="44.7976217" lon="10.74873"><ele>29.6</ele><time>2026-04-26T14:18:11.503Z</time></trkpt><trkpt lat="44.7977217" lon="10.7487217"><ele>30.2</ele><time>2026-04-26T14:18:12.504Z</time></trkpt><trkpt lat="44.7978233" lon="10.7487317"><ele>30.800000000000004</ele><time>2026-04-26T14:18:13.504Z</time></trkpt><trkpt lat="44.7979317" lon="10.7487433"><ele>31.400000000000002</ele><time>2026-04-26T14:18:14.503Z</time></trkpt><trkpt lat="44.79804" lon="10.748765"><ele>32.0</ele><time>2026-04-26T14:18:15.504Z</time></trkpt><trkpt lat="44.7981483" lon="10.748785"><ele>32.0</ele><time>2026-04-26T14:18:16.503Z</time></trkpt><trkpt lat="44.7982533" lon="10.7488133"><ele>32.0</ele><time>2026-04-26T14:18:17.503Z</time></trkpt><trkpt lat="44.79835" lon="10.74885"><ele>32.0</ele><time>2026-04-26T14:18:18.503Z</time></trkpt><trkpt lat="44.79844" lon="10.7488883"><ele>32.0</ele><time>2026-04-26T14:18:19.504Z</time></trkpt><trkpt lat="44.7985183" lon="10.7489267"><ele>32.0</ele><time>2026-04-26T14:18:20.504Z</time></trkpt><trkpt lat="44.7985867" lon="10.7489683"><ele>31.6</ele><time>2026-04-26T14:18:21.504Z</time></trkpt><trkpt lat="44.7986467" lon="10.7490067"><ele>31.200000000000003</ele><time>2026-04-26T14:18:22.503Z</time></trkpt><trkpt lat="44.7987483" lon="10.7491"><ele>30.8</ele><time>2026-04-26T14:18:24.503Z</time></trkpt><trkpt lat="44.7988283" lon="10.749185"><ele>30.4</ele><time>2026-04-26T14:18:26.504Z</time></trkpt><trkpt lat="44.798915" lon="10.749305"><ele>30.0</ele><time>2026-04-26T14:18:28.504Z</time></trkpt><trkpt lat="44.7989733" lon="10.749375"><ele>30.0</ele><time>2026-04-26T14:18:29.503Z</time></trkpt><trkpt lat="44.799035" lon="10.7494483"><ele>30.0</ele><time>2026-04-26T14:18:30.504Z</time></trkpt><trkpt lat="44.7991017" lon="10.7495233"><ele>30.0</ele><time>2026-04-26T14:18:31.504Z</time></trkpt><trkpt lat="44.7991767" lon="10.7496117"><ele>30.0</ele><time>2026-04-26T14:18:32.503Z</time></trkpt><trkpt lat="44.7992533" lon="10.7497017"><ele>30.0</ele><time>2026-04-26T14:18:33.503Z</time></trkpt><trkpt lat="44.7993433" lon="10.7498083"><ele>30.0</ele><time>2026-04-26T14:18:34.504Z</time></trkpt><trkpt lat="44.799425" lon="10.7499183"><ele>30.0</ele><time>2026-04-26T14:18:35.503Z</time></trkpt><trkpt lat="44.7995117" lon="10.7500233"><ele>30.0</ele><time>2026-04-26T14:18:36.504Z</time></trkpt><trkpt lat="44.7995917" lon="10.75014"><ele>30.0</ele><time>2026-04-26T14:18:37.504Z</time></trkpt><trkpt lat="44.79969" lon="10.7502483"><ele>30.0</ele><time>2026-04-26T14:18:38.504Z</time></trkpt><trkpt lat="44.79978" lon="10.7503767"><ele>30.0</ele><time>2026-04-26T14:18:39.503Z</time></trkpt><trkpt lat="44.7998683" lon="10.7504967"><ele>30.0</ele><time>2026-04-26T14:18:40.503Z</time></trkpt><trkpt lat="44.7999683" lon="10.750615"><ele>30.0</ele><time>2026-04-26T14:18:41.503Z</time></trkpt><trkpt lat="44.80006" lon="10.75073"><ele>30.0</ele><time>2026-04-26T14:18:42.503Z</time></trkpt><trkpt lat="44.80016" lon="10.7508417"><ele>30.0</ele><time>2026-04-26T14:18:43.504Z</time></trkpt><trkpt lat="44.8002517" lon="10.7509667"><ele>30.0</ele><time>2026-04-26T14:18:44.504Z</time></trkpt><trkpt lat="44.8003483" lon="10.7511"><ele>30.0</ele><time>2026-04-26T14:18:45.504Z</time></trkpt><trkpt lat="44.800445" lon="10.7512267"><ele>30.5</ele><time>2026-04-26T14:18:46.504Z</time></trkpt><trkpt lat="44.8005467" lon="10.7513517"><ele>31.0</ele><time>2026-04-26T14:18:47.504Z</time></trkpt><trkpt lat="44.800645" lon="10.75148"><ele>31.5</ele><time>2026-04-26T14:18:48.504Z</time></trkpt><trkpt lat="44.8007483" lon="10.7516117"><ele>32.0</ele><time>2026-04-26T14:18:49.504Z</time></trkpt><trkpt lat="44.80085" lon="10.7517433"><ele>32.0</ele><time>2026-04-26T14:18:50.504Z</time></trkpt><trkpt lat="44.8009517" lon="10.7518817"><ele>32.0</ele><time>2026-04-26T14:18:51.503Z</time></trkpt><trkpt lat="44.8010467" lon="10.75203"><ele>32.0</ele><time>2026-04-26T14:18:52.503Z</time></trkpt><trkpt lat="44.8011417" lon="10.7521833"><ele>32.0</ele><time>2026-04-26T14:18:53.504Z</time></trkpt><trkpt lat="44.8012333" lon="10.7523467"><ele>31.0</ele><time>2026-04-26T14:18:54.503Z</time></trkpt><trkpt lat="44.8013233" lon="10.75251"><ele>30.0</ele><time>2026-04-26T14:18:55.503Z</time></trkpt><trkpt lat="44.8014067" lon="10.75267"><ele>29.0</ele><time>2026-04-26T14:18:56.503Z</time></trkpt><trkpt lat="44.801485" lon="10.75284"><ele>28.0</ele><time>2026-04-26T14:18:57.503Z</time></trkpt><trkpt lat="44.8015667" lon="10.75301"><ele>28.0</ele><time>2026-04-26T14:18:58.503Z</time></trkpt><trkpt lat="44.8016517" lon="10.753175"><ele>28.0</ele><time>2026-04-26T14:18:59.504Z</time></trkpt><trkpt lat="44.8017483" lon="10.7533367"><ele>28.0</ele><time>2026-04-26T14:19:00.502Z</time></trkpt><trkpt lat="44.801845" lon="10.75349"><ele>28.0</ele><time>2026-04-26T14:19:01.502Z</time></trkpt><trkpt lat="44.80194" lon="10.753635"><ele>28.0</ele><time>2026-04-26T14:19:02.502Z</time></trkpt><trkpt lat="44.8020317" lon="10.75377"><ele>28.0</ele><time>2026-04-26T14:19:03.503Z</time></trkpt><trkpt lat="44.8021217" lon="10.7539017"><ele>28.0</ele><time>2026-04-26T14:19:04.503Z</time></trkpt><trkpt lat="44.80221" lon="10.7540433"><ele>28.0</ele><time>2026-04-26T14:19:05.503Z</time></trkpt><trkpt lat="44.8023" lon="10.754185"><ele>28.0</ele><time>2026-04-26T14:19:06.503Z</time></trkpt><trkpt lat="44.80239" lon="10.754325"><ele>28.0</ele><time>2026-04-26T14:19:07.503Z</time></trkpt><trkpt lat="44.8024833" lon="10.7544633"><ele>28.0</ele><time>2026-04-26T14:19:08.503Z</time></trkpt><trkpt lat="44.8025733" lon="10.7546033"><ele>28.0</ele><time>2026-04-26T14:19:09.503Z</time></trkpt><trkpt lat="44.802655" lon="10.7547317"><ele>27.75</ele><time>2026-04-26T14:19:10.503Z</time></trkpt><trkpt lat="44.802735" lon="10.754855"><ele>27.5</ele><time>2026-04-26T14:19:11.503Z</time></trkpt><trkpt lat="44.8028167" lon="10.7549783"><ele>27.25</ele><time>2026-04-26T14:19:12.502Z</time></trkpt><trkpt lat="44.8028983" lon="10.7550967"><ele>27.0</ele><time>2026-04-26T14:19:13.503Z</time></trkpt><trkpt lat="44.8029817" lon="10.7552083"><ele>27.6</ele><time>2026-04-26T14:19:14.503Z</time></trkpt><trkpt lat="44.8030633" lon="10.755315"><ele>28.200000000000003</ele><time>2026-04-26T14:19:15.502Z</time></trkpt><trkpt lat="44.8031467" lon="10.7554083"><ele>28.8</ele><time>2026-04-26T14:19:16.503Z</time></trkpt><trkpt lat="44.8032283" lon="10.75549"><ele>29.4</ele><time>2026-04-26T14:19:17.503Z</time></trkpt><trkpt lat="44.8033183" lon="10.7555667"><ele>30.0</ele><time>2026-04-26T14:19:18.503Z</time></trkpt><trkpt lat="44.8034183" lon="10.7556333"><ele>30.0</ele><time>2026-04-26T14:19:19.502Z</time></trkpt><trkpt lat="44.8035267" lon="10.75569"><ele>30.0</ele><time>2026-04-26T14:19:20.503Z</time></trkpt><trkpt lat="44.803635" lon="10.7557467"><ele>30.0</ele><time>2026-04-26T14:19:21.503Z</time></trkpt><trkpt lat="44.803745" lon="10.7558117"><ele>30.0</ele><time>2026-04-26T14:19:22.503Z</time></trkpt><trkpt lat="44.803855" lon="10.7558767"><ele>30.0</ele><time>2026-04-26T14:19:23.503Z</time></trkpt><trkpt lat="44.803975" lon="10.7559467"><ele>30.0</ele><time>2026-04-26T14:19:24.503Z</time></trkpt><trkpt lat="44.8040967" lon="10.7560067"><ele>30.0</ele><time>2026-04-26T14:19:25.502Z</time></trkpt><trkpt lat="44.804205" lon="10.7560683"><ele>30.0</ele><time>2026-04-26T14:19:26.502Z</time></trkpt><trkpt lat="44.80431" lon="10.756125"><ele>30.0</ele><time>2026-04-26T14:19:27.503Z</time></trkpt><trkpt lat="44.8044133" lon="10.7561833"><ele>30.0</ele><time>2026-04-26T14:19:28.503Z</time></trkpt><trkpt lat="44.8045167" lon="10.7562383"><ele>30.0</ele><time>2026-04-26T14:19:29.502Z</time></trkpt><trkpt lat="44.80462" lon="10.7562933"><ele>30.0</ele><time>2026-04-26T14:19:30.503Z</time></trkpt><trkpt lat="44.804725" lon="10.7563517"><ele>30.0</ele><time>2026-04-26T14:19:31.503Z</time></trkpt><trkpt lat="44.80483" lon="10.756415"><ele>30.0</ele><time>2026-04-26T14:19:32.502Z</time></trkpt><trkpt lat="44.804935" lon="10.756485"><ele>30.0</ele><time>2026-04-26T14:19:33.502Z</time></trkpt><trkpt lat="44.80504" lon="10.7565483"><ele>30.0</ele><time>2026-04-26T14:19:34.503Z</time></trkpt><trkpt lat="44.805135" lon="10.7566067"><ele>30.0</ele><time>2026-04-26T14:19:35.502Z</time></trkpt><trkpt lat="44.8052317" lon="10.75666"><ele>30.0</ele><time>2026-04-26T14:19:36.502Z</time></trkpt><trkpt lat="44.805325" lon="10.7567133"><ele>30.0</ele><time>2026-04-26T14:19:37.502Z</time></trkpt><trkpt lat="44.80541" lon="10.756765"><ele>30.0</ele><time>2026-04-26T14:19:38.503Z</time></trkpt><trkpt lat="44.8054983" lon="10.75682"><ele>30.0</ele><time>2026-04-26T14:19:39.502Z</time></trkpt><trkpt lat="44.8055867" lon="10.756875"><ele>30.0</ele><time>2026-04-26T14:19:40.502Z</time></trkpt><trkpt lat="44.805675" lon="10.7569283"><ele>30.0</ele><time>2026-04-26T14:19:41.503Z</time></trkpt><trkpt lat="44.805765" lon="10.7569983"><ele>29.75</ele><time>2026-04-26T14:19:42.503Z</time></trkpt><trkpt lat="44.805865" lon="10.7570667"><ele>29.5</ele><time>2026-04-26T14:19:43.503Z</time></trkpt><trkpt lat="44.80597" lon="10.757135"><ele>29.25</ele><time>2026-04-26T14:19:44.503Z</time></trkpt><trkpt lat="44.8060783" lon="10.757205"><ele>29.0</ele><time>2026-04-26T14:19:45.503Z</time></trkpt><trkpt lat="44.8061867" lon="10.757275"><ele>29.0</ele><time>2026-04-26T14:19:46.503Z</time></trkpt><trkpt lat="44.8063017" lon="10.75735"><ele>29.0</ele><time>2026-04-26T14:19:47.502Z</time></trkpt><trkpt lat="44.8064167" lon="10.7574367"><ele>29.0</ele><time>2026-04-26T14:19:48.502Z</time></trkpt><trkpt lat="44.806535" lon="10.7575367"><ele>29.0</ele><time>2026-04-26T14:19:49.502Z</time></trkpt><trkpt lat="44.80665" lon="10.757645"><ele>29.0</ele><time>2026-04-26T14:19:50.502Z</time></trkpt><trkpt lat="44.80677" lon="10.7577567"><ele>29.0</ele><time>2026-04-26T14:19:51.502Z</time></trkpt><trkpt lat="44.806885" lon="10.757885"><ele>29.0</ele><time>2026-04-26T14:19:52.503Z</time></trkpt><trkpt lat="44.8069983" lon="10.7580183"><ele>29.0</ele><time>2026-04-26T14:19:53.502Z</time></trkpt><trkpt lat="44.8071233" lon="10.7581417"><ele>29.25</ele><time>2026-04-26T14:19:54.502Z</time></trkpt><trkpt lat="44.8072533" lon="10.75825"><ele>29.5</ele><time>2026-04-26T14:19:55.503Z</time></trkpt><trkpt lat="44.8073783" lon="10.7583467"><ele>29.75</ele><time>2026-04-26T14:19:56.502Z</time></trkpt><trkpt lat="44.8074983" lon="10.758445"><ele>30.0</ele><time>2026-04-26T14:19:57.503Z</time></trkpt><trkpt lat="44.8076183" lon="10.7585383"><ele>29.75</ele><time>2026-04-26T14:19:58.503Z</time></trkpt><trkpt lat="44.8077283" lon="10.7586233"><ele>29.5</ele><time>2026-04-26T14:19:59.502Z</time></trkpt><trkpt lat="44.8078383" lon="10.758715"><ele>29.25</ele><time>2026-04-26T14:20:00.502Z</time></trkpt><trkpt lat="44.80794" lon="10.758795"><ele>29.0</ele><time>2026-04-26T14:20:01.502Z</time></trkpt><trkpt lat="44.808045" lon="10.7588733"><ele>29.0</ele><time>2026-04-26T14:20:02.502Z</time></trkpt><trkpt lat="44.8081533" lon="10.7589367"><ele>29.0</ele><time>2026-04-26T14:20:03.503Z</time></trkpt><trkpt lat="44.808265" lon="10.759"><ele>29.0</ele><time>2026-04-26T14:20:04.502Z</time></trkpt><trkpt lat="44.8083783" lon="10.7590483"><ele>29.0</ele><time>2026-04-26T14:20:05.502Z</time></trkpt><trkpt lat="44.8084917" lon="10.7590817"><ele>29.0</ele><time>2026-04-26T14:20:06.502Z</time></trkpt><trkpt lat="44.8086133" lon="10.759085"><ele>29.0</ele><time>2026-04-26T14:20:07.503Z</time></trkpt><trkpt lat="44.80873" lon="10.759085"><ele>29.0</ele><time>2026-04-26T14:20:08.503Z</time></trkpt><trkpt lat="44.8088567" lon="10.7590783"><ele>29.0</ele><time>2026-04-26T14:20:09.503Z</time></trkpt><trkpt lat="44.8089883" lon="10.75907"><ele>29.0</ele><time>2026-04-26T14:20:10.502Z</time></trkpt><trkpt lat="44.8091083" lon="10.7590533"><ele>29.0</ele><time>2026-04-26T14:20:11.502Z</time></trkpt><trkpt lat="44.8092283" lon="10.7590367"><ele>29.0</ele><time>2026-04-26T14:20:12.503Z</time></trkpt><trkpt lat="44.8093483" lon="10.7590167"><ele>29.0</ele><time>2026-04-26T14:20:13.502Z</time></trkpt><trkpt lat="44.80947" lon="10.758995"><ele>28.75</ele><time>2026-04-26T14:20:14.502Z</time></trkpt><trkpt lat="44.8095967" lon="10.7589767"><ele>28.5</ele><time>2026-04-26T14:20:15.503Z</time></trkpt><trkpt lat="44.80973" lon="10.75897"><ele>28.25</ele><time>2026-04-26T14:20:16.503Z</time></trkpt><trkpt lat="44.809865" lon="10.7589733"><ele>28.0</ele><time>2026-04-26T14:20:17.503Z</time></trkpt><trkpt lat="44.8100033" lon="10.759"><ele>28.0</ele><time>2026-04-26T14:20:18.502Z</time></trkpt><trkpt lat="44.8101367" lon="10.7590467"><ele>28.0</ele><time>2026-04-26T14:20:19.502Z</time></trkpt><trkpt lat="44.8102717" lon="10.7590933"><ele>28.0</ele><time>2026-04-26T14:20:20.503Z</time></trkpt><trkpt lat="44.810405" lon="10.7591533"><ele>28.0</ele><time>2026-04-26T14:20:21.503Z</time></trkpt><trkpt lat="44.8105317" lon="10.7592167"><ele>28.25</ele><time>2026-04-26T14:20:22.503Z</time></trkpt><trkpt lat="44.8106633" lon="10.7592933"><ele>28.5</ele><time>2026-04-26T14:20:23.502Z</time></trkpt><trkpt lat="44.8107933" lon="10.759375"><ele>28.75</ele><time>2026-04-26T14:20:24.502Z</time></trkpt><trkpt lat="44.8109167" lon="10.7594533"><ele>29.0</ele><time>2026-04-26T14:20:25.503Z</time></trkpt><trkpt lat="44.8110417" lon="10.7595317"><ele>29.0</ele><time>2026-04-26T14:20:26.502Z</time></trkpt><trkpt lat="44.81116" lon="10.7595883"><ele>29.0</ele><time>2026-04-26T14:20:27.503Z</time></trkpt><trkpt lat="44.8112667" lon="10.7596317"><ele>29.0</ele><time>2026-04-26T14:20:28.503Z</time></trkpt><trkpt lat="44.811375" lon="10.75966"><ele>29.0</ele><time>2026-04-26T14:20:29.503Z</time></trkpt><trkpt lat="44.8114867" lon="10.759675"><ele>29.0</ele><time>2026-04-26T14:20:30.502Z</time></trkpt><trkpt lat="44.8116017" lon="10.7596767"><ele>29.0</ele><time>2026-04-26T14:20:31.502Z</time></trkpt><trkpt lat="44.8117267" lon="10.75965"><ele>29.0</ele><time>2026-04-26T14:20:32.502Z</time></trkpt><trkpt lat="44.8118433" lon="10.7595883"><ele>29.0</ele><time>2026-04-26T14:20:33.503Z</time></trkpt><trkpt lat="44.81195" lon="10.759495"><ele>28.75</ele><time>2026-04-26T14:20:34.503Z</time></trkpt><trkpt lat="44.8120517" lon="10.7593917"><ele>28.5</ele><time>2026-04-26T14:20:35.503Z</time></trkpt><trkpt lat="44.81216" lon="10.759285"><ele>28.25</ele><time>2026-04-26T14:20:36.502Z</time></trkpt><trkpt lat="44.8122783" lon="10.7591933"><ele>28.0</ele><time>2026-04-26T14:20:37.502Z</time></trkpt><trkpt lat="44.8124117" lon="10.7591467"><ele>27.666666666666668</ele><time>2026-04-26T14:20:38.503Z</time></trkpt><trkpt lat="44.8125533" lon="10.7591133"><ele>27.333333333333336</ele><time>2026-04-26T14:20:39.502Z</time></trkpt><trkpt lat="44.8127017" lon="10.7590883"><ele>27.0</ele><time>2026-04-26T14:20:40.503Z</time></trkpt><trkpt lat="44.8128617" lon="10.75909"><ele>27.666666666666664</ele><time>2026-04-26T14:20:41.503Z</time></trkpt><trkpt lat="44.8130367" lon="10.7591067"><ele>28.333333333333332</ele><time>2026-04-26T14:20:42.502Z</time></trkpt><trkpt lat="44.813215" lon="10.7591333"><ele>29.0</ele><time>2026-04-26T14:20:43.503Z</time></trkpt><trkpt lat="44.8134" lon="10.7591583"><ele>28.333333333333332</ele><time>2026-04-26T14:20:44.503Z</time></trkpt><trkpt lat="44.8135917" lon="10.7591917"><ele>27.666666666666664</ele><time>2026-04-26T14:20:45.503Z</time></trkpt><trkpt lat="44.8137833" lon="10.7592233"><ele>27.0</ele><time>2026-04-26T14:20:46.502Z</time></trkpt><trkpt lat="44.8139783" lon="10.7592533"><ele>27.0</ele><time>2026-04-26T14:20:47.503Z</time></trkpt><trkpt lat="44.81416" lon="10.759285"><ele>27.0</ele><time>2026-04-26T14:20:48.503Z</time></trkpt><trkpt lat="44.8143383" lon="10.75933"><ele>27.0</ele><time>2026-04-26T14:20:49.503Z</time></trkpt><trkpt lat="44.8145117" lon="10.7593817"><ele>27.333333333333336</ele><time>2026-04-26T14:20:50.502Z</time></trkpt><trkpt lat="44.81468" lon="10.7594417"><ele>27.666666666666668</ele><time>2026-04-26T14:20:51.503Z</time></trkpt><trkpt lat="44.8148567" lon="10.7594983"><ele>28.0</ele><time>2026-04-26T14:20:52.503Z</time></trkpt><trkpt lat="44.81503" lon="10.7595617"><ele>28.0</ele><time>2026-04-26T14:20:53.503Z</time></trkpt><trkpt lat="44.8151917" lon="10.7596167"><ele>28.0</ele><time>2026-04-26T14:20:54.502Z</time></trkpt><trkpt lat="44.8153433" lon="10.7596667"><ele>28.0</ele><time>2026-04-26T14:20:55.503Z</time></trkpt><trkpt lat="44.8154817" lon="10.7596983"><ele>28.0</ele><time>2026-04-26T14:20:56.503Z</time></trkpt><trkpt lat="44.8156183" lon="10.7597367"><ele>27.999999999999996</ele><time>2026-04-26T14:20:57.502Z</time></trkpt><trkpt lat="44.815735" lon="10.7597617"><ele>27.999999999999996</ele><time>2026-04-26T14:20:58.503Z</time></trkpt><trkpt lat="44.815825" lon="10.75978"><ele>28.0</ele><time>2026-04-26T14:20:59.502Z</time></trkpt><trkpt lat="44.81589" lon="10.7597983"><ele>28.0</ele><time>2026-04-26T14:21:00.502Z</time></trkpt><trkpt lat="44.815965" lon="10.75991"><ele>28.000000000000004</ele><time>2026-04-26T14:21:02.502Z</time></trkpt><trkpt lat="44.815965" lon="10.7601017"><ele>28.0</ele><time>2026-04-26T14:21:04.502Z</time></trkpt><trkpt lat="44.8159617" lon="10.7602133"><ele>28.0</ele><time>2026-04-26T14:21:05.503Z</time></trkpt><trkpt lat="44.8159633" lon="10.76032"><ele>28.0</ele><time>2026-04-26T14:21:06.503Z</time></trkpt><trkpt lat="44.81596" lon="10.7604217"><ele>28.000000000000004</ele><time>2026-04-26T14:21:07.503Z</time></trkpt><trkpt lat="44.8159517" lon="10.7605217"><ele>28.0</ele><time>2026-04-26T14:21:08.503Z</time></trkpt><trkpt lat="44.81594" lon="10.7606283"><ele>28.4</ele><time>2026-04-26T14:21:09.502Z</time></trkpt><trkpt lat="44.8159233" lon="10.7607417"><ele>28.799999999999997</ele><time>2026-04-26T14:21:10.502Z</time></trkpt><trkpt lat="44.81589" lon="10.7608717"><ele>29.2</ele><time>2026-04-26T14:21:11.503Z</time></trkpt><trkpt lat="44.815855" lon="10.76101"><ele>29.6</ele><time>2026-04-26T14:21:12.502Z</time></trkpt><trkpt lat="44.8158183" lon="10.761155"><ele>30.0</ele><time>2026-04-26T14:21:13.502Z</time></trkpt><trkpt lat="44.8157667" lon="10.7613017"><ele>30.25</ele><time>2026-04-26T14:21:14.502Z</time></trkpt><trkpt lat="44.8157083" lon="10.76145"><ele>30.5</ele><time>2026-04-26T14:21:15.502Z</time></trkpt><trkpt lat="44.8156417" lon="10.7615933"><ele>30.75</ele><time>2026-04-26T14:21:16.502Z</time></trkpt><trkpt lat="44.8155633" lon="10.7617383"><ele>31.0</ele><time>2026-04-26T14:21:17.502Z</time></trkpt><trkpt lat="44.815475" lon="10.7618883"><ele>30.25</ele><time>2026-04-26T14:21:18.502Z</time></trkpt><trkpt lat="44.8153867" lon="10.7620383"><ele>29.5</ele><time>2026-04-26T14:21:19.503Z</time></trkpt><trkpt lat="44.8153" lon="10.7621933"><ele>28.75</ele><time>2026-04-26T14:21:20.503Z</time></trkpt><trkpt lat="44.8152083" lon="10.7623533"><ele>28.0</ele><time>2026-04-26T14:21:21.502Z</time></trkpt><trkpt lat="44.8151117" lon="10.76252"><ele>28.0</ele><time>2026-04-26T14:21:22.503Z</time></trkpt><trkpt lat="44.8150183" lon="10.7626933"><ele>28.0</ele><time>2026-04-26T14:21:23.503Z</time></trkpt><trkpt lat="44.814925" lon="10.76286"><ele>28.0</ele><time>2026-04-26T14:21:24.502Z</time></trkpt><trkpt lat="44.81483" lon="10.7630133"><ele>28.0</ele><time>2026-04-26T14:21:25.502Z</time></trkpt><trkpt lat="44.8147367" lon="10.7631733"><ele>28.25</ele><time>2026-04-26T14:21:26.502Z</time></trkpt><trkpt lat="44.8146383" lon="10.7633317"><ele>28.5</ele><time>2026-04-26T14:21:27.502Z</time></trkpt><trkpt lat="44.8145417" lon="10.7634817"><ele>28.75</ele><time>2026-04-26T14:21:28.502Z</time></trkpt><trkpt lat="44.8144467" lon="10.763635"><ele>29.0</ele><time>2026-04-26T14:21:29.502Z</time></trkpt><trkpt lat="44.8143467" lon="10.7637867"><ele>29.25</ele><time>2026-04-26T14:21:30.502Z</time></trkpt><trkpt lat="44.81425" lon="10.7639383"><ele>29.5</ele><time>2026-04-26T14:21:31.502Z</time></trkpt><trkpt lat="44.8141567" lon="10.76409"><ele>29.75</ele><time>2026-04-26T14:21:32.503Z</time></trkpt><trkpt lat="44.814065" lon="10.7642333"><ele>30.0</ele><time>2026-04-26T14:21:33.502Z</time></trkpt><trkpt lat="44.8139783" lon="10.7643833"><ele>30.0</ele><time>2026-04-26T14:21:34.503Z</time></trkpt><trkpt lat="44.813905" lon="10.7645333"><ele>30.0</ele><time>2026-04-26T14:21:35.502Z</time></trkpt><trkpt lat="44.8138333" lon="10.76468"><ele>30.0</ele><time>2026-04-26T14:21:36.502Z</time></trkpt><trkpt lat="44.8137667" lon="10.7648267"><ele>30.0</ele><time>2026-04-26T14:21:37.503Z</time></trkpt><trkpt lat="44.8137083" lon="10.764975"><ele>30.0</ele><time>2026-04-26T14:21:38.503Z</time></trkpt><trkpt lat="44.8136667" lon="10.7651283"><ele>30.0</ele><time>2026-04-26T14:21:39.502Z</time></trkpt><trkpt lat="44.8136467" lon="10.7652867"><ele>30.0</ele><time>2026-04-26T14:21:40.503Z</time></trkpt><trkpt lat="44.8136467" lon="10.7654567"><ele>30.0</ele><time>2026-04-26T14:21:41.502Z</time></trkpt><trkpt lat="44.813635" lon="10.7656267"><ele>29.5</ele><time>2026-04-26T14:21:42.503Z</time></trkpt><trkpt lat="44.81362" lon="10.7657917"><ele>29.0</ele><time>2026-04-26T14:21:43.503Z</time></trkpt><trkpt lat="44.8135867" lon="10.765955"><ele>28.5</ele><time>2026-04-26T14:21:44.502Z</time></trkpt><trkpt lat="44.8135483" lon="10.76612"><ele>28.0</ele><time>2026-04-26T14:21:45.503Z</time></trkpt><trkpt lat="44.8134983" lon="10.766285"><ele>28.0</ele><time>2026-04-26T14:21:46.503Z</time></trkpt><trkpt lat="44.8134367" lon="10.7664483"><ele>28.0</ele><time>2026-04-26T14:21:47.503Z</time></trkpt><trkpt lat="44.81337" lon="10.7666083"><ele>28.0</ele><time>2026-04-26T14:21:48.502Z</time></trkpt><trkpt lat="44.8132983" lon="10.7667633"><ele>28.0</ele><time>2026-04-26T14:21:49.502Z</time></trkpt><trkpt lat="44.8132267" lon="10.7669067"><ele>27.5</ele><time>2026-04-26T14:21:50.503Z</time></trkpt><trkpt lat="44.81316" lon="10.767055"><ele>27.0</ele><time>2026-04-26T14:21:51.503Z</time></trkpt><trkpt lat="44.8130917" lon="10.767205"><ele>26.5</ele><time>2026-04-26T14:21:52.502Z</time></trkpt><trkpt lat="44.8130317" lon="10.7673533"><ele>26.0</ele><time>2026-04-26T14:21:53.503Z</time></trkpt><trkpt lat="44.81296" lon="10.767505"><ele>26.0</ele><time>2026-04-26T14:21:54.502Z</time></trkpt><trkpt lat="44.8128883" lon="10.7676617"><ele>26.0</ele><time>2026-04-26T14:21:55.503Z</time></trkpt><trkpt lat="44.8128067" lon="10.7678183"><ele>26.0</ele><time>2026-04-26T14:21:56.502Z</time></trkpt><trkpt lat="44.812735" lon="10.7679883"><ele>26.0</ele><time>2026-04-26T14:21:57.502Z</time></trkpt><trkpt lat="44.8126683" lon="10.768165"><ele>26.0</ele><time>2026-04-26T14:21:58.502Z</time></trkpt><trkpt lat="44.8126133" lon="10.7683633"><ele>26.0</ele><time>2026-04-26T14:21:59.502Z</time></trkpt><trkpt lat="44.8125767" lon="10.7685583"><ele>26.0</ele><time>2026-04-26T14:22:00.502Z</time></trkpt><trkpt lat="44.8125483" lon="10.7687517"><ele>26.0</ele><time>2026-04-26T14:22:01.502Z</time></trkpt><trkpt lat="44.81252" lon="10.76894"><ele>26.25</ele><time>2026-04-26T14:22:02.503Z</time></trkpt><trkpt lat="44.8124917" lon="10.769115"><ele>26.5</ele><time>2026-04-26T14:22:03.502Z</time></trkpt><trkpt lat="44.812465" lon="10.76929"><ele>26.75</ele><time>2026-04-26T14:22:04.502Z</time></trkpt><trkpt lat="44.8124367" lon="10.769455"><ele>27.0</ele><time>2026-04-26T14:22:05.502Z</time></trkpt><trkpt lat="44.8124033" lon="10.7696117"><ele>27.0</ele><time>2026-04-26T14:22:06.503Z</time></trkpt><trkpt lat="44.8123817" lon="10.7697567"><ele>27.000000000000004</ele><time>2026-04-26T14:22:07.503Z</time></trkpt><trkpt lat="44.81236" lon="10.7699033"><ele>27.000000000000004</ele><time>2026-04-26T14:22:08.503Z</time></trkpt><trkpt lat="44.8123417" lon="10.77006"><ele>27.0</ele><time>2026-04-26T14:22:09.502Z</time></trkpt><trkpt lat="44.812315" lon="10.7702167"><ele>27.0</ele><time>2026-04-26T14:22:10.502Z</time></trkpt><trkpt lat="44.8122883" lon="10.7703767"><ele>27.0</ele><time>2026-04-26T14:22:11.502Z</time></trkpt><trkpt lat="44.8122667" lon="10.77055"><ele>27.0</ele><time>2026-04-26T14:22:12.502Z</time></trkpt><trkpt lat="44.8122417" lon="10.7707283"><ele>27.0</ele><time>2026-04-26T14:22:13.502Z</time></trkpt><trkpt lat="44.8122167" lon="10.7709033"><ele>27.0</ele><time>2026-04-26T14:22:14.502Z</time></trkpt><trkpt lat="44.8121967" lon="10.77107"><ele>27.25</ele><time>2026-04-26T14:22:15.502Z</time></trkpt><trkpt lat="44.81217" lon="10.7712283"><ele>27.5</ele><time>2026-04-26T14:22:16.503Z</time></trkpt><trkpt lat="44.8121567" lon="10.771395"><ele>27.75</ele><time>2026-04-26T14:22:17.502Z</time></trkpt><trkpt lat="44.8121317" lon="10.7715617"><ele>28.0</ele><time>2026-04-26T14:22:18.503Z</time></trkpt><trkpt lat="44.8121067" lon="10.7717333"><ele>27.5</ele><time>2026-04-26T14:22:19.503Z</time></trkpt><trkpt lat="44.8120833" lon="10.7718983"><ele>27.0</ele><time>2026-04-26T14:22:20.502Z</time></trkpt><trkpt lat="44.812055" lon="10.7720667"><ele>26.5</ele><time>2026-04-26T14:22:21.503Z</time></trkpt><trkpt lat="44.8120367" lon="10.77224"><ele>26.0</ele><time>2026-04-26T14:22:22.503Z</time></trkpt><trkpt lat="44.8120167" lon="10.772415"><ele>26.0</ele><time>2026-04-26T14:22:23.503Z</time></trkpt><trkpt lat="44.811995" lon="10.7725933"><ele>26.0</ele><time>2026-04-26T14:22:24.502Z</time></trkpt><trkpt lat="44.8119733" lon="10.7727733"><ele>26.0</ele><time>2026-04-26T14:22:25.503Z</time></trkpt><trkpt lat="44.8119483" lon="10.7729617"><ele>26.0</ele><time>2026-04-26T14:22:26.502Z</time></trkpt><trkpt lat="44.8119233" lon="10.7731433"><ele>26.0</ele><time>2026-04-26T14:22:27.503Z</time></trkpt><trkpt lat="44.8119067" lon="10.77332"><ele>26.0</ele><time>2026-04-26T14:22:28.502Z</time></trkpt><trkpt lat="44.8118967" lon="10.7734933"><ele>26.0</ele><time>2026-04-26T14:22:29.503Z</time></trkpt><trkpt lat="44.8118833" lon="10.77365"><ele>26.0</ele><time>2026-04-26T14:22:30.503Z</time></trkpt><trkpt lat="44.8118667" lon="10.7737917"><ele>26.200000000000003</ele><time>2026-04-26T14:22:31.503Z</time></trkpt><trkpt lat="44.8118533" lon="10.7739183"><ele>26.400000000000002</ele><time>2026-04-26T14:22:32.502Z</time></trkpt><trkpt lat="44.8118367" lon="10.7740333"><ele>26.6</ele><time>2026-04-26T14:22:33.502Z</time></trkpt><trkpt lat="44.8118267" lon="10.7741483"><ele>26.8</ele><time>2026-04-26T14:22:34.502Z</time></trkpt><trkpt lat="44.8118133" lon="10.7742533"><ele>27.0</ele><time>2026-04-26T14:22:35.502Z</time></trkpt><trkpt lat="44.8117733" lon="10.7744117"><ele>27.0</ele><time>2026-04-26T14:22:37.502Z</time></trkpt><trkpt lat="44.81172" lon="10.7745567"><ele>27.0</ele><time>2026-04-26T14:22:39.503Z</time></trkpt><trkpt lat="44.8116867" lon="10.77464"><ele>27.0</ele><time>2026-04-26T14:22:40.502Z</time></trkpt><trkpt lat="44.8116367" lon="10.7747267"><ele>27.0</ele><time>2026-04-26T14:22:41.503Z</time></trkpt><trkpt lat="44.8115867" lon="10.774825"><ele>27.0</ele><time>2026-04-26T14:22:42.502Z</time></trkpt><trkpt lat="44.8115317" lon="10.77493"><ele>27.0</ele><time>2026-04-26T14:22:43.502Z</time></trkpt><trkpt lat="44.8114633" lon="10.775035"><ele>27.0</ele><time>2026-04-26T14:22:44.503Z</time></trkpt><trkpt lat="44.8113933" lon="10.7751433"><ele>27.000000000000004</ele><time>2026-04-26T14:22:45.502Z</time></trkpt><trkpt lat="44.81132" lon="10.7752533"><ele>27.000000000000004</ele><time>2026-04-26T14:22:46.502Z</time></trkpt><trkpt lat="44.811245" lon="10.7753667"><ele>27.0</ele><time>2026-04-26T14:22:47.502Z</time></trkpt><trkpt lat="44.811175" lon="10.7754783"><ele>27.0</ele><time>2026-04-26T14:22:48.503Z</time></trkpt><trkpt lat="44.8110983" lon="10.7755933"><ele>27.25</ele><time>2026-04-26T14:22:49.503Z</time></trkpt><trkpt lat="44.8110167" lon="10.7757117"><ele>27.5</ele><time>2026-04-26T14:22:50.502Z</time></trkpt><trkpt lat="44.8109317" lon="10.7758417"><ele>27.75</ele><time>2026-04-26T14:22:51.502Z</time></trkpt><trkpt lat="44.8108367" lon="10.7759783"><ele>28.0</ele><time>2026-04-26T14:22:52.502Z</time></trkpt><trkpt lat="44.8107233" lon="10.7761167"><ele>28.0</ele><time>2026-04-26T14:22:53.503Z</time></trkpt><trkpt lat="44.810605" lon="10.7762533"><ele>28.0</ele><time>2026-04-26T14:22:54.502Z</time></trkpt><trkpt lat="44.8104833" lon="10.7764067"><ele>28.0</ele><time>2026-04-26T14:22:55.502Z</time></trkpt><trkpt lat="44.81037" lon="10.7765633"><ele>28.0</ele><time>2026-04-26T14:22:56.502Z</time></trkpt><trkpt lat="44.8102683" lon="10.7767233"><ele>28.0</ele><time>2026-04-26T14:22:57.502Z</time></trkpt><trkpt lat="44.8101717" lon="10.7768917"><ele>28.0</ele><time>2026-04-26T14:22:58.502Z</time></trkpt><trkpt lat="44.810085" lon="10.7770567"><ele>27.5</ele><time>2026-04-26T14:22:59.502Z</time></trkpt><trkpt lat="44.8100117" lon="10.7772167"><ele>27.0</ele><time>2026-04-26T14:23:00.502Z</time></trkpt><trkpt lat="44.8099433" lon="10.7773817"><ele>26.5</ele><time>2026-04-26T14:23:01.503Z</time></trkpt><trkpt lat="44.8099067" lon="10.777555"><ele>26.0</ele><time>2026-04-26T14:23:02.502Z</time></trkpt><trkpt lat="44.8098967" lon="10.7777417"><ele>25.75</ele><time>2026-04-26T14:23:03.503Z</time></trkpt><trkpt lat="44.8099083" lon="10.7779417"><ele>25.5</ele><time>2026-04-26T14:23:04.503Z</time></trkpt><trkpt lat="44.8099383" lon="10.7781433"><ele>25.25</ele><time>2026-04-26T14:23:05.502Z</time></trkpt><trkpt lat="44.80998" lon="10.778345"><ele>25.0</ele><time>2026-04-26T14:23:06.502Z</time></trkpt><trkpt lat="44.81004" lon="10.7785517"><ele>24.666666666666668</ele><time>2026-04-26T14:23:07.503Z</time></trkpt><trkpt lat="44.8100917" lon="10.7787717"><ele>24.333333333333336</ele><time>2026-04-26T14:23:08.502Z</time></trkpt><trkpt lat="44.8101317" lon="10.77899"><ele>24.0</ele><time>2026-04-26T14:23:09.502Z</time></trkpt><trkpt lat="44.8101583" lon="10.7792217"><ele>24.0</ele><time>2026-04-26T14:23:10.502Z</time></trkpt><trkpt lat="44.8101833" lon="10.7794567"><ele>24.0</ele><time>2026-04-26T14:23:11.502Z</time></trkpt><trkpt lat="44.810205" lon="10.77969"><ele>24.0</ele><time>2026-04-26T14:23:12.503Z</time></trkpt><trkpt lat="44.810225" lon="10.7799117"><ele>24.0</ele><time>2026-04-26T14:23:13.502Z</time></trkpt><trkpt lat="44.8102383" lon="10.7801233"><ele>24.0</ele><time>2026-04-26T14:23:14.503Z</time></trkpt><trkpt lat="44.8102283" lon="10.780335"><ele>24.0</ele><time>2026-04-26T14:23:15.503Z</time></trkpt><trkpt lat="44.8101967" lon="10.7805533"><ele>24.333333333333336</ele><time>2026-04-26T14:23:16.503Z</time></trkpt><trkpt lat="44.8101317" lon="10.7807617"><ele>24.666666666666668</ele><time>2026-04-26T14:23:17.503Z</time></trkpt><trkpt lat="44.81005" lon="10.7809767"><ele>25.0</ele><time>2026-04-26T14:23:18.502Z</time></trkpt><trkpt lat="44.8099683" lon="10.7811733"><ele>25.0</ele><time>2026-04-26T14:23:19.502Z</time></trkpt><trkpt lat="44.8099017" lon="10.781355"><ele>25.0</ele><time>2026-04-26T14:23:20.503Z</time></trkpt><trkpt lat="44.8098233" lon="10.7815133"><ele>25.0</ele><time>2026-04-26T14:23:21.502Z</time></trkpt><trkpt lat="44.8097483" lon="10.78166"><ele>25.0</ele><time>2026-04-26T14:23:22.503Z</time></trkpt><trkpt lat="44.8096767" lon="10.7818067"><ele>25.0</ele><time>2026-04-26T14:23:23.502Z</time></trkpt><trkpt lat="44.809605" lon="10.7819467"><ele>25.0</ele><time>2026-04-26T14:23:24.502Z</time></trkpt><trkpt lat="44.809535" lon="10.782075"><ele>25.0</ele><time>2026-04-26T14:23:25.503Z</time></trkpt><trkpt lat="44.8094717" lon="10.7821933"><ele>25.0</ele><time>2026-04-26T14:23:26.502Z</time></trkpt><trkpt lat="44.80942" lon="10.78231"><ele>25.0</ele><time>2026-04-26T14:23:27.503Z</time></trkpt><trkpt lat="44.8093717" lon="10.7824167"><ele>24.833333333333336</ele><time>2026-04-26T14:23:28.503Z</time></trkpt><trkpt lat="44.8093217" lon="10.7825133"><ele>24.666666666666668</ele><time>2026-04-26T14:23:29.502Z</time></trkpt><trkpt lat="44.8092717" lon="10.7825967"><ele>24.5</ele><time>2026-04-26T14:23:30.503Z</time></trkpt><trkpt lat="44.809205" lon="10.7826567"><ele>24.333333333333336</ele><time>2026-04-26T14:23:31.503Z</time></trkpt><trkpt lat="44.8091383" lon="10.7827217"><ele>24.166666666666668</ele><time>2026-04-26T14:23:32.503Z</time></trkpt><trkpt lat="44.8090833" lon="10.782795"><ele>24.0</ele><time>2026-04-26T14:23:33.502Z</time></trkpt><trkpt lat="44.809055" lon="10.7828783"><ele>24.0</ele><time>2026-04-26T14:23:34.502Z</time></trkpt><trkpt lat="44.8090467" lon="10.7829733"><ele>24.0</ele><time>2026-04-26T14:23:35.502Z</time></trkpt><trkpt lat="44.8090633" lon="10.783075"><ele>24.0</ele><time>2026-04-26T14:23:36.502Z</time></trkpt><trkpt lat="44.80911" lon="10.7831567"><ele>24.0</ele><time>2026-04-26T14:23:37.503Z</time></trkpt><trkpt lat="44.80918" lon="10.783205"><ele>24.0</ele><time>2026-04-26T14:23:38.502Z</time></trkpt><trkpt lat="44.8092683" lon="10.78323"><ele>24.0</ele><time>2026-04-26T14:23:39.503Z</time></trkpt><trkpt lat="44.8093783" lon="10.783235"><ele>24.25</ele><time>2026-04-26T14:23:40.503Z</time></trkpt><trkpt lat="44.8095017" lon="10.7832533"><ele>24.5</ele><time>2026-04-26T14:23:41.503Z</time></trkpt><trkpt lat="44.8096267" lon="10.7832933"><ele>24.75</ele><time>2026-04-26T14:23:42.503Z</time></trkpt><trkpt lat="44.809755" lon="10.7833633"><ele>25.0</ele><time>2026-04-26T14:23:43.503Z</time></trkpt><trkpt lat="44.8098883" lon="10.783445"><ele>25.0</ele><time>2026-04-26T14:23:44.502Z</time></trkpt><trkpt lat="44.81003" lon="10.783515"><ele>25.0</ele><time>2026-04-26T14:23:45.503Z</time></trkpt><trkpt lat="44.8101833" lon="10.7836083"><ele>25.0</ele><time>2026-04-26T14:23:46.503Z</time></trkpt><trkpt lat="44.8103333" lon="10.7837017"><ele>25.0</ele><time>2026-04-26T14:23:47.502Z</time></trkpt><trkpt lat="44.8104833" lon="10.7838033"><ele>25.0</ele><time>2026-04-26T14:23:48.502Z</time></trkpt><trkpt lat="44.8106517" lon="10.7839183"><ele>25.0</ele><time>2026-04-26T14:23:49.502Z</time></trkpt><trkpt lat="44.8108383" lon="10.784035"><ele>25.0</ele><time>2026-04-26T14:23:50.503Z</time></trkpt><trkpt lat="44.811035" lon="10.7841617"><ele>25.0</ele><time>2026-04-26T14:23:51.502Z</time></trkpt><trkpt lat="44.8112433" lon="10.7842983"><ele>25.0</ele><time>2026-04-26T14:23:52.502Z</time></trkpt><trkpt lat="44.811465" lon="10.7844333"><ele>25.0</ele><time>2026-04-26T14:23:53.503Z</time></trkpt><trkpt lat="44.811695" lon="10.7845733"><ele>25.0</ele><time>2026-04-26T14:23:54.503Z</time></trkpt><trkpt lat="44.8119383" lon="10.7847133"><ele>25.0</ele><time>2026-04-26T14:23:55.502Z</time></trkpt><trkpt lat="44.8121867" lon="10.7848567"><ele>25.0</ele><time>2026-04-26T14:23:56.502Z</time></trkpt><trkpt lat="44.8124417" lon="10.7850067"><ele>24.5</ele><time>2026-04-26T14:23:57.502Z</time></trkpt><trkpt lat="44.8126983" lon="10.78515"><ele>24.0</ele><time>2026-04-26T14:23:58.503Z</time></trkpt><trkpt lat="44.81295" lon="10.7852867"><ele>24.0</ele><time>2026-04-26T14:23:59.503Z</time></trkpt><trkpt lat="44.8132" lon="10.7854217"><ele>24.0</ele><time>2026-04-26T14:24:00.503Z</time></trkpt><trkpt lat="44.81344" lon="10.78555"><ele>23.0</ele><time>2026-04-26T14:24:01.502Z</time></trkpt><trkpt lat="44.8136633" lon="10.7856767"><ele>22.0</ele><time>2026-04-26T14:24:02.502Z</time></trkpt><trkpt lat="44.8138833" lon="10.785805"><ele>22.0</ele><time>2026-04-26T14:24:03.503Z</time></trkpt><trkpt lat="44.814095" lon="10.7859267"><ele>22.0</ele><time>2026-04-26T14:24:04.502Z</time></trkpt><trkpt lat="44.814315" lon="10.7860383"><ele>23.0</ele><time>2026-04-26T14:24:05.502Z</time></trkpt><trkpt lat="44.814545" lon="10.7861617"><ele>24.0</ele><time>2026-04-26T14:24:06.502Z</time></trkpt><trkpt lat="44.814765" lon="10.7862867"><ele>24.0</ele><time>2026-04-26T14:24:07.503Z</time></trkpt><trkpt lat="44.8149867" lon="10.7864167"><ele>24.0</ele><time>2026-04-26T14:24:08.503Z</time></trkpt><trkpt lat="44.8152183" lon="10.7865583"><ele>23.5</ele><time>2026-04-26T14:24:09.502Z</time></trkpt><trkpt lat="44.8154483" lon="10.786685"><ele>23.0</ele><time>2026-04-26T14:24:10.503Z</time></trkpt><trkpt lat="44.815675" lon="10.7868317"><ele>23.0</ele><time>2026-04-26T14:24:11.502Z</time></trkpt><trkpt lat="44.8159" lon="10.7869783"><ele>23.0</ele><time>2026-04-26T14:24:12.503Z</time></trkpt><trkpt lat="44.8161283" lon="10.787115"><ele>23.0</ele><time>2026-04-26T14:24:13.503Z</time></trkpt><trkpt lat="44.81636" lon="10.7872483"><ele>23.0</ele><time>2026-04-26T14:24:14.503Z</time></trkpt><trkpt lat="44.8165817" lon="10.787375"><ele>23.0</ele><time>2026-04-26T14:24:15.503Z</time></trkpt><trkpt lat="44.8167867" lon="10.787495"><ele>23.0</ele><time>2026-04-26T14:24:16.503Z</time></trkpt><trkpt lat="44.8169917" lon="10.7876033"><ele>23.0</ele><time>2026-04-26T14:24:17.502Z</time></trkpt><trkpt lat="44.8171933" lon="10.7877117"><ele>23.0</ele><time>2026-04-26T14:24:18.502Z</time></trkpt><trkpt lat="44.81738" lon="10.78781"><ele>23.0</ele><time>2026-04-26T14:24:19.503Z</time></trkpt><trkpt lat="44.8175533" lon="10.787905"><ele>23.0</ele><time>2026-04-26T14:24:20.503Z</time></trkpt><trkpt lat="44.8177117" lon="10.7879917"><ele>22.75</ele><time>2026-04-26T14:24:21.502Z</time></trkpt><trkpt lat="44.81786" lon="10.7880667"><ele>22.5</ele><time>2026-04-26T14:24:22.502Z</time></trkpt><trkpt lat="44.8179967" lon="10.7881333"><ele>22.25</ele><time>2026-04-26T14:24:23.503Z</time></trkpt><trkpt lat="44.818115" lon="10.788195"><ele>22.0</ele><time>2026-04-26T14:24:24.502Z</time></trkpt><trkpt lat="44.818225" lon="10.7882617"><ele>22.0</ele><time>2026-04-26T14:24:25.502Z</time></trkpt><trkpt lat="44.81841" lon="10.7884267"><ele>22.0</ele><time>2026-04-26T14:24:27.502Z</time></trkpt><trkpt lat="44.8184933" lon="10.7885333"><ele>22.0</ele><time>2026-04-26T14:24:28.502Z</time></trkpt><trkpt lat="44.8185883" lon="10.7886333"><ele>22.0</ele><time>2026-04-26T14:24:29.502Z</time></trkpt><trkpt lat="44.8187083" lon="10.7887117"><ele>22.0</ele><time>2026-04-26T14:24:30.502Z</time></trkpt><trkpt lat="44.81883" lon="10.7888033"><ele>22.0</ele><time>2026-04-26T14:24:31.502Z</time></trkpt><trkpt lat="44.8189533" lon="10.78892"><ele>22.0</ele><time>2026-04-26T14:24:32.503Z</time></trkpt><trkpt lat="44.81908" lon="10.78904"><ele>22.0</ele><time>2026-04-26T14:24:33.502Z</time></trkpt><trkpt lat="44.819205" lon="10.7891517"><ele>22.0</ele><time>2026-04-26T14:24:34.503Z</time></trkpt><trkpt lat="44.8193467" lon="10.789255"><ele>22.0</ele><time>2026-04-26T14:24:35.503Z</time></trkpt><trkpt lat="44.819495" lon="10.7893533"><ele>21.666666666666664</ele><time>2026-04-26T14:24:36.503Z</time></trkpt><trkpt lat="44.81965" lon="10.7894367"><ele>21.333333333333332</ele><time>2026-04-26T14:24:37.503Z</time></trkpt><trkpt lat="44.819795" lon="10.789515"><ele>21.0</ele><time>2026-04-26T14:24:38.502Z</time></trkpt><trkpt lat="44.8199283" lon="10.7895783"><ele>21.0</ele><time>2026-04-26T14:24:39.502Z</time></trkpt><trkpt lat="44.8200567" lon="10.78964"><ele>21.0</ele><time>2026-04-26T14:24:40.502Z</time></trkpt><trkpt lat="44.8201767" lon="10.789695"><ele>21.0</ele><time>2026-04-26T14:24:41.502Z</time></trkpt><trkpt lat="44.8202933" lon="10.7897433"><ele>21.0</ele><time>2026-04-26T14:24:42.503Z</time></trkpt><trkpt lat="44.8204083" lon="10.7897967"><ele>21.0</ele><time>2026-04-26T14:24:43.502Z</time></trkpt><trkpt lat="44.82053" lon="10.78986"><ele>21.0</ele><time>2026-04-26T14:24:44.503Z</time></trkpt><trkpt lat="44.8206483" lon="10.789915"><ele>21.0</ele><time>2026-04-26T14:24:45.502Z</time></trkpt><trkpt lat="44.82076" lon="10.7899633"><ele>21.0</ele><time>2026-04-26T14:24:46.503Z</time></trkpt><trkpt lat="44.8208583" lon="10.79001"><ele>21.0</ele><time>2026-04-26T14:24:47.502Z</time></trkpt><trkpt lat="44.8209517" lon="10.7900483"><ele>21.0</ele><time>2026-04-26T14:24:48.502Z</time></trkpt><trkpt lat="44.8210283" lon="10.790095"><ele>21.0</ele><time>2026-04-26T14:24:49.502Z</time></trkpt><trkpt lat="44.821095" lon="10.7901467"><ele>21.0</ele><time>2026-04-26T14:24:50.502Z</time></trkpt><trkpt lat="44.8211633" lon="10.790225"><ele>21.0</ele><time>2026-04-26T14:24:52.503Z</time></trkpt><trkpt lat="44.8212083" lon="10.7903333"><ele>21.0</ele><time>2026-04-26T14:24:56.503Z</time></trkpt><trkpt lat="44.8212383" lon="10.7904667"><ele>21.6</ele><time>2026-04-26T14:24:58.502Z</time></trkpt><trkpt lat="44.8212333" lon="10.7906383"><ele>22.200000000000003</ele><time>2026-04-26T14:25:00.502Z</time></trkpt><trkpt lat="44.8212" lon="10.7908"><ele>22.799999999999997</ele><time>2026-04-26T14:25:02.503Z</time></trkpt><trkpt lat="44.8211567" lon="10.7909517"><ele>23.4</ele><time>2026-04-26T14:25:04.502Z</time></trkpt><trkpt lat="44.8211317" lon="10.7910483"><ele>24.0</ele><time>2026-04-26T14:25:05.502Z</time></trkpt><trkpt lat="44.8211033" lon="10.7911583"><ele>24.0</ele><time>2026-04-26T14:25:06.503Z</time></trkpt><trkpt lat="44.821075" lon="10.79127"><ele>24.0</ele><time>2026-04-26T14:25:07.502Z</time></trkpt><trkpt lat="44.821045" lon="10.7913867"><ele>24.0</ele><time>2026-04-26T14:25:08.503Z</time></trkpt><trkpt lat="44.8210133" lon="10.7915083"><ele>24.0</ele><time>2026-04-26T14:25:09.503Z</time></trkpt><trkpt lat="44.82097" lon="10.7916383"><ele>24.0</ele><time>2026-04-26T14:25:10.503Z</time></trkpt><trkpt lat="44.8209317" lon="10.791775"><ele>23.799999999999997</ele><time>2026-04-26T14:25:11.502Z</time></trkpt><trkpt lat="44.8208933" lon="10.7919117"><ele>23.599999999999998</ele><time>2026-04-26T14:25:12.503Z</time></trkpt><trkpt lat="44.8208617" lon="10.7920583"><ele>23.4</ele><time>2026-04-26T14:25:13.502Z</time></trkpt><trkpt lat="44.820825" lon="10.7922133"><ele>23.2</ele><time>2026-04-26T14:25:14.502Z</time></trkpt><trkpt lat="44.820785" lon="10.79237"><ele>23.0</ele><time>2026-04-26T14:25:15.503Z</time></trkpt><trkpt lat="44.820745" lon="10.7925317"><ele>23.0</ele><time>2026-04-26T14:25:16.502Z</time></trkpt><trkpt lat="44.82071" lon="10.7926983"><ele>23.0</ele><time>2026-04-26T14:25:17.503Z</time></trkpt><trkpt lat="44.820675" lon="10.7928683"><ele>23.0</ele><time>2026-04-26T14:25:18.503Z</time></trkpt><trkpt lat="44.8206383" lon="10.7930433"><ele>23.0</ele><time>2026-04-26T14:25:19.503Z</time></trkpt><trkpt lat="44.8206017" lon="10.793225"><ele>23.0</ele><time>2026-04-26T14:25:20.502Z</time></trkpt><trkpt lat="44.820565" lon="10.7934117"><ele>23.0</ele><time>2026-04-26T14:25:21.503Z</time></trkpt><trkpt lat="44.820525" lon="10.7936017"><ele>23.0</ele><time>2026-04-26T14:25:22.502Z</time></trkpt><trkpt lat="44.8204817" lon="10.7937883"><ele>23.0</ele><time>2026-04-26T14:25:23.502Z</time></trkpt><trkpt lat="44.8204333" lon="10.7939717"><ele>22.75</ele><time>2026-04-26T14:25:24.503Z</time></trkpt><trkpt lat="44.8203917" lon="10.7941567"><ele>22.5</ele><time>2026-04-26T14:25:25.502Z</time></trkpt><trkpt lat="44.8203517" lon="10.7943417"><ele>22.25</ele><time>2026-04-26T14:25:26.503Z</time></trkpt><trkpt lat="44.82031" lon="10.7945317"><ele>22.0</ele><time>2026-04-26T14:25:27.503Z</time></trkpt><trkpt lat="44.82027" lon="10.79472"><ele>22.0</ele><time>2026-04-26T14:25:28.502Z</time></trkpt><trkpt lat="44.82023" lon="10.7949117"><ele>22.0</ele><time>2026-04-26T14:25:29.503Z</time></trkpt><trkpt lat="44.8201883" lon="10.7951017"><ele>22.0</ele><time>2026-04-26T14:25:30.503Z</time></trkpt><trkpt lat="44.8201467" lon="10.79529"><ele>22.0</ele><time>2026-04-26T14:25:31.503Z</time></trkpt><trkpt lat="44.8201067" lon="10.79548"><ele>22.0</ele><time>2026-04-26T14:25:32.502Z</time></trkpt><trkpt lat="44.8200617" lon="10.7956717"><ele>22.0</ele><time>2026-04-26T14:25:33.503Z</time></trkpt><trkpt lat="44.8200217" lon="10.7958667"><ele>22.0</ele><time>2026-04-26T14:25:34.502Z</time></trkpt><trkpt lat="44.8199817" lon="10.7960533"><ele>22.0</ele><time>2026-04-26T14:25:35.502Z</time></trkpt><trkpt lat="44.819935" lon="10.7962383"><ele>21.75</ele><time>2026-04-26T14:25:36.503Z</time></trkpt><trkpt lat="44.819895" lon="10.79643"><ele>21.5</ele><time>2026-04-26T14:25:37.502Z</time></trkpt><trkpt lat="44.8198567" lon="10.7966133"><ele>21.25</ele><time>2026-04-26T14:25:38.502Z</time></trkpt><trkpt lat="44.8198183" lon="10.796795"><ele>21.0</ele><time>2026-04-26T14:25:39.502Z</time></trkpt><trkpt lat="44.8197817" lon="10.7969717"><ele>21.5</ele><time>2026-04-26T14:25:40.502Z</time></trkpt><trkpt lat="44.8197433" lon="10.79716"><ele>22.0</ele><time>2026-04-26T14:25:41.503Z</time></trkpt><trkpt lat="44.8197033" lon="10.797345"><ele>22.5</ele><time>2026-04-26T14:25:42.502Z</time></trkpt><trkpt lat="44.8196617" lon="10.7975283"><ele>23.0</ele><time>2026-04-26T14:25:43.502Z</time></trkpt><trkpt lat="44.81962" lon="10.7977183"><ele>23.0</ele><time>2026-04-26T14:25:44.502Z</time></trkpt><trkpt lat="44.819575" lon="10.797905"><ele>23.0</ele><time>2026-04-26T14:25:45.503Z</time></trkpt><trkpt lat="44.8195267" lon="10.7981083"><ele>23.0</ele><time>2026-04-26T14:25:46.503Z</time></trkpt><trkpt lat="44.819475" lon="10.7983267"><ele>22.666666666666668</ele><time>2026-04-26T14:25:47.503Z</time></trkpt><trkpt lat="44.81943" lon="10.7985317"><ele>22.333333333333332</ele><time>2026-04-26T14:25:48.502Z</time></trkpt><trkpt lat="44.8193867" lon="10.7987367"><ele>22.0</ele><time>2026-04-26T14:25:49.502Z</time></trkpt><trkpt lat="44.819345" lon="10.7989467"><ele>22.0</ele><time>2026-04-26T14:25:50.502Z</time></trkpt><trkpt lat="44.8193" lon="10.7991633"><ele>22.0</ele><time>2026-04-26T14:25:51.503Z</time></trkpt><trkpt lat="44.8192483" lon="10.7993817"><ele>22.0</ele><time>2026-04-26T14:25:52.503Z</time></trkpt><trkpt lat="44.819195" lon="10.7995967"><ele>22.0</ele><time>2026-04-26T14:25:53.503Z</time></trkpt><trkpt lat="44.8191433" lon="10.7998233"><ele>22.0</ele><time>2026-04-26T14:25:54.503Z</time></trkpt><trkpt lat="44.8190917" lon="10.8000483"><ele>22.0</ele><time>2026-04-26T14:25:55.503Z</time></trkpt><trkpt lat="44.8190367" lon="10.8002717"><ele>22.0</ele><time>2026-04-26T14:25:56.503Z</time></trkpt><trkpt lat="44.8189867" lon="10.80049"><ele>22.0</ele><time>2026-04-26T14:25:57.503Z</time></trkpt><trkpt lat="44.8189383" lon="10.8007017"><ele>22.0</ele><time>2026-04-26T14:25:58.503Z</time></trkpt><trkpt lat="44.8188933" lon="10.8008967"><ele>21.75</ele><time>2026-04-26T14:25:59.502Z</time></trkpt><trkpt lat="44.8188483" lon="10.8010883"><ele>21.5</ele><time>2026-04-26T14:26:00.503Z</time></trkpt><trkpt lat="44.818805" lon="10.8012783"><ele>21.25</ele><time>2026-04-26T14:26:01.502Z</time></trkpt><trkpt lat="44.8187617" lon="10.801465"><ele>21.0</ele><time>2026-04-26T14:26:02.503Z</time></trkpt><trkpt lat="44.81872" lon="10.8016417"><ele>21.0</ele><time>2026-04-26T14:26:03.502Z</time></trkpt><trkpt lat="44.8186767" lon="10.80183"><ele>21.0</ele><time>2026-04-26T14:26:04.503Z</time></trkpt><trkpt lat="44.8186333" lon="10.802015"><ele>21.0</ele><time>2026-04-26T14:26:05.502Z</time></trkpt><trkpt lat="44.8185933" lon="10.8021967"><ele>21.0</ele><time>2026-04-26T14:26:06.502Z</time></trkpt><trkpt lat="44.81855" lon="10.8023767"><ele>21.0</ele><time>2026-04-26T14:26:07.503Z</time></trkpt><trkpt lat="44.81851" lon="10.8025617"><ele>21.0</ele><time>2026-04-26T14:26:08.503Z</time></trkpt><trkpt lat="44.81847" lon="10.8027467"><ele>21.0</ele><time>2026-04-26T14:26:09.503Z</time></trkpt><trkpt lat="44.8184317" lon="10.802935"><ele>21.0</ele><time>2026-04-26T14:26:10.502Z</time></trkpt><trkpt lat="44.8183967" lon="10.8031233"><ele>20.75</ele><time>2026-04-26T14:26:11.503Z</time></trkpt><trkpt lat="44.8183617" lon="10.8033167"><ele>20.5</ele><time>2026-04-26T14:26:12.503Z</time></trkpt><trkpt lat="44.818315" lon="10.8035017"><ele>20.25</ele><time>2026-04-26T14:26:13.503Z</time></trkpt><trkpt lat="44.81827" lon="10.803685"><ele>20.0</ele><time>2026-04-26T14:26:14.503Z</time></trkpt><trkpt lat="44.8182267" lon="10.8038783"><ele>20.0</ele><time>2026-04-26T14:26:15.503Z</time></trkpt><trkpt lat="44.8181817" lon="10.8040683"><ele>20.0</ele><time>2026-04-26T14:26:16.502Z</time></trkpt><trkpt lat="44.8181433" lon="10.80426"><ele>20.0</ele><time>2026-04-26T14:26:17.501Z</time></trkpt><trkpt lat="44.818105" lon="10.80445"><ele>20.0</ele><time>2026-04-26T14:26:18.501Z</time></trkpt><trkpt lat="44.8180583" lon="10.80464"><ele>20.5</ele><time>2026-04-26T14:26:19.501Z</time></trkpt><trkpt lat="44.8180183" lon="10.8048367"><ele>21.0</ele><time>2026-04-26T14:26:20.502Z</time></trkpt><trkpt lat="44.8179767" lon="10.80504"><ele>21.5</ele><time>2026-04-26T14:26:21.501Z</time></trkpt><trkpt lat="44.817935" lon="10.8052217"><ele>22.0</ele><time>2026-04-26T14:26:22.501Z</time></trkpt><trkpt lat="44.8178983" lon="10.805395"><ele>22.200000000000003</ele><time>2026-04-26T14:26:23.501Z</time></trkpt><trkpt lat="44.8178633" lon="10.8055567"><ele>22.4</ele><time>2026-04-26T14:26:24.502Z</time></trkpt><trkpt lat="44.8178333" lon="10.805705"><ele>22.6</ele><time>2026-04-26T14:26:25.501Z</time></trkpt><trkpt lat="44.8178" lon="10.8058383"><ele>22.799999999999997</ele><time>2026-04-26T14:26:26.501Z</time></trkpt><trkpt lat="44.8177667" lon="10.8059533"><ele>23.0</ele><time>2026-04-26T14:26:27.501Z</time></trkpt><trkpt lat="44.817735" lon="10.806055"><ele>23.0</ele><time>2026-04-26T14:26:28.501Z</time></trkpt><trkpt lat="44.8176933" lon="10.8061333"><ele>23.0</ele><time>2026-04-26T14:26:29.502Z</time></trkpt><trkpt lat="44.81765" lon="10.8062883"><ele>23.0</ele><time>2026-04-26T14:26:31.502Z</time></trkpt><trkpt lat="44.8177133" lon="10.8064117"><ele>23.0</ele><time>2026-04-26T14:26:33.502Z</time></trkpt><trkpt lat="44.8177767" lon="10.8064333"><ele>23.0</ele><time>2026-04-26T14:26:34.502Z</time></trkpt><trkpt lat="44.8178783" lon="10.8063967"><ele>23.0</ele><time>2026-04-26T14:26:35.502Z</time></trkpt><trkpt lat="44.8179933" lon="10.8063633"><ele>23.0</ele><time>2026-04-26T14:26:36.501Z</time></trkpt><trkpt lat="44.8181233" lon="10.80635"><ele>23.0</ele><time>2026-04-26T14:26:37.502Z</time></trkpt><trkpt lat="44.8182583" lon="10.806365"><ele>23.0</ele><time>2026-04-26T14:26:38.501Z</time></trkpt><trkpt lat="44.81841" lon="10.8063883"><ele>23.0</ele><time>2026-04-26T14:26:39.502Z</time></trkpt><trkpt lat="44.81856" lon="10.8064217"><ele>23.0</ele><time>2026-04-26T14:26:40.501Z</time></trkpt><trkpt lat="44.8187133" lon="10.8064633"><ele>23.0</ele><time>2026-04-26T14:26:41.502Z</time></trkpt><trkpt lat="44.818855" lon="10.806505"><ele>23.0</ele><time>2026-04-26T14:26:42.502Z</time></trkpt><trkpt lat="44.81899" lon="10.8065467"><ele>23.0</ele><time>2026-04-26T14:26:43.502Z</time></trkpt><trkpt lat="44.8191117" lon="10.8065867"><ele>23.0</ele><time>2026-04-26T14:26:44.502Z</time></trkpt><trkpt lat="44.8192417" lon="10.8066233"><ele>23.0</ele><time>2026-04-26T14:26:45.501Z</time></trkpt><trkpt lat="44.8193733" lon="10.8066667"><ele>22.75</ele><time>2026-04-26T14:26:46.501Z</time></trkpt><trkpt lat="44.81951" lon="10.806725"><ele>22.5</ele><time>2026-04-26T14:26:47.502Z</time></trkpt><trkpt lat="44.8196517" lon="10.80677"><ele>22.25</ele><time>2026-04-26T14:26:48.502Z</time></trkpt><trkpt lat="44.8197983" lon="10.806815"><ele>22.0</ele><time>2026-04-26T14:26:49.501Z</time></trkpt><trkpt lat="44.8199583" lon="10.806865"><ele>22.0</ele><time>2026-04-26T14:26:50.502Z</time></trkpt><trkpt lat="44.820135" lon="10.806915"><ele>22.0</ele><time>2026-04-26T14:26:51.502Z</time></trkpt><trkpt lat="44.8203167" lon="10.8069733"><ele>22.0</ele><time>2026-04-26T14:26:52.502Z</time></trkpt><trkpt lat="44.8204933" lon="10.807035"><ele>22.333333333333332</ele><time>2026-04-26T14:26:53.501Z</time></trkpt><trkpt lat="44.8206667" lon="10.8071033"><ele>22.666666666666668</ele><time>2026-04-26T14:26:54.501Z</time></trkpt><trkpt lat="44.820825" lon="10.8071583"><ele>23.0</ele><time>2026-04-26T14:26:55.502Z</time></trkpt><trkpt lat="44.82098" lon="10.8072167"><ele>23.25</ele><time>2026-04-26T14:26:56.502Z</time></trkpt><trkpt lat="44.821115" lon="10.8072767"><ele>23.5</ele><time>2026-04-26T14:26:57.501Z</time></trkpt><trkpt lat="44.82124" lon="10.8073417"><ele>23.75</ele><time>2026-04-26T14:26:58.502Z</time></trkpt><trkpt lat="44.8213617" lon="10.8074033"><ele>24.0</ele><time>2026-04-26T14:26:59.501Z</time></trkpt><trkpt lat="44.8214767" lon="10.8074833"><ele>24.0</ele><time>2026-04-26T14:27:00.502Z</time></trkpt><trkpt lat="44.8216" lon="10.80757"><ele>24.0</ele><time>2026-04-26T14:27:01.502Z</time></trkpt><trkpt lat="44.82172" lon="10.807655"><ele>24.0</ele><time>2026-04-26T14:27:02.502Z</time></trkpt><trkpt lat="44.8218333" lon="10.8077517"><ele>24.0</ele><time>2026-04-26T14:27:03.501Z</time></trkpt><trkpt lat="44.821945" lon="10.8078517"><ele>23.5</ele><time>2026-04-26T14:27:04.501Z</time></trkpt><trkpt lat="44.8220533" lon="10.807945"><ele>23.0</ele><time>2026-04-26T14:27:05.501Z</time></trkpt><trkpt lat="44.8221617" lon="10.8080317"><ele>22.5</ele><time>2026-04-26T14:27:06.502Z</time></trkpt><trkpt lat="44.82228" lon="10.8081167"><ele>22.0</ele><time>2026-04-26T14:27:07.501Z</time></trkpt><trkpt lat="44.8224033" lon="10.80819"><ele>22.0</ele><time>2026-04-26T14:27:08.502Z</time></trkpt><trkpt lat="44.822525" lon="10.808245"><ele>22.0</ele><time>2026-04-26T14:27:09.502Z</time></trkpt><trkpt lat="44.8226467" lon="10.808285"><ele>22.0</ele><time>2026-04-26T14:27:10.501Z</time></trkpt><trkpt lat="44.8227567" lon="10.808315"><ele>22.0</ele><time>2026-04-26T14:27:11.501Z</time></trkpt><trkpt lat="44.8228733" lon="10.80832"><ele>22.0</ele><time>2026-04-26T14:27:12.501Z</time></trkpt><trkpt lat="44.82299" lon="10.8083083"><ele>22.0</ele><time>2026-04-26T14:27:13.501Z</time></trkpt><trkpt lat="44.8231167" lon="10.80825"><ele>22.0</ele><time>2026-04-26T14:27:14.502Z</time></trkpt><trkpt lat="44.823245" lon="10.8081733"><ele>22.0</ele><time>2026-04-26T14:27:15.501Z</time></trkpt><trkpt lat="44.8233767" lon="10.8081117"><ele>22.25</ele><time>2026-04-26T14:27:16.501Z</time></trkpt><trkpt lat="44.82351" lon="10.8080483"><ele>22.5</ele><time>2026-04-26T14:27:17.502Z</time></trkpt><trkpt lat="44.8236483" lon="10.8079833"><ele>22.75</ele><time>2026-04-26T14:27:18.501Z</time></trkpt><trkpt lat="44.8237917" lon="10.8079167"><ele>23.0</ele><time>2026-04-26T14:27:19.501Z</time></trkpt><trkpt lat="44.8239367" lon="10.8078483"><ele>23.0</ele><time>2026-04-26T14:27:20.502Z</time></trkpt><trkpt lat="44.8240817" lon="10.8077767"><ele>23.0</ele><time>2026-04-26T14:27:21.501Z</time></trkpt><trkpt lat="44.8242267" lon="10.8076983"><ele>23.0</ele><time>2026-04-26T14:27:22.502Z</time></trkpt><trkpt lat="44.824375" lon="10.8076183"><ele>23.333333333333336</ele><time>2026-04-26T14:27:23.502Z</time></trkpt><trkpt lat="44.8245267" lon="10.807535"><ele>23.666666666666668</ele><time>2026-04-26T14:27:24.501Z</time></trkpt><trkpt lat="44.8246717" lon="10.80745"><ele>24.0</ele><time>2026-04-26T14:27:25.501Z</time></trkpt><trkpt lat="44.8248067" lon="10.8073617"><ele>24.0</ele><time>2026-04-26T14:27:26.501Z</time></trkpt><trkpt lat="44.8249383" lon="10.8072667"><ele>24.0</ele><time>2026-04-26T14:27:27.501Z</time></trkpt><trkpt lat="44.8250667" lon="10.8071617"><ele>24.0</ele><time>2026-04-26T14:27:28.501Z</time></trkpt><trkpt lat="44.8251933" lon="10.807045"><ele>24.0</ele><time>2026-04-26T14:27:29.501Z</time></trkpt><trkpt lat="44.825325" lon="10.8069267"><ele>23.0</ele><time>2026-04-26T14:27:30.502Z</time></trkpt><trkpt lat="44.825455" lon="10.8068117"><ele>22.0</ele><time>2026-04-26T14:27:31.502Z</time></trkpt><trkpt lat="44.82558" lon="10.8067033"><ele>21.0</ele><time>2026-04-26T14:27:32.501Z</time></trkpt><trkpt lat="44.825695" lon="10.8066033"><ele>20.0</ele><time>2026-04-26T14:27:33.502Z</time></trkpt><trkpt lat="44.825815" lon="10.80652"><ele>20.0</ele><time>2026-04-26T14:27:34.501Z</time></trkpt><trkpt lat="44.8259283" lon="10.8064733"><ele>20.0</ele><time>2026-04-26T14:27:35.502Z</time></trkpt><trkpt lat="44.8260483" lon="10.80646"><ele>20.0</ele><time>2026-04-26T14:27:36.501Z</time></trkpt><trkpt lat="44.826175" lon="10.8064767"><ele>20.0</ele><time>2026-04-26T14:27:37.502Z</time></trkpt><trkpt lat="44.8262983" lon="10.806515"><ele>20.5</ele><time>2026-04-26T14:27:38.502Z</time></trkpt><trkpt lat="44.8264233" lon="10.8065817"><ele>21.0</ele><time>2026-04-26T14:27:39.502Z</time></trkpt><trkpt lat="44.8265417" lon="10.806675"><ele>21.5</ele><time>2026-04-26T14:27:40.502Z</time></trkpt><trkpt lat="44.8266567" lon="10.8067717"><ele>22.0</ele><time>2026-04-26T14:27:41.502Z</time></trkpt><trkpt lat="44.8267767" lon="10.8068683"><ele>22.25</ele><time>2026-04-26T14:27:42.502Z</time></trkpt><trkpt lat="44.8268967" lon="10.80697"><ele>22.5</ele><time>2026-04-26T14:27:43.502Z</time></trkpt><trkpt lat="44.8270217" lon="10.8070583"><ele>22.75</ele><time>2026-04-26T14:27:44.501Z</time></trkpt><trkpt lat="44.827135" lon="10.8071283"><ele>23.0</ele><time>2026-04-26T14:27:45.501Z</time></trkpt><trkpt lat="44.8272483" lon="10.8071983"><ele>23.0</ele><time>2026-04-26T14:27:46.501Z</time></trkpt><trkpt lat="44.827355" lon="10.80726"><ele>23.0</ele><time>2026-04-26T14:27:47.502Z</time></trkpt><trkpt lat="44.8274667" lon="10.8073183"><ele>23.0</ele><time>2026-04-26T14:27:48.501Z</time></trkpt><trkpt lat="44.8275783" lon="10.8073733"><ele>23.0</ele><time>2026-04-26T14:27:49.502Z</time></trkpt><trkpt lat="44.82769" lon="10.8074317"><ele>22.799999999999997</ele><time>2026-04-26T14:27:50.501Z</time></trkpt><trkpt lat="44.8277983" lon="10.8074933"><ele>22.6</ele><time>2026-04-26T14:27:51.502Z</time></trkpt><trkpt lat="44.8279017" lon="10.8075517"><ele>22.4</ele><time>2026-04-26T14:27:52.501Z</time></trkpt><trkpt lat="44.8280033" lon="10.807605"><ele>22.200000000000003</ele><time>2026-04-26T14:27:53.502Z</time></trkpt><trkpt lat="44.828105" lon="10.807655"><ele>22.0</ele><time>2026-04-26T14:27:54.501Z</time></trkpt><trkpt lat="44.8282067" lon="10.807715"><ele>22.0</ele><time>2026-04-26T14:27:55.502Z</time></trkpt><trkpt lat="44.8283067" lon="10.8077717"><ele>22.0</ele><time>2026-04-26T14:27:56.501Z</time></trkpt><trkpt lat="44.8284067" lon="10.8078267"><ele>22.0</ele><time>2026-04-26T14:27:57.501Z</time></trkpt><trkpt lat="44.8285117" lon="10.8078833"><ele>22.0</ele><time>2026-04-26T14:27:58.502Z</time></trkpt><trkpt lat="44.8286183" lon="10.8079367"><ele>22.0</ele><time>2026-04-26T14:27:59.501Z</time></trkpt><trkpt lat="44.8287283" lon="10.808"><ele>22.0</ele><time>2026-04-26T14:28:00.501Z</time></trkpt><trkpt lat="44.8288383" lon="10.8080667"><ele>22.0</ele><time>2026-04-26T14:28:01.501Z</time></trkpt><trkpt lat="44.8289467" lon="10.8081233"><ele>22.0</ele><time>2026-04-26T14:28:02.502Z</time></trkpt><trkpt lat="44.82906" lon="10.80818"><ele>22.0</ele><time>2026-04-26T14:28:03.501Z</time></trkpt><trkpt lat="44.8291717" lon="10.80824"><ele>22.0</ele><time>2026-04-26T14:28:04.501Z</time></trkpt><trkpt lat="44.829285" lon="10.808305"><ele>22.0</ele><time>2026-04-26T14:28:05.502Z</time></trkpt><trkpt lat="44.82939" lon="10.80837"><ele>22.0</ele><time>2026-04-26T14:28:06.501Z</time></trkpt><trkpt lat="44.8295" lon="10.8084467"><ele>22.0</ele><time>2026-04-26T14:28:07.502Z</time></trkpt><trkpt lat="44.8295967" lon="10.8085417"><ele>22.5</ele><time>2026-04-26T14:28:08.502Z</time></trkpt><trkpt lat="44.8296933" lon="10.80866"><ele>23.0</ele><time>2026-04-26T14:28:09.502Z</time></trkpt><trkpt lat="44.8297783" lon="10.8087833"><ele>23.5</ele><time>2026-04-26T14:28:10.501Z</time></trkpt><trkpt lat="44.829865" lon="10.8089133"><ele>24.0</ele><time>2026-04-26T14:28:11.501Z</time></trkpt><trkpt lat="44.829945" lon="10.8090467"><ele>24.0</ele><time>2026-04-26T14:28:12.501Z</time></trkpt><trkpt lat="44.8300217" lon="10.80919"><ele>24.0</ele><time>2026-04-26T14:28:13.502Z</time></trkpt><trkpt lat="44.8301017" lon="10.8093317"><ele>24.0</ele><time>2026-04-26T14:28:14.501Z</time></trkpt><trkpt lat="44.8301733" lon="10.8094767"><ele>24.0</ele><time>2026-04-26T14:28:15.502Z</time></trkpt><trkpt lat="44.8302417" lon="10.809625"><ele>23.5</ele><time>2026-04-26T14:28:16.501Z</time></trkpt><trkpt lat="44.8302983" lon="10.8097833"><ele>23.0</ele><time>2026-04-26T14:28:17.502Z</time></trkpt><trkpt lat="44.83036" lon="10.8099383"><ele>22.5</ele><time>2026-04-26T14:28:18.502Z</time></trkpt><trkpt lat="44.830425" lon="10.81008"><ele>22.0</ele><time>2026-04-26T14:28:19.501Z</time></trkpt><trkpt lat="44.8304983" lon="10.81022"><ele>22.0</ele><time>2026-04-26T14:28:20.501Z</time></trkpt><trkpt lat="44.8305867" lon="10.810345"><ele>22.0</ele><time>2026-04-26T14:28:21.501Z</time></trkpt><trkpt lat="44.830675" lon="10.8104633"><ele>22.0</ele><time>2026-04-26T14:28:22.502Z</time></trkpt><trkpt lat="44.8307633" lon="10.81058"><ele>22.0</ele><time>2026-04-26T14:28:23.501Z</time></trkpt><trkpt lat="44.83086" lon="10.810695"><ele>22.0</ele><time>2026-04-26T14:28:24.501Z</time></trkpt><trkpt lat="44.8309617" lon="10.8108"><ele>22.0</ele><time>2026-04-26T14:28:25.502Z</time></trkpt><trkpt lat="44.8310667" lon="10.8109133"><ele>22.0</ele><time>2026-04-26T14:28:26.502Z</time></trkpt><trkpt lat="44.83117" lon="10.81101"><ele>22.0</ele><time>2026-04-26T14:28:27.501Z</time></trkpt><trkpt lat="44.8312767" lon="10.811095"><ele>22.0</ele><time>2026-04-26T14:28:28.501Z</time></trkpt><trkpt lat="44.8313933" lon="10.8111817"><ele>22.0</ele><time>2026-04-26T14:28:29.501Z</time></trkpt><trkpt lat="44.83151" lon="10.8112567"><ele>22.0</ele><time>2026-04-26T14:28:30.501Z</time></trkpt><trkpt lat="44.8316333" lon="10.811325"><ele>22.0</ele><time>2026-04-26T14:28:31.502Z</time></trkpt><trkpt lat="44.8317567" lon="10.811395"><ele>22.0</ele><time>2026-04-26T14:28:32.501Z</time></trkpt><trkpt lat="44.83188" lon="10.811455"><ele>22.0</ele><time>2026-04-26T14:28:33.501Z</time></trkpt><trkpt lat="44.831995" lon="10.8115083"><ele>22.0</ele><time>2026-04-26T14:28:34.501Z</time></trkpt><trkpt lat="44.832105" lon="10.81155"><ele>22.0</ele><time>2026-04-26T14:28:35.501Z</time></trkpt><trkpt lat="44.8322317" lon="10.8115983"><ele>22.0</ele><time>2026-04-26T14:28:36.501Z</time></trkpt><trkpt lat="44.832355" lon="10.8116417"><ele>22.0</ele><time>2026-04-26T14:28:37.502Z</time></trkpt><trkpt lat="44.83248" lon="10.811685"><ele>22.0</ele><time>2026-04-26T14:28:38.502Z</time></trkpt><trkpt lat="44.8325983" lon="10.81172"><ele>22.0</ele><time>2026-04-26T14:28:39.502Z</time></trkpt><trkpt lat="44.8327183" lon="10.8117667"><ele>22.0</ele><time>2026-04-26T14:28:40.501Z</time></trkpt><trkpt lat="44.8328367" lon="10.8118167"><ele>22.0</ele><time>2026-04-26T14:28:41.501Z</time></trkpt><trkpt lat="44.8329517" lon="10.8118583"><ele>22.0</ele><time>2026-04-26T14:28:42.501Z</time></trkpt><trkpt lat="44.833075" lon="10.8118983"><ele>22.0</ele><time>2026-04-26T14:28:43.501Z</time></trkpt><trkpt lat="44.8331967" lon="10.8119433"><ele>22.0</ele><time>2026-04-26T14:28:44.501Z</time></trkpt><trkpt lat="44.8333133" lon="10.8119817"><ele>22.0</ele><time>2026-04-26T14:28:45.501Z</time></trkpt><trkpt lat="44.8334317" lon="10.812015"><ele>22.0</ele><time>2026-04-26T14:28:46.501Z</time></trkpt><trkpt lat="44.83355" lon="10.812045"><ele>22.0</ele><time>2026-04-26T14:28:47.501Z</time></trkpt><trkpt lat="44.8336667" lon="10.8120883"><ele>22.0</ele><time>2026-04-26T14:28:48.502Z</time></trkpt><trkpt lat="44.8337867" lon="10.8121233"><ele>22.0</ele><time>2026-04-26T14:28:49.501Z</time></trkpt><trkpt lat="44.8339033" lon="10.8121683"><ele>22.0</ele><time>2026-04-26T14:28:50.501Z</time></trkpt><trkpt lat="44.8340133" lon="10.8122067"><ele>22.0</ele><time>2026-04-26T14:28:51.501Z</time></trkpt><trkpt lat="44.834115" lon="10.8122367"><ele>22.0</ele><time>2026-04-26T14:28:52.501Z</time></trkpt><trkpt lat="44.8342083" lon="10.8122717"><ele>22.0</ele><time>2026-04-26T14:28:53.502Z</time></trkpt><trkpt lat="44.8342933" lon="10.8123017"><ele>22.0</ele><time>2026-04-26T14:28:54.501Z</time></trkpt><trkpt lat="44.8343833" lon="10.81233"><ele>22.0</ele><time>2026-04-26T14:28:55.501Z</time></trkpt><trkpt lat="44.83447" lon="10.81236"><ele>22.0</ele><time>2026-04-26T14:28:56.501Z</time></trkpt><trkpt lat="44.83455" lon="10.8123917"><ele>22.0</ele><time>2026-04-26T14:28:57.502Z</time></trkpt><trkpt lat="44.8346333" lon="10.8124167"><ele>22.0</ele><time>2026-04-26T14:28:58.502Z</time></trkpt><trkpt lat="44.8347083" lon="10.812435"><ele>22.0</ele><time>2026-04-26T14:28:59.501Z</time></trkpt><trkpt lat="44.83477" lon="10.8124583"><ele>22.0</ele><time>2026-04-26T14:29:00.501Z</time></trkpt><trkpt lat="44.8348233" lon="10.81254"><ele>22.0</ele><time>2026-04-26T14:29:02.502Z</time></trkpt><trkpt lat="44.8348067" lon="10.812675"><ele>22.0</ele><time>2026-04-26T14:29:04.502Z</time></trkpt><trkpt lat="44.83478" lon="10.8127583"><ele>22.0</ele><time>2026-04-26T14:29:05.502Z</time></trkpt><trkpt lat="44.8347517" lon="10.812865"><ele>22.0</ele><time>2026-04-26T14:29:06.501Z</time></trkpt><trkpt lat="44.8347217" lon="10.8129967"><ele>22.0</ele><time>2026-04-26T14:29:07.501Z</time></trkpt><trkpt lat="44.8346933" lon="10.8131383"><ele>22.0</ele><time>2026-04-26T14:29:08.501Z</time></trkpt><trkpt lat="44.834665" lon="10.813295"><ele>22.0</ele><time>2026-04-26T14:29:09.502Z</time></trkpt><trkpt lat="44.8346367" lon="10.81346"><ele>22.0</ele><time>2026-04-26T14:29:10.501Z</time></trkpt><trkpt lat="44.8345917" lon="10.8136417"><ele>21.75</ele><time>2026-04-26T14:29:11.501Z</time></trkpt><trkpt lat="44.8345533" lon="10.8138233"><ele>21.5</ele><time>2026-04-26T14:29:12.501Z</time></trkpt><trkpt lat="44.8345233" lon="10.8139867"><ele>21.25</ele><time>2026-04-26T14:29:13.502Z</time></trkpt><trkpt lat="44.8344933" lon="10.81414"><ele>21.0</ele><time>2026-04-26T14:29:14.501Z</time></trkpt><trkpt lat="44.834465" lon="10.8142883"><ele>20.8</ele><time>2026-04-26T14:29:15.502Z</time></trkpt><trkpt lat="44.8344317" lon="10.8144267"><ele>20.6</ele><time>2026-04-26T14:29:16.502Z</time></trkpt><trkpt lat="44.8344033" lon="10.8145683"><ele>20.4</ele><time>2026-04-26T14:29:17.502Z</time></trkpt><trkpt lat="44.834375" lon="10.8147117"><ele>20.2</ele><time>2026-04-26T14:29:18.502Z</time></trkpt><trkpt lat="44.83434" lon="10.8148633"><ele>20.0</ele><time>2026-04-26T14:29:19.501Z</time></trkpt><trkpt lat="44.8343117" lon="10.8150067"><ele>20.4</ele><time>2026-04-26T14:29:20.502Z</time></trkpt><trkpt lat="44.8342833" lon="10.8151567"><ele>20.8</ele><time>2026-04-26T14:29:21.502Z</time></trkpt><trkpt lat="44.834255" lon="10.8153033"><ele>21.200000000000003</ele><time>2026-04-26T14:29:22.502Z</time></trkpt><trkpt lat="44.8342317" lon="10.815435"><ele>21.6</ele><time>2026-04-26T14:29:23.502Z</time></trkpt><trkpt lat="44.83421" lon="10.8155617"><ele>22.0</ele><time>2026-04-26T14:29:24.501Z</time></trkpt><trkpt lat="44.8341883" lon="10.8156783"><ele>22.0</ele><time>2026-04-26T14:29:25.501Z</time></trkpt><trkpt lat="44.834165" lon="10.8158"><ele>22.0</ele><time>2026-04-26T14:29:26.501Z</time></trkpt><trkpt lat="44.83414" lon="10.8159217"><ele>22.0</ele><time>2026-04-26T14:29:27.502Z</time></trkpt><trkpt lat="44.8341167" lon="10.8160483"><ele>22.0</ele><time>2026-04-26T14:29:28.501Z</time></trkpt><trkpt lat="44.834085" lon="10.8161767"><ele>22.0</ele><time>2026-04-26T14:29:29.501Z</time></trkpt><trkpt lat="44.8340583" lon="10.8163233"><ele>21.5</ele><time>2026-04-26T14:29:30.502Z</time></trkpt><trkpt lat="44.834025" lon="10.8164717"><ele>21.0</ele><time>2026-04-26T14:29:31.501Z</time></trkpt><trkpt lat="44.8339917" lon="10.8166233"><ele>20.5</ele><time>2026-04-26T14:29:32.502Z</time></trkpt><trkpt lat="44.83396" lon="10.8167783"><ele>20.0</ele><time>2026-04-26T14:29:33.502Z</time></trkpt><trkpt lat="44.833925" lon="10.81694"><ele>20.0</ele><time>2026-04-26T14:29:34.502Z</time></trkpt><trkpt lat="44.833895" lon="10.8171"><ele>20.0</ele><time>2026-04-26T14:29:35.501Z</time></trkpt><trkpt lat="44.83387" lon="10.8172483"><ele>20.0</ele><time>2026-04-26T14:29:36.501Z</time></trkpt><trkpt lat="44.8338433" lon="10.8173933"><ele>20.0</ele><time>2026-04-26T14:29:37.502Z</time></trkpt><trkpt lat="44.8338117" lon="10.8175333"><ele>20.0</ele><time>2026-04-26T14:29:38.501Z</time></trkpt><trkpt lat="44.8337817" lon="10.8176767"><ele>20.0</ele><time>2026-04-26T14:29:39.501Z</time></trkpt><trkpt lat="44.83376" lon="10.8178083"><ele>20.0</ele><time>2026-04-26T14:29:40.502Z</time></trkpt><trkpt lat="44.833735" lon="10.8179267"><ele>20.0</ele><time>2026-04-26T14:29:41.501Z</time></trkpt><trkpt lat="44.833715" lon="10.8180267"><ele>20.0</ele><time>2026-04-26T14:29:42.502Z</time></trkpt><trkpt lat="44.8336933" lon="10.8181133"><ele>20.0</ele><time>2026-04-26T14:29:43.501Z</time></trkpt><trkpt lat="44.8336933" lon="10.8182567"><ele>20.0</ele><time>2026-04-26T14:29:45.502Z</time></trkpt><trkpt lat="44.8337633" lon="10.8183783"><ele>20.0</ele><time>2026-04-26T14:29:47.502Z</time></trkpt><trkpt lat="44.833815" lon="10.8184367"><ele>20.0</ele><time>2026-04-26T14:29:48.502Z</time></trkpt><trkpt lat="44.8338783" lon="10.8185067"><ele>20.0</ele><time>2026-04-26T14:29:49.501Z</time></trkpt><trkpt lat="44.83395" lon="10.8185833"><ele>20.0</ele><time>2026-04-26T14:29:50.502Z</time></trkpt><trkpt lat="44.83403" lon="10.8186617"><ele>20.0</ele><time>2026-04-26T14:29:51.501Z</time></trkpt><trkpt lat="44.834115" lon="10.81874"><ele>20.0</ele><time>2026-04-26T14:29:52.501Z</time></trkpt><trkpt lat="44.8341867" lon="10.818815"><ele>20.0</ele><time>2026-04-26T14:29:53.502Z</time></trkpt><trkpt lat="44.8342417" lon="10.8189017"><ele>20.0</ele><time>2026-04-26T14:29:54.502Z</time></trkpt><trkpt lat="44.8342767" lon="10.8190067"><ele>20.0</ele><time>2026-04-26T14:29:55.501Z</time></trkpt><trkpt lat="44.8342883" lon="10.8191183"><ele>20.0</ele><time>2026-04-26T14:29:56.502Z</time></trkpt><trkpt lat="44.8342667" lon="10.8192483"><ele>20.0</ele><time>2026-04-26T14:29:57.502Z</time></trkpt><trkpt lat="44.834225" lon="10.8193867"><ele>20.0</ele><time>2026-04-26T14:29:58.501Z</time></trkpt><trkpt lat="44.8341717" lon="10.8195283"><ele>20.0</ele><time>2026-04-26T14:29:59.502Z</time></trkpt><trkpt lat="44.8341233" lon="10.8196733"><ele>20.0</ele><time>2026-04-26T14:30:00.502Z</time></trkpt><trkpt lat="44.8340767" lon="10.8198217"><ele>20.0</ele><time>2026-04-26T14:30:01.502Z</time></trkpt><trkpt lat="44.8340333" lon="10.8199667"><ele>20.0</ele><time>2026-04-26T14:30:02.502Z</time></trkpt><trkpt lat="44.8339983" lon="10.8201083"><ele>20.0</ele><time>2026-04-26T14:30:03.502Z</time></trkpt><trkpt lat="44.8339533" lon="10.820235"><ele>20.0</ele><time>2026-04-26T14:30:04.502Z</time></trkpt><trkpt lat="44.833915" lon="10.8203667"><ele>20.0</ele><time>2026-04-26T14:30:05.501Z</time></trkpt><trkpt lat="44.8338733" lon="10.8204983"><ele>20.0</ele><time>2026-04-26T14:30:06.501Z</time></trkpt><trkpt lat="44.83384" lon="10.8206167"><ele>20.0</ele><time>2026-04-26T14:30:07.501Z</time></trkpt><trkpt lat="44.8338" lon="10.8207433"><ele>20.0</ele><time>2026-04-26T14:30:08.501Z</time></trkpt><trkpt lat="44.8337567" lon="10.82087"><ele>20.2</ele><time>2026-04-26T14:30:09.502Z</time></trkpt><trkpt lat="44.8337167" lon="10.8210017"><ele>20.4</ele><time>2026-04-26T14:30:10.501Z</time></trkpt><trkpt lat="44.83368" lon="10.8211383"><ele>20.6</ele><time>2026-04-26T14:30:11.502Z</time></trkpt><trkpt lat="44.8336417" lon="10.8212667"><ele>20.8</ele><time>2026-04-26T14:30:12.501Z</time></trkpt><trkpt lat="44.833605" lon="10.8213933"><ele>21.0</ele><time>2026-04-26T14:30:13.501Z</time></trkpt><trkpt lat="44.83358" lon="10.8215233"><ele>21.0</ele><time>2026-04-26T14:30:14.502Z</time></trkpt><trkpt lat="44.8335467" lon="10.8216383"><ele>21.0</ele><time>2026-04-26T14:30:15.501Z</time></trkpt><trkpt lat="44.8335133" lon="10.821745"><ele>21.0</ele><time>2026-04-26T14:30:16.501Z</time></trkpt><trkpt lat="44.8334833" lon="10.82183"><ele>21.0</ele><time>2026-04-26T14:30:17.502Z</time></trkpt><trkpt lat="44.8334583" lon="10.8219167"><ele>21.0</ele><time>2026-04-26T14:30:18.501Z</time></trkpt><trkpt lat="44.8334117" lon="10.82206"><ele>21.0</ele><time>2026-04-26T14:30:20.502Z</time></trkpt><trkpt lat="44.833365" lon="10.822225"><ele>21.0</ele><time>2026-04-26T14:30:22.501Z</time></trkpt><trkpt lat="44.8333383" lon="10.8223233"><ele>21.0</ele><time>2026-04-26T14:30:23.502Z</time></trkpt><trkpt lat="44.8333117" lon="10.82243"><ele>21.0</ele><time>2026-04-26T14:30:24.501Z</time></trkpt><trkpt lat="44.8332817" lon="10.822535"><ele>21.0</ele><time>2026-04-26T14:30:25.501Z</time></trkpt><trkpt lat="44.8332567" lon="10.8226267"><ele>21.0</ele><time>2026-04-26T14:30:26.501Z</time></trkpt><trkpt lat="44.83322" lon="10.82275"><ele>21.0</ele><time>2026-04-26T14:30:28.502Z</time></trkpt><trkpt lat="44.8332283" lon="10.8228567"><ele>21.0</ele><time>2026-04-26T14:30:36.502Z</time></trkpt><trkpt lat="44.8333033" lon="10.82291"><ele>21.0</ele><time>2026-04-26T14:30:38.501Z</time></trkpt><trkpt lat="44.8334133" lon="10.8229533"><ele>21.0</ele><time>2026-04-26T14:30:40.502Z</time></trkpt><trkpt lat="44.8334767" lon="10.822975"><ele>21.0</ele><time>2026-04-26T14:30:41.501Z</time></trkpt><trkpt lat="44.8335917" lon="10.823035"><ele>21.0</ele><time>2026-04-26T14:30:43.501Z</time></trkpt><trkpt lat="44.833655" lon="10.823065"><ele>21.0</ele><time>2026-04-26T14:30:44.502Z</time></trkpt><trkpt lat="44.83372" lon="10.8230933"><ele>21.0</ele><time>2026-04-26T14:30:45.502Z</time></trkpt><trkpt lat="44.833785" lon="10.82312"><ele>21.0</ele><time>2026-04-26T14:30:46.501Z</time></trkpt><trkpt lat="44.8338533" lon="10.82315"><ele>21.0</ele><time>2026-04-26T14:30:47.502Z</time></trkpt><trkpt lat="44.8339217" lon="10.8231783"><ele>21.0</ele><time>2026-04-26T14:30:48.501Z</time></trkpt><trkpt lat="44.8339983" lon="10.823195"><ele>21.0</ele><time>2026-04-26T14:30:49.502Z</time></trkpt><trkpt lat="44.83407" lon="10.8232267"><ele>21.0</ele><time>2026-04-26T14:30:50.502Z</time></trkpt><trkpt lat="44.8341433" lon="10.823255"><ele>21.0</ele><time>2026-04-26T14:30:51.502Z</time></trkpt><trkpt lat="44.8342183" lon="10.8232833"><ele>21.0</ele><time>2026-04-26T14:30:52.502Z</time></trkpt><trkpt lat="44.834285" lon="10.8233167"><ele>21.0</ele><time>2026-04-26T14:30:53.501Z</time></trkpt><trkpt lat="44.834355" lon="10.82336"><ele>21.0</ele><time>2026-04-26T14:30:54.501Z</time></trkpt><trkpt lat="44.83443" lon="10.8234"><ele>21.0</ele><time>2026-04-26T14:30:55.501Z</time></trkpt><trkpt lat="44.8345" lon="10.82344"><ele>21.0</ele><time>2026-04-26T14:30:56.502Z</time></trkpt><trkpt lat="44.8345667" lon="10.8234817"><ele>21.142857142857142</ele><time>2026-04-26T14:30:57.501Z</time></trkpt><trkpt lat="44.83464" lon="10.8235183"><ele>21.285714285714285</ele><time>2026-04-26T14:30:58.501Z</time></trkpt><trkpt lat="44.8347133" lon="10.82356"><ele>21.42857142857143</ele><time>2026-04-26T14:30:59.502Z</time></trkpt><trkpt lat="44.83478" lon="10.8236"><ele>21.57142857142857</ele><time>2026-04-26T14:31:00.502Z</time></trkpt><trkpt lat="44.8348433" lon="10.82364"><ele>21.714285714285715</ele><time>2026-04-26T14:31:01.502Z</time></trkpt><trkpt lat="44.8349017" lon="10.823675"><ele>21.857142857142858</ele><time>2026-04-26T14:31:02.502Z</time></trkpt><trkpt lat="44.83496" lon="10.8237117"><ele>22.0</ele><time>2026-04-26T14:31:03.502Z</time></trkpt><trkpt lat="44.8350217" lon="10.8237567"><ele>22.0</ele><time>2026-04-26T14:31:04.502Z</time></trkpt><trkpt lat="44.8350917" lon="10.82381"><ele>22.0</ele><time>2026-04-26T14:31:05.501Z</time></trkpt><trkpt lat="44.8351667" lon="10.8238633"><ele>22.0</ele><time>2026-04-26T14:31:06.502Z</time></trkpt><trkpt lat="44.8352317" lon="10.82391"><ele>22.0</ele><time>2026-04-26T14:31:07.501Z</time></trkpt><trkpt lat="44.8353" lon="10.823955"><ele>22.0</ele><time>2026-04-26T14:31:08.502Z</time></trkpt><trkpt lat="44.83536" lon="10.8239967"><ele>22.0</ele><time>2026-04-26T14:31:09.502Z</time></trkpt><trkpt lat="44.8354217" lon="10.8240333"><ele>22.0</ele><time>2026-04-26T14:31:10.502Z</time></trkpt><trkpt lat="44.8355217" lon="10.8241083"><ele>21.8</ele><time>2026-04-26T14:31:12.502Z</time></trkpt><trkpt lat="44.835625" lon="10.8241867"><ele>21.6</ele><time>2026-04-26T14:31:14.502Z</time></trkpt><trkpt lat="44.835685" lon="10.824235"><ele>21.400000000000002</ele><time>2026-04-26T14:31:15.502Z</time></trkpt><trkpt lat="44.83574" lon="10.82428"><ele>21.200000000000003</ele><time>2026-04-26T14:31:16.502Z</time></trkpt><trkpt lat="44.8358383" lon="10.8243783"><ele>21.0</ele><time>2026-04-26T14:31:18.502Z</time></trkpt><trkpt lat="44.8359433" lon="10.8244733"><ele>20.6</ele><time>2026-04-26T14:31:20.501Z</time></trkpt><trkpt lat="44.83605" lon="10.82457"><ele>20.200000000000003</ele><time>2026-04-26T14:31:22.501Z</time></trkpt><trkpt lat="44.8361017" lon="10.8246217"><ele>19.799999999999997</ele><time>2026-04-26T14:31:23.501Z</time></trkpt><trkpt lat="44.8362067" lon="10.8247233"><ele>19.4</ele><time>2026-04-26T14:31:25.502Z</time></trkpt><trkpt lat="44.8363183" lon="10.82482"><ele>19.0</ele><time>2026-04-26T14:31:27.502Z</time></trkpt><trkpt lat="44.8363817" lon="10.82488"><ele>19.0</ele><time>2026-04-26T14:31:28.502Z</time></trkpt><trkpt lat="44.83644" lon="10.82494"><ele>19.0</ele><time>2026-04-26T14:31:29.501Z</time></trkpt><trkpt lat="44.836505" lon="10.825"><ele>19.0</ele><time>2026-04-26T14:31:30.501Z</time></trkpt><trkpt lat="44.8365717" lon="10.8250583"><ele>19.0</ele><time>2026-04-26T14:31:31.501Z</time></trkpt><trkpt lat="44.836635" lon="10.8251167"><ele>19.0</ele><time>2026-04-26T14:31:32.502Z</time></trkpt><trkpt lat="44.8367017" lon="10.8251833"><ele>19.0</ele><time>2026-04-26T14:31:33.502Z</time></trkpt><trkpt lat="44.8367583" lon="10.825235"><ele>19.166666666666664</ele><time>2026-04-26T14:31:34.502Z</time></trkpt><trkpt lat="44.83686" lon="10.82534"><ele>19.333333333333332</ele><time>2026-04-26T14:31:36.502Z</time></trkpt><trkpt lat="44.8369133" lon="10.8253983"><ele>19.5</ele><time>2026-04-26T14:31:37.501Z</time></trkpt><trkpt lat="44.8369733" lon="10.82546"><ele>19.666666666666668</ele><time>2026-04-26T14:31:38.501Z</time></trkpt><trkpt lat="44.8370317" lon="10.8255133"><ele>19.833333333333336</ele><time>2026-04-26T14:31:39.501Z</time></trkpt><trkpt lat="44.8370883" lon="10.8255633"><ele>20.0</ele><time>2026-04-26T14:31:40.502Z</time></trkpt><trkpt lat="44.837145" lon="10.8256167"><ele>20.0</ele><time>2026-04-26T14:31:41.502Z</time></trkpt><trkpt lat="44.8372017" lon="10.8256717"><ele>20.0</ele><time>2026-04-26T14:31:42.501Z</time></trkpt><trkpt lat="44.8372617" lon="10.8257367"><ele>20.0</ele><time>2026-04-26T14:31:43.502Z</time></trkpt><trkpt lat="44.83732" lon="10.8257933"><ele>20.0</ele><time>2026-04-26T14:31:44.501Z</time></trkpt><trkpt lat="44.8373767" lon="10.8258417"><ele>20.0</ele><time>2026-04-26T14:31:45.502Z</time></trkpt><trkpt lat="44.8374817" lon="10.8259333"><ele>20.0</ele><time>2026-04-26T14:31:47.502Z</time></trkpt><trkpt lat="44.8375867" lon="10.826035"><ele>19.57142857142857</ele><time>2026-04-26T14:31:49.501Z</time></trkpt><trkpt lat="44.8376417" lon="10.8260917"><ele>19.142857142857142</ele><time>2026-04-26T14:31:50.502Z</time></trkpt><trkpt lat="44.8376983" lon="10.8261517"><ele>18.714285714285715</ele><time>2026-04-26T14:31:51.501Z</time></trkpt><trkpt lat="44.8377567" lon="10.8262183"><ele>18.285714285714285</ele><time>2026-04-26T14:31:52.502Z</time></trkpt><trkpt lat="44.8378183" lon="10.8262867"><ele>17.857142857142858</ele><time>2026-04-26T14:31:53.501Z</time></trkpt><trkpt lat="44.8378733" lon="10.826355"><ele>17.428571428571427</ele><time>2026-04-26T14:31:54.501Z</time></trkpt><trkpt lat="44.83793" lon="10.8264233"><ele>17.0</ele><time>2026-04-26T14:31:55.501Z</time></trkpt><trkpt lat="44.8379833" lon="10.8264917"><ele>16.999999999999996</ele><time>2026-04-26T14:31:56.501Z</time></trkpt><trkpt lat="44.8380367" lon="10.8265583"><ele>17.0</ele><time>2026-04-26T14:31:57.501Z</time></trkpt><trkpt lat="44.8380833" lon="10.82663"><ele>17.0</ele><time>2026-04-26T14:31:58.501Z</time></trkpt><trkpt lat="44.8381333" lon="10.8267"><ele>17.0</ele><time>2026-04-26T14:31:59.502Z</time></trkpt><trkpt lat="44.8381833" lon="10.8267683"><ele>17.0</ele><time>2026-04-26T14:32:00.501Z</time></trkpt><trkpt lat="44.8382383" lon="10.8268417"><ele>16.999999999999996</ele><time>2026-04-26T14:32:01.501Z</time></trkpt><trkpt lat="44.8382917" lon="10.8269183"><ele>17.0</ele><time>2026-04-26T14:32:02.502Z</time></trkpt><trkpt lat="44.8383483" lon="10.8269967"><ele>17.166666666666668</ele><time>2026-04-26T14:32:03.501Z</time></trkpt><trkpt lat="44.83841" lon="10.8270733"><ele>17.333333333333336</ele><time>2026-04-26T14:32:04.502Z</time></trkpt><trkpt lat="44.8384667" lon="10.8271467"><ele>17.5</ele><time>2026-04-26T14:32:05.501Z</time></trkpt><trkpt lat="44.83852" lon="10.8272217"><ele>17.666666666666668</ele><time>2026-04-26T14:32:06.501Z</time></trkpt><trkpt lat="44.838575" lon="10.8273"><ele>17.833333333333332</ele><time>2026-04-26T14:32:07.502Z</time></trkpt><trkpt lat="44.8386317" lon="10.82738"><ele>18.0</ele><time>2026-04-26T14:32:08.502Z</time></trkpt><trkpt lat="44.83869" lon="10.827455"><ele>18.000000000000004</ele><time>2026-04-26T14:32:09.501Z</time></trkpt><trkpt lat="44.83874" lon="10.8275217"><ele>18.0</ele><time>2026-04-26T14:32:10.502Z</time></trkpt><trkpt lat="44.8387967" lon="10.8275833"><ele>18.0</ele><time>2026-04-26T14:32:11.502Z</time></trkpt><trkpt lat="44.8388467" lon="10.8276483"><ele>18.0</ele><time>2026-04-26T14:32:12.501Z</time></trkpt><trkpt lat="44.8389017" lon="10.8277117"><ele>18.0</ele><time>2026-04-26T14:32:13.502Z</time></trkpt><trkpt lat="44.8389533" lon="10.8277817"><ele>18.000000000000004</ele><time>2026-04-26T14:32:14.501Z</time></trkpt><trkpt lat="44.839" lon="10.8278467"><ele>18.0</ele><time>2026-04-26T14:32:15.502Z</time></trkpt><trkpt lat="44.83905" lon="10.8279167"><ele>18.000000000000004</ele><time>2026-04-26T14:32:16.501Z</time></trkpt><trkpt lat="44.8391017" lon="10.82799"><ele>18.0</ele><time>2026-04-26T14:32:17.501Z</time></trkpt><trkpt lat="44.8391567" lon="10.8280617"><ele>18.0</ele><time>2026-04-26T14:32:18.501Z</time></trkpt><trkpt lat="44.8392083" lon="10.8281317"><ele>18.0</ele><time>2026-04-26T14:32:19.501Z</time></trkpt><trkpt lat="44.8392633" lon="10.8281967"><ele>18.0</ele><time>2026-04-26T14:32:20.502Z</time></trkpt><trkpt lat="44.839315" lon="10.828275"><ele>18.000000000000004</ele><time>2026-04-26T14:32:21.502Z</time></trkpt><trkpt lat="44.8393683" lon="10.8283483"><ele>18.0</ele><time>2026-04-26T14:32:22.501Z</time></trkpt><trkpt lat="44.8394233" lon="10.8284217"><ele>18.166666666666668</ele><time>2026-04-26T14:32:23.502Z</time></trkpt><trkpt lat="44.8394817" lon="10.8284983"><ele>18.333333333333332</ele><time>2026-04-26T14:32:24.501Z</time></trkpt><trkpt lat="44.8395367" lon="10.8285683"><ele>18.5</ele><time>2026-04-26T14:32:25.501Z</time></trkpt><trkpt lat="44.8395917" lon="10.82864"><ele>18.666666666666664</ele><time>2026-04-26T14:32:26.502Z</time></trkpt><trkpt lat="44.8396483" lon="10.828715"><ele>18.833333333333332</ele><time>2026-04-26T14:32:27.502Z</time></trkpt><trkpt lat="44.8397" lon="10.8287867"><ele>19.0</ele><time>2026-04-26T14:32:28.501Z</time></trkpt><trkpt lat="44.8397533" lon="10.8288533"><ele>19.0</ele><time>2026-04-26T14:32:29.501Z</time></trkpt><trkpt lat="44.8398183" lon="10.8289317"><ele>19.0</ele><time>2026-04-26T14:32:30.502Z</time></trkpt><trkpt lat="44.83988" lon="10.8290133"><ele>19.0</ele><time>2026-04-26T14:32:31.501Z</time></trkpt><trkpt lat="44.83994" lon="10.8290867"><ele>19.0</ele><time>2026-04-26T14:32:32.502Z</time></trkpt><trkpt lat="44.839995" lon="10.8291617"><ele>19.0</ele><time>2026-04-26T14:32:33.502Z</time></trkpt><trkpt lat="44.8400433" lon="10.8292267"><ele>19.0</ele><time>2026-04-26T14:32:34.501Z</time></trkpt><trkpt lat="44.840085" lon="10.829295"><ele>19.2</ele><time>2026-04-26T14:32:35.501Z</time></trkpt><trkpt lat="44.8401283" lon="10.82936"><ele>19.4</ele><time>2026-04-26T14:32:36.501Z</time></trkpt><trkpt lat="44.8402117" lon="10.8294717"><ele>19.6</ele><time>2026-04-26T14:32:38.501Z</time></trkpt><trkpt lat="44.8402933" lon="10.8295783"><ele>19.8</ele><time>2026-04-26T14:32:40.502Z</time></trkpt><trkpt lat="44.840375" lon="10.8296817"><ele>20.0</ele><time>2026-04-26T14:32:42.501Z</time></trkpt><trkpt lat="44.8404267" lon="10.82975"><ele>20.0</ele><time>2026-04-26T14:32:45.502Z</time></trkpt><trkpt lat="44.840425" lon="10.8298483"><ele>20.0</ele><time>2026-04-26T14:32:52.501Z</time></trkpt><trkpt lat="44.840385" lon="10.82998"><ele>20.0</ele><time>2026-04-26T14:32:54.502Z</time></trkpt><trkpt lat="44.8403283" lon="10.8301367"><ele>20.0</ele><time>2026-04-26T14:32:56.502Z</time></trkpt><trkpt lat="44.840305" lon="10.8302217"><ele>20.0</ele><time>2026-04-26T14:32:57.501Z</time></trkpt><trkpt lat="44.8402783" lon="10.8303133"><ele>20.0</ele><time>2026-04-26T14:32:58.502Z</time></trkpt><trkpt lat="44.8402517" lon="10.8304067"><ele>20.0</ele><time>2026-04-26T14:32:59.502Z</time></trkpt><trkpt lat="44.8402233" lon="10.8304933"><ele>20.0</ele><time>2026-04-26T14:33:00.501Z</time></trkpt><trkpt lat="44.8402" lon="10.8305783"><ele>20.0</ele><time>2026-04-26T14:33:01.502Z</time></trkpt><trkpt lat="44.84015" lon="10.83073"><ele>20.0</ele><time>2026-04-26T14:33:03.502Z</time></trkpt><trkpt lat="44.8401067" lon="10.8308783"><ele>20.0</ele><time>2026-04-26T14:33:05.501Z</time></trkpt><trkpt lat="44.8400717" lon="10.8310033"><ele>20.5</ele><time>2026-04-26T14:33:07.501Z</time></trkpt><trkpt lat="44.8400317" lon="10.8311317"><ele>21.0</ele><time>2026-04-26T14:33:09.5Z</time></trkpt><trkpt lat="44.8399883" lon="10.83128"><ele>21.5</ele><time>2026-04-26T14:33:11.5Z</time></trkpt><trkpt lat="44.8399633" lon="10.8313633"><ele>22.0</ele><time>2026-04-26T14:33:12.501Z</time></trkpt><trkpt lat="44.839935" lon="10.8314533"><ele>22.5</ele><time>2026-04-26T14:33:13.501Z</time></trkpt><trkpt lat="44.8399117" lon="10.8315367"><ele>23.0</ele><time>2026-04-26T14:33:14.5Z</time></trkpt><trkpt lat="44.8398867" lon="10.8316217"><ele>23.0</ele><time>2026-04-26T14:33:15.501Z</time></trkpt><trkpt lat="44.83984" lon="10.8317717"><ele>23.0</ele><time>2026-04-26T14:33:17.501Z</time></trkpt><trkpt lat="44.8398" lon="10.831895"><ele>23.0</ele><time>2026-04-26T14:33:19.5Z</time></trkpt><trkpt lat="44.8397533" lon="10.8320433"><ele>23.0</ele><time>2026-04-26T14:33:21.501Z</time></trkpt><trkpt lat="44.8397117" lon="10.832195"><ele>23.0</ele><time>2026-04-26T14:33:23.501Z</time></trkpt><trkpt lat="44.8396867" lon="10.8322767"><ele>22.5</ele><time>2026-04-26T14:33:24.5Z</time></trkpt><trkpt lat="44.8396367" lon="10.8324217"><ele>22.0</ele><time>2026-04-26T14:33:26.501Z</time></trkpt><trkpt lat="44.8396133" lon="10.8325067"><ele>21.5</ele><time>2026-04-26T14:33:27.5Z</time></trkpt><trkpt lat="44.8395883" lon="10.832595"><ele>21.0</ele><time>2026-04-26T14:33:28.5Z</time></trkpt><trkpt lat="44.8395633" lon="10.8326767"><ele>20.5</ele><time>2026-04-26T14:33:29.5Z</time></trkpt><trkpt lat="44.839515" lon="10.83284"><ele>20.0</ele><time>2026-04-26T14:33:31.501Z</time></trkpt><trkpt lat="44.83949" lon="10.8329233"><ele>19.8</ele><time>2026-04-26T14:33:32.501Z</time></trkpt><trkpt lat="44.8394683" lon="10.8330067"><ele>19.6</ele><time>2026-04-26T14:33:33.5Z</time></trkpt><trkpt lat="44.8394283" lon="10.8331567"><ele>19.4</ele><time>2026-04-26T14:33:35.501Z</time></trkpt><trkpt lat="44.8393917" lon="10.8333117"><ele>19.2</ele><time>2026-04-26T14:33:37.5Z</time></trkpt><trkpt lat="44.8393667" lon="10.8333967"><ele>19.0</ele><time>2026-04-26T14:33:38.501Z</time></trkpt><trkpt lat="44.8393233" lon="10.8335483"><ele>19.0</ele><time>2026-04-26T14:33:40.501Z</time></trkpt><trkpt lat="44.8392817" lon="10.8337117"><ele>19.0</ele><time>2026-04-26T14:33:42.501Z</time></trkpt><trkpt lat="44.8392533" lon="10.8338083"><ele>19.0</ele><time>2026-04-26T14:33:43.5Z</time></trkpt><trkpt lat="44.839225" lon="10.8339083"><ele>19.0</ele><time>2026-04-26T14:33:44.5Z</time></trkpt><trkpt lat="44.83919" lon="10.834015"><ele>19.0</ele><time>2026-04-26T14:33:45.5Z</time></trkpt><trkpt lat="44.8391583" lon="10.83411"><ele>19.0</ele><time>2026-04-26T14:33:46.5Z</time></trkpt><trkpt lat="44.8391383" lon="10.8342017"><ele>19.166666666666664</ele><time>2026-04-26T14:33:47.5Z</time></trkpt><trkpt lat="44.8390933" lon="10.83436"><ele>19.333333333333332</ele><time>2026-04-26T14:33:49.501Z</time></trkpt><trkpt lat="44.839065" lon="10.8344467"><ele>19.5</ele><time>2026-04-26T14:33:50.5Z</time></trkpt><trkpt lat="44.839035" lon="10.8345317"><ele>19.666666666666668</ele><time>2026-04-26T14:33:51.5Z</time></trkpt><trkpt lat="44.8390067" lon="10.834615"><ele>19.833333333333336</ele><time>2026-04-26T14:33:52.501Z</time></trkpt><trkpt lat="44.838975" lon="10.8347117"><ele>20.0</ele><time>2026-04-26T14:33:53.501Z</time></trkpt><trkpt lat="44.8389517" lon="10.8348067"><ele>20.0</ele><time>2026-04-26T14:33:54.501Z</time></trkpt><trkpt lat="44.838925" lon="10.834905"><ele>20.0</ele><time>2026-04-26T14:33:55.501Z</time></trkpt><trkpt lat="44.8388967" lon="10.835"><ele>20.0</ele><time>2026-04-26T14:33:56.501Z</time></trkpt><trkpt lat="44.8388683" lon="10.8350867"><ele>20.0</ele><time>2026-04-26T14:33:57.5Z</time></trkpt><trkpt lat="44.8388367" lon="10.8351833"><ele>20.0</ele><time>2026-04-26T14:33:58.501Z</time></trkpt><trkpt lat="44.8388117" lon="10.83528"><ele>20.0</ele><time>2026-04-26T14:33:59.501Z</time></trkpt><trkpt lat="44.8387817" lon="10.83537"><ele>20.0</ele><time>2026-04-26T14:34:00.5Z</time></trkpt><trkpt lat="44.8387533" lon="10.8354517"><ele>20.0</ele><time>2026-04-26T14:34:01.5Z</time></trkpt><trkpt lat="44.8387233" lon="10.8355367"><ele>20.0</ele><time>2026-04-26T14:34:02.5Z</time></trkpt><trkpt lat="44.8386967" lon="10.83563"><ele>20.0</ele><time>2026-04-26T14:34:03.501Z</time></trkpt><trkpt lat="44.8386733" lon="10.83572"><ele>20.0</ele><time>2026-04-26T14:34:04.501Z</time></trkpt><trkpt lat="44.8386483" lon="10.8358083"><ele>20.0</ele><time>2026-04-26T14:34:05.501Z</time></trkpt><trkpt lat="44.83862" lon="10.8359033"><ele>20.0</ele><time>2026-04-26T14:34:06.5Z</time></trkpt><trkpt lat="44.8385917" lon="10.8359933"><ele>20.0</ele><time>2026-04-26T14:34:07.5Z</time></trkpt><trkpt lat="44.838565" lon="10.8360883"><ele>20.0</ele><time>2026-04-26T14:34:08.5Z</time></trkpt><trkpt lat="44.83854" lon="10.8361817"><ele>20.0</ele><time>2026-04-26T14:34:09.501Z</time></trkpt><trkpt lat="44.8385117" lon="10.8362733"><ele>20.0</ele><time>2026-04-26T14:34:10.5Z</time></trkpt><trkpt lat="44.8384767" lon="10.836375"><ele>20.0</ele><time>2026-04-26T14:34:11.5Z</time></trkpt><trkpt lat="44.8384417" lon="10.836475"><ele>20.0</ele><time>2026-04-26T14:34:12.5Z</time></trkpt><trkpt lat="44.83841" lon="10.8365683"><ele>20.0</ele><time>2026-04-26T14:34:13.501Z</time></trkpt><trkpt lat="44.8383867" lon="10.8366583"><ele>20.0</ele><time>2026-04-26T14:34:14.501Z</time></trkpt><trkpt lat="44.8383567" lon="10.8367533"><ele>20.0</ele><time>2026-04-26T14:34:15.501Z</time></trkpt><trkpt lat="44.8383283" lon="10.8368467"><ele>20.0</ele><time>2026-04-26T14:34:16.501Z</time></trkpt><trkpt lat="44.8383033" lon="10.8369483"><ele>20.0</ele><time>2026-04-26T14:34:17.5Z</time></trkpt><trkpt lat="44.83828" lon="10.8370483"><ele>20.0</ele><time>2026-04-26T14:34:18.501Z</time></trkpt><trkpt lat="44.8382483" lon="10.8371383"><ele>20.0</ele><time>2026-04-26T14:34:19.5Z</time></trkpt><trkpt lat="44.8382217" lon="10.8372283"><ele>20.0</ele><time>2026-04-26T14:34:20.5Z</time></trkpt><trkpt lat="44.8381733" lon="10.8373833"><ele>20.0</ele><time>2026-04-26T14:34:22.501Z</time></trkpt><trkpt lat="44.8381333" lon="10.837545"><ele>20.0</ele><time>2026-04-26T14:34:24.501Z</time></trkpt><trkpt lat="44.8380767" lon="10.8377133"><ele>20.0</ele><time>2026-04-26T14:34:26.5Z</time></trkpt><trkpt lat="44.8380467" lon="10.837805"><ele>20.0</ele><time>2026-04-26T14:34:27.5Z</time></trkpt><trkpt lat="44.8380183" lon="10.8379133"><ele>20.0</ele><time>2026-04-26T14:34:28.501Z</time></trkpt><trkpt lat="44.8379917" lon="10.8380283"><ele>19.833333333333336</ele><time>2026-04-26T14:34:29.5Z</time></trkpt><trkpt lat="44.83796" lon="10.8381533"><ele>19.666666666666668</ele><time>2026-04-26T14:34:30.501Z</time></trkpt><trkpt lat="44.83793" lon="10.8382783"><ele>19.5</ele><time>2026-04-26T14:34:31.5Z</time></trkpt><trkpt lat="44.83791" lon="10.8383983"><ele>19.333333333333332</ele><time>2026-04-26T14:34:32.5Z</time></trkpt><trkpt lat="44.837885" lon="10.8385183"><ele>19.166666666666664</ele><time>2026-04-26T14:34:33.5Z</time></trkpt><trkpt lat="44.8378717" lon="10.8386283"><ele>19.0</ele><time>2026-04-26T14:34:34.5Z</time></trkpt><trkpt lat="44.83786" lon="10.838745"><ele>19.0</ele><time>2026-04-26T14:34:35.5Z</time></trkpt><trkpt lat="44.83785" lon="10.8388633"><ele>19.0</ele><time>2026-04-26T14:34:36.5Z</time></trkpt><trkpt lat="44.8378417" lon="10.8389883"><ele>19.0</ele><time>2026-04-26T14:34:37.5Z</time></trkpt><trkpt lat="44.8378283" lon="10.8391233"><ele>19.0</ele><time>2026-04-26T14:34:38.5Z</time></trkpt><trkpt lat="44.8378167" lon="10.8392483"><ele>19.0</ele><time>2026-04-26T14:34:39.5Z</time></trkpt><trkpt lat="44.8378067" lon="10.8393717"><ele>19.0</ele><time>2026-04-26T14:34:40.501Z</time></trkpt><trkpt lat="44.8377983" lon="10.8394883"><ele>19.0</ele><time>2026-04-26T14:34:41.5Z</time></trkpt><trkpt lat="44.8377933" lon="10.8395917"><ele>19.0</ele><time>2026-04-26T14:34:42.501Z</time></trkpt><trkpt lat="44.837785" lon="10.8396983"><ele>19.0</ele><time>2026-04-26T14:34:43.501Z</time></trkpt><trkpt lat="44.8377767" lon="10.8398117"><ele>19.0</ele><time>2026-04-26T14:34:44.5Z</time></trkpt><trkpt lat="44.83777" lon="10.8399283"><ele>19.0</ele><time>2026-04-26T14:34:45.501Z</time></trkpt><trkpt lat="44.837765" lon="10.8400467"><ele>19.0</ele><time>2026-04-26T14:34:46.5Z</time></trkpt><trkpt lat="44.8377633" lon="10.8401633"><ele>18.857142857142858</ele><time>2026-04-26T14:34:47.501Z</time></trkpt><trkpt lat="44.83776" lon="10.84027"><ele>18.714285714285715</ele><time>2026-04-26T14:34:48.501Z</time></trkpt><trkpt lat="44.837755" lon="10.8403733"><ele>18.571428571428573</ele><time>2026-04-26T14:34:49.5Z</time></trkpt><trkpt lat="44.8377417" lon="10.84047"><ele>18.42857142857143</ele><time>2026-04-26T14:34:50.5Z</time></trkpt><trkpt lat="44.8377317" lon="10.8405783"><ele>18.285714285714285</ele><time>2026-04-26T14:34:51.5Z</time></trkpt><trkpt lat="44.8377233" lon="10.8406817"><ele>18.142857142857146</ele><time>2026-04-26T14:34:52.5Z</time></trkpt><trkpt lat="44.8377133" lon="10.840785"><ele>18.0</ele><time>2026-04-26T14:34:53.501Z</time></trkpt><trkpt lat="44.8377083" lon="10.8408917"><ele>18.142857142857146</ele><time>2026-04-26T14:34:54.5Z</time></trkpt><trkpt lat="44.8377017" lon="10.8409967"><ele>18.285714285714285</ele><time>2026-04-26T14:34:55.501Z</time></trkpt><trkpt lat="44.8376967" lon="10.8411017"><ele>18.42857142857143</ele><time>2026-04-26T14:34:56.501Z</time></trkpt><trkpt lat="44.8376933" lon="10.84121"><ele>18.571428571428573</ele><time>2026-04-26T14:34:57.5Z</time></trkpt><trkpt lat="44.8376883" lon="10.8413183"><ele>18.714285714285715</ele><time>2026-04-26T14:34:58.501Z</time></trkpt><trkpt lat="44.837685" lon="10.8414217"><ele>18.857142857142858</ele><time>2026-04-26T14:34:59.501Z</time></trkpt><trkpt lat="44.8376783" lon="10.84152"><ele>19.0</ele><time>2026-04-26T14:35:00.5Z</time></trkpt><trkpt lat="44.83767" lon="10.84163"><ele>19.0</ele><time>2026-04-26T14:35:01.501Z</time></trkpt><trkpt lat="44.837665" lon="10.8417367"><ele>19.0</ele><time>2026-04-26T14:35:02.501Z</time></trkpt><trkpt lat="44.8376567" lon="10.8418483"><ele>19.0</ele><time>2026-04-26T14:35:03.5Z</time></trkpt><trkpt lat="44.8376467" lon="10.8419667"><ele>19.0</ele><time>2026-04-26T14:35:04.5Z</time></trkpt><trkpt lat="44.8376383" lon="10.84208"><ele>19.0</ele><time>2026-04-26T14:35:05.5Z</time></trkpt><trkpt lat="44.8376333" lon="10.842195"><ele>19.0</ele><time>2026-04-26T14:35:06.5Z</time></trkpt><trkpt lat="44.83763" lon="10.8423133"><ele>19.0</ele><time>2026-04-26T14:35:07.501Z</time></trkpt><trkpt lat="44.8376267" lon="10.8424317"><ele>19.0</ele><time>2026-04-26T14:35:08.501Z</time></trkpt><trkpt lat="44.8376183" lon="10.8425567"><ele>19.0</ele><time>2026-04-26T14:35:09.5Z</time></trkpt><trkpt lat="44.8376167" lon="10.8426783"><ele>19.0</ele><time>2026-04-26T14:35:10.501Z</time></trkpt><trkpt lat="44.837615" lon="10.842785"><ele>19.0</ele><time>2026-04-26T14:35:11.501Z</time></trkpt><trkpt lat="44.8375967" lon="10.8429383"><ele>19.0</ele><time>2026-04-26T14:35:13.5Z</time></trkpt><trkpt lat="44.8375867" lon="10.8431217"><ele>18.833333333333332</ele><time>2026-04-26T14:35:15.5Z</time></trkpt><trkpt lat="44.83758" lon="10.84323"><ele>18.666666666666664</ele><time>2026-04-26T14:35:16.501Z</time></trkpt><trkpt lat="44.83757" lon="10.8433333"><ele>18.5</ele><time>2026-04-26T14:35:17.501Z</time></trkpt><trkpt lat="44.8375567" lon="10.8434467"><ele>18.333333333333332</ele><time>2026-04-26T14:35:18.501Z</time></trkpt><trkpt lat="44.83755" lon="10.8435683"><ele>18.166666666666668</ele><time>2026-04-26T14:35:19.5Z</time></trkpt><trkpt lat="44.837545" lon="10.843695"><ele>18.0</ele><time>2026-04-26T14:35:20.5Z</time></trkpt><trkpt lat="44.837535" lon="10.8438267"><ele>18.0</ele><time>2026-04-26T14:35:21.501Z</time></trkpt><trkpt lat="44.8375267" lon="10.8439517"><ele>18.0</ele><time>2026-04-26T14:35:22.5Z</time></trkpt><trkpt lat="44.8375167" lon="10.8440783"><ele>18.0</ele><time>2026-04-26T14:35:23.5Z</time></trkpt><trkpt lat="44.8375117" lon="10.8442017"><ele>18.0</ele><time>2026-04-26T14:35:24.501Z</time></trkpt><trkpt lat="44.8375117" lon="10.8443167"><ele>18.0</ele><time>2026-04-26T14:35:25.5Z</time></trkpt><trkpt lat="44.837505" lon="10.8444333"><ele>18.0</ele><time>2026-04-26T14:35:26.5Z</time></trkpt><trkpt lat="44.8374983" lon="10.8445433"><ele>18.0</ele><time>2026-04-26T14:35:27.501Z</time></trkpt><trkpt lat="44.83749" lon="10.8446533"><ele>18.0</ele><time>2026-04-26T14:35:28.501Z</time></trkpt><trkpt lat="44.8374817" lon="10.8447567"><ele>18.0</ele><time>2026-04-26T14:35:29.501Z</time></trkpt><trkpt lat="44.8374733" lon="10.8448617"><ele>18.0</ele><time>2026-04-26T14:35:30.5Z</time></trkpt><trkpt lat="44.8374633" lon="10.8449633"><ele>18.0</ele><time>2026-04-26T14:35:31.501Z</time></trkpt><trkpt lat="44.8374567" lon="10.8450683"><ele>18.0</ele><time>2026-04-26T14:35:32.501Z</time></trkpt><trkpt lat="44.8374483" lon="10.8451733"><ele>18.0</ele><time>2026-04-26T14:35:33.501Z</time></trkpt><trkpt lat="44.8374383" lon="10.8452833"><ele>18.0</ele><time>2026-04-26T14:35:34.5Z</time></trkpt><trkpt lat="44.8374283" lon="10.8453883"><ele>18.0</ele><time>2026-04-26T14:35:35.501Z</time></trkpt><trkpt lat="44.8374233" lon="10.8455"><ele>18.0</ele><time>2026-04-26T14:35:36.5Z</time></trkpt><trkpt lat="44.8374133" lon="10.845615"><ele>18.0</ele><time>2026-04-26T14:35:37.501Z</time></trkpt><trkpt lat="44.83741" lon="10.84573"><ele>18.0</ele><time>2026-04-26T14:35:38.501Z</time></trkpt><trkpt lat="44.837405" lon="10.8458417"><ele>18.0</ele><time>2026-04-26T14:35:39.5Z</time></trkpt><trkpt lat="44.8373983" lon="10.8459583"><ele>18.0</ele><time>2026-04-26T14:35:40.5Z</time></trkpt><trkpt lat="44.83739" lon="10.8460717"><ele>18.0</ele><time>2026-04-26T14:35:41.5Z</time></trkpt><trkpt lat="44.8373833" lon="10.846185"><ele>18.0</ele><time>2026-04-26T14:35:42.5Z</time></trkpt><trkpt lat="44.8373733" lon="10.84629"><ele>18.0</ele><time>2026-04-26T14:35:43.5Z</time></trkpt><trkpt lat="44.8373667" lon="10.8463967"><ele>18.0</ele><time>2026-04-26T14:35:44.5Z</time></trkpt><trkpt lat="44.8373583" lon="10.846505"><ele>18.0</ele><time>2026-04-26T14:35:45.5Z</time></trkpt><trkpt lat="44.8373533" lon="10.8466133"><ele>18.0</ele><time>2026-04-26T14:35:46.5Z</time></trkpt><trkpt lat="44.8373417" lon="10.8467183"><ele>18.0</ele><time>2026-04-26T14:35:47.501Z</time></trkpt><trkpt lat="44.8373383" lon="10.8468267"><ele>18.0</ele><time>2026-04-26T14:35:48.501Z</time></trkpt><trkpt lat="44.8373333" lon="10.846935"><ele>18.0</ele><time>2026-04-26T14:35:49.501Z</time></trkpt><trkpt lat="44.8373233" lon="10.8470467"><ele>18.0</ele><time>2026-04-26T14:35:50.501Z</time></trkpt><trkpt lat="44.8373133" lon="10.847155"><ele>18.0</ele><time>2026-04-26T14:35:51.5Z</time></trkpt><trkpt lat="44.8373083" lon="10.8472633"><ele>18.0</ele><time>2026-04-26T14:35:52.5Z</time></trkpt><trkpt lat="44.8373017" lon="10.847375"><ele>18.0</ele><time>2026-04-26T14:35:53.5Z</time></trkpt><trkpt lat="44.8372967" lon="10.8474883"><ele>18.0</ele><time>2026-04-26T14:35:54.501Z</time></trkpt><trkpt lat="44.8372917" lon="10.8475983"><ele>18.0</ele><time>2026-04-26T14:35:55.501Z</time></trkpt><trkpt lat="44.837285" lon="10.8477083"><ele>18.0</ele><time>2026-04-26T14:35:56.501Z</time></trkpt><trkpt lat="44.837275" lon="10.847825"><ele>18.0</ele><time>2026-04-26T14:35:57.501Z</time></trkpt><trkpt lat="44.83727" lon="10.84794"><ele>18.0</ele><time>2026-04-26T14:35:58.5Z</time></trkpt><trkpt lat="44.8372617" lon="10.8480567"><ele>18.0</ele><time>2026-04-26T14:35:59.501Z</time></trkpt><trkpt lat="44.837255" lon="10.84817"><ele>18.0</ele><time>2026-04-26T14:36:00.5Z</time></trkpt><trkpt lat="44.8372467" lon="10.8482817"><ele>18.0</ele><time>2026-04-26T14:36:01.501Z</time></trkpt><trkpt lat="44.8372367" lon="10.8483917"><ele>18.0</ele><time>2026-04-26T14:36:02.5Z</time></trkpt><trkpt lat="44.8372283" lon="10.8485067"><ele>18.333333333333332</ele><time>2026-04-26T14:36:03.5Z</time></trkpt><trkpt lat="44.8372183" lon="10.8486183"><ele>18.666666666666668</ele><time>2026-04-26T14:36:04.501Z</time></trkpt><trkpt lat="44.8372083" lon="10.84873"><ele>19.0</ele><time>2026-04-26T14:36:05.501Z</time></trkpt><trkpt lat="44.8372017" lon="10.8488517"><ele>19.333333333333336</ele><time>2026-04-26T14:36:06.5Z</time></trkpt><trkpt lat="44.8372017" lon="10.8489667"><ele>19.666666666666668</ele><time>2026-04-26T14:36:07.501Z</time></trkpt><trkpt lat="44.837195" lon="10.8490783"><ele>20.0</ele><time>2026-04-26T14:36:08.501Z</time></trkpt><trkpt lat="44.8371867" lon="10.84919"><ele>20.0</ele><time>2026-04-26T14:36:09.5Z</time></trkpt><trkpt lat="44.8371883" lon="10.8492983"><ele>20.0</ele><time>2026-04-26T14:36:10.501Z</time></trkpt><trkpt lat="44.837185" lon="10.8494067"><ele>20.0</ele><time>2026-04-26T14:36:11.501Z</time></trkpt><trkpt lat="44.83718" lon="10.8495183"><ele>20.0</ele><time>2026-04-26T14:36:12.5Z</time></trkpt><trkpt lat="44.83717" lon="10.8496217"><ele>20.0</ele><time>2026-04-26T14:36:13.501Z</time></trkpt><trkpt lat="44.8371583" lon="10.8497317"><ele>20.0</ele><time>2026-04-26T14:36:14.501Z</time></trkpt><trkpt lat="44.8371483" lon="10.8498417"><ele>20.0</ele><time>2026-04-26T14:36:15.501Z</time></trkpt><trkpt lat="44.8371367" lon="10.84995"><ele>20.0</ele><time>2026-04-26T14:36:16.5Z</time></trkpt><trkpt lat="44.83713" lon="10.8500617"><ele>20.0</ele><time>2026-04-26T14:36:17.501Z</time></trkpt><trkpt lat="44.8371217" lon="10.85018"><ele>20.0</ele><time>2026-04-26T14:36:18.501Z</time></trkpt><trkpt lat="44.8371167" lon="10.8503"><ele>20.0</ele><time>2026-04-26T14:36:19.5Z</time></trkpt><trkpt lat="44.8371133" lon="10.8504183"><ele>20.0</ele><time>2026-04-26T14:36:20.5Z</time></trkpt><trkpt lat="44.8371117" lon="10.8505333"><ele>20.0</ele><time>2026-04-26T14:36:21.5Z</time></trkpt><trkpt lat="44.8371067" lon="10.85064"><ele>20.0</ele><time>2026-04-26T14:36:22.5Z</time></trkpt><trkpt lat="44.8371" lon="10.8507517"><ele>20.0</ele><time>2026-04-26T14:36:23.5Z</time></trkpt><trkpt lat="44.83709" lon="10.850865"><ele>20.0</ele><time>2026-04-26T14:36:24.501Z</time></trkpt><trkpt lat="44.837085" lon="10.8509733"><ele>20.0</ele><time>2026-04-26T14:36:25.5Z</time></trkpt><trkpt lat="44.8370717" lon="10.8510883"><ele>20.0</ele><time>2026-04-26T14:36:26.501Z</time></trkpt><trkpt lat="44.837065" lon="10.8512033"><ele>20.2</ele><time>2026-04-26T14:36:27.501Z</time></trkpt><trkpt lat="44.8370583" lon="10.8513117"><ele>20.4</ele><time>2026-04-26T14:36:28.5Z</time></trkpt><trkpt lat="44.8370517" lon="10.85141"><ele>20.6</ele><time>2026-04-26T14:36:29.5Z</time></trkpt><trkpt lat="44.8370433" lon="10.8515017"><ele>20.8</ele><time>2026-04-26T14:36:30.501Z</time></trkpt><trkpt lat="44.8370433" lon="10.8516683"><ele>21.0</ele><time>2026-04-26T14:36:32.501Z</time></trkpt><trkpt lat="44.83705" lon="10.85185"><ele>21.0</ele><time>2026-04-26T14:36:34.501Z</time></trkpt><trkpt lat="44.8370433" lon="10.8520083"><ele>21.0</ele><time>2026-04-26T14:36:36.501Z</time></trkpt><trkpt lat="44.837015" lon="10.852125"><ele>21.0</ele><time>2026-04-26T14:36:38.501Z</time></trkpt><trkpt lat="44.8369217" lon="10.8521933"><ele>21.0</ele><time>2026-04-26T14:36:40.501Z</time></trkpt><trkpt lat="44.8368467" lon="10.8521933"><ele>21.0</ele><time>2026-04-26T14:36:41.5Z</time></trkpt><trkpt lat="44.8367683" lon="10.8521883"><ele>21.0</ele><time>2026-04-26T14:36:42.501Z</time></trkpt><trkpt lat="44.83669" lon="10.8521833"><ele>21.0</ele><time>2026-04-26T14:36:43.5Z</time></trkpt><trkpt lat="44.8366133" lon="10.8521733"><ele>21.0</ele><time>2026-04-26T14:36:44.501Z</time></trkpt><trkpt lat="44.836535" lon="10.8521717"><ele>21.0</ele><time>2026-04-26T14:36:45.501Z</time></trkpt><trkpt lat="44.8364583" lon="10.8521767"><ele>21.0</ele><time>2026-04-26T14:36:46.5Z</time></trkpt><trkpt lat="44.836385" lon="10.8521717"><ele>21.0</ele><time>2026-04-26T14:36:47.501Z</time></trkpt><trkpt lat="44.836315" lon="10.8521667"><ele>21.0</ele><time>2026-04-26T14:36:48.501Z</time></trkpt><trkpt lat="44.8361917" lon="10.8521467"><ele>21.0</ele><time>2026-04-26T14:36:50.5Z</time></trkpt><trkpt lat="44.836125" lon="10.8521217"><ele>21.0</ele><time>2026-04-26T14:36:51.501Z</time></trkpt><trkpt lat="44.8360533" lon="10.8520783"><ele>21.0</ele><time>2026-04-26T14:36:52.5Z</time></trkpt><trkpt lat="44.8359833" lon="10.852025"><ele>21.0</ele><time>2026-04-26T14:36:53.5Z</time></trkpt><trkpt lat="44.83592" lon="10.8519583"><ele>21.0</ele><time>2026-04-26T14:36:54.5Z</time></trkpt><trkpt lat="44.8358583" lon="10.8518833"><ele>20.833333333333332</ele><time>2026-04-26T14:36:55.501Z</time></trkpt><trkpt lat="44.835795" lon="10.8518017"><ele>20.666666666666668</ele><time>2026-04-26T14:36:56.5Z</time></trkpt><trkpt lat="44.835735" lon="10.8517267"><ele>20.5</ele><time>2026-04-26T14:36:57.5Z</time></trkpt><trkpt lat="44.8356733" lon="10.8516517"><ele>20.333333333333336</ele><time>2026-04-26T14:36:58.5Z</time></trkpt><trkpt lat="44.8356167" lon="10.8515883"><ele>20.166666666666668</ele><time>2026-04-26T14:36:59.5Z</time></trkpt><trkpt lat="44.835555" lon="10.8515267"><ele>20.0</ele><time>2026-04-26T14:37:00.501Z</time></trkpt><trkpt lat="44.8354917" lon="10.85147"><ele>19.857142857142858</ele><time>2026-04-26T14:37:01.5Z</time></trkpt><trkpt lat="44.83543" lon="10.8514183"><ele>19.714285714285715</ele><time>2026-04-26T14:37:02.5Z</time></trkpt><trkpt lat="44.8353667" lon="10.8513733"><ele>19.57142857142857</ele><time>2026-04-26T14:37:03.501Z</time></trkpt><trkpt lat="44.8352983" lon="10.8513283"><ele>19.42857142857143</ele><time>2026-04-26T14:37:04.5Z</time></trkpt><trkpt lat="44.8352317" lon="10.85128"><ele>19.28571428571429</ele><time>2026-04-26T14:37:05.5Z</time></trkpt><trkpt lat="44.8351633" lon="10.851235"><ele>19.142857142857142</ele><time>2026-04-26T14:37:06.501Z</time></trkpt><trkpt lat="44.8350983" lon="10.8511933"><ele>19.0</ele><time>2026-04-26T14:37:07.5Z</time></trkpt><trkpt lat="44.8350383" lon="10.8511567"><ele>19.0</ele><time>2026-04-26T14:37:08.5Z</time></trkpt><trkpt lat="44.834975" lon="10.8511167"><ele>19.0</ele><time>2026-04-26T14:37:09.5Z</time></trkpt><trkpt lat="44.8349133" lon="10.8510833"><ele>19.0</ele><time>2026-04-26T14:37:10.501Z</time></trkpt><trkpt lat="44.834855" lon="10.8510483"><ele>19.0</ele><time>2026-04-26T14:37:11.501Z</time></trkpt><trkpt lat="44.8347933" lon="10.8510133"><ele>19.0</ele><time>2026-04-26T14:37:12.501Z</time></trkpt><trkpt lat="44.834735" lon="10.8509767"><ele>19.0</ele><time>2026-04-26T14:37:13.501Z</time></trkpt><trkpt lat="44.8346183" lon="10.8509033"><ele>19.0</ele><time>2026-04-26T14:37:15.501Z</time></trkpt><trkpt lat="44.8345567" lon="10.8508683"><ele>19.0</ele><time>2026-04-26T14:37:16.501Z</time></trkpt><trkpt lat="44.8344933" lon="10.85083"><ele>19.0</ele><time>2026-04-26T14:37:17.5Z</time></trkpt><trkpt lat="44.8343783" lon="10.850765"><ele>19.0</ele><time>2026-04-26T14:37:19.501Z</time></trkpt><trkpt lat="44.8342533" lon="10.8506917"><ele>19.0</ele><time>2026-04-26T14:37:21.501Z</time></trkpt><trkpt lat="44.8341867" lon="10.850655"><ele>19.166666666666664</ele><time>2026-04-26T14:37:22.5Z</time></trkpt><trkpt lat="44.8341183" lon="10.8506217"><ele>19.333333333333332</ele><time>2026-04-26T14:37:23.501Z</time></trkpt><trkpt lat="44.83405" lon="10.8505833"><ele>19.5</ele><time>2026-04-26T14:37:24.5Z</time></trkpt><trkpt lat="44.8339817" lon="10.8505467"><ele>19.666666666666668</ele><time>2026-04-26T14:37:25.501Z</time></trkpt><trkpt lat="44.833905" lon="10.8505017"><ele>19.833333333333336</ele><time>2026-04-26T14:37:26.501Z</time></trkpt><trkpt lat="44.8338267" lon="10.8504483"><ele>20.0</ele><time>2026-04-26T14:37:27.5Z</time></trkpt><trkpt lat="44.8337467" lon="10.8503983"><ele>20.0</ele><time>2026-04-26T14:37:28.5Z</time></trkpt><trkpt lat="44.8336683" lon="10.8503433"><ele>20.0</ele><time>2026-04-26T14:37:29.501Z</time></trkpt><trkpt lat="44.83359" lon="10.8502883"><ele>20.0</ele><time>2026-04-26T14:37:30.5Z</time></trkpt><trkpt lat="44.8335117" lon="10.8502283"><ele>20.0</ele><time>2026-04-26T14:37:31.5Z</time></trkpt><trkpt lat="44.833435" lon="10.8501733"><ele>20.0</ele><time>2026-04-26T14:37:32.5Z</time></trkpt><trkpt lat="44.8333567" lon="10.8501217"><ele>20.0</ele><time>2026-04-26T14:37:33.5Z</time></trkpt><trkpt lat="44.833285" lon="10.8500783"><ele>19.666666666666668</ele><time>2026-04-26T14:37:34.5Z</time></trkpt><trkpt lat="44.8332083" lon="10.85003"><ele>19.333333333333336</ele><time>2026-04-26T14:37:35.501Z</time></trkpt><trkpt lat="44.833135" lon="10.8499817"><ele>19.0</ele><time>2026-04-26T14:37:36.501Z</time></trkpt><trkpt lat="44.833065" lon="10.84993"><ele>18.666666666666668</ele><time>2026-04-26T14:37:37.5Z</time></trkpt><trkpt lat="44.8329917" lon="10.84988"><ele>18.333333333333332</ele><time>2026-04-26T14:37:38.5Z</time></trkpt><trkpt lat="44.8329183" lon="10.84983"><ele>18.0</ele><time>2026-04-26T14:37:39.5Z</time></trkpt><trkpt lat="44.832845" lon="10.849785"><ele>18.0</ele><time>2026-04-26T14:37:40.5Z</time></trkpt><trkpt lat="44.8327733" lon="10.84974"><ele>18.0</ele><time>2026-04-26T14:37:41.5Z</time></trkpt><trkpt lat="44.8326983" lon="10.8496967"><ele>18.0</ele><time>2026-04-26T14:37:42.5Z</time></trkpt><trkpt lat="44.8326233" lon="10.8496533"><ele>18.0</ele><time>2026-04-26T14:37:43.5Z</time></trkpt><trkpt lat="44.8325583" lon="10.8496117"><ele>18.0</ele><time>2026-04-26T14:37:44.5Z</time></trkpt><trkpt lat="44.8324883" lon="10.849565"><ele>18.0</ele><time>2026-04-26T14:37:45.501Z</time></trkpt><trkpt lat="44.83242" lon="10.84952"><ele>18.0</ele><time>2026-04-26T14:37:46.501Z</time></trkpt><trkpt lat="44.83235" lon="10.84948"><ele>18.0</ele><time>2026-04-26T14:37:47.501Z</time></trkpt><trkpt lat="44.83228" lon="10.8494433"><ele>18.0</ele><time>2026-04-26T14:37:48.5Z</time></trkpt><trkpt lat="44.8322083" lon="10.8493983"><ele>18.0</ele><time>2026-04-26T14:37:49.5Z</time></trkpt><trkpt lat="44.8321383" lon="10.8493583"><ele>18.0</ele><time>2026-04-26T14:37:50.5Z</time></trkpt><trkpt lat="44.8320667" lon="10.849315"><ele>18.0</ele><time>2026-04-26T14:37:51.501Z</time></trkpt><trkpt lat="44.8319967" lon="10.8492883"><ele>18.0</ele><time>2026-04-26T14:37:52.501Z</time></trkpt><trkpt lat="44.831925" lon="10.8492567"><ele>18.0</ele><time>2026-04-26T14:37:53.501Z</time></trkpt><trkpt lat="44.8318533" lon="10.8492167"><ele>18.0</ele><time>2026-04-26T14:37:54.501Z</time></trkpt><trkpt lat="44.8317833" lon="10.84917"><ele>18.0</ele><time>2026-04-26T14:37:55.501Z</time></trkpt><trkpt lat="44.831715" lon="10.84913"><ele>18.0</ele><time>2026-04-26T14:37:56.5Z</time></trkpt><trkpt lat="44.8316433" lon="10.8490933"><ele>18.0</ele><time>2026-04-26T14:37:57.501Z</time></trkpt><trkpt lat="44.83157" lon="10.8490583"><ele>18.0</ele><time>2026-04-26T14:37:58.5Z</time></trkpt><trkpt lat="44.8315017" lon="10.84903"><ele>18.0</ele><time>2026-04-26T14:37:59.5Z</time></trkpt><trkpt lat="44.83143" lon="10.848995"><ele>18.0</ele><time>2026-04-26T14:38:00.501Z</time></trkpt><trkpt lat="44.8313533" lon="10.8489567"><ele>18.0</ele><time>2026-04-26T14:38:01.501Z</time></trkpt><trkpt lat="44.8312817" lon="10.8489117"><ele>18.0</ele><time>2026-04-26T14:38:02.5Z</time></trkpt><trkpt lat="44.8312033" lon="10.848865"><ele>18.0</ele><time>2026-04-26T14:38:03.5Z</time></trkpt><trkpt lat="44.831125" lon="10.8488167"><ele>18.0</ele><time>2026-04-26T14:38:04.5Z</time></trkpt><trkpt lat="44.8310417" lon="10.8487683"><ele>18.0</ele><time>2026-04-26T14:38:05.501Z</time></trkpt><trkpt lat="44.8309617" lon="10.8487133"><ele>18.0</ele><time>2026-04-26T14:38:06.5Z</time></trkpt><trkpt lat="44.8308833" lon="10.8486633"><ele>18.0</ele><time>2026-04-26T14:38:07.501Z</time></trkpt><trkpt lat="44.830805" lon="10.8486183"><ele>18.0</ele><time>2026-04-26T14:38:08.501Z</time></trkpt><trkpt lat="44.830725" lon="10.8485683"><ele>18.0</ele><time>2026-04-26T14:38:09.501Z</time></trkpt><trkpt lat="44.8306483" lon="10.8485133"><ele>18.0</ele><time>2026-04-26T14:38:10.501Z</time></trkpt><trkpt lat="44.8305717" lon="10.8484633"><ele>18.0</ele><time>2026-04-26T14:38:11.5Z</time></trkpt><trkpt lat="44.830495" lon="10.84841"><ele>18.0</ele><time>2026-04-26T14:38:12.501Z</time></trkpt><trkpt lat="44.8304233" lon="10.8483667"><ele>18.0</ele><time>2026-04-26T14:38:13.5Z</time></trkpt><trkpt lat="44.8303567" lon="10.8483267"><ele>18.0</ele><time>2026-04-26T14:38:14.501Z</time></trkpt><trkpt lat="44.8302933" lon="10.8482867"><ele>18.0</ele><time>2026-04-26T14:38:15.5Z</time></trkpt><trkpt lat="44.8302333" lon="10.848245"><ele>18.142857142857146</ele><time>2026-04-26T14:38:16.5Z</time></trkpt><trkpt lat="44.8301717" lon="10.8482067"><ele>18.285714285714285</ele><time>2026-04-26T14:38:17.5Z</time></trkpt><trkpt lat="44.83011" lon="10.84817"><ele>18.42857142857143</ele><time>2026-04-26T14:38:18.5Z</time></trkpt><trkpt lat="44.8300433" lon="10.8481283"><ele>18.571428571428573</ele><time>2026-04-26T14:38:19.5Z</time></trkpt><trkpt lat="44.8299767" lon="10.8480867"><ele>18.714285714285715</ele><time>2026-04-26T14:38:20.5Z</time></trkpt><trkpt lat="44.8299117" lon="10.848045"><ele>18.857142857142858</ele><time>2026-04-26T14:38:21.5Z</time></trkpt><trkpt lat="44.8298433" lon="10.8480033"><ele>19.0</ele><time>2026-04-26T14:38:22.501Z</time></trkpt><trkpt lat="44.8297783" lon="10.8479683"><ele>19.166666666666664</ele><time>2026-04-26T14:38:23.5Z</time></trkpt><trkpt lat="44.8297117" lon="10.8479267"><ele>19.333333333333332</ele><time>2026-04-26T14:38:24.5Z</time></trkpt><trkpt lat="44.8296383" lon="10.8478817"><ele>19.5</ele><time>2026-04-26T14:38:25.5Z</time></trkpt><trkpt lat="44.8295667" lon="10.8478333"><ele>19.666666666666668</ele><time>2026-04-26T14:38:26.5Z</time></trkpt><trkpt lat="44.8294817" lon="10.8477867"><ele>19.833333333333336</ele><time>2026-04-26T14:38:27.5Z</time></trkpt><trkpt lat="44.8294017" lon="10.8477367"><ele>20.0</ele><time>2026-04-26T14:38:28.5Z</time></trkpt><trkpt lat="44.8293167" lon="10.8476967"><ele>20.0</ele><time>2026-04-26T14:38:29.501Z</time></trkpt><trkpt lat="44.8292383" lon="10.847655"><ele>20.0</ele><time>2026-04-26T14:38:30.501Z</time></trkpt><trkpt lat="44.8291517" lon="10.8476"><ele>20.0</ele><time>2026-04-26T14:38:31.501Z</time></trkpt><trkpt lat="44.8290683" lon="10.847545"><ele>20.0</ele><time>2026-04-26T14:38:32.5Z</time></trkpt><trkpt lat="44.8289867" lon="10.8474933"><ele>20.0</ele><time>2026-04-26T14:38:33.501Z</time></trkpt><trkpt lat="44.8289033" lon="10.8474467"><ele>20.0</ele><time>2026-04-26T14:38:34.501Z</time></trkpt><trkpt lat="44.828825" lon="10.8473983"><ele>20.0</ele><time>2026-04-26T14:38:35.501Z</time></trkpt><trkpt lat="44.8287517" lon="10.847355"><ele>20.0</ele><time>2026-04-26T14:38:36.5Z</time></trkpt><trkpt lat="44.8286733" lon="10.84731"><ele>20.0</ele><time>2026-04-26T14:38:37.501Z</time></trkpt><trkpt lat="44.8285917" lon="10.8472683"><ele>20.0</ele><time>2026-04-26T14:38:38.501Z</time></trkpt><trkpt lat="44.8285133" lon="10.84722"><ele>20.0</ele><time>2026-04-26T14:38:39.5Z</time></trkpt><trkpt lat="44.828435" lon="10.8471783"><ele>20.0</ele><time>2026-04-26T14:38:40.5Z</time></trkpt><trkpt lat="44.828355" lon="10.84714"><ele>20.0</ele><time>2026-04-26T14:38:41.5Z</time></trkpt><trkpt lat="44.828275" lon="10.8471"><ele>20.0</ele><time>2026-04-26T14:38:42.501Z</time></trkpt><trkpt lat="44.8281967" lon="10.8470717"><ele>20.0</ele><time>2026-04-26T14:38:43.501Z</time></trkpt><trkpt lat="44.8281133" lon="10.847045"><ele>20.0</ele><time>2026-04-26T14:38:44.5Z</time></trkpt><trkpt lat="44.8280317" lon="10.8470183"><ele>20.0</ele><time>2026-04-26T14:38:45.501Z</time></trkpt><trkpt lat="44.827945" lon="10.8469967"><ele>20.0</ele><time>2026-04-26T14:38:46.5Z</time></trkpt><trkpt lat="44.8278567" lon="10.84698"><ele>20.0</ele><time>2026-04-26T14:38:47.501Z</time></trkpt><trkpt lat="44.827765" lon="10.8469583"><ele>20.0</ele><time>2026-04-26T14:38:48.501Z</time></trkpt><trkpt lat="44.8276767" lon="10.84694"><ele>20.0</ele><time>2026-04-26T14:38:49.5Z</time></trkpt><trkpt lat="44.8276" lon="10.8469183"><ele>20.0</ele><time>2026-04-26T14:38:50.5Z</time></trkpt><trkpt lat="44.82752" lon="10.8468967"><ele>20.0</ele><time>2026-04-26T14:38:51.5Z</time></trkpt><trkpt lat="44.8274383" lon="10.8468767"><ele>20.0</ele><time>2026-04-26T14:38:52.5Z</time></trkpt><trkpt lat="44.8273517" lon="10.8468617"><ele>20.0</ele><time>2026-04-26T14:38:53.501Z</time></trkpt><trkpt lat="44.8272683" lon="10.846845"><ele>20.0</ele><time>2026-04-26T14:38:54.5Z</time></trkpt><trkpt lat="44.82718" lon="10.8468267"><ele>20.0</ele><time>2026-04-26T14:38:55.5Z</time></trkpt><trkpt lat="44.8270933" lon="10.846805"><ele>20.0</ele><time>2026-04-26T14:38:56.501Z</time></trkpt><trkpt lat="44.8270117" lon="10.8467883"><ele>20.0</ele><time>2026-04-26T14:38:57.501Z</time></trkpt><trkpt lat="44.8269317" lon="10.8467683"><ele>19.833333333333336</ele><time>2026-04-26T14:38:58.501Z</time></trkpt><trkpt lat="44.82685" lon="10.8467583"><ele>19.666666666666668</ele><time>2026-04-26T14:38:59.5Z</time></trkpt><trkpt lat="44.8267717" lon="10.846745"><ele>19.5</ele><time>2026-04-26T14:39:00.5Z</time></trkpt><trkpt lat="44.8266967" lon="10.8467267"><ele>19.333333333333332</ele><time>2026-04-26T14:39:01.501Z</time></trkpt><trkpt lat="44.82662" lon="10.84671"><ele>19.166666666666664</ele><time>2026-04-26T14:39:02.501Z</time></trkpt><trkpt lat="44.8265367" lon="10.8466917"><ele>19.0</ele><time>2026-04-26T14:39:03.501Z</time></trkpt><trkpt lat="44.8264533" lon="10.8466733"><ele>19.0</ele><time>2026-04-26T14:39:04.5Z</time></trkpt><trkpt lat="44.8263717" lon="10.8466617"><ele>19.0</ele><time>2026-04-26T14:39:05.501Z</time></trkpt><trkpt lat="44.8262833" lon="10.84664"><ele>19.0</ele><time>2026-04-26T14:39:06.5Z</time></trkpt><trkpt lat="44.8261917" lon="10.8466217"><ele>19.0</ele><time>2026-04-26T14:39:07.5Z</time></trkpt><trkpt lat="44.8261017" lon="10.8466067"><ele>19.0</ele><time>2026-04-26T14:39:08.501Z</time></trkpt><trkpt lat="44.82601" lon="10.8465917"><ele>19.0</ele><time>2026-04-26T14:39:09.5Z</time></trkpt><trkpt lat="44.8259217" lon="10.8465767"><ele>19.0</ele><time>2026-04-26T14:39:10.5Z</time></trkpt><trkpt lat="44.82584" lon="10.8465567"><ele>19.0</ele><time>2026-04-26T14:39:11.501Z</time></trkpt><trkpt lat="44.8257533" lon="10.84653"><ele>19.0</ele><time>2026-04-26T14:39:12.5Z</time></trkpt><trkpt lat="44.8256683" lon="10.8465167"><ele>19.0</ele><time>2026-04-26T14:39:13.5Z</time></trkpt><trkpt lat="44.8255767" lon="10.8464933"><ele>19.0</ele><time>2026-04-26T14:39:14.501Z</time></trkpt><trkpt lat="44.8254883" lon="10.84647"><ele>19.0</ele><time>2026-04-26T14:39:15.5Z</time></trkpt><trkpt lat="44.825405" lon="10.846445"><ele>19.0</ele><time>2026-04-26T14:39:16.501Z</time></trkpt><trkpt lat="44.825315" lon="10.8464217"><ele>19.0</ele><time>2026-04-26T14:39:17.5Z</time></trkpt><trkpt lat="44.8252317" lon="10.8464017"><ele>19.0</ele><time>2026-04-26T14:39:18.501Z</time></trkpt><trkpt lat="44.8251483" lon="10.8463883"><ele>19.0</ele><time>2026-04-26T14:39:19.5Z</time></trkpt><trkpt lat="44.82507" lon="10.8463717"><ele>19.0</ele><time>2026-04-26T14:39:20.5Z</time></trkpt><trkpt lat="44.8249867" lon="10.8463567"><ele>19.0</ele><time>2026-04-26T14:39:21.501Z</time></trkpt><trkpt lat="44.824905" lon="10.8463367"><ele>19.0</ele><time>2026-04-26T14:39:22.5Z</time></trkpt><trkpt lat="44.8248267" lon="10.8463167"><ele>19.0</ele><time>2026-04-26T14:39:23.501Z</time></trkpt><trkpt lat="44.824745" lon="10.8463033"><ele>19.0</ele><time>2026-04-26T14:39:24.501Z</time></trkpt><trkpt lat="44.8246633" lon="10.84629"><ele>19.0</ele><time>2026-04-26T14:39:25.5Z</time></trkpt><trkpt lat="44.8245817" lon="10.8462817"><ele>19.0</ele><time>2026-04-26T14:39:26.5Z</time></trkpt><trkpt lat="44.8245033" lon="10.8462717"><ele>19.0</ele><time>2026-04-26T14:39:27.501Z</time></trkpt><trkpt lat="44.82442" lon="10.8462633"><ele>19.0</ele><time>2026-04-26T14:39:28.5Z</time></trkpt><trkpt lat="44.824335" lon="10.846255"><ele>19.0</ele><time>2026-04-26T14:39:29.5Z</time></trkpt><trkpt lat="44.8242533" lon="10.846255"><ele>19.0</ele><time>2026-04-26T14:39:30.501Z</time></trkpt><trkpt lat="44.8241683" lon="10.8462517"><ele>19.0</ele><time>2026-04-26T14:39:31.5Z</time></trkpt><trkpt lat="44.824085" lon="10.8462433"><ele>19.0</ele><time>2026-04-26T14:39:32.5Z</time></trkpt><trkpt lat="44.8240067" lon="10.84624"><ele>19.0</ele><time>2026-04-26T14:39:33.5Z</time></trkpt><trkpt lat="44.82393" lon="10.8462383"><ele>18.833333333333332</ele><time>2026-04-26T14:39:34.5Z</time></trkpt><trkpt lat="44.823855" lon="10.8462383"><ele>18.666666666666664</ele><time>2026-04-26T14:39:35.501Z</time></trkpt><trkpt lat="44.8237817" lon="10.8462333"><ele>18.5</ele><time>2026-04-26T14:39:36.501Z</time></trkpt><trkpt lat="44.82371" lon="10.84623"><ele>18.333333333333332</ele><time>2026-04-26T14:39:37.5Z</time></trkpt><trkpt lat="44.8236333" lon="10.846225"><ele>18.166666666666668</ele><time>2026-04-26T14:39:38.5Z</time></trkpt><trkpt lat="44.8235567" lon="10.8462217"><ele>18.0</ele><time>2026-04-26T14:39:39.501Z</time></trkpt><trkpt lat="44.823475" lon="10.8462267"><ele>18.333333333333332</ele><time>2026-04-26T14:39:40.5Z</time></trkpt><trkpt lat="44.8233917" lon="10.846225"><ele>18.666666666666668</ele><time>2026-04-26T14:39:41.5Z</time></trkpt><trkpt lat="44.823305" lon="10.8462183"><ele>19.0</ele><time>2026-04-26T14:39:42.5Z</time></trkpt><trkpt lat="44.8232233" lon="10.846215"><ele>19.333333333333336</ele><time>2026-04-26T14:39:43.501Z</time></trkpt><trkpt lat="44.8231433" lon="10.84621"><ele>19.666666666666668</ele><time>2026-04-26T14:39:44.501Z</time></trkpt><trkpt lat="44.8230633" lon="10.84621"><ele>20.0</ele><time>2026-04-26T14:39:45.501Z</time></trkpt><trkpt lat="44.82298" lon="10.8462133"><ele>20.0</ele><time>2026-04-26T14:39:46.5Z</time></trkpt><trkpt lat="44.8228983" lon="10.846215"><ele>20.0</ele><time>2026-04-26T14:39:47.501Z</time></trkpt><trkpt lat="44.8228183" lon="10.846215"><ele>20.0</ele><time>2026-04-26T14:39:48.5Z</time></trkpt><trkpt lat="44.8227367" lon="10.84621"><ele>20.0</ele><time>2026-04-26T14:39:49.5Z</time></trkpt><trkpt lat="44.822655" lon="10.8462067"><ele>20.0</ele><time>2026-04-26T14:39:50.499Z</time></trkpt><trkpt lat="44.822575" lon="10.8462083"><ele>20.0</ele><time>2026-04-26T14:39:51.499Z</time></trkpt><trkpt lat="44.8224867" lon="10.84621"><ele>20.2</ele><time>2026-04-26T14:39:52.499Z</time></trkpt><trkpt lat="44.8223917" lon="10.8462167"><ele>20.4</ele><time>2026-04-26T14:39:53.5Z</time></trkpt><trkpt lat="44.8222967" lon="10.8462217"><ele>20.6</ele><time>2026-04-26T14:39:54.5Z</time></trkpt><trkpt lat="44.8222083" lon="10.8462233"><ele>20.8</ele><time>2026-04-26T14:39:55.499Z</time></trkpt><trkpt lat="44.8221167" lon="10.8462233"><ele>21.0</ele><time>2026-04-26T14:39:56.499Z</time></trkpt><trkpt lat="44.8220267" lon="10.846225"><ele>21.0</ele><time>2026-04-26T14:39:57.5Z</time></trkpt><trkpt lat="44.8219267" lon="10.8462267"><ele>21.0</ele><time>2026-04-26T14:39:58.499Z</time></trkpt><trkpt lat="44.82182" lon="10.846235"><ele>21.0</ele><time>2026-04-26T14:39:59.499Z</time></trkpt><trkpt lat="44.8217133" lon="10.8462417"><ele>21.0</ele><time>2026-04-26T14:40:00.5Z</time></trkpt><trkpt lat="44.8216017" lon="10.84624"><ele>21.0</ele><time>2026-04-26T14:40:01.5Z</time></trkpt><trkpt lat="44.82149" lon="10.8462333"><ele>21.0</ele><time>2026-04-26T14:40:02.5Z</time></trkpt><trkpt lat="44.8213767" lon="10.8462233"><ele>21.0</ele><time>2026-04-26T14:40:03.499Z</time></trkpt><trkpt lat="44.8212617" lon="10.84621"><ele>21.0</ele><time>2026-04-26T14:40:04.499Z</time></trkpt><trkpt lat="44.8211533" lon="10.8461967"><ele>21.0</ele><time>2026-04-26T14:40:05.499Z</time></trkpt><trkpt lat="44.8210467" lon="10.8461883"><ele>21.0</ele><time>2026-04-26T14:40:06.5Z</time></trkpt><trkpt lat="44.820935" lon="10.8461817"><ele>21.0</ele><time>2026-04-26T14:40:07.499Z</time></trkpt><trkpt lat="44.8208233" lon="10.84618"><ele>21.0</ele><time>2026-04-26T14:40:08.499Z</time></trkpt><trkpt lat="44.8207133" lon="10.8461933"><ele>21.0</ele><time>2026-04-26T14:40:09.499Z</time></trkpt><trkpt lat="44.8206017" lon="10.8462067"><ele>21.0</ele><time>2026-04-26T14:40:10.5Z</time></trkpt><trkpt lat="44.8204917" lon="10.846225"><ele>21.0</ele><time>2026-04-26T14:40:11.499Z</time></trkpt><trkpt lat="44.82038" lon="10.8462417"><ele>21.0</ele><time>2026-04-26T14:40:12.499Z</time></trkpt><trkpt lat="44.8202683" lon="10.84626"><ele>21.0</ele><time>2026-04-26T14:40:13.5Z</time></trkpt><trkpt lat="44.8201617" lon="10.8462817"><ele>21.0</ele><time>2026-04-26T14:40:14.499Z</time></trkpt><trkpt lat="44.820055" lon="10.8463017"><ele>21.0</ele><time>2026-04-26T14:40:15.499Z</time></trkpt><trkpt lat="44.8199467" lon="10.84632"><ele>21.0</ele><time>2026-04-26T14:40:16.499Z</time></trkpt><trkpt lat="44.81984" lon="10.8463383"><ele>21.0</ele><time>2026-04-26T14:40:17.5Z</time></trkpt><trkpt lat="44.8197317" lon="10.846355"><ele>21.0</ele><time>2026-04-26T14:40:18.499Z</time></trkpt><trkpt lat="44.8196267" lon="10.84637"><ele>21.0</ele><time>2026-04-26T14:40:19.5Z</time></trkpt><trkpt lat="44.81952" lon="10.8463833"><ele>21.0</ele><time>2026-04-26T14:40:20.5Z</time></trkpt><trkpt lat="44.8194083" lon="10.846385"><ele>21.0</ele><time>2026-04-26T14:40:21.499Z</time></trkpt><trkpt lat="44.8192967" lon="10.846385"><ele>20.5</ele><time>2026-04-26T14:40:22.5Z</time></trkpt><trkpt lat="44.819175" lon="10.8463883"><ele>20.0</ele><time>2026-04-26T14:40:23.5Z</time></trkpt><trkpt lat="44.819055" lon="10.84639"><ele>19.5</ele><time>2026-04-26T14:40:24.499Z</time></trkpt><trkpt lat="44.81893" lon="10.846395"><ele>19.0</ele><time>2026-04-26T14:40:25.5Z</time></trkpt><trkpt lat="44.81881" lon="10.846405"><ele>19.0</ele><time>2026-04-26T14:40:26.5Z</time></trkpt><trkpt lat="44.818695" lon="10.84641"><ele>19.0</ele><time>2026-04-26T14:40:27.5Z</time></trkpt><trkpt lat="44.818595" lon="10.8464117"><ele>19.0</ele><time>2026-04-26T14:40:28.499Z</time></trkpt><trkpt lat="44.8185017" lon="10.8464117"><ele>19.0</ele><time>2026-04-26T14:40:29.499Z</time></trkpt><trkpt lat="44.818415" lon="10.8464167"><ele>19.0</ele><time>2026-04-26T14:40:30.499Z</time></trkpt><trkpt lat="44.818325" lon="10.8464217"><ele>18.0</ele><time>2026-04-26T14:40:31.5Z</time></trkpt><trkpt lat="44.8182283" lon="10.8464233"><ele>17.0</ele><time>2026-04-26T14:40:32.499Z</time></trkpt><trkpt lat="44.8181267" lon="10.846425"><ele>15.999999999999998</ele><time>2026-04-26T14:40:33.5Z</time></trkpt><trkpt lat="44.8180217" lon="10.8464283"><ele>15.0</ele><time>2026-04-26T14:40:34.499Z</time></trkpt><trkpt lat="44.8179083" lon="10.8464317"><ele>14.0</ele><time>2026-04-26T14:40:35.499Z</time></trkpt><trkpt lat="44.8177817" lon="10.8464383"><ele>15.5</ele><time>2026-04-26T14:40:36.5Z</time></trkpt><trkpt lat="44.817645" lon="10.84644"><ele>17.0</ele><time>2026-04-26T14:40:37.499Z</time></trkpt><trkpt lat="44.81751" lon="10.8464467"><ele>18.5</ele><time>2026-04-26T14:40:38.5Z</time></trkpt><trkpt lat="44.817385" lon="10.8464517"><ele>20.0</ele><time>2026-04-26T14:40:39.499Z</time></trkpt><trkpt lat="44.8172733" lon="10.84646"><ele>20.0</ele><time>2026-04-26T14:40:40.5Z</time></trkpt><trkpt lat="44.8171683" lon="10.8464683"><ele>20.0</ele><time>2026-04-26T14:40:41.5Z</time></trkpt><trkpt lat="44.81707" lon="10.8464867"><ele>20.0</ele><time>2026-04-26T14:40:42.499Z</time></trkpt><trkpt lat="44.8169733" lon="10.84652"><ele>20.0</ele><time>2026-04-26T14:40:43.5Z</time></trkpt><trkpt lat="44.8168733" lon="10.8465617"><ele>20.0</ele><time>2026-04-26T14:40:44.499Z</time></trkpt><trkpt lat="44.81677" lon="10.8466117"><ele>20.166666666666668</ele><time>2026-04-26T14:40:45.5Z</time></trkpt><trkpt lat="44.8166783" lon="10.84666"><ele>20.333333333333336</ele><time>2026-04-26T14:40:46.499Z</time></trkpt><trkpt lat="44.8165967" lon="10.8467"><ele>20.5</ele><time>2026-04-26T14:40:47.5Z</time></trkpt><trkpt lat="44.81652" lon="10.8467417"><ele>20.666666666666668</ele><time>2026-04-26T14:40:48.5Z</time></trkpt><trkpt lat="44.816445" lon="10.8467767"><ele>20.833333333333332</ele><time>2026-04-26T14:40:49.5Z</time></trkpt><trkpt lat="44.8163767" lon="10.8468117"><ele>21.0</ele><time>2026-04-26T14:40:50.5Z</time></trkpt><trkpt lat="44.816305" lon="10.8468483"><ele>21.0</ele><time>2026-04-26T14:40:51.5Z</time></trkpt><trkpt lat="44.8162333" lon="10.8468833"><ele>21.0</ele><time>2026-04-26T14:40:52.499Z</time></trkpt><trkpt lat="44.8161683" lon="10.8469167"><ele>21.0</ele><time>2026-04-26T14:40:53.5Z</time></trkpt><trkpt lat="44.8160483" lon="10.8469783"><ele>21.0</ele><time>2026-04-26T14:40:55.499Z</time></trkpt><trkpt lat="44.8159867" lon="10.8470133"><ele>21.0</ele><time>2026-04-26T14:40:56.5Z</time></trkpt><trkpt lat="44.8159217" lon="10.8470517"><ele>21.0</ele><time>2026-04-26T14:40:57.499Z</time></trkpt><trkpt lat="44.8158483" lon="10.8470967"><ele>21.0</ele><time>2026-04-26T14:40:58.499Z</time></trkpt><trkpt lat="44.8157683" lon="10.847135"><ele>21.0</ele><time>2026-04-26T14:40:59.499Z</time></trkpt><trkpt lat="44.8156883" lon="10.847175"><ele>21.0</ele><time>2026-04-26T14:41:00.5Z</time></trkpt><trkpt lat="44.815615" lon="10.8472133"><ele>21.0</ele><time>2026-04-26T14:41:01.499Z</time></trkpt><trkpt lat="44.8155467" lon="10.8472467"><ele>21.0</ele><time>2026-04-26T14:41:02.499Z</time></trkpt><trkpt lat="44.8154767" lon="10.8472833"><ele>21.0</ele><time>2026-04-26T14:41:03.499Z</time></trkpt><trkpt lat="44.8154117" lon="10.8473133"><ele>21.0</ele><time>2026-04-26T14:41:04.499Z</time></trkpt><trkpt lat="44.8153117" lon="10.8473717"><ele>21.0</ele><time>2026-04-26T14:41:06.499Z</time></trkpt><trkpt lat="44.8152267" lon="10.8474267"><ele>21.0</ele><time>2026-04-26T14:41:08.5Z</time></trkpt><trkpt lat="44.8151333" lon="10.84745"><ele>21.0</ele><time>2026-04-26T14:41:21.499Z</time></trkpt><trkpt lat="44.8150617" lon="10.8475033"><ele>21.0</ele><time>2026-04-26T14:41:24.499Z</time></trkpt><trkpt lat="44.815115" lon="10.8475567"><ele>21.0</ele><time>2026-04-26T14:41:27.499Z</time></trkpt><trkpt lat="44.8151717" lon="10.847495"><ele>21.0</ele><time>2026-04-26T14:41:29.499Z</time></trkpt><trkpt lat="44.8152817" lon="10.84741"><ele>21.0</ele><time>2026-04-26T14:41:31.499Z</time></trkpt><trkpt lat="44.8153483" lon="10.847365"><ele>21.0</ele><time>2026-04-26T14:41:32.499Z</time></trkpt><trkpt lat="44.8154283" lon="10.8473167"><ele>21.0</ele><time>2026-04-26T14:41:33.5Z</time></trkpt><trkpt lat="44.8155083" lon="10.8472783"><ele>21.0</ele><time>2026-04-26T14:41:34.5Z</time></trkpt><trkpt lat="44.8155883" lon="10.8472283"><ele>21.0</ele><time>2026-04-26T14:41:35.499Z</time></trkpt><trkpt lat="44.8156717" lon="10.8471833"><ele>21.0</ele><time>2026-04-26T14:41:36.5Z</time></trkpt><trkpt lat="44.8157617" lon="10.8471333"><ele>21.0</ele><time>2026-04-26T14:41:37.499Z</time></trkpt><trkpt lat="44.8158483" lon="10.847085"><ele>21.0</ele><time>2026-04-26T14:41:38.499Z</time></trkpt><trkpt lat="44.815935" lon="10.8470383"><ele>21.0</ele><time>2026-04-26T14:41:39.499Z</time></trkpt><trkpt lat="44.8160267" lon="10.8469933"><ele>21.0</ele><time>2026-04-26T14:41:40.499Z</time></trkpt><trkpt lat="44.81612" lon="10.8469433"><ele>21.0</ele><time>2026-04-26T14:41:41.499Z</time></trkpt><trkpt lat="44.8162133" lon="10.8469"><ele>21.0</ele><time>2026-04-26T14:41:42.499Z</time></trkpt><trkpt lat="44.8163117" lon="10.846855"><ele>21.0</ele><time>2026-04-26T14:41:43.499Z</time></trkpt><trkpt lat="44.81641" lon="10.8467967"><ele>21.0</ele><time>2026-04-26T14:41:44.499Z</time></trkpt><trkpt lat="44.8165067" lon="10.846745"><ele>21.200000000000003</ele><time>2026-04-26T14:41:45.499Z</time></trkpt><trkpt lat="44.8166033" lon="10.8466917"><ele>21.400000000000002</ele><time>2026-04-26T14:41:46.5Z</time></trkpt><trkpt lat="44.8166933" lon="10.846645"><ele>21.6</ele><time>2026-04-26T14:41:47.5Z</time></trkpt><trkpt lat="44.816785" lon="10.8465983"><ele>21.8</ele><time>2026-04-26T14:41:48.5Z</time></trkpt><trkpt lat="44.8168817" lon="10.8465567"><ele>22.0</ele><time>2026-04-26T14:41:49.5Z</time></trkpt><trkpt lat="44.816985" lon="10.846525"><ele>21.5</ele><time>2026-04-26T14:41:50.499Z</time></trkpt><trkpt lat="44.8170883" lon="10.8464967"><ele>21.0</ele><time>2026-04-26T14:41:51.5Z</time></trkpt><trkpt lat="44.8172033" lon="10.84648"><ele>20.5</ele><time>2026-04-26T14:41:52.5Z</time></trkpt><trkpt lat="44.8173217" lon="10.84647"><ele>20.0</ele><time>2026-04-26T14:41:53.499Z</time></trkpt><trkpt lat="44.8174417" lon="10.846465"><ele>20.0</ele><time>2026-04-26T14:41:54.499Z</time></trkpt><trkpt lat="44.8175583" lon="10.84646"><ele>20.0</ele><time>2026-04-26T14:41:55.5Z</time></trkpt><trkpt lat="44.8176633" lon="10.8464567"><ele>20.0</ele><time>2026-04-26T14:41:56.499Z</time></trkpt><trkpt lat="44.81777" lon="10.8464483"><ele>20.0</ele><time>2026-04-26T14:41:57.499Z</time></trkpt><trkpt lat="44.8178767" lon="10.8464417"><ele>20.0</ele><time>2026-04-26T14:41:58.499Z</time></trkpt><trkpt lat="44.8179917" lon="10.8464367"><ele>18.5</ele><time>2026-04-26T14:41:59.499Z</time></trkpt><trkpt lat="44.8181083" lon="10.8464367"><ele>17.0</ele><time>2026-04-26T14:42:00.499Z</time></trkpt><trkpt lat="44.8182217" lon="10.8464367"><ele>15.5</ele><time>2026-04-26T14:42:01.499Z</time></trkpt><trkpt lat="44.81833" lon="10.8464317"><ele>14.0</ele><time>2026-04-26T14:42:02.5Z</time></trkpt><trkpt lat="44.818445" lon="10.8464267"><ele>15.0</ele><time>2026-04-26T14:42:03.499Z</time></trkpt><trkpt lat="44.8185567" lon="10.8464317"><ele>15.999999999999998</ele><time>2026-04-26T14:42:04.5Z</time></trkpt><trkpt lat="44.8186683" lon="10.8464317"><ele>17.0</ele><time>2026-04-26T14:42:05.499Z</time></trkpt><trkpt lat="44.8187767" lon="10.8464267"><ele>18.0</ele><time>2026-04-26T14:42:06.5Z</time></trkpt><trkpt lat="44.8188883" lon="10.8464217"><ele>19.0</ele><time>2026-04-26T14:42:07.499Z</time></trkpt><trkpt lat="44.8189917" lon="10.8464133"><ele>19.0</ele><time>2026-04-26T14:42:08.499Z</time></trkpt><trkpt lat="44.8190867" lon="10.8464083"><ele>19.0</ele><time>2026-04-26T14:42:09.499Z</time></trkpt><trkpt lat="44.8191817" lon="10.8464017"><ele>19.0</ele><time>2026-04-26T14:42:10.499Z</time></trkpt><trkpt lat="44.819275" lon="10.8464017"><ele>19.0</ele><time>2026-04-26T14:42:11.499Z</time></trkpt><trkpt lat="44.8193717" lon="10.8463983"><ele>19.0</ele><time>2026-04-26T14:42:12.499Z</time></trkpt><trkpt lat="44.819465" lon="10.8463883"><ele>19.4</ele><time>2026-04-26T14:42:13.5Z</time></trkpt><trkpt lat="44.81956" lon="10.8463717"><ele>19.799999999999997</ele><time>2026-04-26T14:42:14.499Z</time></trkpt><trkpt lat="44.8196533" lon="10.8463567"><ele>20.200000000000003</ele><time>2026-04-26T14:42:15.5Z</time></trkpt><trkpt lat="44.81975" lon="10.8463417"><ele>20.6</ele><time>2026-04-26T14:42:16.499Z</time></trkpt><trkpt lat="44.8198433" lon="10.846335"><ele>21.0</ele><time>2026-04-26T14:42:17.5Z</time></trkpt><trkpt lat="44.81994" lon="10.8463167"><ele>21.0</ele><time>2026-04-26T14:42:18.499Z</time></trkpt><trkpt lat="44.820035" lon="10.846295"><ele>21.0</ele><time>2026-04-26T14:42:19.5Z</time></trkpt><trkpt lat="44.82013" lon="10.8462767"><ele>21.0</ele><time>2026-04-26T14:42:20.499Z</time></trkpt><trkpt lat="44.8202267" lon="10.846255"><ele>21.0</ele><time>2026-04-26T14:42:21.499Z</time></trkpt><trkpt lat="44.82032" lon="10.846235"><ele>21.0</ele><time>2026-04-26T14:42:22.5Z</time></trkpt><trkpt lat="44.820415" lon="10.8462167"><ele>21.0</ele><time>2026-04-26T14:42:23.499Z</time></trkpt><trkpt lat="44.8205133" lon="10.8462067"><ele>21.0</ele><time>2026-04-26T14:42:24.5Z</time></trkpt><trkpt lat="44.82061" lon="10.8462017"><ele>21.0</ele><time>2026-04-26T14:42:25.499Z</time></trkpt><trkpt lat="44.8207183" lon="10.846195"><ele>21.0</ele><time>2026-04-26T14:42:26.5Z</time></trkpt><trkpt lat="44.820825" lon="10.8461933"><ele>21.0</ele><time>2026-04-26T14:42:27.499Z</time></trkpt><trkpt lat="44.8209333" lon="10.8461933"><ele>21.0</ele><time>2026-04-26T14:42:28.499Z</time></trkpt><trkpt lat="44.8210417" lon="10.8462017"><ele>21.0</ele><time>2026-04-26T14:42:29.5Z</time></trkpt><trkpt lat="44.821145" lon="10.8462067"><ele>21.0</ele><time>2026-04-26T14:42:30.499Z</time></trkpt><trkpt lat="44.821245" lon="10.8462217"><ele>21.0</ele><time>2026-04-26T14:42:31.499Z</time></trkpt><trkpt lat="44.82134" lon="10.846235"><ele>21.0</ele><time>2026-04-26T14:42:32.5Z</time></trkpt><trkpt lat="44.82144" lon="10.8462417"><ele>21.0</ele><time>2026-04-26T14:42:33.499Z</time></trkpt><trkpt lat="44.8215433" lon="10.8462517"><ele>21.0</ele><time>2026-04-26T14:42:34.499Z</time></trkpt><trkpt lat="44.8216533" lon="10.8462517"><ele>21.0</ele><time>2026-04-26T14:42:35.499Z</time></trkpt><trkpt lat="44.82176" lon="10.84625"><ele>21.0</ele><time>2026-04-26T14:42:36.5Z</time></trkpt><trkpt lat="44.8218667" lon="10.8462467"><ele>21.0</ele><time>2026-04-26T14:42:37.5Z</time></trkpt><trkpt lat="44.8219767" lon="10.8462417"><ele>21.0</ele><time>2026-04-26T14:42:38.499Z</time></trkpt><trkpt lat="44.8220833" lon="10.84624"><ele>21.0</ele><time>2026-04-26T14:42:39.5Z</time></trkpt><trkpt lat="44.8221833" lon="10.8462383"><ele>21.0</ele><time>2026-04-26T14:42:40.5Z</time></trkpt><trkpt lat="44.8222817" lon="10.8462367"><ele>21.0</ele><time>2026-04-26T14:42:41.499Z</time></trkpt><trkpt lat="44.8223783" lon="10.8462317"><ele>21.0</ele><time>2026-04-26T14:42:42.5Z</time></trkpt><trkpt lat="44.8224683" lon="10.84623"><ele>21.0</ele><time>2026-04-26T14:42:43.499Z</time></trkpt><trkpt lat="44.82256" lon="10.846225"><ele>21.0</ele><time>2026-04-26T14:42:44.499Z</time></trkpt><trkpt lat="44.8226417" lon="10.84622"><ele>21.0</ele><time>2026-04-26T14:42:45.499Z</time></trkpt><trkpt lat="44.8227183" lon="10.84622"><ele>21.0</ele><time>2026-04-26T14:42:46.499Z</time></trkpt><trkpt lat="44.8227967" lon="10.846225"><ele>21.0</ele><time>2026-04-26T14:42:47.5Z</time></trkpt><trkpt lat="44.822875" lon="10.8462283"><ele>21.0</ele><time>2026-04-26T14:42:48.499Z</time></trkpt><trkpt lat="44.8229617" lon="10.84623"><ele>20.833333333333332</ele><time>2026-04-26T14:42:49.5Z</time></trkpt><trkpt lat="44.8230467" lon="10.8462317"><ele>20.666666666666668</ele><time>2026-04-26T14:42:50.5Z</time></trkpt><trkpt lat="44.8231333" lon="10.8462333"><ele>20.5</ele><time>2026-04-26T14:42:51.5Z</time></trkpt><trkpt lat="44.8232167" lon="10.846235"><ele>20.333333333333336</ele><time>2026-04-26T14:42:52.499Z</time></trkpt><trkpt lat="44.8233" lon="10.8462383"><ele>20.166666666666668</ele><time>2026-04-26T14:42:53.499Z</time></trkpt><trkpt lat="44.8233817" lon="10.8462417"><ele>20.0</ele><time>2026-04-26T14:42:54.499Z</time></trkpt><trkpt lat="44.82347" lon="10.8462367"><ele>19.6</ele><time>2026-04-26T14:42:55.499Z</time></trkpt><trkpt lat="44.8235583" lon="10.84624"><ele>19.2</ele><time>2026-04-26T14:42:56.499Z</time></trkpt><trkpt lat="44.82365" lon="10.8462383"><ele>18.8</ele><time>2026-04-26T14:42:57.5Z</time></trkpt><trkpt lat="44.8237383" lon="10.8462433"><ele>18.4</ele><time>2026-04-26T14:42:58.499Z</time></trkpt><trkpt lat="44.82383" lon="10.8462467"><ele>18.0</ele><time>2026-04-26T14:42:59.499Z</time></trkpt><trkpt lat="44.8239217" lon="10.846255"><ele>18.0</ele><time>2026-04-26T14:43:00.499Z</time></trkpt><trkpt lat="44.8240183" lon="10.8462567"><ele>18.0</ele><time>2026-04-26T14:43:01.5Z</time></trkpt><trkpt lat="44.8241117" lon="10.8462583"><ele>18.0</ele><time>2026-04-26T14:43:02.5Z</time></trkpt><trkpt lat="44.824205" lon="10.846265"><ele>18.0</ele><time>2026-04-26T14:43:03.5Z</time></trkpt><trkpt lat="44.824295" lon="10.84627"><ele>18.0</ele><time>2026-04-26T14:43:04.499Z</time></trkpt><trkpt lat="44.8243833" lon="10.846275"><ele>18.166666666666668</ele><time>2026-04-26T14:43:05.499Z</time></trkpt><trkpt lat="44.8244683" lon="10.846285"><ele>18.333333333333332</ele><time>2026-04-26T14:43:06.5Z</time></trkpt><trkpt lat="44.824555" lon="10.846295"><ele>18.5</ele><time>2026-04-26T14:43:07.499Z</time></trkpt><trkpt lat="44.8246383" lon="10.8463083"><ele>18.666666666666664</ele><time>2026-04-26T14:43:08.499Z</time></trkpt><trkpt lat="44.8247233" lon="10.8463283"><ele>18.833333333333332</ele><time>2026-04-26T14:43:09.5Z</time></trkpt><trkpt lat="44.8248067" lon="10.8463517"><ele>19.0</ele><time>2026-04-26T14:43:10.499Z</time></trkpt><trkpt lat="44.82489" lon="10.8463683"><ele>19.0</ele><time>2026-04-26T14:43:11.499Z</time></trkpt><trkpt lat="44.82498" lon="10.846385"><ele>19.0</ele><time>2026-04-26T14:43:12.499Z</time></trkpt><trkpt lat="44.82507" lon="10.8464067"><ele>19.0</ele><time>2026-04-26T14:43:13.499Z</time></trkpt><trkpt lat="44.8251633" lon="10.8464283"><ele>19.0</ele><time>2026-04-26T14:43:14.5Z</time></trkpt><trkpt lat="44.8252517" lon="10.8464467"><ele>19.0</ele><time>2026-04-26T14:43:15.499Z</time></trkpt><trkpt lat="44.8253383" lon="10.8464683"><ele>19.0</ele><time>2026-04-26T14:43:16.499Z</time></trkpt><trkpt lat="44.8254283" lon="10.8464883"><ele>19.0</ele><time>2026-04-26T14:43:17.5Z</time></trkpt><trkpt lat="44.8255133" lon="10.84651"><ele>19.0</ele><time>2026-04-26T14:43:18.5Z</time></trkpt><trkpt lat="44.8255983" lon="10.8465283"><ele>19.0</ele><time>2026-04-26T14:43:19.5Z</time></trkpt><trkpt lat="44.8256833" lon="10.8465417"><ele>19.0</ele><time>2026-04-26T14:43:20.499Z</time></trkpt><trkpt lat="44.82577" lon="10.8465633"><ele>19.0</ele><time>2026-04-26T14:43:21.5Z</time></trkpt><trkpt lat="44.8258567" lon="10.846585"><ele>19.0</ele><time>2026-04-26T14:43:22.499Z</time></trkpt><trkpt lat="44.82594" lon="10.846605"><ele>19.0</ele><time>2026-04-26T14:43:23.499Z</time></trkpt><trkpt lat="44.82602" lon="10.84662"><ele>19.0</ele><time>2026-04-26T14:43:24.499Z</time></trkpt><trkpt lat="44.8261017" lon="10.8466367"><ele>19.0</ele><time>2026-04-26T14:43:25.499Z</time></trkpt><trkpt lat="44.826185" lon="10.8466533"><ele>19.0</ele><time>2026-04-26T14:43:26.5Z</time></trkpt><trkpt lat="44.8262683" lon="10.84667"><ele>19.0</ele><time>2026-04-26T14:43:27.5Z</time></trkpt><trkpt lat="44.8263533" lon="10.8466833"><ele>19.0</ele><time>2026-04-26T14:43:28.499Z</time></trkpt><trkpt lat="44.8264333" lon="10.846695"><ele>19.0</ele><time>2026-04-26T14:43:29.5Z</time></trkpt><trkpt lat="44.8265133" lon="10.846715"><ele>19.0</ele><time>2026-04-26T14:43:30.499Z</time></trkpt><trkpt lat="44.82659" lon="10.8467333"><ele>19.0</ele><time>2026-04-26T14:43:31.5Z</time></trkpt><trkpt lat="44.82667" lon="10.8467467"><ele>19.0</ele><time>2026-04-26T14:43:32.499Z</time></trkpt><trkpt lat="44.8267533" lon="10.846765"><ele>19.0</ele><time>2026-04-26T14:43:33.5Z</time></trkpt><trkpt lat="44.826835" lon="10.8467783"><ele>19.0</ele><time>2026-04-26T14:43:34.499Z</time></trkpt><trkpt lat="44.826915" lon="10.8467933"><ele>19.0</ele><time>2026-04-26T14:43:35.5Z</time></trkpt><trkpt lat="44.8269967" lon="10.8468083"><ele>19.0</ele><time>2026-04-26T14:43:36.5Z</time></trkpt><trkpt lat="44.8270767" lon="10.846825"><ele>19.0</ele><time>2026-04-26T14:43:37.5Z</time></trkpt><trkpt lat="44.82716" lon="10.84684"><ele>19.0</ele><time>2026-04-26T14:43:38.5Z</time></trkpt><trkpt lat="44.8272367" lon="10.846855"><ele>19.0</ele><time>2026-04-26T14:43:39.5Z</time></trkpt><trkpt lat="44.8273133" lon="10.84687"><ele>19.166666666666664</ele><time>2026-04-26T14:43:40.499Z</time></trkpt><trkpt lat="44.8273917" lon="10.846885"><ele>19.333333333333332</ele><time>2026-04-26T14:43:41.5Z</time></trkpt><trkpt lat="44.82747" lon="10.8469067"><ele>19.5</ele><time>2026-04-26T14:43:42.5Z</time></trkpt><trkpt lat="44.8275467" lon="10.8469283"><ele>19.666666666666668</ele><time>2026-04-26T14:43:43.499Z</time></trkpt><trkpt lat="44.8276267" lon="10.84695"><ele>19.833333333333336</ele><time>2026-04-26T14:43:44.499Z</time></trkpt><trkpt lat="44.8277017" lon="10.84697"><ele>20.0</ele><time>2026-04-26T14:43:45.499Z</time></trkpt><trkpt lat="44.827785" lon="10.84699"><ele>20.0</ele><time>2026-04-26T14:43:46.499Z</time></trkpt><trkpt lat="44.8278633" lon="10.84701"><ele>20.0</ele><time>2026-04-26T14:43:47.5Z</time></trkpt><trkpt lat="44.8279417" lon="10.847025"><ele>20.0</ele><time>2026-04-26T14:43:48.5Z</time></trkpt><trkpt lat="44.82802" lon="10.8470467"><ele>20.0</ele><time>2026-04-26T14:43:49.499Z</time></trkpt><trkpt lat="44.8280983" lon="10.84707"><ele>20.0</ele><time>2026-04-26T14:43:50.499Z</time></trkpt><trkpt lat="44.8281733" lon="10.8470933"><ele>20.0</ele><time>2026-04-26T14:43:51.5Z</time></trkpt><trkpt lat="44.82825" lon="10.8471233"><ele>20.0</ele><time>2026-04-26T14:43:52.5Z</time></trkpt><trkpt lat="44.8283267" lon="10.847155"><ele>20.0</ele><time>2026-04-26T14:43:53.499Z</time></trkpt><trkpt lat="44.8284067" lon="10.847185"><ele>20.0</ele><time>2026-04-26T14:43:54.5Z</time></trkpt><trkpt lat="44.828485" lon="10.8472283"><ele>20.0</ele><time>2026-04-26T14:43:55.499Z</time></trkpt><trkpt lat="44.8285667" lon="10.8472717"><ele>20.0</ele><time>2026-04-26T14:43:56.499Z</time></trkpt><trkpt lat="44.8286417" lon="10.8473167"><ele>20.0</ele><time>2026-04-26T14:43:57.5Z</time></trkpt><trkpt lat="44.8287167" lon="10.84736"><ele>20.0</ele><time>2026-04-26T14:43:58.5Z</time></trkpt><trkpt lat="44.8287867" lon="10.8474"><ele>20.0</ele><time>2026-04-26T14:43:59.499Z</time></trkpt><trkpt lat="44.8288583" lon="10.8474383"><ele>20.0</ele><time>2026-04-26T14:44:00.499Z</time></trkpt><trkpt lat="44.8289333" lon="10.8474783"><ele>20.0</ele><time>2026-04-26T14:44:01.499Z</time></trkpt><trkpt lat="44.8290067" lon="10.8475283"><ele>20.0</ele><time>2026-04-26T14:44:02.499Z</time></trkpt><trkpt lat="44.8290817" lon="10.8475767"><ele>20.0</ele><time>2026-04-26T14:44:03.499Z</time></trkpt><trkpt lat="44.829155" lon="10.8476217"><ele>20.0</ele><time>2026-04-26T14:44:04.499Z</time></trkpt><trkpt lat="44.82923" lon="10.847665"><ele>20.0</ele><time>2026-04-26T14:44:05.499Z</time></trkpt><trkpt lat="44.8293117" lon="10.8477067"><ele>20.0</ele><time>2026-04-26T14:44:06.499Z</time></trkpt><trkpt lat="44.8293917" lon="10.8477433"><ele>20.0</ele><time>2026-04-26T14:44:07.5Z</time></trkpt><trkpt lat="44.8294733" lon="10.8477883"><ele>20.0</ele><time>2026-04-26T14:44:08.499Z</time></trkpt><trkpt lat="44.8295517" lon="10.8478317"><ele>20.0</ele><time>2026-04-26T14:44:09.499Z</time></trkpt><trkpt lat="44.829625" lon="10.8478683"><ele>20.0</ele><time>2026-04-26T14:44:10.5Z</time></trkpt><trkpt lat="44.8296933" lon="10.8479117"><ele>20.0</ele><time>2026-04-26T14:44:11.499Z</time></trkpt><trkpt lat="44.8297683" lon="10.8479617"><ele>20.0</ele><time>2026-04-26T14:44:12.5Z</time></trkpt><trkpt lat="44.8298483" lon="10.8480017"><ele>20.0</ele><time>2026-04-26T14:44:13.499Z</time></trkpt><trkpt lat="44.8299133" lon="10.8480467"><ele>20.0</ele><time>2026-04-26T14:44:14.5Z</time></trkpt><trkpt lat="44.829995" lon="10.8481067"><ele>20.0</ele><time>2026-04-26T14:44:15.5Z</time></trkpt><trkpt lat="44.8300667" lon="10.8481567"><ele>20.0</ele><time>2026-04-26T14:44:16.5Z</time></trkpt><trkpt lat="44.83014" lon="10.8482067"><ele>20.0</ele><time>2026-04-26T14:44:17.499Z</time></trkpt><trkpt lat="44.8302133" lon="10.84826"><ele>20.0</ele><time>2026-04-26T14:44:18.5Z</time></trkpt><trkpt lat="44.83029" lon="10.8483083"><ele>20.0</ele><time>2026-04-26T14:44:19.5Z</time></trkpt><trkpt lat="44.8303633" lon="10.848355"><ele>20.0</ele><time>2026-04-26T14:44:20.5Z</time></trkpt><trkpt lat="44.8304433" lon="10.8483933"><ele>20.0</ele><time>2026-04-26T14:44:21.5Z</time></trkpt><trkpt lat="44.830515" lon="10.8484417"><ele>19.666666666666668</ele><time>2026-04-26T14:44:22.499Z</time></trkpt><trkpt lat="44.83059" lon="10.84849"><ele>19.333333333333336</ele><time>2026-04-26T14:44:23.5Z</time></trkpt><trkpt lat="44.8306583" lon="10.848535"><ele>19.0</ele><time>2026-04-26T14:44:24.499Z</time></trkpt><trkpt lat="44.8307317" lon="10.8485817"><ele>18.666666666666668</ele><time>2026-04-26T14:44:25.5Z</time></trkpt><trkpt lat="44.830805" lon="10.8486283"><ele>18.333333333333332</ele><time>2026-04-26T14:44:26.5Z</time></trkpt><trkpt lat="44.8308783" lon="10.8486767"><ele>18.0</ele><time>2026-04-26T14:44:27.499Z</time></trkpt><trkpt lat="44.8309517" lon="10.8487283"><ele>18.0</ele><time>2026-04-26T14:44:28.5Z</time></trkpt><trkpt lat="44.8310283" lon="10.8487767"><ele>18.0</ele><time>2026-04-26T14:44:29.499Z</time></trkpt><trkpt lat="44.8311083" lon="10.8488283"><ele>18.0</ele><time>2026-04-26T14:44:30.499Z</time></trkpt><trkpt lat="44.8311883" lon="10.84887"><ele>18.0</ele><time>2026-04-26T14:44:31.499Z</time></trkpt><trkpt lat="44.8312633" lon="10.8489183"><ele>18.0</ele><time>2026-04-26T14:44:32.499Z</time></trkpt><trkpt lat="44.831335" lon="10.848955"><ele>18.0</ele><time>2026-04-26T14:44:33.5Z</time></trkpt><trkpt lat="44.8314133" lon="10.848995"><ele>18.0</ele><time>2026-04-26T14:44:34.5Z</time></trkpt><trkpt lat="44.8314867" lon="10.8490367"><ele>18.0</ele><time>2026-04-26T14:44:35.5Z</time></trkpt><trkpt lat="44.83157" lon="10.849075"><ele>18.0</ele><time>2026-04-26T14:44:36.5Z</time></trkpt><trkpt lat="44.8316483" lon="10.8491233"><ele>18.0</ele><time>2026-04-26T14:44:37.5Z</time></trkpt><trkpt lat="44.83173" lon="10.84917"><ele>18.0</ele><time>2026-04-26T14:44:38.5Z</time></trkpt><trkpt lat="44.8318117" lon="10.84921"><ele>18.0</ele><time>2026-04-26T14:44:39.499Z</time></trkpt><trkpt lat="44.8318933" lon="10.8492483"><ele>18.0</ele><time>2026-04-26T14:44:40.499Z</time></trkpt><trkpt lat="44.8319683" lon="10.8492817"><ele>18.0</ele><time>2026-04-26T14:44:41.499Z</time></trkpt><trkpt lat="44.8320433" lon="10.8493233"><ele>18.0</ele><time>2026-04-26T14:44:42.499Z</time></trkpt><trkpt lat="44.8321167" lon="10.8493667"><ele>18.0</ele><time>2026-04-26T14:44:43.5Z</time></trkpt><trkpt lat="44.83219" lon="10.8494017"><ele>18.0</ele><time>2026-04-26T14:44:44.499Z</time></trkpt><trkpt lat="44.8322667" lon="10.8494417"><ele>18.0</ele><time>2026-04-26T14:44:45.5Z</time></trkpt><trkpt lat="44.8323417" lon="10.8494883"><ele>18.0</ele><time>2026-04-26T14:44:46.5Z</time></trkpt><trkpt lat="44.8324183" lon="10.8495333"><ele>18.0</ele><time>2026-04-26T14:44:47.499Z</time></trkpt><trkpt lat="44.8325" lon="10.8495817"><ele>18.0</ele><time>2026-04-26T14:44:48.5Z</time></trkpt><trkpt lat="44.8325817" lon="10.8496317"><ele>18.0</ele><time>2026-04-26T14:44:49.5Z</time></trkpt><trkpt lat="44.83266" lon="10.84968"><ele>18.0</ele><time>2026-04-26T14:44:50.499Z</time></trkpt><trkpt lat="44.83273" lon="10.8497267"><ele>18.0</ele><time>2026-04-26T14:44:51.499Z</time></trkpt><trkpt lat="44.8328067" lon="10.849775"><ele>18.0</ele><time>2026-04-26T14:44:52.499Z</time></trkpt><trkpt lat="44.8328817" lon="10.8498283"><ele>18.0</ele><time>2026-04-26T14:44:53.499Z</time></trkpt><trkpt lat="44.8329583" lon="10.849875"><ele>18.0</ele><time>2026-04-26T14:44:54.499Z</time></trkpt><trkpt lat="44.8330283" lon="10.849925"><ele>18.0</ele><time>2026-04-26T14:44:55.5Z</time></trkpt><trkpt lat="44.8331033" lon="10.849975"><ele>18.0</ele><time>2026-04-26T14:44:56.499Z</time></trkpt><trkpt lat="44.8331817" lon="10.8500267"><ele>18.0</ele><time>2026-04-26T14:44:57.499Z</time></trkpt><trkpt lat="44.8332617" lon="10.850075"><ele>18.166666666666668</ele><time>2026-04-26T14:44:58.499Z</time></trkpt><trkpt lat="44.83334" lon="10.8501267"><ele>18.333333333333332</ele><time>2026-04-26T14:44:59.5Z</time></trkpt><trkpt lat="44.8334117" lon="10.8501733"><ele>18.5</ele><time>2026-04-26T14:45:00.5Z</time></trkpt><trkpt lat="44.8334833" lon="10.8502167"><ele>18.666666666666664</ele><time>2026-04-26T14:45:01.5Z</time></trkpt><trkpt lat="44.8335533" lon="10.8502667"><ele>18.833333333333332</ele><time>2026-04-26T14:45:02.5Z</time></trkpt><trkpt lat="44.8336267" lon="10.8503167"><ele>19.0</ele><time>2026-04-26T14:45:03.499Z</time></trkpt><trkpt lat="44.8337" lon="10.8503633"><ele>19.166666666666664</ele><time>2026-04-26T14:45:04.499Z</time></trkpt><trkpt lat="44.8337733" lon="10.850415"><ele>19.333333333333332</ele><time>2026-04-26T14:45:05.5Z</time></trkpt><trkpt lat="44.8338483" lon="10.850465"><ele>19.5</ele><time>2026-04-26T14:45:06.5Z</time></trkpt><trkpt lat="44.8339267" lon="10.8505117"><ele>19.666666666666668</ele><time>2026-04-26T14:45:07.5Z</time></trkpt><trkpt lat="44.8340033" lon="10.8505567"><ele>19.833333333333336</ele><time>2026-04-26T14:45:08.499Z</time></trkpt><trkpt lat="44.8340817" lon="10.8506067"><ele>20.0</ele><time>2026-04-26T14:45:09.499Z</time></trkpt><trkpt lat="44.8341583" lon="10.8506567"><ele>20.0</ele><time>2026-04-26T14:45:10.5Z</time></trkpt><trkpt lat="44.8342333" lon="10.8507017"><ele>20.0</ele><time>2026-04-26T14:45:11.499Z</time></trkpt><trkpt lat="44.8343133" lon="10.8507433"><ele>20.0</ele><time>2026-04-26T14:45:12.499Z</time></trkpt><trkpt lat="44.8343917" lon="10.8507867"><ele>20.0</ele><time>2026-04-26T14:45:13.5Z</time></trkpt><trkpt lat="44.8344717" lon="10.85083"><ele>20.0</ele><time>2026-04-26T14:45:14.499Z</time></trkpt><trkpt lat="44.8345533" lon="10.8508767"><ele>20.0</ele><time>2026-04-26T14:45:15.499Z</time></trkpt><trkpt lat="44.8346333" lon="10.8509217"><ele>19.833333333333336</ele><time>2026-04-26T14:45:16.499Z</time></trkpt><trkpt lat="44.83472" lon="10.850975"><ele>19.666666666666668</ele><time>2026-04-26T14:45:17.5Z</time></trkpt><trkpt lat="44.8347967" lon="10.851035"><ele>19.5</ele><time>2026-04-26T14:45:18.499Z</time></trkpt><trkpt lat="44.8348683" lon="10.8510833"><ele>19.333333333333332</ele><time>2026-04-26T14:45:19.499Z</time></trkpt><trkpt lat="44.8349333" lon="10.8511283"><ele>19.166666666666664</ele><time>2026-04-26T14:45:20.5Z</time></trkpt><trkpt lat="44.835005" lon="10.8511683"><ele>19.0</ele><time>2026-04-26T14:45:21.499Z</time></trkpt><trkpt lat="44.8350783" lon="10.8512133"><ele>18.833333333333332</ele><time>2026-04-26T14:45:22.499Z</time></trkpt><trkpt lat="44.835155" lon="10.85126"><ele>18.666666666666664</ele><time>2026-04-26T14:45:23.5Z</time></trkpt><trkpt lat="44.8352317" lon="10.851305"><ele>18.5</ele><time>2026-04-26T14:45:24.5Z</time></trkpt><trkpt lat="44.83531" lon="10.85136"><ele>18.333333333333332</ele><time>2026-04-26T14:45:25.5Z</time></trkpt><trkpt lat="44.8353867" lon="10.8514167"><ele>18.166666666666668</ele><time>2026-04-26T14:45:26.499Z</time></trkpt><trkpt lat="44.83546" lon="10.85147"><ele>18.0</ele><time>2026-04-26T14:45:27.5Z</time></trkpt><trkpt lat="44.8355317" lon="10.8515333"><ele>18.0</ele><time>2026-04-26T14:45:28.499Z</time></trkpt><trkpt lat="44.8356017" lon="10.8516033"><ele>18.0</ele><time>2026-04-26T14:45:29.499Z</time></trkpt><trkpt lat="44.8356733" lon="10.8516817"><ele>18.0</ele><time>2026-04-26T14:45:30.5Z</time></trkpt><trkpt lat="44.835735" lon="10.85176"><ele>18.0</ele><time>2026-04-26T14:45:31.499Z</time></trkpt><trkpt lat="44.8357867" lon="10.851835"><ele>18.0</ele><time>2026-04-26T14:45:32.5Z</time></trkpt><trkpt lat="44.8358383" lon="10.851905"><ele>18.0</ele><time>2026-04-26T14:45:33.5Z</time></trkpt><trkpt lat="44.8358917" lon="10.851965"><ele>18.28571428571429</ele><time>2026-04-26T14:45:34.499Z</time></trkpt><trkpt lat="44.835945" lon="10.8520217"><ele>18.571428571428573</ele><time>2026-04-26T14:45:35.499Z</time></trkpt><trkpt lat="44.836005" lon="10.85207"><ele>18.857142857142858</ele><time>2026-04-26T14:45:36.499Z</time></trkpt><trkpt lat="44.8360683" lon="10.8521167"><ele>19.142857142857146</ele><time>2026-04-26T14:45:37.5Z</time></trkpt><trkpt lat="44.8361383" lon="10.8521533"><ele>19.42857142857143</ele><time>2026-04-26T14:45:38.499Z</time></trkpt><trkpt lat="44.8362067" lon="10.8521767"><ele>19.714285714285715</ele><time>2026-04-26T14:45:39.5Z</time></trkpt><trkpt lat="44.8362767" lon="10.8521833"><ele>20.0</ele><time>2026-04-26T14:45:40.5Z</time></trkpt><trkpt lat="44.8363533" lon="10.8521867"><ele>20.2</ele><time>2026-04-26T14:45:41.5Z</time></trkpt><trkpt lat="44.8364233" lon="10.8521917"><ele>20.4</ele><time>2026-04-26T14:45:42.5Z</time></trkpt><trkpt lat="44.8364983" lon="10.8521983"><ele>20.6</ele><time>2026-04-26T14:45:43.499Z</time></trkpt><trkpt lat="44.8366217" lon="10.8521983"><ele>20.8</ele><time>2026-04-26T14:45:45.499Z</time></trkpt><trkpt lat="44.8367367" lon="10.8521867"><ele>21.0</ele><time>2026-04-26T14:45:47.499Z</time></trkpt><trkpt lat="44.8368433" lon="10.8521917"><ele>21.0</ele><time>2026-04-26T14:45:49.5Z</time></trkpt><trkpt lat="44.83694" lon="10.8521833"><ele>21.0</ele><time>2026-04-26T14:45:51.499Z</time></trkpt><trkpt lat="44.8370117" lon="10.8521117"><ele>21.0</ele><time>2026-04-26T14:45:53.5Z</time></trkpt><trkpt lat="44.8370433" lon="10.8519633"><ele>21.0</ele><time>2026-04-26T14:45:55.5Z</time></trkpt><trkpt lat="44.8370417" lon="10.8518583"><ele>21.0</ele><time>2026-04-26T14:45:56.499Z</time></trkpt><trkpt lat="44.8370383" lon="10.8517367"><ele>21.0</ele><time>2026-04-26T14:45:57.5Z</time></trkpt><trkpt lat="44.8370417" lon="10.8516217"><ele>21.0</ele><time>2026-04-26T14:45:58.499Z</time></trkpt><trkpt lat="44.83705" lon="10.851505"><ele>21.0</ele><time>2026-04-26T14:45:59.499Z</time></trkpt><trkpt lat="44.83706" lon="10.8513917"><ele>21.0</ele><time>2026-04-26T14:46:00.499Z</time></trkpt><trkpt lat="44.83707" lon="10.851275"><ele>21.0</ele><time>2026-04-26T14:46:01.5Z</time></trkpt><trkpt lat="44.837075" lon="10.8511617"><ele>21.0</ele><time>2026-04-26T14:46:02.5Z</time></trkpt><trkpt lat="44.837085" lon="10.8510483"><ele>20.833333333333332</ele><time>2026-04-26T14:46:03.499Z</time></trkpt><trkpt lat="44.83709" lon="10.85093"><ele>20.666666666666668</ele><time>2026-04-26T14:46:04.5Z</time></trkpt><trkpt lat="44.8371" lon="10.8508067"><ele>20.5</ele><time>2026-04-26T14:46:05.5Z</time></trkpt><trkpt lat="44.837105" lon="10.8506883"><ele>20.333333333333336</ele><time>2026-04-26T14:46:06.499Z</time></trkpt><trkpt lat="44.8371117" lon="10.8505717"><ele>20.166666666666668</ele><time>2026-04-26T14:46:07.499Z</time></trkpt><trkpt lat="44.8371167" lon="10.850455"><ele>20.0</ele><time>2026-04-26T14:46:08.5Z</time></trkpt><trkpt lat="44.8371183" lon="10.850345"><ele>20.0</ele><time>2026-04-26T14:46:09.5Z</time></trkpt><trkpt lat="44.83712" lon="10.8502383"><ele>20.0</ele><time>2026-04-26T14:46:10.499Z</time></trkpt><trkpt lat="44.837125" lon="10.8501267"><ele>20.0</ele><time>2026-04-26T14:46:11.499Z</time></trkpt><trkpt lat="44.8371283" lon="10.8500133"><ele>20.0</ele><time>2026-04-26T14:46:12.499Z</time></trkpt><trkpt lat="44.8371383" lon="10.8499033"><ele>20.0</ele><time>2026-04-26T14:46:13.499Z</time></trkpt><trkpt lat="44.8371517" lon="10.8497933"><ele>20.0</ele><time>2026-04-26T14:46:14.5Z</time></trkpt><trkpt lat="44.8371683" lon="10.8496783"><ele>20.0</ele><time>2026-04-26T14:46:15.5Z</time></trkpt><trkpt lat="44.8371817" lon="10.849555"><ele>20.0</ele><time>2026-04-26T14:46:16.5Z</time></trkpt><trkpt lat="44.837185" lon="10.8494267"><ele>20.0</ele><time>2026-04-26T14:46:17.499Z</time></trkpt><trkpt lat="44.8371883" lon="10.8492933"><ele>20.0</ele><time>2026-04-26T14:46:18.499Z</time></trkpt><trkpt lat="44.8371917" lon="10.8491617"><ele>20.0</ele><time>2026-04-26T14:46:19.499Z</time></trkpt><trkpt lat="44.8371967" lon="10.8490283"><ele>20.0</ele><time>2026-04-26T14:46:20.5Z</time></trkpt><trkpt lat="44.8372" lon="10.8488983"><ele>20.0</ele><time>2026-04-26T14:46:21.5Z</time></trkpt><trkpt lat="44.8372067" lon="10.8487683"><ele>20.0</ele><time>2026-04-26T14:46:22.5Z</time></trkpt><trkpt lat="44.8372133" lon="10.84864"><ele>20.0</ele><time>2026-04-26T14:46:23.5Z</time></trkpt><trkpt lat="44.8372183" lon="10.848515"><ele>20.0</ele><time>2026-04-26T14:46:24.5Z</time></trkpt><trkpt lat="44.8372233" lon="10.8484067"><ele>20.0</ele><time>2026-04-26T14:46:25.499Z</time></trkpt><trkpt lat="44.8372317" lon="10.8482983"><ele>19.6</ele><time>2026-04-26T14:46:26.499Z</time></trkpt><trkpt lat="44.8372417" lon="10.8481867"><ele>19.2</ele><time>2026-04-26T14:46:27.499Z</time></trkpt><trkpt lat="44.8372533" lon="10.8480617"><ele>18.8</ele><time>2026-04-26T14:46:28.499Z</time></trkpt><trkpt lat="44.837265" lon="10.8479233"><ele>18.4</ele><time>2026-04-26T14:46:29.5Z</time></trkpt><trkpt lat="44.8372833" lon="10.8477817"><ele>18.0</ele><time>2026-04-26T14:46:30.5Z</time></trkpt><trkpt lat="44.8373017" lon="10.847635"><ele>18.0</ele><time>2026-04-26T14:46:31.499Z</time></trkpt><trkpt lat="44.8373167" lon="10.8474817"><ele>18.0</ele><time>2026-04-26T14:46:32.499Z</time></trkpt><trkpt lat="44.8373267" lon="10.84733"><ele>18.0</ele><time>2026-04-26T14:46:33.499Z</time></trkpt><trkpt lat="44.8373333" lon="10.84717"><ele>18.0</ele><time>2026-04-26T14:46:34.499Z</time></trkpt><trkpt lat="44.83734" lon="10.8470167"><ele>18.0</ele><time>2026-04-26T14:46:35.499Z</time></trkpt><trkpt lat="44.8373483" lon="10.8468633"><ele>18.0</ele><time>2026-04-26T14:46:36.499Z</time></trkpt><trkpt lat="44.8373617" lon="10.846715"><ele>18.0</ele><time>2026-04-26T14:46:37.498Z</time></trkpt><trkpt lat="44.837375" lon="10.8465667"><ele>18.0</ele><time>2026-04-26T14:46:38.498Z</time></trkpt><trkpt lat="44.8373833" lon="10.8464183"><ele>18.0</ele><time>2026-04-26T14:46:39.498Z</time></trkpt><trkpt lat="44.837395" lon="10.846275"><ele>18.0</ele><time>2026-04-26T14:46:40.498Z</time></trkpt><trkpt lat="44.837405" lon="10.846135"><ele>18.0</ele><time>2026-04-26T14:46:41.499Z</time></trkpt><trkpt lat="44.8374133" lon="10.84601"><ele>18.0</ele><time>2026-04-26T14:46:42.498Z</time></trkpt><trkpt lat="44.83742" lon="10.8458817"><ele>18.0</ele><time>2026-04-26T14:46:43.499Z</time></trkpt><trkpt lat="44.8374267" lon="10.8457517"><ele>18.0</ele><time>2026-04-26T14:46:44.499Z</time></trkpt><trkpt lat="44.8374333" lon="10.84562"><ele>18.0</ele><time>2026-04-26T14:46:45.498Z</time></trkpt><trkpt lat="44.8374383" lon="10.8454967"><ele>18.0</ele><time>2026-04-26T14:46:46.499Z</time></trkpt><trkpt lat="44.8374467" lon="10.84537"><ele>18.0</ele><time>2026-04-26T14:46:47.498Z</time></trkpt><trkpt lat="44.837455" lon="10.84525"><ele>18.0</ele><time>2026-04-26T14:46:48.499Z</time></trkpt><trkpt lat="44.837465" lon="10.8451333"><ele>18.0</ele><time>2026-04-26T14:46:49.499Z</time></trkpt><trkpt lat="44.8374717" lon="10.8450083"><ele>18.0</ele><time>2026-04-26T14:46:50.498Z</time></trkpt><trkpt lat="44.8374817" lon="10.84488"><ele>18.0</ele><time>2026-04-26T14:46:51.498Z</time></trkpt><trkpt lat="44.8374917" lon="10.8447533"><ele>18.0</ele><time>2026-04-26T14:46:52.498Z</time></trkpt><trkpt lat="44.8374967" lon="10.844625"><ele>18.0</ele><time>2026-04-26T14:46:53.499Z</time></trkpt><trkpt lat="44.8375" lon="10.8444967"><ele>18.0</ele><time>2026-04-26T14:46:54.498Z</time></trkpt><trkpt lat="44.83751" lon="10.8443683"><ele>18.0</ele><time>2026-04-26T14:46:55.498Z</time></trkpt><trkpt lat="44.8375183" lon="10.84425"><ele>18.0</ele><time>2026-04-26T14:46:56.499Z</time></trkpt><trkpt lat="44.8375283" lon="10.8441333"><ele>18.0</ele><time>2026-04-26T14:46:57.499Z</time></trkpt><trkpt lat="44.837535" lon="10.84402"><ele>18.0</ele><time>2026-04-26T14:46:58.499Z</time></trkpt><trkpt lat="44.8375383" lon="10.8439217"><ele>18.0</ele><time>2026-04-26T14:46:59.498Z</time></trkpt><trkpt lat="44.8375433" lon="10.843825"><ele>18.0</ele><time>2026-04-26T14:47:00.498Z</time></trkpt><trkpt lat="44.8375467" lon="10.8436583"><ele>18.0</ele><time>2026-04-26T14:47:02.499Z</time></trkpt><trkpt lat="44.8375517" lon="10.8435133"><ele>18.0</ele><time>2026-04-26T14:47:04.499Z</time></trkpt><trkpt lat="44.8375583" lon="10.84339"><ele>18.0</ele><time>2026-04-26T14:47:06.498Z</time></trkpt><trkpt lat="44.8375917" lon="10.84327"><ele>18.2</ele><time>2026-04-26T14:47:09.499Z</time></trkpt><trkpt lat="44.8376567" lon="10.843245"><ele>18.4</ele><time>2026-04-26T14:47:11.498Z</time></trkpt><trkpt lat="44.8377583" lon="10.8432617"><ele>18.599999999999998</ele><time>2026-04-26T14:47:13.499Z</time></trkpt><trkpt lat="44.837875" lon="10.843285"><ele>18.8</ele><time>2026-04-26T14:47:15.498Z</time></trkpt><trkpt lat="44.8379983" lon="10.84329"><ele>19.0</ele><time>2026-04-26T14:47:17.498Z</time></trkpt><trkpt lat="44.838125" lon="10.843285"><ele>19.0</ele><time>2026-04-26T14:47:19.499Z</time></trkpt><trkpt lat="44.8381917" lon="10.843275"><ele>19.0</ele><time>2026-04-26T14:47:20.498Z</time></trkpt><trkpt lat="44.8382633" lon="10.8432667"><ele>19.0</ele><time>2026-04-26T14:47:21.499Z</time></trkpt><trkpt lat="44.8383333" lon="10.8432533"><ele>19.0</ele><time>2026-04-26T14:47:22.498Z</time></trkpt><trkpt lat="44.838405" lon="10.8432417"><ele>19.0</ele><time>2026-04-26T14:47:23.499Z</time></trkpt><trkpt lat="44.8384783" lon="10.84323"><ele>19.0</ele><time>2026-04-26T14:47:24.498Z</time></trkpt><trkpt lat="44.8385567" lon="10.8432183"><ele>19.0</ele><time>2026-04-26T14:47:25.498Z</time></trkpt><trkpt lat="44.8386283" lon="10.8432117"><ele>19.142857142857142</ele><time>2026-04-26T14:47:26.499Z</time></trkpt><trkpt lat="44.838705" lon="10.84321"><ele>19.28571428571429</ele><time>2026-04-26T14:47:27.499Z</time></trkpt><trkpt lat="44.83878" lon="10.8432133"><ele>19.42857142857143</ele><time>2026-04-26T14:47:28.498Z</time></trkpt><trkpt lat="44.8388483" lon="10.843215"><ele>19.57142857142857</ele><time>2026-04-26T14:47:29.499Z</time></trkpt><trkpt lat="44.8389183" lon="10.8432233"><ele>19.714285714285715</ele><time>2026-04-26T14:47:30.498Z</time></trkpt><trkpt lat="44.83899" lon="10.8432267"><ele>19.857142857142858</ele><time>2026-04-26T14:47:31.499Z</time></trkpt><trkpt lat="44.8390617" lon="10.8432267"><ele>20.0</ele><time>2026-04-26T14:47:32.499Z</time></trkpt><trkpt lat="44.8391333" lon="10.8432167"><ele>20.0</ele><time>2026-04-26T14:47:33.498Z</time></trkpt><trkpt lat="44.83921" lon="10.8431983"><ele>20.0</ele><time>2026-04-26T14:47:34.499Z</time></trkpt><trkpt lat="44.839285" lon="10.843175"><ele>20.0</ele><time>2026-04-26T14:47:35.499Z</time></trkpt><trkpt lat="44.8393567" lon="10.8431433"><ele>20.0</ele><time>2026-04-26T14:47:36.498Z</time></trkpt><trkpt lat="44.839425" lon="10.8431067"><ele>20.0</ele><time>2026-04-26T14:47:37.498Z</time></trkpt><trkpt lat="44.8394883" lon="10.8430533"><ele>20.0</ele><time>2026-04-26T14:47:38.499Z</time></trkpt><trkpt lat="44.8395567" lon="10.843"><ele>19.833333333333336</ele><time>2026-04-26T14:47:39.498Z</time></trkpt><trkpt lat="44.839625" lon="10.842955"><ele>19.666666666666668</ele><time>2026-04-26T14:47:40.499Z</time></trkpt><trkpt lat="44.8396967" lon="10.8429017"><ele>19.5</ele><time>2026-04-26T14:47:41.499Z</time></trkpt><trkpt lat="44.8397667" lon="10.842855"><ele>19.333333333333332</ele><time>2026-04-26T14:47:42.498Z</time></trkpt><trkpt lat="44.8398333" lon="10.84281"><ele>19.166666666666664</ele><time>2026-04-26T14:47:43.498Z</time></trkpt><trkpt lat="44.8398983" lon="10.842765"><ele>19.0</ele><time>2026-04-26T14:47:44.498Z</time></trkpt><trkpt lat="44.8399633" lon="10.8427183"><ele>19.0</ele><time>2026-04-26T14:47:45.498Z</time></trkpt><trkpt lat="44.8400333" lon="10.8426867"><ele>19.0</ele><time>2026-04-26T14:47:46.499Z</time></trkpt><trkpt lat="44.8401017" lon="10.8426567"><ele>19.0</ele><time>2026-04-26T14:47:47.499Z</time></trkpt><trkpt lat="44.8401717" lon="10.8426267"><ele>19.0</ele><time>2026-04-26T14:47:48.498Z</time></trkpt><trkpt lat="44.840245" lon="10.8426"><ele>19.0</ele><time>2026-04-26T14:47:49.498Z</time></trkpt><trkpt lat="44.8403167" lon="10.8425783"><ele>19.0</ele><time>2026-04-26T14:47:50.498Z</time></trkpt><trkpt lat="44.8403883" lon="10.8425533"><ele>19.0</ele><time>2026-04-26T14:47:51.498Z</time></trkpt><trkpt lat="44.84046" lon="10.842535"><ele>19.0</ele><time>2026-04-26T14:47:52.498Z</time></trkpt><trkpt lat="44.84053" lon="10.842525"><ele>19.0</ele><time>2026-04-26T14:47:53.498Z</time></trkpt><trkpt lat="44.8406" lon="10.8425183"><ele>19.0</ele><time>2026-04-26T14:47:54.498Z</time></trkpt><trkpt lat="44.8406717" lon="10.842515"><ele>19.0</ele><time>2026-04-26T14:47:55.498Z</time></trkpt><trkpt lat="44.8407433" lon="10.8425217"><ele>19.0</ele><time>2026-04-26T14:47:56.499Z</time></trkpt><trkpt lat="44.8408183" lon="10.8425333"><ele>19.0</ele><time>2026-04-26T14:47:57.498Z</time></trkpt><trkpt lat="44.8408917" lon="10.842545"><ele>19.0</ele><time>2026-04-26T14:47:58.498Z</time></trkpt><trkpt lat="44.8409683" lon="10.8425633"><ele>19.142857142857142</ele><time>2026-04-26T14:47:59.498Z</time></trkpt><trkpt lat="44.841045" lon="10.842585"><ele>19.28571428571429</ele><time>2026-04-26T14:48:00.498Z</time></trkpt><trkpt lat="44.84112" lon="10.8426083"><ele>19.42857142857143</ele><time>2026-04-26T14:48:01.499Z</time></trkpt><trkpt lat="44.8411933" lon="10.8426317"><ele>19.57142857142857</ele><time>2026-04-26T14:48:02.499Z</time></trkpt><trkpt lat="44.8412617" lon="10.8426533"><ele>19.714285714285715</ele><time>2026-04-26T14:48:03.498Z</time></trkpt><trkpt lat="44.8413267" lon="10.84266"><ele>19.857142857142858</ele><time>2026-04-26T14:48:04.498Z</time></trkpt><trkpt lat="44.8414" lon="10.8426617"><ele>20.0</ele><time>2026-04-26T14:48:05.498Z</time></trkpt><trkpt lat="44.8414717" lon="10.8426533"><ele>20.0</ele><time>2026-04-26T14:48:06.498Z</time></trkpt><trkpt lat="44.841545" lon="10.8426467"><ele>20.0</ele><time>2026-04-26T14:48:07.498Z</time></trkpt><trkpt lat="44.8416183" lon="10.8426317"><ele>20.0</ele><time>2026-04-26T14:48:08.499Z</time></trkpt><trkpt lat="44.8416867" lon="10.84262"><ele>20.0</ele><time>2026-04-26T14:48:09.498Z</time></trkpt><trkpt lat="44.8417533" lon="10.8426017"><ele>20.0</ele><time>2026-04-26T14:48:10.498Z</time></trkpt><trkpt lat="44.8418233" lon="10.8425833"><ele>20.0</ele><time>2026-04-26T14:48:11.498Z</time></trkpt><trkpt lat="44.841885" lon="10.842565"><ele>20.0</ele><time>2026-04-26T14:48:12.498Z</time></trkpt><trkpt lat="44.8420033" lon="10.84253"><ele>20.0</ele><time>2026-04-26T14:48:14.498Z</time></trkpt><trkpt lat="44.8421217" lon="10.8424667"><ele>20.0</ele><time>2026-04-26T14:48:16.498Z</time></trkpt><trkpt lat="44.84223" lon="10.8424033"><ele>20.0</ele><time>2026-04-26T14:48:18.499Z</time></trkpt><trkpt lat="44.84234" lon="10.84233"><ele>20.0</ele><time>2026-04-26T14:48:20.498Z</time></trkpt><trkpt lat="44.8424483" lon="10.842255"><ele>20.0</ele><time>2026-04-26T14:48:22.498Z</time></trkpt><trkpt lat="44.8425383" lon="10.8421883"><ele>20.0</ele><time>2026-04-26T14:48:24.499Z</time></trkpt><trkpt lat="44.8426317" lon="10.8421083"><ele>20.0</ele><time>2026-04-26T14:48:26.498Z</time></trkpt><trkpt lat="44.8426933" lon="10.8420667"><ele>20.0</ele><time>2026-04-26T14:48:27.498Z</time></trkpt><trkpt lat="44.8427533" lon="10.8420183"><ele>20.0</ele><time>2026-04-26T14:48:28.498Z</time></trkpt><trkpt lat="44.8428183" lon="10.84197"><ele>20.0</ele><time>2026-04-26T14:48:29.498Z</time></trkpt><trkpt lat="44.842885" lon="10.841925"><ele>20.166666666666668</ele><time>2026-04-26T14:48:30.499Z</time></trkpt><trkpt lat="44.8430067" lon="10.84182"><ele>20.333333333333336</ele><time>2026-04-26T14:48:32.498Z</time></trkpt><trkpt lat="44.8430767" lon="10.84177"><ele>20.5</ele><time>2026-04-26T14:48:33.499Z</time></trkpt><trkpt lat="44.84314" lon="10.841725"><ele>20.666666666666668</ele><time>2026-04-26T14:48:34.499Z</time></trkpt><trkpt lat="44.8432033" lon="10.8416783"><ele>20.833333333333332</ele><time>2026-04-26T14:48:35.499Z</time></trkpt><trkpt lat="44.8432667" lon="10.8416333"><ele>21.0</ele><time>2026-04-26T14:48:36.499Z</time></trkpt><trkpt lat="44.8433283" lon="10.84159"><ele>21.0</ele><time>2026-04-26T14:48:37.498Z</time></trkpt><trkpt lat="44.8433883" lon="10.841545"><ele>21.0</ele><time>2026-04-26T14:48:38.498Z</time></trkpt><trkpt lat="44.8434483" lon="10.8415083"><ele>21.0</ele><time>2026-04-26T14:48:39.498Z</time></trkpt><trkpt lat="44.8435067" lon="10.841465"><ele>21.0</ele><time>2026-04-26T14:48:40.499Z</time></trkpt><trkpt lat="44.84356" lon="10.841415"><ele>21.0</ele><time>2026-04-26T14:48:41.499Z</time></trkpt><trkpt lat="44.8436567" lon="10.84132"><ele>21.0</ele><time>2026-04-26T14:48:43.498Z</time></trkpt><trkpt lat="44.8437183" lon="10.8412067"><ele>21.0</ele><time>2026-04-26T14:48:45.498Z</time></trkpt><trkpt lat="44.8437767" lon="10.8410983"><ele>21.0</ele><time>2026-04-26T14:48:47.499Z</time></trkpt><trkpt lat="44.84385" lon="10.8410067"><ele>21.0</ele><time>2026-04-26T14:48:49.499Z</time></trkpt><trkpt lat="44.8439417" lon="10.8409"><ele>21.0</ele><time>2026-04-26T14:48:51.499Z</time></trkpt><trkpt lat="44.844005" lon="10.8408517"><ele>21.0</ele><time>2026-04-26T14:48:52.498Z</time></trkpt><trkpt lat="44.84408" lon="10.8408067"><ele>20.8</ele><time>2026-04-26T14:48:53.499Z</time></trkpt><trkpt lat="44.8441667" lon="10.8407617"><ele>20.6</ele><time>2026-04-26T14:48:54.498Z</time></trkpt><trkpt lat="44.8442517" lon="10.8407167"><ele>20.4</ele><time>2026-04-26T14:48:55.498Z</time></trkpt><trkpt lat="44.844335" lon="10.8406667"><ele>20.2</ele><time>2026-04-26T14:48:56.498Z</time></trkpt><trkpt lat="44.8444217" lon="10.840615"><ele>20.0</ele><time>2026-04-26T14:48:57.498Z</time></trkpt><trkpt lat="44.8445117" lon="10.8405683"><ele>19.75</ele><time>2026-04-26T14:48:58.498Z</time></trkpt><trkpt lat="44.8446117" lon="10.8405117"><ele>19.5</ele><time>2026-04-26T14:48:59.499Z</time></trkpt><trkpt lat="44.8447133" lon="10.8404567"><ele>19.25</ele><time>2026-04-26T14:49:00.498Z</time></trkpt><trkpt lat="44.8448233" lon="10.8404017"><ele>19.0</ele><time>2026-04-26T14:49:01.498Z</time></trkpt><trkpt lat="44.8449383" lon="10.8403383"><ele>19.0</ele><time>2026-04-26T14:49:02.498Z</time></trkpt><trkpt lat="44.845055" lon="10.8402783"><ele>19.0</ele><time>2026-04-26T14:49:03.498Z</time></trkpt><trkpt lat="44.845175" lon="10.840215"><ele>19.0</ele><time>2026-04-26T14:49:04.499Z</time></trkpt><trkpt lat="44.8452983" lon="10.8401617"><ele>19.0</ele><time>2026-04-26T14:49:05.498Z</time></trkpt><trkpt lat="44.8454267" lon="10.8401083"><ele>19.0</ele><time>2026-04-26T14:49:06.498Z</time></trkpt><trkpt lat="44.84556" lon="10.840075"><ele>19.0</ele><time>2026-04-26T14:49:07.499Z</time></trkpt><trkpt lat="44.8456983" lon="10.8400467"><ele>19.0</ele><time>2026-04-26T14:49:08.499Z</time></trkpt><trkpt lat="44.8458317" lon="10.8400233"><ele>19.0</ele><time>2026-04-26T14:49:09.499Z</time></trkpt><trkpt lat="44.84596" lon="10.8400033"><ele>18.75</ele><time>2026-04-26T14:49:10.499Z</time></trkpt><trkpt lat="44.8460867" lon="10.83999"><ele>18.5</ele><time>2026-04-26T14:49:11.499Z</time></trkpt><trkpt lat="44.84621" lon="10.8399733"><ele>18.25</ele><time>2026-04-26T14:49:12.498Z</time></trkpt><trkpt lat="44.8463333" lon="10.8399517"><ele>18.0</ele><time>2026-04-26T14:49:13.499Z</time></trkpt><trkpt lat="44.8464567" lon="10.83993"><ele>18.0</ele><time>2026-04-26T14:49:14.499Z</time></trkpt><trkpt lat="44.8465817" lon="10.83991"><ele>18.0</ele><time>2026-04-26T14:49:15.499Z</time></trkpt><trkpt lat="44.8467067" lon="10.8398867"><ele>18.0</ele><time>2026-04-26T14:49:16.498Z</time></trkpt><trkpt lat="44.8468217" lon="10.8398683"><ele>18.0</ele><time>2026-04-26T14:49:17.498Z</time></trkpt><trkpt lat="44.846935" lon="10.8398483"><ele>18.0</ele><time>2026-04-26T14:49:18.499Z</time></trkpt><trkpt lat="44.8470433" lon="10.8398183"><ele>18.0</ele><time>2026-04-26T14:49:19.498Z</time></trkpt><trkpt lat="44.84714" lon="10.83979"><ele>18.0</ele><time>2026-04-26T14:49:20.499Z</time></trkpt><trkpt lat="44.8472367" lon="10.8397667"><ele>18.0</ele><time>2026-04-26T14:49:21.498Z</time></trkpt><trkpt lat="44.84733" lon="10.839745"><ele>18.0</ele><time>2026-04-26T14:49:22.498Z</time></trkpt><trkpt lat="44.8474167" lon="10.8397383"><ele>18.0</ele><time>2026-04-26T14:49:23.499Z</time></trkpt><trkpt lat="44.8475" lon="10.8397383"><ele>18.0</ele><time>2026-04-26T14:49:24.499Z</time></trkpt><trkpt lat="44.8475817" lon="10.8397467"><ele>18.0</ele><time>2026-04-26T14:49:25.498Z</time></trkpt><trkpt lat="44.8476717" lon="10.8397767"><ele>18.0</ele><time>2026-04-26T14:49:26.498Z</time></trkpt><trkpt lat="44.8477617" lon="10.8398133"><ele>18.0</ele><time>2026-04-26T14:49:27.499Z</time></trkpt><trkpt lat="44.8478517" lon="10.83985"><ele>18.0</ele><time>2026-04-26T14:49:28.499Z</time></trkpt><trkpt lat="44.8479433" lon="10.8398933"><ele>18.0</ele><time>2026-04-26T14:49:29.498Z</time></trkpt><trkpt lat="44.84804" lon="10.839945"><ele>18.0</ele><time>2026-04-26T14:49:30.499Z</time></trkpt><trkpt lat="44.8481333" lon="10.839995"><ele>18.0</ele><time>2026-04-26T14:49:31.498Z</time></trkpt><trkpt lat="44.84823" lon="10.8400433"><ele>18.0</ele><time>2026-04-26T14:49:32.498Z</time></trkpt><trkpt lat="44.8483217" lon="10.8400967"><ele>18.0</ele><time>2026-04-26T14:49:33.498Z</time></trkpt><trkpt lat="44.8484167" lon="10.8401517"><ele>18.2</ele><time>2026-04-26T14:49:34.498Z</time></trkpt><trkpt lat="44.848515" lon="10.8402067"><ele>18.4</ele><time>2026-04-26T14:49:35.498Z</time></trkpt><trkpt lat="44.8486167" lon="10.840265"><ele>18.599999999999998</ele><time>2026-04-26T14:49:36.499Z</time></trkpt><trkpt lat="44.8487183" lon="10.8403267"><ele>18.8</ele><time>2026-04-26T14:49:37.499Z</time></trkpt><trkpt lat="44.84882" lon="10.8403983"><ele>19.0</ele><time>2026-04-26T14:49:38.499Z</time></trkpt><trkpt lat="44.8489183" lon="10.84046"><ele>19.0</ele><time>2026-04-26T14:49:39.498Z</time></trkpt><trkpt lat="44.849015" lon="10.8405217"><ele>19.0</ele><time>2026-04-26T14:49:40.499Z</time></trkpt><trkpt lat="44.8491117" lon="10.8405833"><ele>19.0</ele><time>2026-04-26T14:49:41.499Z</time></trkpt><trkpt lat="44.8492067" lon="10.84064"><ele>19.0</ele><time>2026-04-26T14:49:42.499Z</time></trkpt><trkpt lat="44.8493033" lon="10.8406783"><ele>19.0</ele><time>2026-04-26T14:49:43.498Z</time></trkpt><trkpt lat="44.8494017" lon="10.8407167"><ele>19.2</ele><time>2026-04-26T14:49:44.499Z</time></trkpt><trkpt lat="44.8495017" lon="10.840755"><ele>19.4</ele><time>2026-04-26T14:49:45.499Z</time></trkpt><trkpt lat="44.8495967" lon="10.8407933"><ele>19.6</ele><time>2026-04-26T14:49:46.498Z</time></trkpt><trkpt lat="44.8496933" lon="10.840825"><ele>19.8</ele><time>2026-04-26T14:49:47.498Z</time></trkpt><trkpt lat="44.8497917" lon="10.8408517"><ele>20.0</ele><time>2026-04-26T14:49:48.499Z</time></trkpt><trkpt lat="44.8498867" lon="10.8408767"><ele>20.0</ele><time>2026-04-26T14:49:49.498Z</time></trkpt><trkpt lat="44.8499817" lon="10.8409117"><ele>20.0</ele><time>2026-04-26T14:49:50.498Z</time></trkpt><trkpt lat="44.8500733" lon="10.84096"><ele>20.0</ele><time>2026-04-26T14:49:51.498Z</time></trkpt><trkpt lat="44.8501633" lon="10.8410167"><ele>20.0</ele><time>2026-04-26T14:49:52.499Z</time></trkpt><trkpt lat="44.85025" lon="10.8410883"><ele>20.0</ele><time>2026-04-26T14:49:53.498Z</time></trkpt><trkpt lat="44.8503367" lon="10.84117"><ele>20.6</ele><time>2026-04-26T14:49:54.499Z</time></trkpt><trkpt lat="44.8504133" lon="10.8412333"><ele>21.2</ele><time>2026-04-26T14:49:55.498Z</time></trkpt><trkpt lat="44.8505083" lon="10.8413117"><ele>21.799999999999997</ele><time>2026-04-26T14:49:56.498Z</time></trkpt><trkpt lat="44.8506067" lon="10.8413867"><ele>22.4</ele><time>2026-04-26T14:49:57.499Z</time></trkpt><trkpt lat="44.8506983" lon="10.841455"><ele>23.0</ele><time>2026-04-26T14:49:58.498Z</time></trkpt><trkpt lat="44.85079" lon="10.8415233"><ele>23.0</ele><time>2026-04-26T14:49:59.498Z</time></trkpt><trkpt lat="44.850885" lon="10.8415917"><ele>23.0</ele><time>2026-04-26T14:50:00.499Z</time></trkpt><trkpt lat="44.8509817" lon="10.841665"><ele>23.0</ele><time>2026-04-26T14:50:01.499Z</time></trkpt><trkpt lat="44.8510833" lon="10.8417383"><ele>23.0</ele><time>2026-04-26T14:50:02.498Z</time></trkpt><trkpt lat="44.8511833" lon="10.8418133"><ele>23.0</ele><time>2026-04-26T14:50:03.498Z</time></trkpt><trkpt lat="44.85128" lon="10.84189"><ele>22.4</ele><time>2026-04-26T14:50:04.498Z</time></trkpt><trkpt lat="44.8513717" lon="10.841975"><ele>21.799999999999997</ele><time>2026-04-26T14:50:05.498Z</time></trkpt><trkpt lat="44.8514667" lon="10.8420617"><ele>21.2</ele><time>2026-04-26T14:50:06.499Z</time></trkpt><trkpt lat="44.8515617" lon="10.8421483"><ele>20.6</ele><time>2026-04-26T14:50:07.499Z</time></trkpt><trkpt lat="44.85165" lon="10.842245"><ele>20.0</ele><time>2026-04-26T14:50:08.499Z</time></trkpt><trkpt lat="44.8517383" lon="10.842335"><ele>19.8</ele><time>2026-04-26T14:50:09.498Z</time></trkpt><trkpt lat="44.8518217" lon="10.84242"><ele>19.6</ele><time>2026-04-26T14:50:10.498Z</time></trkpt><trkpt lat="44.8518967" lon="10.8425033"><ele>19.4</ele><time>2026-04-26T14:50:11.499Z</time></trkpt><trkpt lat="44.8519683" lon="10.8425833"><ele>19.2</ele><time>2026-04-26T14:50:12.499Z</time></trkpt><trkpt lat="44.85204" lon="10.8426617"><ele>19.0</ele><time>2026-04-26T14:50:13.499Z</time></trkpt><trkpt lat="44.8521117" lon="10.8427367"><ele>18.833333333333332</ele><time>2026-04-26T14:50:14.498Z</time></trkpt><trkpt lat="44.8521767" lon="10.8428067"><ele>18.666666666666664</ele><time>2026-04-26T14:50:15.499Z</time></trkpt><trkpt lat="44.8522367" lon="10.84287"><ele>18.5</ele><time>2026-04-26T14:50:16.498Z</time></trkpt><trkpt lat="44.85229" lon="10.8429233"><ele>18.333333333333332</ele><time>2026-04-26T14:50:17.498Z</time></trkpt><trkpt lat="44.8523617" lon="10.843"><ele>18.166666666666668</ele><time>2026-04-26T14:50:19.499Z</time></trkpt><trkpt lat="44.8524517" lon="10.8430783"><ele>18.0</ele><time>2026-04-26T14:50:39.498Z</time></trkpt><trkpt lat="44.85257" lon="10.8431617"><ele>18.4</ele><time>2026-04-26T14:50:41.499Z</time></trkpt><trkpt lat="44.8526383" lon="10.8432167"><ele>18.8</ele><time>2026-04-26T14:50:42.498Z</time></trkpt><trkpt lat="44.8527183" lon="10.8432767"><ele>19.2</ele><time>2026-04-26T14:50:43.498Z</time></trkpt><trkpt lat="44.852805" lon="10.8433433"><ele>19.6</ele><time>2026-04-26T14:50:44.498Z</time></trkpt><trkpt lat="44.852895" lon="10.843405"><ele>20.0</ele><time>2026-04-26T14:50:45.498Z</time></trkpt><trkpt lat="44.8529883" lon="10.8434583"><ele>20.2</ele><time>2026-04-26T14:50:46.499Z</time></trkpt><trkpt lat="44.8530933" lon="10.843515"><ele>20.4</ele><time>2026-04-26T14:50:47.499Z</time></trkpt><trkpt lat="44.8531917" lon="10.8435717"><ele>20.6</ele><time>2026-04-26T14:50:48.499Z</time></trkpt><trkpt lat="44.853295" lon="10.843625"><ele>20.8</ele><time>2026-04-26T14:50:49.498Z</time></trkpt><trkpt lat="44.8533967" lon="10.8436783"><ele>21.0</ele><time>2026-04-26T14:50:50.499Z</time></trkpt><trkpt lat="44.8535083" lon="10.8437283"><ele>20.5</ele><time>2026-04-26T14:50:51.499Z</time></trkpt><trkpt lat="44.8536183" lon="10.8437867"><ele>20.0</ele><time>2026-04-26T14:50:52.498Z</time></trkpt><trkpt lat="44.8537367" lon="10.8438533"><ele>19.5</ele><time>2026-04-26T14:50:53.499Z</time></trkpt><trkpt lat="44.8538533" lon="10.8439317"><ele>19.0</ele><time>2026-04-26T14:50:54.498Z</time></trkpt><trkpt lat="44.8539733" lon="10.844015"><ele>19.0</ele><time>2026-04-26T14:50:55.498Z</time></trkpt><trkpt lat="44.8540833" lon="10.8441"><ele>19.0</ele><time>2026-04-26T14:50:56.498Z</time></trkpt><trkpt lat="44.8541933" lon="10.8441817"><ele>19.0</ele><time>2026-04-26T14:50:57.498Z</time></trkpt><trkpt lat="44.8543083" lon="10.844255"><ele>19.0</ele><time>2026-04-26T14:50:58.498Z</time></trkpt><trkpt lat="44.854425" lon="10.844325"><ele>19.0</ele><time>2026-04-26T14:50:59.498Z</time></trkpt><trkpt lat="44.8545367" lon="10.844395"><ele>19.0</ele><time>2026-04-26T14:51:00.498Z</time></trkpt><trkpt lat="44.8546367" lon="10.8444517"><ele>19.0</ele><time>2026-04-26T14:51:01.499Z</time></trkpt><trkpt lat="44.8547267" lon="10.8444933"><ele>19.0</ele><time>2026-04-26T14:51:02.498Z</time></trkpt><trkpt lat="44.854825" lon="10.8445333"><ele>19.0</ele><time>2026-04-26T14:51:03.498Z</time></trkpt><trkpt lat="44.8549317" lon="10.844565"><ele>19.0</ele><time>2026-04-26T14:51:04.499Z</time></trkpt><trkpt lat="44.8550417" lon="10.8445867"><ele>19.0</ele><time>2026-04-26T14:51:05.499Z</time></trkpt><trkpt lat="44.8551483" lon="10.8446117"><ele>19.0</ele><time>2026-04-26T14:51:06.499Z</time></trkpt><trkpt lat="44.8552433" lon="10.8446383"><ele>19.0</ele><time>2026-04-26T14:51:07.498Z</time></trkpt><trkpt lat="44.8553333" lon="10.84466"><ele>19.0</ele><time>2026-04-26T14:51:08.498Z</time></trkpt><trkpt lat="44.8554117" lon="10.8446817"><ele>18.5</ele><time>2026-04-26T14:51:09.499Z</time></trkpt><trkpt lat="44.8554883" lon="10.844705"><ele>18.0</ele><time>2026-04-26T14:51:10.499Z</time></trkpt><trkpt lat="44.85556" lon="10.8447317"><ele>17.5</ele><time>2026-04-26T14:51:11.498Z</time></trkpt><trkpt lat="44.8556267" lon="10.8447583"><ele>17.0</ele><time>2026-04-26T14:51:12.499Z</time></trkpt><trkpt lat="44.8557217" lon="10.8448133"><ele>16.5</ele><time>2026-04-26T14:51:14.499Z</time></trkpt><trkpt lat="44.85579" lon="10.8448417"><ele>16.0</ele><time>2026-04-26T14:51:16.499Z</time></trkpt><trkpt lat="44.8558733" lon="10.84487"><ele>16.2</ele><time>2026-04-26T14:51:18.498Z</time></trkpt><trkpt lat="44.8559917" lon="10.8449033"><ele>16.400000000000002</ele><time>2026-04-26T14:51:20.499Z</time></trkpt><trkpt lat="44.856065" lon="10.8449283"><ele>16.6</ele><time>2026-04-26T14:51:21.499Z</time></trkpt><trkpt lat="44.8561417" lon="10.8449533"><ele>16.8</ele><time>2026-04-26T14:51:22.498Z</time></trkpt><trkpt lat="44.8562217" lon="10.8449867"><ele>17.0</ele><time>2026-04-26T14:51:23.499Z</time></trkpt><trkpt lat="44.85631" lon="10.84502"><ele>17.0</ele><time>2026-04-26T14:51:24.498Z</time></trkpt><trkpt lat="44.8563967" lon="10.845055"><ele>17.0</ele><time>2026-04-26T14:51:25.498Z</time></trkpt><trkpt lat="44.85649" lon="10.8451017"><ele>17.0</ele><time>2026-04-26T14:51:26.498Z</time></trkpt><trkpt lat="44.8565883" lon="10.84516"><ele>17.0</ele><time>2026-04-26T14:51:27.499Z</time></trkpt><trkpt lat="44.8566883" lon="10.84522"><ele>17.0</ele><time>2026-04-26T14:51:28.499Z</time></trkpt><trkpt lat="44.8567867" lon="10.8453017"><ele>18.0</ele><time>2026-04-26T14:51:29.498Z</time></trkpt><trkpt lat="44.8568867" lon="10.845385"><ele>19.0</ele><time>2026-04-26T14:51:30.498Z</time></trkpt><trkpt lat="44.8569883" lon="10.845465"><ele>20.0</ele><time>2026-04-26T14:51:31.498Z</time></trkpt><trkpt lat="44.8570967" lon="10.8455383"><ele>21.0</ele><time>2026-04-26T14:51:32.499Z</time></trkpt><trkpt lat="44.8572117" lon="10.8456033"><ele>21.0</ele><time>2026-04-26T14:51:33.498Z</time></trkpt><trkpt lat="44.8573267" lon="10.845665"><ele>21.0</ele><time>2026-04-26T14:51:34.499Z</time></trkpt><trkpt lat="44.8574383" lon="10.8457217"><ele>21.0</ele><time>2026-04-26T14:51:35.498Z</time></trkpt><trkpt lat="44.8575483" lon="10.8457833"><ele>21.0</ele><time>2026-04-26T14:51:36.499Z</time></trkpt><trkpt lat="44.8576567" lon="10.8458433"><ele>21.0</ele><time>2026-04-26T14:51:37.498Z</time></trkpt><trkpt lat="44.8577583" lon="10.845905"><ele>21.0</ele><time>2026-04-26T14:51:38.498Z</time></trkpt><trkpt lat="44.8578617" lon="10.845965"><ele>21.0</ele><time>2026-04-26T14:51:39.498Z</time></trkpt><trkpt lat="44.8579617" lon="10.846015"><ele>21.0</ele><time>2026-04-26T14:51:40.498Z</time></trkpt><trkpt lat="44.85806" lon="10.846055"><ele>21.0</ele><time>2026-04-26T14:51:41.499Z</time></trkpt><trkpt lat="44.858155" lon="10.8461"><ele>20.8</ele><time>2026-04-26T14:51:42.499Z</time></trkpt><trkpt lat="44.8582533" lon="10.84614"><ele>20.6</ele><time>2026-04-26T14:51:43.498Z</time></trkpt><trkpt lat="44.858345" lon="10.8461833"><ele>20.4</ele><time>2026-04-26T14:51:44.499Z</time></trkpt><trkpt lat="44.8584367" lon="10.84624"><ele>20.2</ele><time>2026-04-26T14:51:45.498Z</time></trkpt><trkpt lat="44.8585267" lon="10.8462883"><ele>20.0</ele><time>2026-04-26T14:51:46.499Z</time></trkpt><trkpt lat="44.8586217" lon="10.84633"><ele>20.0</ele><time>2026-04-26T14:51:47.499Z</time></trkpt><trkpt lat="44.858725" lon="10.8463683"><ele>20.0</ele><time>2026-04-26T14:51:48.498Z</time></trkpt><trkpt lat="44.8588267" lon="10.84641"><ele>20.0</ele><time>2026-04-26T14:51:49.499Z</time></trkpt><trkpt lat="44.8589217" lon="10.8464383"><ele>20.0</ele><time>2026-04-26T14:51:50.498Z</time></trkpt><trkpt lat="44.85901" lon="10.8464617"><ele>20.0</ele><time>2026-04-26T14:51:51.499Z</time></trkpt><trkpt lat="44.8590967" lon="10.8464783"><ele>20.0</ele><time>2026-04-26T14:51:52.499Z</time></trkpt><trkpt lat="44.8591767" lon="10.8464867"><ele>20.0</ele><time>2026-04-26T14:51:53.498Z</time></trkpt><trkpt lat="44.8592517" lon="10.8464983"><ele>20.0</ele><time>2026-04-26T14:51:54.498Z</time></trkpt><trkpt lat="44.8593283" lon="10.8465083"><ele>20.0</ele><time>2026-04-26T14:51:55.498Z</time></trkpt><trkpt lat="44.8594017" lon="10.8465133"><ele>20.0</ele><time>2026-04-26T14:51:56.498Z</time></trkpt><trkpt lat="44.8594717" lon="10.8465233"><ele>20.0</ele><time>2026-04-26T14:51:57.498Z</time></trkpt><trkpt lat="44.85958" lon="10.8465567"><ele>20.0</ele><time>2026-04-26T14:51:59.498Z</time></trkpt><trkpt lat="44.8596733" lon="10.8466167"><ele>20.0</ele><time>2026-04-26T14:52:01.499Z</time></trkpt><trkpt lat="44.8597733" lon="10.846715"><ele>20.0</ele><time>2026-04-26T14:52:03.499Z</time></trkpt><trkpt lat="44.8598283" lon="10.846765"><ele>20.0</ele><time>2026-04-26T14:52:04.498Z</time></trkpt><trkpt lat="44.8598867" lon="10.8468083"><ele>20.0</ele><time>2026-04-26T14:52:05.498Z</time></trkpt><trkpt lat="44.8599433" lon="10.846855"><ele>20.0</ele><time>2026-04-26T14:52:06.498Z</time></trkpt><trkpt lat="44.8600033" lon="10.8469"><ele>20.0</ele><time>2026-04-26T14:52:07.498Z</time></trkpt><trkpt lat="44.8600633" lon="10.8469467"><ele>20.0</ele><time>2026-04-26T14:52:08.498Z</time></trkpt><trkpt lat="44.8601233" lon="10.846995"><ele>20.0</ele><time>2026-04-26T14:52:09.498Z</time></trkpt><trkpt lat="44.8601817" lon="10.8470517"><ele>20.0</ele><time>2026-04-26T14:52:10.498Z</time></trkpt><trkpt lat="44.8602367" lon="10.8471"><ele>20.0</ele><time>2026-04-26T14:52:11.498Z</time></trkpt><trkpt lat="44.8603" lon="10.847145"><ele>20.0</ele><time>2026-04-26T14:52:12.499Z</time></trkpt><trkpt lat="44.8603617" lon="10.8471917"><ele>20.0</ele><time>2026-04-26T14:52:13.498Z</time></trkpt><trkpt lat="44.8604233" lon="10.847235"><ele>19.714285714285715</ele><time>2026-04-26T14:52:14.499Z</time></trkpt><trkpt lat="44.8604833" lon="10.8472717"><ele>19.42857142857143</ele><time>2026-04-26T14:52:15.499Z</time></trkpt><trkpt lat="44.8605467" lon="10.8473067"><ele>19.142857142857146</ele><time>2026-04-26T14:52:16.499Z</time></trkpt><trkpt lat="44.86061" lon="10.84734"><ele>18.857142857142858</ele><time>2026-04-26T14:52:17.499Z</time></trkpt><trkpt lat="44.8606717" lon="10.8473667"><ele>18.571428571428573</ele><time>2026-04-26T14:52:18.498Z</time></trkpt><trkpt lat="44.8607333" lon="10.8473967"><ele>18.28571428571429</ele><time>2026-04-26T14:52:19.499Z</time></trkpt><trkpt lat="44.8607967" lon="10.8474233"><ele>18.0</ele><time>2026-04-26T14:52:20.499Z</time></trkpt><trkpt lat="44.8609167" lon="10.8474783"><ele>18.0</ele><time>2026-04-26T14:52:22.498Z</time></trkpt><trkpt lat="44.861035" lon="10.8475367"><ele>18.0</ele><time>2026-04-26T14:52:24.498Z</time></trkpt><trkpt lat="44.861095" lon="10.8475683"><ele>18.0</ele><time>2026-04-26T14:52:25.499Z</time></trkpt><trkpt lat="44.8612133" lon="10.8476117"><ele>18.0</ele><time>2026-04-26T14:52:27.498Z</time></trkpt><trkpt lat="44.8612767" lon="10.84763"><ele>18.0</ele><time>2026-04-26T14:52:28.498Z</time></trkpt><trkpt lat="44.8613433" lon="10.8476533"><ele>18.0</ele><time>2026-04-26T14:52:29.499Z</time></trkpt><trkpt lat="44.8614083" lon="10.8476733"><ele>18.0</ele><time>2026-04-26T14:52:30.498Z</time></trkpt><trkpt lat="44.861535" lon="10.847705"><ele>18.0</ele><time>2026-04-26T14:52:32.498Z</time></trkpt><trkpt lat="44.8616" lon="10.8477217"><ele>18.0</ele><time>2026-04-26T14:52:33.499Z</time></trkpt><trkpt lat="44.8617183" lon="10.8477533"><ele>18.0</ele><time>2026-04-26T14:52:35.499Z</time></trkpt><trkpt lat="44.8618467" lon="10.84775"><ele>18.0</ele><time>2026-04-26T14:52:37.498Z</time></trkpt><trkpt lat="44.86191" lon="10.847755"><ele>18.4</ele><time>2026-04-26T14:52:38.498Z</time></trkpt><trkpt lat="44.8619767" lon="10.847765"><ele>18.8</ele><time>2026-04-26T14:52:39.499Z</time></trkpt><trkpt lat="44.86204" lon="10.84778"><ele>19.2</ele><time>2026-04-26T14:52:40.498Z</time></trkpt><trkpt lat="44.8621633" lon="10.847795"><ele>19.6</ele><time>2026-04-26T14:52:42.498Z</time></trkpt><trkpt lat="44.8622867" lon="10.847815"><ele>20.0</ele><time>2026-04-26T14:52:44.498Z</time></trkpt><trkpt lat="44.862405" lon="10.84783"><ele>20.0</ele><time>2026-04-26T14:52:46.498Z</time></trkpt><trkpt lat="44.8625183" lon="10.8478383"><ele>20.0</ele><time>2026-04-26T14:52:48.499Z</time></trkpt><trkpt lat="44.8626283" lon="10.8478567"><ele>20.0</ele><time>2026-04-26T14:52:50.499Z</time></trkpt><trkpt lat="44.8627417" lon="10.8478633"><ele>20.0</ele><time>2026-04-26T14:52:52.498Z</time></trkpt><trkpt lat="44.862855" lon="10.847885"><ele>20.0</ele><time>2026-04-26T14:52:54.498Z</time></trkpt><trkpt lat="44.8629567" lon="10.847905"><ele>20.0</ele><time>2026-04-26T14:52:56.498Z</time></trkpt><trkpt lat="44.8630667" lon="10.8479283"><ele>20.0</ele><time>2026-04-26T14:52:58.499Z</time></trkpt><trkpt lat="44.8631817" lon="10.8479317"><ele>20.0</ele><time>2026-04-26T14:53:00.499Z</time></trkpt><trkpt lat="44.86329" lon="10.8479467"><ele>20.0</ele><time>2026-04-26T14:53:02.498Z</time></trkpt><trkpt lat="44.8634" lon="10.8479683"><ele>19.8</ele><time>2026-04-26T14:53:04.498Z</time></trkpt><trkpt lat="44.8635133" lon="10.847985"><ele>19.6</ele><time>2026-04-26T14:53:06.498Z</time></trkpt><trkpt lat="44.86363" lon="10.8480067"><ele>19.4</ele><time>2026-04-26T14:53:08.499Z</time></trkpt><trkpt lat="44.8637483" lon="10.84802"><ele>19.2</ele><time>2026-04-26T14:53:10.498Z</time></trkpt><trkpt lat="44.863815" lon="10.84802"><ele>19.0</ele><time>2026-04-26T14:53:11.498Z</time></trkpt><trkpt lat="44.8639333" lon="10.8480383"><ele>19.0</ele><time>2026-04-26T14:53:13.499Z</time></trkpt><trkpt lat="44.8640333" lon="10.8480333"><ele>19.0</ele><time>2026-04-26T14:53:15.499Z</time></trkpt><trkpt lat="44.8641567" lon="10.8480433"><ele>19.0</ele><time>2026-04-26T14:53:17.498Z</time></trkpt><trkpt lat="44.8642717" lon="10.8480583"><ele>19.0</ele><time>2026-04-26T14:53:19.499Z</time></trkpt><trkpt lat="44.86439" lon="10.84808"><ele>19.2</ele><time>2026-04-26T14:53:21.499Z</time></trkpt><trkpt lat="44.8645117" lon="10.8480967"><ele>19.4</ele><time>2026-04-26T14:53:23.498Z</time></trkpt><trkpt lat="44.8646333" lon="10.848125"><ele>19.6</ele><time>2026-04-26T14:53:25.498Z</time></trkpt><trkpt lat="44.864705" lon="10.848145"><ele>19.8</ele><time>2026-04-26T14:53:26.498Z</time></trkpt><trkpt lat="44.86477" lon="10.8481717"><ele>20.0</ele><time>2026-04-26T14:53:27.497Z</time></trkpt><trkpt lat="44.86483" lon="10.848205"><ele>20.0</ele><time>2026-04-26T14:53:28.498Z</time></trkpt><trkpt lat="44.86493" lon="10.848285"><ele>20.0</ele><time>2026-04-26T14:53:30.497Z</time></trkpt><trkpt lat="44.8650283" lon="10.84837"><ele>20.0</ele><time>2026-04-26T14:53:32.498Z</time></trkpt><trkpt lat="44.8651233" lon="10.8484833"><ele>20.0</ele><time>2026-04-26T14:53:34.498Z</time></trkpt><trkpt lat="44.8652133" lon="10.8485983"><ele>19.75</ele><time>2026-04-26T14:53:36.498Z</time></trkpt><trkpt lat="44.8653083" lon="10.8487133"><ele>19.5</ele><time>2026-04-26T14:53:38.498Z</time></trkpt><trkpt lat="44.8654017" lon="10.8488183"><ele>19.25</ele><time>2026-04-26T14:53:40.497Z</time></trkpt><trkpt lat="44.8654817" lon="10.8489167"><ele>19.0</ele><time>2026-04-26T14:53:42.497Z</time></trkpt><trkpt lat="44.8655617" lon="10.84902"><ele>19.0</ele><time>2026-04-26T14:53:44.498Z</time></trkpt><trkpt lat="44.86563" lon="10.8491017"><ele>19.0</ele><time>2026-04-26T14:53:46.498Z</time></trkpt><trkpt lat="44.865695" lon="10.8491783"><ele>19.0</ele><time>2026-04-26T14:53:48.497Z</time></trkpt><trkpt lat="44.8657483" lon="10.8492417"><ele>19.0</ele><time>2026-04-26T14:53:50.497Z</time></trkpt><trkpt lat="44.8657117" lon="10.8491483"><ele>19.0</ele><time>2026-04-26T14:55:14.497Z</time></trkpt><trkpt lat="44.8656417" lon="10.8490767"><ele>19.0</ele><time>2026-04-26T14:55:16.497Z</time></trkpt><trkpt lat="44.86556" lon="10.8489817"><ele>19.0</ele><time>2026-04-26T14:55:18.498Z</time></trkpt><trkpt lat="44.8654817" lon="10.8488983"><ele>19.0</ele><time>2026-04-26T14:55:20.497Z</time></trkpt><trkpt lat="44.8654083" lon="10.8488083"><ele>19.0</ele><time>2026-04-26T14:55:22.498Z</time></trkpt><trkpt lat="44.86533" lon="10.84872"><ele>19.0</ele><time>2026-04-26T14:55:24.498Z</time></trkpt><trkpt lat="44.86525" lon="10.848625"><ele>19.0</ele><time>2026-04-26T14:55:26.498Z</time></trkpt><trkpt lat="44.8651667" lon="10.8485217"><ele>19.2</ele><time>2026-04-26T14:55:28.498Z</time></trkpt><trkpt lat="44.8650817" lon="10.84842"><ele>19.4</ele><time>2026-04-26T14:55:30.498Z</time></trkpt><trkpt lat="44.8649983" lon="10.8483167"><ele>19.6</ele><time>2026-04-26T14:55:32.497Z</time></trkpt><trkpt lat="44.8649067" lon="10.8482317"><ele>19.8</ele><time>2026-04-26T14:55:34.497Z</time></trkpt><trkpt lat="44.8648033" lon="10.84816"><ele>20.0</ele><time>2026-04-26T14:55:36.497Z</time></trkpt><trkpt lat="44.8646967" lon="10.8481017"><ele>20.0</ele><time>2026-04-26T14:55:38.498Z</time></trkpt><trkpt lat="44.8646317" lon="10.8480817"><ele>20.0</ele><time>2026-04-26T14:55:39.498Z</time></trkpt><trkpt lat="44.86451" lon="10.8480517"><ele>20.0</ele><time>2026-04-26T14:55:41.497Z</time></trkpt><trkpt lat="44.8643933" lon="10.8480367"><ele>20.0</ele><time>2026-04-26T14:55:43.497Z</time></trkpt><trkpt lat="44.8642783" lon="10.8480267"><ele>20.0</ele><time>2026-04-26T14:55:45.498Z</time></trkpt><trkpt lat="44.86417" lon="10.84801"><ele>19.8</ele><time>2026-04-26T14:55:47.497Z</time></trkpt><trkpt lat="44.864065" lon="10.847995"><ele>19.6</ele><time>2026-04-26T14:55:49.497Z</time></trkpt><trkpt lat="44.8639683" lon="10.8479883"><ele>19.4</ele><time>2026-04-26T14:55:51.498Z</time></trkpt><trkpt lat="44.8638683" lon="10.8479783"><ele>19.2</ele><time>2026-04-26T14:55:53.498Z</time></trkpt><trkpt lat="44.86377" lon="10.84797"><ele>19.0</ele><time>2026-04-26T14:55:55.497Z</time></trkpt><trkpt lat="44.863655" lon="10.8479517"><ele>19.0</ele><time>2026-04-26T14:55:57.497Z</time></trkpt><trkpt lat="44.8635817" lon="10.8479433"><ele>19.0</ele><time>2026-04-26T14:55:58.497Z</time></trkpt><trkpt lat="44.8635083" lon="10.8479383"><ele>19.0</ele><time>2026-04-26T14:55:59.497Z</time></trkpt><trkpt lat="44.8634383" lon="10.8479317"><ele>19.0</ele><time>2026-04-26T14:56:00.498Z</time></trkpt><trkpt lat="44.863375" lon="10.8479267"><ele>19.0</ele><time>2026-04-26T14:56:01.497Z</time></trkpt><trkpt lat="44.8633117" lon="10.8479117"><ele>19.0</ele><time>2026-04-26T14:56:02.497Z</time></trkpt><trkpt lat="44.863245" lon="10.8479017"><ele>19.0</ele><time>2026-04-26T14:56:03.497Z</time></trkpt><trkpt lat="44.8631767" lon="10.8478917"><ele>19.142857142857142</ele><time>2026-04-26T14:56:04.497Z</time></trkpt><trkpt lat="44.8631083" lon="10.8478833"><ele>19.28571428571429</ele><time>2026-04-26T14:56:05.498Z</time></trkpt><trkpt lat="44.8630433" lon="10.8478833"><ele>19.42857142857143</ele><time>2026-04-26T14:56:06.498Z</time></trkpt><trkpt lat="44.8629733" lon="10.8478783"><ele>19.57142857142857</ele><time>2026-04-26T14:56:07.497Z</time></trkpt><trkpt lat="44.8629017" lon="10.8478683"><ele>19.714285714285715</ele><time>2026-04-26T14:56:08.497Z</time></trkpt><trkpt lat="44.86283" lon="10.8478567"><ele>19.857142857142858</ele><time>2026-04-26T14:56:09.498Z</time></trkpt><trkpt lat="44.8627633" lon="10.847845"><ele>20.0</ele><time>2026-04-26T14:56:10.498Z</time></trkpt><trkpt lat="44.862695" lon="10.8478383"><ele>20.0</ele><time>2026-04-26T14:56:11.497Z</time></trkpt><trkpt lat="44.8626167" lon="10.84783"><ele>20.0</ele><time>2026-04-26T14:56:12.498Z</time></trkpt><trkpt lat="44.86254" lon="10.8478233"><ele>20.0</ele><time>2026-04-26T14:56:13.497Z</time></trkpt><trkpt lat="44.8624667" lon="10.84782"><ele>20.0</ele><time>2026-04-26T14:56:14.497Z</time></trkpt><trkpt lat="44.8623967" lon="10.847815"><ele>20.0</ele><time>2026-04-26T14:56:15.497Z</time></trkpt><trkpt lat="44.86233" lon="10.8478033"><ele>20.0</ele><time>2026-04-26T14:56:16.497Z</time></trkpt><trkpt lat="44.86226" lon="10.8477933"><ele>20.0</ele><time>2026-04-26T14:56:17.497Z</time></trkpt><trkpt lat="44.8621933" lon="10.847785"><ele>20.0</ele><time>2026-04-26T14:56:18.498Z</time></trkpt><trkpt lat="44.862125" lon="10.8477767"><ele>20.0</ele><time>2026-04-26T14:56:19.497Z</time></trkpt><trkpt lat="44.8620517" lon="10.847765"><ele>20.0</ele><time>2026-04-26T14:56:20.498Z</time></trkpt><trkpt lat="44.8619867" lon="10.8477567"><ele>20.0</ele><time>2026-04-26T14:56:21.498Z</time></trkpt><trkpt lat="44.8618617" lon="10.8477433"><ele>20.0</ele><time>2026-04-26T14:56:23.498Z</time></trkpt><trkpt lat="44.86179" lon="10.8477317"><ele>20.0</ele><time>2026-04-26T14:56:24.498Z</time></trkpt><trkpt lat="44.8617217" lon="10.8477167"><ele>19.714285714285715</ele><time>2026-04-26T14:56:25.497Z</time></trkpt><trkpt lat="44.8616533" lon="10.8476983"><ele>19.42857142857143</ele><time>2026-04-26T14:56:26.498Z</time></trkpt><trkpt lat="44.8615867" lon="10.8476867"><ele>19.142857142857146</ele><time>2026-04-26T14:56:27.498Z</time></trkpt><trkpt lat="44.8615167" lon="10.84767"><ele>18.857142857142858</ele><time>2026-04-26T14:56:28.498Z</time></trkpt><trkpt lat="44.8614433" lon="10.8476533"><ele>18.571428571428573</ele><time>2026-04-26T14:56:29.497Z</time></trkpt><trkpt lat="44.86137" lon="10.8476333"><ele>18.28571428571429</ele><time>2026-04-26T14:56:30.497Z</time></trkpt><trkpt lat="44.861295" lon="10.8476133"><ele>18.0</ele><time>2026-04-26T14:56:31.497Z</time></trkpt><trkpt lat="44.861225" lon="10.84759"><ele>18.0</ele><time>2026-04-26T14:56:32.498Z</time></trkpt><trkpt lat="44.8611533" lon="10.847555"><ele>18.0</ele><time>2026-04-26T14:56:33.498Z</time></trkpt><trkpt lat="44.86108" lon="10.847525"><ele>18.0</ele><time>2026-04-26T14:56:34.498Z</time></trkpt><trkpt lat="44.8610117" lon="10.8474933"><ele>18.0</ele><time>2026-04-26T14:56:35.497Z</time></trkpt><trkpt lat="44.8609483" lon="10.84746"><ele>18.0</ele><time>2026-04-26T14:56:36.498Z</time></trkpt><trkpt lat="44.860835" lon="10.847405"><ele>18.0</ele><time>2026-04-26T14:56:38.498Z</time></trkpt><trkpt lat="44.8607683" lon="10.8473767"><ele>18.0</ele><time>2026-04-26T14:56:39.497Z</time></trkpt><trkpt lat="44.8606967" lon="10.8473483"><ele>18.0</ele><time>2026-04-26T14:56:40.498Z</time></trkpt><trkpt lat="44.8606267" lon="10.8473133"><ele>18.0</ele><time>2026-04-26T14:56:41.497Z</time></trkpt><trkpt lat="44.8605517" lon="10.8472683"><ele>18.0</ele><time>2026-04-26T14:56:42.498Z</time></trkpt><trkpt lat="44.8604733" lon="10.8472317"><ele>18.0</ele><time>2026-04-26T14:56:43.498Z</time></trkpt><trkpt lat="44.8604017" lon="10.8471883"><ele>18.0</ele><time>2026-04-26T14:56:44.497Z</time></trkpt><trkpt lat="44.8603317" lon="10.847145"><ele>18.0</ele><time>2026-04-26T14:56:45.497Z</time></trkpt><trkpt lat="44.8602533" lon="10.8470867"><ele>18.0</ele><time>2026-04-26T14:56:46.497Z</time></trkpt><trkpt lat="44.8601833" lon="10.8470283"><ele>18.0</ele><time>2026-04-26T14:56:47.498Z</time></trkpt><trkpt lat="44.8601233" lon="10.84698"><ele>18.0</ele><time>2026-04-26T14:56:48.498Z</time></trkpt><trkpt lat="44.86005" lon="10.8469167"><ele>18.0</ele><time>2026-04-26T14:56:50.497Z</time></trkpt><trkpt lat="44.8599683" lon="10.8468517"><ele>18.0</ele><time>2026-04-26T14:56:52.497Z</time></trkpt><trkpt lat="44.8598717" lon="10.8467633"><ele>18.333333333333332</ele><time>2026-04-26T14:56:54.497Z</time></trkpt><trkpt lat="44.8598" lon="10.84671"><ele>18.666666666666668</ele><time>2026-04-26T14:56:56.497Z</time></trkpt><trkpt lat="44.8597267" lon="10.84664"><ele>19.0</ele><time>2026-04-26T14:56:58.497Z</time></trkpt><trkpt lat="44.85967" lon="10.8465567"><ele>19.333333333333336</ele><time>2026-04-26T14:57:00.498Z</time></trkpt><trkpt lat="44.8596833" lon="10.8464417"><ele>19.666666666666668</ele><time>2026-04-26T14:57:03.498Z</time></trkpt><trkpt lat="44.8597317" lon="10.8463267"><ele>20.0</ele><time>2026-04-26T14:57:05.498Z</time></trkpt><trkpt lat="44.8598033" lon="10.8462617"><ele>20.0</ele><time>2026-04-26T14:57:07.498Z</time></trkpt><trkpt lat="44.8599117" lon="10.84629"><ele>20.0</ele><time>2026-04-26T14:57:09.498Z</time></trkpt><trkpt lat="44.8599717" lon="10.8463317"><ele>20.0</ele><time>2026-04-26T14:57:10.498Z</time></trkpt><trkpt lat="44.8600383" lon="10.846385"><ele>20.0</ele><time>2026-04-26T14:57:11.497Z</time></trkpt><trkpt lat="44.8601167" lon="10.8464433"><ele>20.0</ele><time>2026-04-26T14:57:12.498Z</time></trkpt><trkpt lat="44.8602033" lon="10.8465083"><ele>20.0</ele><time>2026-04-26T14:57:13.498Z</time></trkpt><trkpt lat="44.8602967" lon="10.8465767"><ele>19.75</ele><time>2026-04-26T14:57:14.497Z</time></trkpt><trkpt lat="44.8603933" lon="10.846645"><ele>19.5</ele><time>2026-04-26T14:57:15.498Z</time></trkpt><trkpt lat="44.8605" lon="10.8467233"><ele>19.25</ele><time>2026-04-26T14:57:16.498Z</time></trkpt><trkpt lat="44.8606117" lon="10.8467933"><ele>19.0</ele><time>2026-04-26T14:57:17.498Z</time></trkpt><trkpt lat="44.860725" lon="10.8468583"><ele>18.75</ele><time>2026-04-26T14:57:18.498Z</time></trkpt><trkpt lat="44.8608433" lon="10.8469167"><ele>18.5</ele><time>2026-04-26T14:57:19.497Z</time></trkpt><trkpt lat="44.8609617" lon="10.84698"><ele>18.25</ele><time>2026-04-26T14:57:20.498Z</time></trkpt><trkpt lat="44.86109" lon="10.84704"><ele>18.0</ele><time>2026-04-26T14:57:21.497Z</time></trkpt><trkpt lat="44.8612183" lon="10.8470933"><ele>18.0</ele><time>2026-04-26T14:57:22.497Z</time></trkpt><trkpt lat="44.8613483" lon="10.8471433"><ele>18.0</ele><time>2026-04-26T14:57:23.498Z</time></trkpt><trkpt lat="44.8614833" lon="10.8471817"><ele>18.0</ele><time>2026-04-26T14:57:24.497Z</time></trkpt><trkpt lat="44.8616183" lon="10.84721"><ele>18.0</ele><time>2026-04-26T14:57:25.497Z</time></trkpt><trkpt lat="44.86175" lon="10.8472317"><ele>18.5</ele><time>2026-04-26T14:57:26.497Z</time></trkpt><trkpt lat="44.86188" lon="10.8472517"><ele>19.0</ele><time>2026-04-26T14:57:27.497Z</time></trkpt><trkpt lat="44.86201" lon="10.8472683"><ele>19.5</ele><time>2026-04-26T14:57:28.497Z</time></trkpt><trkpt lat="44.8621333" lon="10.8472967"><ele>20.0</ele><time>2026-04-26T14:57:29.498Z</time></trkpt><trkpt lat="44.8622617" lon="10.84732"><ele>20.0</ele><time>2026-04-26T14:57:30.498Z</time></trkpt><trkpt lat="44.8623933" lon="10.8473383"><ele>20.0</ele><time>2026-04-26T14:57:31.497Z</time></trkpt><trkpt lat="44.8625133" lon="10.8473517"><ele>20.0</ele><time>2026-04-26T14:57:32.498Z</time></trkpt><trkpt lat="44.862625" lon="10.84737"><ele>20.0</ele><time>2026-04-26T14:57:33.498Z</time></trkpt><trkpt lat="44.86273" lon="10.8473817"><ele>20.0</ele><time>2026-04-26T14:57:34.497Z</time></trkpt><trkpt lat="44.8628267" lon="10.847385"><ele>20.0</ele><time>2026-04-26T14:57:35.498Z</time></trkpt><trkpt lat="44.86292" lon="10.84739"><ele>20.0</ele><time>2026-04-26T14:57:36.497Z</time></trkpt><trkpt lat="44.8630083" lon="10.847395"><ele>20.0</ele><time>2026-04-26T14:57:37.497Z</time></trkpt><trkpt lat="44.8630967" lon="10.8473983"><ele>20.0</ele><time>2026-04-26T14:57:38.497Z</time></trkpt><trkpt lat="44.8631817" lon="10.847395"><ele>20.0</ele><time>2026-04-26T14:57:39.498Z</time></trkpt><trkpt lat="44.8632617" lon="10.8473967"><ele>20.0</ele><time>2026-04-26T14:57:40.497Z</time></trkpt><trkpt lat="44.86334" lon="10.8474017"><ele>20.0</ele><time>2026-04-26T14:57:41.498Z</time></trkpt><trkpt lat="44.8634167" lon="10.847415"><ele>20.0</ele><time>2026-04-26T14:57:42.497Z</time></trkpt><trkpt lat="44.8634917" lon="10.8474333"><ele>20.0</ele><time>2026-04-26T14:57:43.498Z</time></trkpt><trkpt lat="44.863595" lon="10.8474667"><ele>20.0</ele><time>2026-04-26T14:57:45.497Z</time></trkpt><trkpt lat="44.8636583" lon="10.8474783"><ele>20.0</ele><time>2026-04-26T14:57:48.497Z</time></trkpt><trkpt lat="44.8636067" lon="10.84741"><ele>20.0</ele><time>2026-04-26T14:58:05.498Z</time></trkpt><trkpt lat="44.86353" lon="10.8473883"><ele>20.0</ele><time>2026-04-26T14:58:08.497Z</time></trkpt><trkpt lat="44.8634733" lon="10.8473417"><ele>20.0</ele><time>2026-04-26T14:58:15.498Z</time></trkpt><trkpt lat="44.8633517" lon="10.8473"><ele>20.0</ele><time>2026-04-26T14:58:17.498Z</time></trkpt><trkpt lat="44.86327" lon="10.847295"><ele>20.0</ele><time>2026-04-26T14:58:18.498Z</time></trkpt><trkpt lat="44.86317" lon="10.8472967"><ele>20.0</ele><time>2026-04-26T14:58:19.498Z</time></trkpt><trkpt lat="44.8630633" lon="10.8472933"><ele>20.0</ele><time>2026-04-26T14:58:20.497Z</time></trkpt><trkpt lat="44.8629417" lon="10.8472933"><ele>20.0</ele><time>2026-04-26T14:58:21.498Z</time></trkpt><trkpt lat="44.86282" lon="10.84729"><ele>20.0</ele><time>2026-04-26T14:58:22.498Z</time></trkpt><trkpt lat="44.8626883" lon="10.84728"><ele>20.0</ele><time>2026-04-26T14:58:23.497Z</time></trkpt><trkpt lat="44.86254" lon="10.8472617"><ele>20.0</ele><time>2026-04-26T14:58:24.498Z</time></trkpt><trkpt lat="44.8623867" lon="10.8472433"><ele>20.0</ele><time>2026-04-26T14:58:25.498Z</time></trkpt><trkpt lat="44.862235" lon="10.8472233"><ele>20.0</ele><time>2026-04-26T14:58:26.497Z</time></trkpt><trkpt lat="44.862085" lon="10.8472017"><ele>20.0</ele><time>2026-04-26T14:58:27.497Z</time></trkpt><trkpt lat="44.86194" lon="10.84718"><ele>20.0</ele><time>2026-04-26T14:58:28.498Z</time></trkpt><trkpt lat="44.8618033" lon="10.84716"><ele>20.0</ele><time>2026-04-26T14:58:29.497Z</time></trkpt><trkpt lat="44.86167" lon="10.8471433"><ele>19.5</ele><time>2026-04-26T14:58:30.498Z</time></trkpt><trkpt lat="44.8615433" lon="10.847115"><ele>19.0</ele><time>2026-04-26T14:58:31.497Z</time></trkpt><trkpt lat="44.861425" lon="10.8470817"><ele>18.5</ele><time>2026-04-26T14:58:32.497Z</time></trkpt><trkpt lat="44.8613167" lon="10.8470483"><ele>18.0</ele><time>2026-04-26T14:58:33.497Z</time></trkpt><trkpt lat="44.8612133" lon="10.8470067"><ele>18.0</ele><time>2026-04-26T14:58:34.497Z</time></trkpt><trkpt lat="44.8611067" lon="10.8469567"><ele>18.0</ele><time>2026-04-26T14:58:35.498Z</time></trkpt><trkpt lat="44.86099" lon="10.8469067"><ele>18.0</ele><time>2026-04-26T14:58:36.498Z</time></trkpt><trkpt lat="44.860855" lon="10.846845"><ele>18.0</ele><time>2026-04-26T14:58:37.497Z</time></trkpt><trkpt lat="44.8607183" lon="10.8467683"><ele>18.25</ele><time>2026-04-26T14:58:38.497Z</time></trkpt><trkpt lat="44.8605817" lon="10.846695"><ele>18.5</ele><time>2026-04-26T14:58:39.498Z</time></trkpt><trkpt lat="44.8604567" lon="10.8466133"><ele>18.75</ele><time>2026-04-26T14:58:40.497Z</time></trkpt><trkpt lat="44.860345" lon="10.8465317"><ele>19.0</ele><time>2026-04-26T14:58:41.498Z</time></trkpt><trkpt lat="44.8602367" lon="10.8464567"><ele>19.0</ele><time>2026-04-26T14:58:42.498Z</time></trkpt><trkpt lat="44.860135" lon="10.84639"><ele>19.0</ele><time>2026-04-26T14:58:43.497Z</time></trkpt><trkpt lat="44.8600417" lon="10.846335"><ele>19.0</ele><time>2026-04-26T14:58:44.497Z</time></trkpt><trkpt lat="44.8599667" lon="10.8462833"><ele>19.0</ele><time>2026-04-26T14:58:45.498Z</time></trkpt><trkpt lat="44.8599033" lon="10.8462467"><ele>19.0</ele><time>2026-04-26T14:58:46.498Z</time></trkpt><trkpt lat="44.8598367" lon="10.8462383"><ele>19.0</ele><time>2026-04-26T14:58:47.497Z</time></trkpt><trkpt lat="44.859735" lon="10.8463083"><ele>19.166666666666664</ele><time>2026-04-26T14:58:49.498Z</time></trkpt><trkpt lat="44.859695" lon="10.8463817"><ele>19.333333333333332</ele><time>2026-04-26T14:58:50.498Z</time></trkpt><trkpt lat="44.8596483" lon="10.84645"><ele>19.5</ele><time>2026-04-26T14:58:51.497Z</time></trkpt><trkpt lat="44.85959" lon="10.846495"><ele>19.666666666666668</ele><time>2026-04-26T14:58:52.497Z</time></trkpt><trkpt lat="44.8595183" lon="10.8465083"><ele>19.833333333333336</ele><time>2026-04-26T14:58:53.498Z</time></trkpt><trkpt lat="44.8594283" lon="10.8464917"><ele>20.0</ele><time>2026-04-26T14:58:54.498Z</time></trkpt><trkpt lat="44.8593267" lon="10.84647"><ele>20.0</ele><time>2026-04-26T14:58:55.497Z</time></trkpt><trkpt lat="44.859225" lon="10.846455"><ele>20.0</ele><time>2026-04-26T14:58:56.497Z</time></trkpt><trkpt lat="44.85912" lon="10.8464367"><ele>20.0</ele><time>2026-04-26T14:58:57.498Z</time></trkpt><trkpt lat="44.8590117" lon="10.8464167"><ele>20.0</ele><time>2026-04-26T14:58:58.498Z</time></trkpt><trkpt lat="44.8589017" lon="10.8463917"><ele>20.0</ele><time>2026-04-26T14:58:59.498Z</time></trkpt><trkpt lat="44.8587917" lon="10.8463567"><ele>20.0</ele><time>2026-04-26T14:59:00.497Z</time></trkpt><trkpt lat="44.85868" lon="10.846315"><ele>20.0</ele><time>2026-04-26T14:59:01.497Z</time></trkpt><trkpt lat="44.858565" lon="10.846265"><ele>20.0</ele><time>2026-04-26T14:59:02.497Z</time></trkpt><trkpt lat="44.8584467" lon="10.84621"><ele>20.0</ele><time>2026-04-26T14:59:03.497Z</time></trkpt><trkpt lat="44.85833" lon="10.8461517"><ele>19.75</ele><time>2026-04-26T14:59:04.497Z</time></trkpt><trkpt lat="44.8582183" lon="10.8460967"><ele>19.5</ele><time>2026-04-26T14:59:05.497Z</time></trkpt><trkpt lat="44.8581017" lon="10.8460483"><ele>19.25</ele><time>2026-04-26T14:59:06.498Z</time></trkpt><trkpt lat="44.8579817" lon="10.8459983"><ele>19.0</ele><time>2026-04-26T14:59:07.497Z</time></trkpt><trkpt lat="44.8578633" lon="10.845945"><ele>19.5</ele><time>2026-04-26T14:59:08.498Z</time></trkpt><trkpt lat="44.8577483" lon="10.8458817"><ele>20.0</ele><time>2026-04-26T14:59:09.497Z</time></trkpt><trkpt lat="44.8576333" lon="10.84581"><ele>20.5</ele><time>2026-04-26T14:59:10.497Z</time></trkpt><trkpt lat="44.8575233" lon="10.84574"><ele>21.0</ele><time>2026-04-26T14:59:11.498Z</time></trkpt><trkpt lat="44.8574117" lon="10.8456667"><ele>21.0</ele><time>2026-04-26T14:59:12.497Z</time></trkpt><trkpt lat="44.857305" lon="10.8456067"><ele>21.0</ele><time>2026-04-26T14:59:13.497Z</time></trkpt><trkpt lat="44.8571917" lon="10.84555"><ele>21.0</ele><time>2026-04-26T14:59:14.498Z</time></trkpt><trkpt lat="44.857075" lon="10.8454867"><ele>21.0</ele><time>2026-04-26T14:59:15.497Z</time></trkpt><trkpt lat="44.85696" lon="10.8454083"><ele>21.0</ele><time>2026-04-26T14:59:16.498Z</time></trkpt><trkpt lat="44.8568583" lon="10.8453233"><ele>21.0</ele><time>2026-04-26T14:59:17.498Z</time></trkpt><trkpt lat="44.8567633" lon="10.8452467"><ele>21.0</ele><time>2026-04-26T14:59:18.498Z</time></trkpt><trkpt lat="44.8566767" lon="10.8451767"><ele>21.0</ele><time>2026-04-26T14:59:19.497Z</time></trkpt><trkpt lat="44.85659" lon="10.8451167"><ele>21.0</ele><time>2026-04-26T14:59:20.497Z</time></trkpt><trkpt lat="44.8565017" lon="10.8450583"><ele>20.333333333333332</ele><time>2026-04-26T14:59:21.497Z</time></trkpt><trkpt lat="44.85641" lon="10.8450117"><ele>19.666666666666668</ele><time>2026-04-26T14:59:22.498Z</time></trkpt><trkpt lat="44.8563267" lon="10.8449767"><ele>19.0</ele><time>2026-04-26T14:59:23.498Z</time></trkpt><trkpt lat="44.8562467" lon="10.844945"><ele>18.333333333333336</ele><time>2026-04-26T14:59:24.498Z</time></trkpt><trkpt lat="44.8561633" lon="10.8449133"><ele>17.666666666666668</ele><time>2026-04-26T14:59:25.497Z</time></trkpt><trkpt lat="44.8560817" lon="10.844885"><ele>17.0</ele><time>2026-04-26T14:59:26.497Z</time></trkpt><trkpt lat="44.8560083" lon="10.8448583"><ele>16.8</ele><time>2026-04-26T14:59:27.497Z</time></trkpt><trkpt lat="44.855945" lon="10.8448383"><ele>16.6</ele><time>2026-04-26T14:59:28.497Z</time></trkpt><trkpt lat="44.8558417" lon="10.8448317"><ele>16.400000000000002</ele><time>2026-04-26T14:59:30.497Z</time></trkpt><trkpt lat="44.855775" lon="10.8448967"><ele>16.2</ele><time>2026-04-26T14:59:32.497Z</time></trkpt><trkpt lat="44.8557433" lon="10.8450233"><ele>16.0</ele><time>2026-04-26T14:59:34.498Z</time></trkpt><trkpt lat="44.8557283" lon="10.8451833"><ele>16.0</ele><time>2026-04-26T14:59:36.497Z</time></trkpt><trkpt lat="44.8557167" lon="10.84535"><ele>16.0</ele><time>2026-04-26T14:59:38.498Z</time></trkpt><trkpt lat="44.855705" lon="10.84551"><ele>16.0</ele><time>2026-04-26T14:59:40.497Z</time></trkpt><trkpt lat="44.855695" lon="10.845675"><ele>16.0</ele><time>2026-04-26T14:59:42.497Z</time></trkpt><trkpt lat="44.8556817" lon="10.845835"><ele>16.400000000000002</ele><time>2026-04-26T14:59:44.498Z</time></trkpt><trkpt lat="44.85568" lon="10.84601"><ele>16.8</ele><time>2026-04-26T14:59:46.498Z</time></trkpt><trkpt lat="44.8556683" lon="10.84618"><ele>17.200000000000003</ele><time>2026-04-26T14:59:48.497Z</time></trkpt><trkpt lat="44.8556617" lon="10.84627"><ele>17.6</ele><time>2026-04-26T14:59:49.498Z</time></trkpt><trkpt lat="44.8556533" lon="10.8463583"><ele>18.0</ele><time>2026-04-26T14:59:50.497Z</time></trkpt><trkpt lat="44.85565" lon="10.84652"><ele>18.0</ele><time>2026-04-26T14:59:52.497Z</time></trkpt><trkpt lat="44.8556467" lon="10.8466833"><ele>18.0</ele><time>2026-04-26T14:59:54.497Z</time></trkpt><trkpt lat="44.855635" lon="10.84684"><ele>18.0</ele><time>2026-04-26T14:59:56.497Z</time></trkpt><trkpt lat="44.855625" lon="10.8470033"><ele>18.0</ele><time>2026-04-26T14:59:58.497Z</time></trkpt><trkpt lat="44.855615" lon="10.8471633"><ele>18.0</ele><time>2026-04-26T15:00:00.498Z</time></trkpt><trkpt lat="44.8555983" lon="10.847335"><ele>18.0</ele><time>2026-04-26T15:00:02.497Z</time></trkpt><trkpt lat="44.8555917" lon="10.8475117"><ele>18.0</ele><time>2026-04-26T15:00:04.498Z</time></trkpt><trkpt lat="44.8555833" lon="10.8476817"><ele>18.0</ele><time>2026-04-26T15:00:06.498Z</time></trkpt><trkpt lat="44.8555717" lon="10.8478383"><ele>18.166666666666668</ele><time>2026-04-26T15:00:08.498Z</time></trkpt><trkpt lat="44.8555667" lon="10.8479867"><ele>18.333333333333332</ele><time>2026-04-26T15:00:10.498Z</time></trkpt><trkpt lat="44.8555617" lon="10.848125"><ele>18.5</ele><time>2026-04-26T15:00:12.498Z</time></trkpt><trkpt lat="44.8555533" lon="10.8482317"><ele>18.666666666666664</ele><time>2026-04-26T15:00:14.496Z</time></trkpt><trkpt lat="44.8555817" lon="10.848325"><ele>18.833333333333332</ele><time>2026-04-26T15:00:33.496Z</time></trkpt><trkpt lat="44.8555917" lon="10.8482217"><ele>19.0</ele><time>2026-04-26T15:00:36.496Z</time></trkpt><trkpt lat="44.8555867" lon="10.8481083"><ele>19.0</ele><time>2026-04-26T15:00:38.496Z</time></trkpt><trkpt lat="44.855585" lon="10.8479833"><ele>19.0</ele><time>2026-04-26T15:00:40.496Z</time></trkpt><trkpt lat="44.8555867" lon="10.8478533"><ele>19.0</ele><time>2026-04-26T15:00:42.496Z</time></trkpt><trkpt lat="44.8555983" lon="10.847695"><ele>19.0</ele><time>2026-04-26T15:00:44.496Z</time></trkpt><trkpt lat="44.85561" lon="10.8475517"><ele>19.0</ele><time>2026-04-26T15:00:46.496Z</time></trkpt><trkpt lat="44.8556233" lon="10.8473867"><ele>18.857142857142858</ele><time>2026-04-26T15:00:48.497Z</time></trkpt><trkpt lat="44.8556333" lon="10.8472933"><ele>18.714285714285715</ele><time>2026-04-26T15:00:49.497Z</time></trkpt><trkpt lat="44.8556383" lon="10.8471967"><ele>18.571428571428573</ele><time>2026-04-26T15:00:50.496Z</time></trkpt><trkpt lat="44.8556417" lon="10.847095"><ele>18.42857142857143</ele><time>2026-04-26T15:00:51.496Z</time></trkpt><trkpt lat="44.855645" lon="10.8469983"><ele>18.285714285714285</ele><time>2026-04-26T15:00:52.496Z</time></trkpt><trkpt lat="44.8556467" lon="10.8469033"><ele>18.142857142857146</ele><time>2026-04-26T15:00:53.496Z</time></trkpt><trkpt lat="44.8556483" lon="10.846805"><ele>18.0</ele><time>2026-04-26T15:00:54.497Z</time></trkpt><trkpt lat="44.8556517" lon="10.8467117"><ele>18.0</ele><time>2026-04-26T15:00:55.496Z</time></trkpt><trkpt lat="44.8556567" lon="10.8466183"><ele>18.0</ele><time>2026-04-26T15:00:56.497Z</time></trkpt><trkpt lat="44.8556633" lon="10.8465233"><ele>18.0</ele><time>2026-04-26T15:00:57.497Z</time></trkpt><trkpt lat="44.8556683" lon="10.8464283"><ele>18.0</ele><time>2026-04-26T15:00:58.496Z</time></trkpt><trkpt lat="44.855685" lon="10.8462467"><ele>18.0</ele><time>2026-04-26T15:01:00.497Z</time></trkpt><trkpt lat="44.85569" lon="10.84615"><ele>18.0</ele><time>2026-04-26T15:01:01.496Z</time></trkpt><trkpt lat="44.855695" lon="10.84605"><ele>17.714285714285715</ele><time>2026-04-26T15:01:02.497Z</time></trkpt><trkpt lat="44.8557017" lon="10.8459517"><ele>17.42857142857143</ele><time>2026-04-26T15:01:03.497Z</time></trkpt><trkpt lat="44.8557083" lon="10.8458517"><ele>17.142857142857142</ele><time>2026-04-26T15:01:04.497Z</time></trkpt><trkpt lat="44.85571" lon="10.8457483"><ele>16.857142857142858</ele><time>2026-04-26T15:01:05.496Z</time></trkpt><trkpt lat="44.8557167" lon="10.84565"><ele>16.57142857142857</ele><time>2026-04-26T15:01:06.497Z</time></trkpt><trkpt lat="44.8557283" lon="10.8455483"><ele>16.285714285714285</ele><time>2026-04-26T15:01:07.496Z</time></trkpt><trkpt lat="44.8557317" lon="10.8454433"><ele>16.0</ele><time>2026-04-26T15:01:08.496Z</time></trkpt><trkpt lat="44.8557367" lon="10.84534"><ele>15.999999999999998</ele><time>2026-04-26T15:01:09.497Z</time></trkpt><trkpt lat="44.85574" lon="10.845245"><ele>16.0</ele><time>2026-04-26T15:01:10.497Z</time></trkpt><trkpt lat="44.8557483" lon="10.84512"><ele>16.0</ele><time>2026-04-26T15:01:12.496Z</time></trkpt><trkpt lat="44.855765" lon="10.845025"><ele>16.0</ele><time>2026-04-26T15:01:14.497Z</time></trkpt><trkpt lat="44.85577" lon="10.8449167"><ele>15.999999999999998</ele><time>2026-04-26T15:01:16.496Z</time></trkpt><trkpt lat="44.8557283" lon="10.844785"><ele>16.0</ele><time>2026-04-26T15:01:18.496Z</time></trkpt><trkpt lat="44.855675" lon="10.84473"><ele>16.0</ele><time>2026-04-26T15:01:19.496Z</time></trkpt><trkpt lat="44.8556067" lon="10.8446883"><ele>16.0</ele><time>2026-04-26T15:01:20.496Z</time></trkpt><trkpt lat="44.8555217" lon="10.8446583"><ele>16.0</ele><time>2026-04-26T15:01:21.496Z</time></trkpt><trkpt lat="44.8554183" lon="10.84463"><ele>16.0</ele><time>2026-04-26T15:01:22.497Z</time></trkpt><trkpt lat="44.8553133" lon="10.8446017"><ele>16.0</ele><time>2026-04-26T15:01:23.496Z</time></trkpt><trkpt lat="44.8552067" lon="10.84458"><ele>16.75</ele><time>2026-04-26T15:01:24.496Z</time></trkpt><trkpt lat="44.85509" lon="10.8445533"><ele>17.5</ele><time>2026-04-26T15:01:25.497Z</time></trkpt><trkpt lat="44.85497" lon="10.8445217"><ele>18.25</ele><time>2026-04-26T15:01:26.496Z</time></trkpt><trkpt lat="44.8548517" lon="10.84449"><ele>19.0</ele><time>2026-04-26T15:01:27.497Z</time></trkpt><trkpt lat="44.85473" lon="10.84445"><ele>19.0</ele><time>2026-04-26T15:01:28.497Z</time></trkpt><trkpt lat="44.854605" lon="10.84439"><ele>19.0</ele><time>2026-04-26T15:01:29.497Z</time></trkpt><trkpt lat="44.8544917" lon="10.8443267"><ele>19.0</ele><time>2026-04-26T15:01:30.496Z</time></trkpt><trkpt lat="44.85438" lon="10.8442583"><ele>19.0</ele><time>2026-04-26T15:01:31.496Z</time></trkpt><trkpt lat="44.8542767" lon="10.8441917"><ele>19.0</ele><time>2026-04-26T15:01:32.496Z</time></trkpt><trkpt lat="44.85418" lon="10.844125"><ele>19.0</ele><time>2026-04-26T15:01:33.497Z</time></trkpt><trkpt lat="44.854085" lon="10.844065"><ele>19.0</ele><time>2026-04-26T15:01:34.496Z</time></trkpt><trkpt lat="44.8539917" lon="10.8439983"><ele>19.0</ele><time>2026-04-26T15:01:35.496Z</time></trkpt><trkpt lat="44.8538933" lon="10.8439233"><ele>19.0</ele><time>2026-04-26T15:01:36.496Z</time></trkpt><trkpt lat="44.853795" lon="10.84385"><ele>19.0</ele><time>2026-04-26T15:01:37.497Z</time></trkpt><trkpt lat="44.8537" lon="10.8437883"><ele>19.0</ele><time>2026-04-26T15:01:38.497Z</time></trkpt><trkpt lat="44.8536" lon="10.8437317"><ele>19.0</ele><time>2026-04-26T15:01:39.497Z</time></trkpt><trkpt lat="44.8535017" lon="10.84368"><ele>19.0</ele><time>2026-04-26T15:01:40.497Z</time></trkpt><trkpt lat="44.8534017" lon="10.8436333"><ele>19.0</ele><time>2026-04-26T15:01:41.496Z</time></trkpt><trkpt lat="44.8533083" lon="10.8435867"><ele>19.2</ele><time>2026-04-26T15:01:42.497Z</time></trkpt><trkpt lat="44.853215" lon="10.8435433"><ele>19.4</ele><time>2026-04-26T15:01:43.497Z</time></trkpt><trkpt lat="44.8531233" lon="10.8435017"><ele>19.6</ele><time>2026-04-26T15:01:44.497Z</time></trkpt><trkpt lat="44.85303" lon="10.8434567"><ele>19.8</ele><time>2026-04-26T15:01:45.496Z</time></trkpt><trkpt lat="44.852945" lon="10.843405"><ele>20.0</ele><time>2026-04-26T15:01:46.497Z</time></trkpt><trkpt lat="44.8528617" lon="10.8433483"><ele>20.0</ele><time>2026-04-26T15:01:47.497Z</time></trkpt><trkpt lat="44.85278" lon="10.8432883"><ele>20.0</ele><time>2026-04-26T15:01:48.496Z</time></trkpt><trkpt lat="44.8526967" lon="10.8432333"><ele>20.0</ele><time>2026-04-26T15:01:49.496Z</time></trkpt><trkpt lat="44.852615" lon="10.84317"><ele>20.0</ele><time>2026-04-26T15:01:50.496Z</time></trkpt><trkpt lat="44.852535" lon="10.8431067"><ele>20.0</ele><time>2026-04-26T15:01:51.496Z</time></trkpt><trkpt lat="44.8524617" lon="10.8430383"><ele>19.8</ele><time>2026-04-26T15:01:52.497Z</time></trkpt><trkpt lat="44.8523817" lon="10.8429617"><ele>19.6</ele><time>2026-04-26T15:01:53.496Z</time></trkpt><trkpt lat="44.8523" lon="10.8428783"><ele>19.4</ele><time>2026-04-26T15:01:54.497Z</time></trkpt><trkpt lat="44.8522167" lon="10.8427867"><ele>19.2</ele><time>2026-04-26T15:01:55.496Z</time></trkpt><trkpt lat="44.85213" lon="10.8427017"><ele>19.0</ele><time>2026-04-26T15:01:56.496Z</time></trkpt><trkpt lat="44.8520467" lon="10.8426167"><ele>19.0</ele><time>2026-04-26T15:01:57.496Z</time></trkpt><trkpt lat="44.8519683" lon="10.842535"><ele>19.0</ele><time>2026-04-26T15:01:58.496Z</time></trkpt><trkpt lat="44.851895" lon="10.8424567"><ele>19.0</ele><time>2026-04-26T15:01:59.497Z</time></trkpt><trkpt lat="44.851815" lon="10.8423783"><ele>19.0</ele><time>2026-04-26T15:02:00.497Z</time></trkpt><trkpt lat="44.85174" lon="10.8422967"><ele>19.0</ele><time>2026-04-26T15:02:01.496Z</time></trkpt><trkpt lat="44.8516617" lon="10.842215"><ele>19.166666666666664</ele><time>2026-04-26T15:02:02.497Z</time></trkpt><trkpt lat="44.8515867" lon="10.842135"><ele>19.333333333333332</ele><time>2026-04-26T15:02:03.496Z</time></trkpt><trkpt lat="44.851515" lon="10.8420617"><ele>19.5</ele><time>2026-04-26T15:02:04.496Z</time></trkpt><trkpt lat="44.8514433" lon="10.841995"><ele>19.666666666666668</ele><time>2026-04-26T15:02:05.497Z</time></trkpt><trkpt lat="44.8513717" lon="10.8419267"><ele>19.833333333333336</ele><time>2026-04-26T15:02:06.497Z</time></trkpt><trkpt lat="44.8512933" lon="10.84186"><ele>20.0</ele><time>2026-04-26T15:02:07.496Z</time></trkpt><trkpt lat="44.8512117" lon="10.84179"><ele>20.2</ele><time>2026-04-26T15:02:08.497Z</time></trkpt><trkpt lat="44.8511333" lon="10.8417283"><ele>20.4</ele><time>2026-04-26T15:02:09.497Z</time></trkpt><trkpt lat="44.85105" lon="10.8416717"><ele>20.6</ele><time>2026-04-26T15:02:10.497Z</time></trkpt><trkpt lat="44.8509633" lon="10.84161"><ele>20.8</ele><time>2026-04-26T15:02:11.497Z</time></trkpt><trkpt lat="44.8508717" lon="10.8415417"><ele>21.0</ele><time>2026-04-26T15:02:12.496Z</time></trkpt><trkpt lat="44.8507767" lon="10.841475"><ele>21.4</ele><time>2026-04-26T15:02:13.496Z</time></trkpt><trkpt lat="44.85068" lon="10.8414117"><ele>21.8</ele><time>2026-04-26T15:02:14.496Z</time></trkpt><trkpt lat="44.850585" lon="10.841345"><ele>22.2</ele><time>2026-04-26T15:02:15.497Z</time></trkpt><trkpt lat="44.8504967" lon="10.8412767"><ele>22.599999999999998</ele><time>2026-04-26T15:02:16.497Z</time></trkpt><trkpt lat="44.8504133" lon="10.8412083"><ele>23.0</ele><time>2026-04-26T15:02:17.496Z</time></trkpt><trkpt lat="44.85033" lon="10.841135"><ele>23.0</ele><time>2026-04-26T15:02:18.496Z</time></trkpt><trkpt lat="44.850245" lon="10.8410567"><ele>23.0</ele><time>2026-04-26T15:02:19.496Z</time></trkpt><trkpt lat="44.8501617" lon="10.8409817"><ele>23.0</ele><time>2026-04-26T15:02:20.496Z</time></trkpt><trkpt lat="44.8500683" lon="10.840925"><ele>23.0</ele><time>2026-04-26T15:02:21.496Z</time></trkpt><trkpt lat="44.84997" lon="10.8408767"><ele>23.0</ele><time>2026-04-26T15:02:22.496Z</time></trkpt><trkpt lat="44.8498683" lon="10.8408317"><ele>22.25</ele><time>2026-04-26T15:02:23.496Z</time></trkpt><trkpt lat="44.84976" lon="10.840795"><ele>21.5</ele><time>2026-04-26T15:02:24.497Z</time></trkpt><trkpt lat="44.8496433" lon="10.8407617"><ele>20.75</ele><time>2026-04-26T15:02:25.497Z</time></trkpt><trkpt lat="44.8495283" lon="10.8407217"><ele>20.0</ele><time>2026-04-26T15:02:26.497Z</time></trkpt><trkpt lat="44.8494167" lon="10.84068"><ele>20.0</ele><time>2026-04-26T15:02:27.496Z</time></trkpt><trkpt lat="44.8493033" lon="10.8406333"><ele>20.0</ele><time>2026-04-26T15:02:28.497Z</time></trkpt><trkpt lat="44.8492" lon="10.8405833"><ele>20.0</ele><time>2026-04-26T15:02:29.497Z</time></trkpt><trkpt lat="44.8490967" lon="10.8405267"><ele>20.0</ele><time>2026-04-26T15:02:30.496Z</time></trkpt><trkpt lat="44.8489917" lon="10.8404667"><ele>19.8</ele><time>2026-04-26T15:02:31.497Z</time></trkpt><trkpt lat="44.8488883" lon="10.840405"><ele>19.6</ele><time>2026-04-26T15:02:32.496Z</time></trkpt><trkpt lat="44.8487883" lon="10.8403433"><ele>19.4</ele><time>2026-04-26T15:02:33.497Z</time></trkpt><trkpt lat="44.84869" lon="10.8402783"><ele>19.2</ele><time>2026-04-26T15:02:34.497Z</time></trkpt><trkpt lat="44.8485867" lon="10.8402117"><ele>19.0</ele><time>2026-04-26T15:02:35.496Z</time></trkpt><trkpt lat="44.8484833" lon="10.8401467"><ele>18.8</ele><time>2026-04-26T15:02:36.497Z</time></trkpt><trkpt lat="44.8483783" lon="10.840085"><ele>18.599999999999998</ele><time>2026-04-26T15:02:37.496Z</time></trkpt><trkpt lat="44.8482767" lon="10.8400267"><ele>18.4</ele><time>2026-04-26T15:02:38.497Z</time></trkpt><trkpt lat="44.8481717" lon="10.8399733"><ele>18.2</ele><time>2026-04-26T15:02:39.497Z</time></trkpt><trkpt lat="44.84807" lon="10.83992"><ele>18.0</ele><time>2026-04-26T15:02:40.497Z</time></trkpt><trkpt lat="44.847965" lon="10.839865"><ele>18.0</ele><time>2026-04-26T15:02:41.497Z</time></trkpt><trkpt lat="44.8478667" lon="10.83981"><ele>18.0</ele><time>2026-04-26T15:02:42.496Z</time></trkpt><trkpt lat="44.8477633" lon="10.8397633"><ele>18.0</ele><time>2026-04-26T15:02:43.496Z</time></trkpt><trkpt lat="44.847655" lon="10.8397167"><ele>18.0</ele><time>2026-04-26T15:02:44.497Z</time></trkpt><trkpt lat="44.8475467" lon="10.83969"><ele>18.0</ele><time>2026-04-26T15:02:45.497Z</time></trkpt><trkpt lat="44.847435" lon="10.8396883"><ele>18.0</ele><time>2026-04-26T15:02:46.497Z</time></trkpt><trkpt lat="44.84732" lon="10.8397017"><ele>18.0</ele><time>2026-04-26T15:02:47.496Z</time></trkpt><trkpt lat="44.8472083" lon="10.839735"><ele>18.0</ele><time>2026-04-26T15:02:48.496Z</time></trkpt><trkpt lat="44.847095" lon="10.8397667"><ele>18.0</ele><time>2026-04-26T15:02:49.496Z</time></trkpt><trkpt lat="44.8469833" lon="10.8397983"><ele>18.0</ele><time>2026-04-26T15:02:50.497Z</time></trkpt><trkpt lat="44.8468717" lon="10.8398233"><ele>18.0</ele><time>2026-04-26T15:02:51.497Z</time></trkpt><trkpt lat="44.8467633" lon="10.8398483"><ele>18.0</ele><time>2026-04-26T15:02:52.496Z</time></trkpt><trkpt lat="44.8466533" lon="10.8398683"><ele>18.0</ele><time>2026-04-26T15:02:53.496Z</time></trkpt><trkpt lat="44.846545" lon="10.8398883"><ele>18.0</ele><time>2026-04-26T15:02:54.496Z</time></trkpt><trkpt lat="44.8464417" lon="10.8399"><ele>18.0</ele><time>2026-04-26T15:02:55.497Z</time></trkpt><trkpt lat="44.8463367" lon="10.8399133"><ele>18.0</ele><time>2026-04-26T15:02:56.497Z</time></trkpt><trkpt lat="44.8462283" lon="10.8399233"><ele>18.0</ele><time>2026-04-26T15:02:57.496Z</time></trkpt><trkpt lat="44.84612" lon="10.8399367"><ele>18.0</ele><time>2026-04-26T15:02:58.496Z</time></trkpt><trkpt lat="44.8460067" lon="10.83995"><ele>18.0</ele><time>2026-04-26T15:02:59.497Z</time></trkpt><trkpt lat="44.8458883" lon="10.8399667"><ele>18.25</ele><time>2026-04-26T15:03:00.496Z</time></trkpt><trkpt lat="44.8457667" lon="10.839985"><ele>18.5</ele><time>2026-04-26T15:03:01.496Z</time></trkpt><trkpt lat="44.84565" lon="10.8400117"><ele>18.75</ele><time>2026-04-26T15:03:02.496Z</time></trkpt><trkpt lat="44.8455283" lon="10.84004"><ele>19.0</ele><time>2026-04-26T15:03:03.496Z</time></trkpt><trkpt lat="44.84541" lon="10.840075"><ele>19.0</ele><time>2026-04-26T15:03:04.496Z</time></trkpt><trkpt lat="44.8452833" lon="10.8401233"><ele>19.0</ele><time>2026-04-26T15:03:05.497Z</time></trkpt><trkpt lat="44.8451683" lon="10.8401783"><ele>19.0</ele><time>2026-04-26T15:03:06.496Z</time></trkpt><trkpt lat="44.845055" lon="10.8402383"><ele>19.0</ele><time>2026-04-26T15:03:07.497Z</time></trkpt><trkpt lat="44.8449433" lon="10.8402917"><ele>19.0</ele><time>2026-04-26T15:03:08.497Z</time></trkpt><trkpt lat="44.8448383" lon="10.8403483"><ele>19.0</ele><time>2026-04-26T15:03:09.496Z</time></trkpt><trkpt lat="44.8447367" lon="10.8404017"><ele>19.0</ele><time>2026-04-26T15:03:10.497Z</time></trkpt><trkpt lat="44.844635" lon="10.8404533"><ele>19.0</ele><time>2026-04-26T15:03:11.497Z</time></trkpt><trkpt lat="44.8445433" lon="10.8405083"><ele>19.0</ele><time>2026-04-26T15:03:12.497Z</time></trkpt><trkpt lat="44.8444517" lon="10.8405617"><ele>19.0</ele><time>2026-04-26T15:03:13.497Z</time></trkpt><trkpt lat="44.8443583" lon="10.8406117"><ele>19.0</ele><time>2026-04-26T15:03:14.496Z</time></trkpt><trkpt lat="44.84427" lon="10.8406667"><ele>19.0</ele><time>2026-04-26T15:03:15.496Z</time></trkpt><trkpt lat="44.8441783" lon="10.84072"><ele>19.0</ele><time>2026-04-26T15:03:16.496Z</time></trkpt><trkpt lat="44.844085" lon="10.8407733"><ele>19.0</ele><time>2026-04-26T15:03:17.497Z</time></trkpt><trkpt lat="44.8439933" lon="10.8408267"><ele>19.166666666666664</ele><time>2026-04-26T15:03:18.497Z</time></trkpt><trkpt lat="44.843905" lon="10.84088"><ele>19.333333333333332</ele><time>2026-04-26T15:03:19.497Z</time></trkpt><trkpt lat="44.84382" lon="10.8409283"><ele>19.5</ele><time>2026-04-26T15:03:20.497Z</time></trkpt><trkpt lat="44.8437433" lon="10.8409667"><ele>19.666666666666668</ele><time>2026-04-26T15:03:21.497Z</time></trkpt><trkpt lat="44.84367" lon="10.8409983"><ele>19.833333333333336</ele><time>2026-04-26T15:03:22.496Z</time></trkpt><trkpt lat="44.843595" lon="10.84103"><ele>20.0</ele><time>2026-04-26T15:03:23.496Z</time></trkpt><trkpt lat="44.8435183" lon="10.8410533"><ele>20.166666666666668</ele><time>2026-04-26T15:03:24.496Z</time></trkpt><trkpt lat="44.8434467" lon="10.8410583"><ele>20.333333333333336</ele><time>2026-04-26T15:03:25.497Z</time></trkpt><trkpt lat="44.8433817" lon="10.841055"><ele>20.5</ele><time>2026-04-26T15:03:26.497Z</time></trkpt><trkpt lat="44.8432667" lon="10.84102"><ele>20.666666666666668</ele><time>2026-04-26T15:03:28.496Z</time></trkpt><trkpt lat="44.843175" lon="10.8409633"><ele>20.833333333333332</ele><time>2026-04-26T15:03:30.497Z</time></trkpt><trkpt lat="44.8431167" lon="10.8408967"><ele>21.0</ele><time>2026-04-26T15:03:33.497Z</time></trkpt><trkpt lat="44.8431733" lon="10.841005"><ele>21.0</ele><time>2026-04-26T15:03:56.497Z</time></trkpt><trkpt lat="44.8432917" lon="10.8410617"><ele>21.0</ele><time>2026-04-26T15:03:58.496Z</time></trkpt><trkpt lat="44.8433917" lon="10.8410983"><ele>21.0</ele><time>2026-04-26T15:04:00.497Z</time></trkpt><trkpt lat="44.84347" lon="10.8411383"><ele>21.0</ele><time>2026-04-26T15:04:02.497Z</time></trkpt><trkpt lat="44.8435633" lon="10.8411583"><ele>21.0</ele><time>2026-04-26T15:04:04.497Z</time></trkpt><trkpt lat="44.8436433" lon="10.8411633"><ele>21.0</ele><time>2026-04-26T15:04:06.497Z</time></trkpt><trkpt lat="44.843685" lon="10.8412383"><ele>21.0</ele><time>2026-04-26T15:04:09.497Z</time></trkpt><trkpt lat="44.8436383" lon="10.8413317"><ele>21.0</ele><time>2026-04-26T15:04:11.496Z</time></trkpt><trkpt lat="44.8435783" lon="10.841375"><ele>21.0</ele><time>2026-04-26T15:04:12.497Z</time></trkpt><trkpt lat="44.8435133" lon="10.8414083"><ele>21.0</ele><time>2026-04-26T15:04:13.497Z</time></trkpt><trkpt lat="44.8434017" lon="10.8414883"><ele>21.0</ele><time>2026-04-26T15:04:15.496Z</time></trkpt><trkpt lat="44.8432867" lon="10.8415483"><ele>21.0</ele><time>2026-04-26T15:04:17.497Z</time></trkpt><trkpt lat="44.84323" lon="10.8415917"><ele>21.0</ele><time>2026-04-26T15:04:18.496Z</time></trkpt><trkpt lat="44.8431767" lon="10.8416483"><ele>21.0</ele><time>2026-04-26T15:04:19.496Z</time></trkpt><trkpt lat="44.8431183" lon="10.8417"><ele>21.0</ele><time>2026-04-26T15:04:20.496Z</time></trkpt><trkpt lat="44.84306" lon="10.8417417"><ele>21.0</ele><time>2026-04-26T15:04:21.496Z</time></trkpt><trkpt lat="44.843" lon="10.841785"><ele>21.0</ele><time>2026-04-26T15:04:22.497Z</time></trkpt><trkpt lat="44.84288" lon="10.8418783"><ele>21.0</ele><time>2026-04-26T15:04:24.497Z</time></trkpt><trkpt lat="44.8428167" lon="10.8419267"><ele>21.0</ele><time>2026-04-26T15:04:25.497Z</time></trkpt><trkpt lat="44.8427567" lon="10.8419683"><ele>21.0</ele><time>2026-04-26T15:04:26.497Z</time></trkpt><trkpt lat="44.8426467" lon="10.8420483"><ele>21.0</ele><time>2026-04-26T15:04:28.496Z</time></trkpt><trkpt lat="44.842535" lon="10.842125"><ele>21.0</ele><time>2026-04-26T15:04:30.496Z</time></trkpt><trkpt lat="44.8424233" lon="10.8422167"><ele>20.857142857142858</ele><time>2026-04-26T15:04:32.496Z</time></trkpt><trkpt lat="44.84236" lon="10.842265"><ele>20.714285714285715</ele><time>2026-04-26T15:04:33.497Z</time></trkpt><trkpt lat="44.842295" lon="10.84231"><ele>20.57142857142857</ele><time>2026-04-26T15:04:34.496Z</time></trkpt><trkpt lat="44.842235" lon="10.8423617"><ele>20.42857142857143</ele><time>2026-04-26T15:04:35.497Z</time></trkpt><trkpt lat="44.8421733" lon="10.842405"><ele>20.285714285714285</ele><time>2026-04-26T15:04:36.497Z</time></trkpt><trkpt lat="44.8421067" lon="10.8424383"><ele>20.142857142857142</ele><time>2026-04-26T15:04:37.497Z</time></trkpt><trkpt lat="44.842035" lon="10.8424683"><ele>20.0</ele><time>2026-04-26T15:04:38.496Z</time></trkpt><trkpt lat="44.841965" lon="10.8424983"><ele>20.0</ele><time>2026-04-26T15:04:39.497Z</time></trkpt><trkpt lat="44.8418883" lon="10.842525"><ele>20.0</ele><time>2026-04-26T15:04:40.496Z</time></trkpt><trkpt lat="44.841815" lon="10.842545"><ele>20.0</ele><time>2026-04-26T15:04:41.497Z</time></trkpt><trkpt lat="44.8417417" lon="10.8425633"><ele>20.0</ele><time>2026-04-26T15:04:42.496Z</time></trkpt><trkpt lat="44.8416717" lon="10.8425783"><ele>20.0</ele><time>2026-04-26T15:04:43.496Z</time></trkpt><trkpt lat="44.841595" lon="10.84259"><ele>20.0</ele><time>2026-04-26T15:04:44.496Z</time></trkpt><trkpt lat="44.841525" lon="10.8426"><ele>20.0</ele><time>2026-04-26T15:04:45.496Z</time></trkpt><trkpt lat="44.8414517" lon="10.8426017"><ele>20.0</ele><time>2026-04-26T15:04:46.496Z</time></trkpt><trkpt lat="44.84138" lon="10.8426033"><ele>20.0</ele><time>2026-04-26T15:04:47.496Z</time></trkpt><trkpt lat="44.841305" lon="10.8425983"><ele>20.0</ele><time>2026-04-26T15:04:48.496Z</time></trkpt><trkpt lat="44.8412283" lon="10.84259"><ele>20.0</ele><time>2026-04-26T15:04:49.497Z</time></trkpt><trkpt lat="44.8411517" lon="10.8425767"><ele>20.0</ele><time>2026-04-26T15:04:50.496Z</time></trkpt><trkpt lat="44.84107" lon="10.8425567"><ele>20.0</ele><time>2026-04-26T15:04:51.497Z</time></trkpt><trkpt lat="44.8409867" lon="10.8425383"><ele>19.833333333333336</ele><time>2026-04-26T15:04:52.496Z</time></trkpt><trkpt lat="44.8409" lon="10.8425167"><ele>19.666666666666668</ele><time>2026-04-26T15:04:53.496Z</time></trkpt><trkpt lat="44.8408167" lon="10.842495"><ele>19.5</ele><time>2026-04-26T15:04:54.496Z</time></trkpt><trkpt lat="44.8407317" lon="10.842485"><ele>19.333333333333332</ele><time>2026-04-26T15:04:55.496Z</time></trkpt><trkpt lat="44.8406483" lon="10.84248"><ele>19.166666666666664</ele><time>2026-04-26T15:04:56.496Z</time></trkpt><trkpt lat="44.8405667" lon="10.842485"><ele>19.0</ele><time>2026-04-26T15:04:57.497Z</time></trkpt><trkpt lat="44.8404833" lon="10.8424983"><ele>19.0</ele><time>2026-04-26T15:04:58.497Z</time></trkpt><trkpt lat="44.8404" lon="10.8425167"><ele>19.0</ele><time>2026-04-26T15:04:59.496Z</time></trkpt><trkpt lat="44.8403183" lon="10.842535"><ele>19.0</ele><time>2026-04-26T15:05:00.496Z</time></trkpt><trkpt lat="44.8402367" lon="10.8425583"><ele>19.0</ele><time>2026-04-26T15:05:01.497Z</time></trkpt><trkpt lat="44.8401583" lon="10.8425867"><ele>19.0</ele><time>2026-04-26T15:05:02.496Z</time></trkpt><trkpt lat="44.8400867" lon="10.842625"><ele>19.0</ele><time>2026-04-26T15:05:03.496Z</time></trkpt><trkpt lat="44.8400083" lon="10.8426667"><ele>19.0</ele><time>2026-04-26T15:05:04.496Z</time></trkpt><trkpt lat="44.83993" lon="10.8427133"><ele>19.0</ele><time>2026-04-26T15:05:05.496Z</time></trkpt><trkpt lat="44.839855" lon="10.84276"><ele>19.0</ele><time>2026-04-26T15:05:06.496Z</time></trkpt><trkpt lat="44.8397817" lon="10.8428117"><ele>19.0</ele><time>2026-04-26T15:05:07.496Z</time></trkpt><trkpt lat="44.8397067" lon="10.842865"><ele>19.0</ele><time>2026-04-26T15:05:08.496Z</time></trkpt><trkpt lat="44.8396283" lon="10.84292"><ele>19.0</ele><time>2026-04-26T15:05:09.496Z</time></trkpt><trkpt lat="44.839555" lon="10.842975"><ele>19.0</ele><time>2026-04-26T15:05:10.497Z</time></trkpt><trkpt lat="44.8394767" lon="10.8430317"><ele>19.0</ele><time>2026-04-26T15:05:11.496Z</time></trkpt><trkpt lat="44.8394017" lon="10.8430817"><ele>19.0</ele><time>2026-04-26T15:05:12.496Z</time></trkpt><trkpt lat="44.8393283" lon="10.8431183"><ele>19.0</ele><time>2026-04-26T15:05:13.497Z</time></trkpt><trkpt lat="44.839255" lon="10.843145"><ele>19.0</ele><time>2026-04-26T15:05:14.497Z</time></trkpt><trkpt lat="44.8391767" lon="10.8431633"><ele>19.0</ele><time>2026-04-26T15:05:15.497Z</time></trkpt><trkpt lat="44.8390883" lon="10.84318"><ele>19.166666666666664</ele><time>2026-04-26T15:05:16.497Z</time></trkpt><trkpt lat="44.8390033" lon="10.843185"><ele>19.333333333333332</ele><time>2026-04-26T15:05:17.496Z</time></trkpt><trkpt lat="44.8389133" lon="10.8431833"><ele>19.5</ele><time>2026-04-26T15:05:18.496Z</time></trkpt><trkpt lat="44.83883" lon="10.84318"><ele>19.666666666666668</ele><time>2026-04-26T15:05:19.496Z</time></trkpt><trkpt lat="44.8387433" lon="10.8431783"><ele>19.833333333333336</ele><time>2026-04-26T15:05:20.496Z</time></trkpt><trkpt lat="44.8386583" lon="10.84318"><ele>20.0</ele><time>2026-04-26T15:05:21.497Z</time></trkpt><trkpt lat="44.8385717" lon="10.84318"><ele>20.0</ele><time>2026-04-26T15:05:22.497Z</time></trkpt><trkpt lat="44.8384883" lon="10.843185"><ele>20.0</ele><time>2026-04-26T15:05:23.496Z</time></trkpt><trkpt lat="44.8384117" lon="10.843195"><ele>20.0</ele><time>2026-04-26T15:05:24.497Z</time></trkpt><trkpt lat="44.8383367" lon="10.843205"><ele>20.0</ele><time>2026-04-26T15:05:25.497Z</time></trkpt><trkpt lat="44.8382617" lon="10.8432283"><ele>20.0</ele><time>2026-04-26T15:05:26.497Z</time></trkpt><trkpt lat="44.8381833" lon="10.8432433"><ele>20.0</ele><time>2026-04-26T15:05:27.496Z</time></trkpt><trkpt lat="44.8381067" lon="10.8432467"><ele>19.833333333333336</ele><time>2026-04-26T15:05:28.496Z</time></trkpt><trkpt lat="44.8380317" lon="10.8432517"><ele>19.666666666666668</ele><time>2026-04-26T15:05:29.496Z</time></trkpt><trkpt lat="44.8379617" lon="10.843255"><ele>19.5</ele><time>2026-04-26T15:05:30.496Z</time></trkpt><trkpt lat="44.8378933" lon="10.843255"><ele>19.333333333333332</ele><time>2026-04-26T15:05:31.497Z</time></trkpt><trkpt lat="44.83783" lon="10.8432533"><ele>19.166666666666664</ele><time>2026-04-26T15:05:32.497Z</time></trkpt><trkpt lat="44.8377667" lon="10.843245"><ele>19.0</ele><time>2026-04-26T15:05:33.497Z</time></trkpt><trkpt lat="44.8376567" lon="10.8432317"><ele>18.857142857142858</ele><time>2026-04-26T15:05:35.496Z</time></trkpt><trkpt lat="44.83758" lon="10.843175"><ele>18.714285714285715</ele><time>2026-04-26T15:05:38.497Z</time></trkpt><trkpt lat="44.837575" lon="10.8430517"><ele>18.571428571428573</ele><time>2026-04-26T15:05:40.497Z</time></trkpt><trkpt lat="44.8375833" lon="10.8429617"><ele>18.42857142857143</ele><time>2026-04-26T15:05:41.497Z</time></trkpt><trkpt lat="44.8375983" lon="10.8428617"><ele>18.285714285714285</ele><time>2026-04-26T15:05:42.496Z</time></trkpt><trkpt lat="44.8376167" lon="10.842765"><ele>18.142857142857146</ele><time>2026-04-26T15:05:43.497Z</time></trkpt><trkpt lat="44.8376267" lon="10.8426767"><ele>18.0</ele><time>2026-04-26T15:05:44.496Z</time></trkpt><trkpt lat="44.8376367" lon="10.8425033"><ele>18.0</ele><time>2026-04-26T15:05:46.496Z</time></trkpt><trkpt lat="44.8376417" lon="10.84241"><ele>18.0</ele><time>2026-04-26T15:05:47.496Z</time></trkpt><trkpt lat="44.837645" lon="10.8423083"><ele>18.0</ele><time>2026-04-26T15:05:48.496Z</time></trkpt><trkpt lat="44.8376483" lon="10.8422017"><ele>18.0</ele><time>2026-04-26T15:05:49.497Z</time></trkpt><trkpt lat="44.837655" lon="10.84209"><ele>18.0</ele><time>2026-04-26T15:05:50.497Z</time></trkpt><trkpt lat="44.8376633" lon="10.84198"><ele>18.0</ele><time>2026-04-26T15:05:51.496Z</time></trkpt><trkpt lat="44.83767" lon="10.8418683"><ele>18.166666666666668</ele><time>2026-04-26T15:05:52.497Z</time></trkpt><trkpt lat="44.8376783" lon="10.8417567"><ele>18.333333333333332</ele><time>2026-04-26T15:05:53.497Z</time></trkpt><trkpt lat="44.8376867" lon="10.8416383"><ele>18.5</ele><time>2026-04-26T15:05:54.496Z</time></trkpt><trkpt lat="44.8376967" lon="10.8415183"><ele>18.666666666666664</ele><time>2026-04-26T15:05:55.496Z</time></trkpt><trkpt lat="44.8377133" lon="10.8413983"><ele>18.833333333333332</ele><time>2026-04-26T15:05:56.496Z</time></trkpt><trkpt lat="44.8377217" lon="10.8412833"><ele>19.0</ele><time>2026-04-26T15:05:57.496Z</time></trkpt><trkpt lat="44.8377267" lon="10.8411683"><ele>19.0</ele><time>2026-04-26T15:05:58.497Z</time></trkpt><trkpt lat="44.837735" lon="10.8410467"><ele>19.0</ele><time>2026-04-26T15:05:59.496Z</time></trkpt><trkpt lat="44.8377433" lon="10.8409233"><ele>19.0</ele><time>2026-04-26T15:06:00.496Z</time></trkpt><trkpt lat="44.83775" lon="10.8408033"><ele>19.0</ele><time>2026-04-26T15:06:01.496Z</time></trkpt><trkpt lat="44.837755" lon="10.8406883"><ele>19.0</ele><time>2026-04-26T15:06:02.497Z</time></trkpt><trkpt lat="44.8377633" lon="10.84057"><ele>19.0</ele><time>2026-04-26T15:06:03.497Z</time></trkpt><trkpt lat="44.83777" lon="10.8404517"><ele>19.0</ele><time>2026-04-26T15:06:04.496Z</time></trkpt><trkpt lat="44.8377783" lon="10.8403333"><ele>19.0</ele><time>2026-04-26T15:06:05.497Z</time></trkpt><trkpt lat="44.83778" lon="10.840215"><ele>19.0</ele><time>2026-04-26T15:06:06.497Z</time></trkpt><trkpt lat="44.837785" lon="10.840095"><ele>19.0</ele><time>2026-04-26T15:06:07.496Z</time></trkpt><trkpt lat="44.8377933" lon="10.8399817"><ele>19.0</ele><time>2026-04-26T15:06:08.497Z</time></trkpt><trkpt lat="44.8378017" lon="10.8398667"><ele>19.0</ele><time>2026-04-26T15:06:09.496Z</time></trkpt><trkpt lat="44.8378133" lon="10.8397567"><ele>19.0</ele><time>2026-04-26T15:06:10.496Z</time></trkpt><trkpt lat="44.8378183" lon="10.8396433"><ele>19.0</ele><time>2026-04-26T15:06:11.496Z</time></trkpt><trkpt lat="44.837825" lon="10.8395267"><ele>19.0</ele><time>2026-04-26T15:06:12.496Z</time></trkpt><trkpt lat="44.8378333" lon="10.8394033"><ele>19.0</ele><time>2026-04-26T15:06:13.497Z</time></trkpt><trkpt lat="44.837845" lon="10.8392783"><ele>19.0</ele><time>2026-04-26T15:06:14.497Z</time></trkpt><trkpt lat="44.8378467" lon="10.83915"><ele>19.0</ele><time>2026-04-26T15:06:15.496Z</time></trkpt><trkpt lat="44.837855" lon="10.8390183"><ele>19.0</ele><time>2026-04-26T15:06:16.496Z</time></trkpt><trkpt lat="44.8378633" lon="10.838885"><ele>19.0</ele><time>2026-04-26T15:06:17.496Z</time></trkpt><trkpt lat="44.837875" lon="10.83876"><ele>19.0</ele><time>2026-04-26T15:06:18.496Z</time></trkpt><trkpt lat="44.83789" lon="10.838645"><ele>19.0</ele><time>2026-04-26T15:06:19.497Z</time></trkpt><trkpt lat="44.8379017" lon="10.8385367"><ele>19.0</ele><time>2026-04-26T15:06:20.496Z</time></trkpt><trkpt lat="44.837915" lon="10.8384333"><ele>19.0</ele><time>2026-04-26T15:06:21.497Z</time></trkpt><trkpt lat="44.8379317" lon="10.838335"><ele>19.0</ele><time>2026-04-26T15:06:22.496Z</time></trkpt><trkpt lat="44.8379483" lon="10.8382367"><ele>19.0</ele><time>2026-04-26T15:06:23.496Z</time></trkpt><trkpt lat="44.8379717" lon="10.8381433"><ele>19.0</ele><time>2026-04-26T15:06:24.496Z</time></trkpt><trkpt lat="44.8379967" lon="10.8380583"><ele>19.0</ele><time>2026-04-26T15:06:25.496Z</time></trkpt><trkpt lat="44.8380233" lon="10.8379717"><ele>19.0</ele><time>2026-04-26T15:06:26.497Z</time></trkpt><trkpt lat="44.83805" lon="10.83788"><ele>19.0</ele><time>2026-04-26T15:06:27.497Z</time></trkpt><trkpt lat="44.8380717" lon="10.8377833"><ele>19.0</ele><time>2026-04-26T15:06:28.497Z</time></trkpt><trkpt lat="44.8380967" lon="10.8376817"><ele>19.166666666666664</ele><time>2026-04-26T15:06:29.496Z</time></trkpt><trkpt lat="44.8381283" lon="10.8375767"><ele>19.333333333333332</ele><time>2026-04-26T15:06:30.496Z</time></trkpt><trkpt lat="44.8381617" lon="10.837475"><ele>19.5</ele><time>2026-04-26T15:06:31.497Z</time></trkpt><trkpt lat="44.838195" lon="10.8373733"><ele>19.666666666666668</ele><time>2026-04-26T15:06:32.496Z</time></trkpt><trkpt lat="44.83823" lon="10.8372617"><ele>19.833333333333336</ele><time>2026-04-26T15:06:33.497Z</time></trkpt><trkpt lat="44.8382633" lon="10.8371483"><ele>20.0</ele><time>2026-04-26T15:06:34.496Z</time></trkpt><trkpt lat="44.8383017" lon="10.8370367"><ele>20.0</ele><time>2026-04-26T15:06:35.497Z</time></trkpt><trkpt lat="44.838335" lon="10.83692"><ele>20.0</ele><time>2026-04-26T15:06:36.497Z</time></trkpt><trkpt lat="44.8383717" lon="10.8368"><ele>20.0</ele><time>2026-04-26T15:06:37.497Z</time></trkpt><trkpt lat="44.8384083" lon="10.8366833"><ele>20.0</ele><time>2026-04-26T15:06:38.497Z</time></trkpt><trkpt lat="44.83844" lon="10.8365717"><ele>20.0</ele><time>2026-04-26T15:06:39.496Z</time></trkpt><trkpt lat="44.838475" lon="10.8364667"><ele>20.0</ele><time>2026-04-26T15:06:40.496Z</time></trkpt><trkpt lat="44.83851" lon="10.8363583"><ele>20.0</ele><time>2026-04-26T15:06:41.496Z</time></trkpt><trkpt lat="44.8385467" lon="10.836245"><ele>20.0</ele><time>2026-04-26T15:06:42.497Z</time></trkpt><trkpt lat="44.8385783" lon="10.8361317"><ele>20.0</ele><time>2026-04-26T15:06:43.497Z</time></trkpt><trkpt lat="44.83861" lon="10.8360167"><ele>20.0</ele><time>2026-04-26T15:06:44.497Z</time></trkpt><trkpt lat="44.8386417" lon="10.8359067"><ele>20.0</ele><time>2026-04-26T15:06:45.496Z</time></trkpt><trkpt lat="44.838675" lon="10.8357967"><ele>20.0</ele><time>2026-04-26T15:06:46.496Z</time></trkpt><trkpt lat="44.8387067" lon="10.8356867"><ele>20.0</ele><time>2026-04-26T15:06:47.497Z</time></trkpt><trkpt lat="44.8387417" lon="10.8355867"><ele>20.0</ele><time>2026-04-26T15:06:48.497Z</time></trkpt><trkpt lat="44.8387733" lon="10.8354883"><ele>20.0</ele><time>2026-04-26T15:06:49.496Z</time></trkpt><trkpt lat="44.8388033" lon="10.8353933"><ele>20.0</ele><time>2026-04-26T15:06:50.497Z</time></trkpt><trkpt lat="44.83883" lon="10.8352967"><ele>20.0</ele><time>2026-04-26T15:06:51.497Z</time></trkpt><trkpt lat="44.8388533" lon="10.8352067"><ele>20.0</ele><time>2026-04-26T15:06:52.496Z</time></trkpt><trkpt lat="44.83888" lon="10.8351133"><ele>20.0</ele><time>2026-04-26T15:06:53.496Z</time></trkpt><trkpt lat="44.838905" lon="10.83502"><ele>20.0</ele><time>2026-04-26T15:06:54.497Z</time></trkpt><trkpt lat="44.8389317" lon="10.8349217"><ele>20.0</ele><time>2026-04-26T15:06:55.496Z</time></trkpt><trkpt lat="44.8389617" lon="10.8348267"><ele>20.0</ele><time>2026-04-26T15:06:56.496Z</time></trkpt><trkpt lat="44.8389933" lon="10.834735"><ele>20.0</ele><time>2026-04-26T15:06:57.497Z</time></trkpt><trkpt lat="44.8390233" lon="10.8346383"><ele>20.0</ele><time>2026-04-26T15:06:58.497Z</time></trkpt><trkpt lat="44.8390483" lon="10.834545"><ele>20.0</ele><time>2026-04-26T15:06:59.497Z</time></trkpt><trkpt lat="44.8390783" lon="10.834455"><ele>20.0</ele><time>2026-04-26T15:07:00.497Z</time></trkpt><trkpt lat="44.8391033" lon="10.83437"><ele>19.833333333333336</ele><time>2026-04-26T15:07:01.496Z</time></trkpt><trkpt lat="44.8391417" lon="10.8342167"><ele>19.666666666666668</ele><time>2026-04-26T15:07:03.497Z</time></trkpt><trkpt lat="44.8391783" lon="10.8341"><ele>19.5</ele><time>2026-04-26T15:07:05.496Z</time></trkpt><trkpt lat="44.8392133" lon="10.8340133"><ele>19.333333333333332</ele><time>2026-04-26T15:07:07.496Z</time></trkpt><trkpt lat="44.8392417" lon="10.833925"><ele>19.166666666666664</ele><time>2026-04-26T15:07:09.496Z</time></trkpt><trkpt lat="44.839265" lon="10.8338267"><ele>19.0</ele><time>2026-04-26T15:07:11.495Z</time></trkpt><trkpt lat="44.839295" lon="10.83371"><ele>19.0</ele><time>2026-04-26T15:07:13.496Z</time></trkpt><trkpt lat="44.8393333" lon="10.83357"><ele>19.0</ele><time>2026-04-26T15:07:15.496Z</time></trkpt><trkpt lat="44.8393583" lon="10.8334883"><ele>19.0</ele><time>2026-04-26T15:07:16.495Z</time></trkpt><trkpt lat="44.8394033" lon="10.8333317"><ele>19.0</ele><time>2026-04-26T15:07:18.496Z</time></trkpt><trkpt lat="44.83943" lon="10.83325"><ele>19.0</ele><time>2026-04-26T15:07:19.495Z</time></trkpt><trkpt lat="44.8394583" lon="10.8331567"><ele>19.0</ele><time>2026-04-26T15:07:20.496Z</time></trkpt><trkpt lat="44.8394867" lon="10.8330617"><ele>19.0</ele><time>2026-04-26T15:07:21.495Z</time></trkpt><trkpt lat="44.8395083" lon="10.832975"><ele>19.0</ele><time>2026-04-26T15:07:22.495Z</time></trkpt><trkpt lat="44.839535" lon="10.832885"><ele>19.0</ele><time>2026-04-26T15:07:23.495Z</time></trkpt><trkpt lat="44.8395633" lon="10.832785"><ele>19.0</ele><time>2026-04-26T15:07:24.496Z</time></trkpt><trkpt lat="44.8395917" lon="10.8326867"><ele>19.0</ele><time>2026-04-26T15:07:25.495Z</time></trkpt><trkpt lat="44.839625" lon="10.832595"><ele>19.0</ele><time>2026-04-26T15:07:26.496Z</time></trkpt><trkpt lat="44.839655" lon="10.832505"><ele>19.0</ele><time>2026-04-26T15:07:27.496Z</time></trkpt><trkpt lat="44.83968" lon="10.8324117"><ele>19.166666666666664</ele><time>2026-04-26T15:07:28.495Z</time></trkpt><trkpt lat="44.83971" lon="10.8323133"><ele>19.333333333333332</ele><time>2026-04-26T15:07:29.495Z</time></trkpt><trkpt lat="44.8397383" lon="10.8322117"><ele>19.5</ele><time>2026-04-26T15:07:30.495Z</time></trkpt><trkpt lat="44.83977" lon="10.832115"><ele>19.666666666666668</ele><time>2026-04-26T15:07:31.496Z</time></trkpt><trkpt lat="44.8397967" lon="10.8320183"><ele>19.833333333333336</ele><time>2026-04-26T15:07:32.495Z</time></trkpt><trkpt lat="44.839825" lon="10.8319183"><ele>20.0</ele><time>2026-04-26T15:07:33.496Z</time></trkpt><trkpt lat="44.83985" lon="10.831825"><ele>20.6</ele><time>2026-04-26T15:07:34.495Z</time></trkpt><trkpt lat="44.8398767" lon="10.8317367"><ele>21.2</ele><time>2026-04-26T15:07:35.495Z</time></trkpt><trkpt lat="44.8399133" lon="10.8315983"><ele>21.799999999999997</ele><time>2026-04-26T15:07:37.496Z</time></trkpt><trkpt lat="44.8399583" lon="10.831445"><ele>22.4</ele><time>2026-04-26T15:07:39.496Z</time></trkpt><trkpt lat="44.8399883" lon="10.831345"><ele>23.0</ele><time>2026-04-26T15:07:40.495Z</time></trkpt><trkpt lat="44.8400233" lon="10.8312383"><ele>23.0</ele><time>2026-04-26T15:07:41.495Z</time></trkpt><trkpt lat="44.8400583" lon="10.83112"><ele>23.0</ele><time>2026-04-26T15:07:42.495Z</time></trkpt><trkpt lat="44.8400933" lon="10.831015"><ele>23.0</ele><time>2026-04-26T15:07:43.496Z</time></trkpt><trkpt lat="44.840125" lon="10.83091"><ele>23.0</ele><time>2026-04-26T15:07:44.496Z</time></trkpt><trkpt lat="44.840155" lon="10.8308083"><ele>23.0</ele><time>2026-04-26T15:07:45.495Z</time></trkpt><trkpt lat="44.84019" lon="10.8307167"><ele>23.0</ele><time>2026-04-26T15:07:46.496Z</time></trkpt><trkpt lat="44.8402267" lon="10.8306083"><ele>22.666666666666668</ele><time>2026-04-26T15:07:47.496Z</time></trkpt><trkpt lat="44.8402683" lon="10.83049"><ele>22.333333333333336</ele><time>2026-04-26T15:07:48.496Z</time></trkpt><trkpt lat="44.8403017" lon="10.8303667"><ele>22.0</ele><time>2026-04-26T15:07:49.495Z</time></trkpt><trkpt lat="44.8403333" lon="10.8302583"><ele>21.666666666666668</ele><time>2026-04-26T15:07:50.496Z</time></trkpt><trkpt lat="44.8403617" lon="10.8301667"><ele>21.333333333333332</ele><time>2026-04-26T15:07:51.496Z</time></trkpt><trkpt lat="44.8403867" lon="10.8300683"><ele>21.0</ele><time>2026-04-26T15:07:52.496Z</time></trkpt><trkpt lat="44.8404133" lon="10.8299817"><ele>21.0</ele><time>2026-04-26T15:07:53.495Z</time></trkpt><trkpt lat="44.8404367" lon="10.8298933"><ele>21.0</ele><time>2026-04-26T15:07:54.495Z</time></trkpt><trkpt lat="44.8404567" lon="10.829805"><ele>21.0</ele><time>2026-04-26T15:07:55.496Z</time></trkpt><trkpt lat="44.8404817" lon="10.82972"><ele>21.0</ele><time>2026-04-26T15:07:56.495Z</time></trkpt><trkpt lat="44.8405267" lon="10.8295683"><ele>21.0</ele><time>2026-04-26T15:07:58.495Z</time></trkpt><trkpt lat="44.8405833" lon="10.8294183"><ele>21.0</ele><time>2026-04-26T15:08:00.495Z</time></trkpt><trkpt lat="44.8406217" lon="10.8293383"><ele>21.0</ele><time>2026-04-26T15:08:01.496Z</time></trkpt><trkpt lat="44.840665" lon="10.829265"><ele>21.0</ele><time>2026-04-26T15:08:02.496Z</time></trkpt><trkpt lat="44.8407117" lon="10.8291967"><ele>21.0</ele><time>2026-04-26T15:08:03.495Z</time></trkpt><trkpt lat="44.840755" lon="10.8291233"><ele>21.0</ele><time>2026-04-26T15:08:04.496Z</time></trkpt><trkpt lat="44.8408017" lon="10.8290533"><ele>21.0</ele><time>2026-04-26T15:08:05.496Z</time></trkpt><trkpt lat="44.8408467" lon="10.828985"><ele>21.0</ele><time>2026-04-26T15:08:06.495Z</time></trkpt><trkpt lat="44.8409233" lon="10.8288617"><ele>21.0</ele><time>2026-04-26T15:08:08.496Z</time></trkpt><trkpt lat="44.8409617" lon="10.82879"><ele>21.0</ele><time>2026-04-26T15:08:09.495Z</time></trkpt><trkpt lat="44.8410017" lon="10.82872"><ele>21.0</ele><time>2026-04-26T15:08:10.496Z</time></trkpt><trkpt lat="44.841045" lon="10.8286533"><ele>21.0</ele><time>2026-04-26T15:08:11.495Z</time></trkpt><trkpt lat="44.8411233" lon="10.8285317"><ele>21.0</ele><time>2026-04-26T15:08:13.495Z</time></trkpt><trkpt lat="44.8412" lon="10.8284067"><ele>21.0</ele><time>2026-04-26T15:08:15.495Z</time></trkpt><trkpt lat="44.8412667" lon="10.8282717"><ele>21.0</ele><time>2026-04-26T15:08:17.495Z</time></trkpt><trkpt lat="44.8413117" lon="10.8282033"><ele>21.0</ele><time>2026-04-26T15:08:18.495Z</time></trkpt><trkpt lat="44.84136" lon="10.828125"><ele>21.0</ele><time>2026-04-26T15:08:19.496Z</time></trkpt><trkpt lat="44.8414067" lon="10.8280383"><ele>21.0</ele><time>2026-04-26T15:08:20.495Z</time></trkpt><trkpt lat="44.8414583" lon="10.82795"><ele>21.0</ele><time>2026-04-26T15:08:21.496Z</time></trkpt><trkpt lat="44.8415133" lon="10.8278667"><ele>21.0</ele><time>2026-04-26T15:08:22.496Z</time></trkpt><trkpt lat="44.8415633" lon="10.8277817"><ele>21.0</ele><time>2026-04-26T15:08:23.496Z</time></trkpt><trkpt lat="44.841615" lon="10.8277067"><ele>21.0</ele><time>2026-04-26T15:08:24.496Z</time></trkpt><trkpt lat="44.8416633" lon="10.827635"><ele>21.0</ele><time>2026-04-26T15:08:25.496Z</time></trkpt><trkpt lat="44.8417433" lon="10.8275067"><ele>21.0</ele><time>2026-04-26T15:08:27.496Z</time></trkpt><trkpt lat="44.841785" lon="10.82744"><ele>21.0</ele><time>2026-04-26T15:08:28.496Z</time></trkpt><trkpt lat="44.8418267" lon="10.8273683"><ele>21.0</ele><time>2026-04-26T15:08:29.496Z</time></trkpt><trkpt lat="44.8418767" lon="10.8272867"><ele>21.0</ele><time>2026-04-26T15:08:30.496Z</time></trkpt><trkpt lat="44.8419167" lon="10.8272017"><ele>21.0</ele><time>2026-04-26T15:08:31.495Z</time></trkpt><trkpt lat="44.84196" lon="10.827125"><ele>21.0</ele><time>2026-04-26T15:08:32.496Z</time></trkpt><trkpt lat="44.8420017" lon="10.8270517"><ele>21.0</ele><time>2026-04-26T15:08:33.495Z</time></trkpt><trkpt lat="44.8420433" lon="10.826985"><ele>21.0</ele><time>2026-04-26T15:08:34.495Z</time></trkpt><trkpt lat="44.8420883" lon="10.8269167"><ele>21.0</ele><time>2026-04-26T15:08:35.495Z</time></trkpt><trkpt lat="44.84217" lon="10.826775"><ele>21.0</ele><time>2026-04-26T15:08:37.496Z</time></trkpt><trkpt lat="44.8422533" lon="10.8266417"><ele>21.0</ele><time>2026-04-26T15:08:39.496Z</time></trkpt><trkpt lat="44.8422967" lon="10.826565"><ele>21.0</ele><time>2026-04-26T15:08:40.496Z</time></trkpt><trkpt lat="44.8423433" lon="10.8264833"><ele>21.0</ele><time>2026-04-26T15:08:41.495Z</time></trkpt><trkpt lat="44.8423967" lon="10.8264017"><ele>21.0</ele><time>2026-04-26T15:08:42.495Z</time></trkpt><trkpt lat="44.8424533" lon="10.8263233"><ele>21.0</ele><time>2026-04-26T15:08:43.496Z</time></trkpt><trkpt lat="44.8425033" lon="10.8262483"><ele>21.0</ele><time>2026-04-26T15:08:44.496Z</time></trkpt><trkpt lat="44.84255" lon="10.8261683"><ele>21.0</ele><time>2026-04-26T15:08:45.496Z</time></trkpt><trkpt lat="44.8425967" lon="10.8260883"><ele>21.0</ele><time>2026-04-26T15:08:46.495Z</time></trkpt><trkpt lat="44.8426483" lon="10.826005"><ele>21.0</ele><time>2026-04-26T15:08:47.495Z</time></trkpt><trkpt lat="44.8427017" lon="10.82593"><ele>21.0</ele><time>2026-04-26T15:08:48.495Z</time></trkpt><trkpt lat="44.8427533" lon="10.8258517"><ele>21.0</ele><time>2026-04-26T15:08:49.495Z</time></trkpt><trkpt lat="44.8427967" lon="10.8257733"><ele>21.0</ele><time>2026-04-26T15:08:50.496Z</time></trkpt><trkpt lat="44.8428417" lon="10.8256917"><ele>21.166666666666668</ele><time>2026-04-26T15:08:51.495Z</time></trkpt><trkpt lat="44.8428867" lon="10.8256133"><ele>21.333333333333332</ele><time>2026-04-26T15:08:52.495Z</time></trkpt><trkpt lat="44.8429333" lon="10.82554"><ele>21.5</ele><time>2026-04-26T15:08:53.495Z</time></trkpt><trkpt lat="44.842975" lon="10.8254717"><ele>21.666666666666664</ele><time>2026-04-26T15:08:54.495Z</time></trkpt><trkpt lat="44.8430217" lon="10.8254033"><ele>21.833333333333332</ele><time>2026-04-26T15:08:55.496Z</time></trkpt><trkpt lat="44.8430667" lon="10.82533"><ele>22.0</ele><time>2026-04-26T15:08:56.496Z</time></trkpt><trkpt lat="44.84315" lon="10.8252033"><ele>22.142857142857142</ele><time>2026-04-26T15:08:58.495Z</time></trkpt><trkpt lat="44.84319" lon="10.8251267"><ele>22.285714285714285</ele><time>2026-04-26T15:08:59.495Z</time></trkpt><trkpt lat="44.8432333" lon="10.8250583"><ele>22.42857142857143</ele><time>2026-04-26T15:09:00.495Z</time></trkpt><trkpt lat="44.84328" lon="10.8249833"><ele>22.57142857142857</ele><time>2026-04-26T15:09:01.496Z</time></trkpt><trkpt lat="44.843325" lon="10.82491"><ele>22.71428571428571</ele><time>2026-04-26T15:09:02.495Z</time></trkpt><trkpt lat="44.84337" lon="10.8248367"><ele>22.857142857142858</ele><time>2026-04-26T15:09:03.496Z</time></trkpt><trkpt lat="44.8434133" lon="10.8247633"><ele>23.0</ele><time>2026-04-26T15:09:04.496Z</time></trkpt><trkpt lat="44.843455" lon="10.8246883"><ele>22.833333333333336</ele><time>2026-04-26T15:09:05.495Z</time></trkpt><trkpt lat="44.8435367" lon="10.8245667"><ele>22.666666666666668</ele><time>2026-04-26T15:09:07.495Z</time></trkpt><trkpt lat="44.84362" lon="10.82443"><ele>22.5</ele><time>2026-04-26T15:09:09.496Z</time></trkpt><trkpt lat="44.8436683" lon="10.8243617"><ele>22.333333333333332</ele><time>2026-04-26T15:09:10.496Z</time></trkpt><trkpt lat="44.8437117" lon="10.8242917"><ele>22.166666666666664</ele><time>2026-04-26T15:09:11.495Z</time></trkpt><trkpt lat="44.843755" lon="10.82422"><ele>22.0</ele><time>2026-04-26T15:09:12.496Z</time></trkpt><trkpt lat="44.8437967" lon="10.8241467"><ele>21.833333333333332</ele><time>2026-04-26T15:09:13.495Z</time></trkpt><trkpt lat="44.8438417" lon="10.824075"><ele>21.666666666666664</ele><time>2026-04-26T15:09:14.495Z</time></trkpt><trkpt lat="44.8438867" lon="10.8240067"><ele>21.5</ele><time>2026-04-26T15:09:15.496Z</time></trkpt><trkpt lat="44.8439283" lon="10.8239383"><ele>21.333333333333332</ele><time>2026-04-26T15:09:16.495Z</time></trkpt><trkpt lat="44.8440017" lon="10.8238017"><ele>21.166666666666668</ele><time>2026-04-26T15:09:18.496Z</time></trkpt><trkpt lat="44.8440417" lon="10.8237283"><ele>21.0</ele><time>2026-04-26T15:09:19.496Z</time></trkpt><trkpt lat="44.8440833" lon="10.823655"><ele>21.0</ele><time>2026-04-26T15:09:20.496Z</time></trkpt><trkpt lat="44.844165" lon="10.82351"><ele>21.0</ele><time>2026-04-26T15:09:22.496Z</time></trkpt><trkpt lat="44.8442083" lon="10.8234333"><ele>21.0</ele><time>2026-04-26T15:09:23.496Z</time></trkpt><trkpt lat="44.8442583" lon="10.8233517"><ele>21.0</ele><time>2026-04-26T15:09:24.495Z</time></trkpt><trkpt lat="44.8443067" lon="10.8232817"><ele>21.0</ele><time>2026-04-26T15:09:25.496Z</time></trkpt><trkpt lat="44.844345" lon="10.8232083"><ele>21.0</ele><time>2026-04-26T15:09:26.495Z</time></trkpt><trkpt lat="44.8443883" lon="10.8231333"><ele>21.142857142857142</ele><time>2026-04-26T15:09:27.495Z</time></trkpt><trkpt lat="44.8444367" lon="10.8230667"><ele>21.285714285714285</ele><time>2026-04-26T15:09:28.496Z</time></trkpt><trkpt lat="44.8444867" lon="10.8229983"><ele>21.42857142857143</ele><time>2026-04-26T15:09:29.496Z</time></trkpt><trkpt lat="44.84453" lon="10.822925"><ele>21.57142857142857</ele><time>2026-04-26T15:09:30.495Z</time></trkpt><trkpt lat="44.8445717" lon="10.8228583"><ele>21.714285714285715</ele><time>2026-04-26T15:09:31.495Z</time></trkpt><trkpt lat="44.8446167" lon="10.82278"><ele>21.857142857142858</ele><time>2026-04-26T15:09:32.496Z</time></trkpt><trkpt lat="44.8446617" lon="10.8227017"><ele>22.0</ele><time>2026-04-26T15:09:33.496Z</time></trkpt><trkpt lat="44.8447067" lon="10.8226217"><ele>22.0</ele><time>2026-04-26T15:09:34.495Z</time></trkpt><trkpt lat="44.8447533" lon="10.8225467"><ele>22.0</ele><time>2026-04-26T15:09:35.496Z</time></trkpt><trkpt lat="44.8448017" lon="10.8224717"><ele>22.0</ele><time>2026-04-26T15:09:36.496Z</time></trkpt><trkpt lat="44.8448433" lon="10.8223933"><ele>22.0</ele><time>2026-04-26T15:09:37.496Z</time></trkpt><trkpt lat="44.8448917" lon="10.8223183"><ele>22.0</ele><time>2026-04-26T15:09:38.495Z</time></trkpt><trkpt lat="44.8449383" lon="10.8222483"><ele>22.0</ele><time>2026-04-26T15:09:39.495Z</time></trkpt><trkpt lat="44.844985" lon="10.8221883"><ele>22.0</ele><time>2026-04-26T15:09:40.495Z</time></trkpt><trkpt lat="44.8450683" lon="10.822065"><ele>21.5</ele><time>2026-04-26T15:09:42.495Z</time></trkpt><trkpt lat="44.84514" lon="10.8219317"><ele>21.0</ele><time>2026-04-26T15:09:44.495Z</time></trkpt><trkpt lat="44.8452167" lon="10.8218217"><ele>20.5</ele><time>2026-04-26T15:09:46.495Z</time></trkpt><trkpt lat="44.8452967" lon="10.8216933"><ele>20.0</ele><time>2026-04-26T15:09:48.496Z</time></trkpt><trkpt lat="44.8453683" lon="10.82159"><ele>19.8</ele><time>2026-04-26T15:09:50.495Z</time></trkpt><trkpt lat="44.8454233" lon="10.8215083"><ele>19.6</ele><time>2026-04-26T15:09:52.495Z</time></trkpt><trkpt lat="44.8455083" lon="10.82143"><ele>19.4</ele><time>2026-04-26T15:10:09.496Z</time></trkpt><trkpt lat="44.8455767" lon="10.8214967"><ele>19.2</ele><time>2026-04-26T15:10:11.495Z</time></trkpt><trkpt lat="44.8456667" lon="10.8216117"><ele>19.0</ele><time>2026-04-26T15:10:13.495Z</time></trkpt><trkpt lat="44.845725" lon="10.82168"><ele>19.0</ele><time>2026-04-26T15:10:14.496Z</time></trkpt><trkpt lat="44.84579" lon="10.8217617"><ele>19.0</ele><time>2026-04-26T15:10:15.496Z</time></trkpt><trkpt lat="44.8458617" lon="10.8218467"><ele>19.0</ele><time>2026-04-26T15:10:16.495Z</time></trkpt><trkpt lat="44.8459367" lon="10.8219367"><ele>19.0</ele><time>2026-04-26T15:10:17.496Z</time></trkpt><trkpt lat="44.8460167" lon="10.8220383"><ele>19.0</ele><time>2026-04-26T15:10:18.496Z</time></trkpt><trkpt lat="44.8461133" lon="10.8221583"><ele>19.0</ele><time>2026-04-26T15:10:19.495Z</time></trkpt><trkpt lat="44.8462167" lon="10.8222883"><ele>19.0</ele><time>2026-04-26T15:10:20.496Z</time></trkpt><trkpt lat="44.846325" lon="10.8224267"><ele>19.0</ele><time>2026-04-26T15:10:21.495Z</time></trkpt><trkpt lat="44.8464383" lon="10.822565"><ele>19.0</ele><time>2026-04-26T15:10:22.495Z</time></trkpt><trkpt lat="44.8465483" lon="10.8226983"><ele>19.0</ele><time>2026-04-26T15:10:23.496Z</time></trkpt><trkpt lat="44.8466467" lon="10.8228267"><ele>19.0</ele><time>2026-04-26T15:10:24.495Z</time></trkpt><trkpt lat="44.8467433" lon="10.8229567"><ele>19.0</ele><time>2026-04-26T15:10:25.496Z</time></trkpt><trkpt lat="44.8468333" lon="10.8230983"><ele>19.0</ele><time>2026-04-26T15:10:26.495Z</time></trkpt><trkpt lat="44.8469217" lon="10.8232517"><ele>19.0</ele><time>2026-04-26T15:10:27.496Z</time></trkpt><trkpt lat="44.84701" lon="10.8234067"><ele>19.0</ele><time>2026-04-26T15:10:28.495Z</time></trkpt><trkpt lat="44.8470967" lon="10.8235733"><ele>19.0</ele><time>2026-04-26T15:10:29.495Z</time></trkpt><trkpt lat="44.8471867" lon="10.8237417"><ele>19.0</ele><time>2026-04-26T15:10:30.496Z</time></trkpt><trkpt lat="44.8472767" lon="10.8239033"><ele>19.0</ele><time>2026-04-26T15:10:31.495Z</time></trkpt><trkpt lat="44.8473667" lon="10.82406"><ele>19.0</ele><time>2026-04-26T15:10:32.495Z</time></trkpt><trkpt lat="44.8474483" lon="10.8242067"><ele>19.0</ele><time>2026-04-26T15:10:33.495Z</time></trkpt><trkpt lat="44.847525" lon="10.82436"><ele>19.0</ele><time>2026-04-26T15:10:34.495Z</time></trkpt><trkpt lat="44.8476" lon="10.8245117"><ele>18.5</ele><time>2026-04-26T15:10:35.495Z</time></trkpt><trkpt lat="44.8476783" lon="10.8246567"><ele>18.0</ele><time>2026-04-26T15:10:36.495Z</time></trkpt><trkpt lat="44.8477533" lon="10.824795"><ele>17.5</ele><time>2026-04-26T15:10:37.496Z</time></trkpt><trkpt lat="44.8478317" lon="10.8249317"><ele>17.0</ele><time>2026-04-26T15:10:38.495Z</time></trkpt><trkpt lat="44.8479067" lon="10.8250733"><ele>17.25</ele><time>2026-04-26T15:10:39.495Z</time></trkpt><trkpt lat="44.8479767" lon="10.8252133"><ele>17.5</ele><time>2026-04-26T15:10:40.496Z</time></trkpt><trkpt lat="44.84805" lon="10.8253517"><ele>17.75</ele><time>2026-04-26T15:10:41.496Z</time></trkpt><trkpt lat="44.848125" lon="10.82548"><ele>18.0</ele><time>2026-04-26T15:10:42.496Z</time></trkpt><trkpt lat="44.8481967" lon="10.8256133"><ele>18.0</ele><time>2026-04-26T15:10:43.496Z</time></trkpt><trkpt lat="44.8482733" lon="10.8257483"><ele>18.0</ele><time>2026-04-26T15:10:44.495Z</time></trkpt><trkpt lat="44.84835" lon="10.8258867"><ele>18.0</ele><time>2026-04-26T15:10:45.495Z</time></trkpt><trkpt lat="44.8484267" lon="10.8260333"><ele>18.0</ele><time>2026-04-26T15:10:46.495Z</time></trkpt><trkpt lat="44.848505" lon="10.8261867"><ele>18.0</ele><time>2026-04-26T15:10:47.495Z</time></trkpt><trkpt lat="44.848585" lon="10.8263367"><ele>18.0</ele><time>2026-04-26T15:10:48.495Z</time></trkpt><trkpt lat="44.8486633" lon="10.8264867"><ele>18.0</ele><time>2026-04-26T15:10:49.495Z</time></trkpt><trkpt lat="44.8487467" lon="10.826635"><ele>18.0</ele><time>2026-04-26T15:10:50.495Z</time></trkpt><trkpt lat="44.8488317" lon="10.826785"><ele>18.0</ele><time>2026-04-26T15:10:51.496Z</time></trkpt><trkpt lat="44.8489167" lon="10.82694"><ele>18.0</ele><time>2026-04-26T15:10:52.495Z</time></trkpt><trkpt lat="44.849" lon="10.8270983"><ele>18.0</ele><time>2026-04-26T15:10:53.495Z</time></trkpt><trkpt lat="44.8490833" lon="10.8272517"><ele>18.0</ele><time>2026-04-26T15:10:54.496Z</time></trkpt><trkpt lat="44.8491717" lon="10.827405"><ele>18.0</ele><time>2026-04-26T15:10:55.496Z</time></trkpt><trkpt lat="44.8492617" lon="10.8275417"><ele>18.0</ele><time>2026-04-26T15:10:56.495Z</time></trkpt><trkpt lat="44.8493533" lon="10.82767"><ele>18.0</ele><time>2026-04-26T15:10:57.495Z</time></trkpt><trkpt lat="44.8494517" lon="10.8277783"><ele>18.0</ele><time>2026-04-26T15:10:58.495Z</time></trkpt><trkpt lat="44.8495483" lon="10.827875"><ele>18.6</ele><time>2026-04-26T15:10:59.495Z</time></trkpt><trkpt lat="44.8496333" lon="10.8279683"><ele>19.200000000000003</ele><time>2026-04-26T15:11:00.495Z</time></trkpt><trkpt lat="44.849715" lon="10.8280583"><ele>19.8</ele><time>2026-04-26T15:11:01.495Z</time></trkpt><trkpt lat="44.8497917" lon="10.8281533"><ele>20.400000000000002</ele><time>2026-04-26T15:11:02.495Z</time></trkpt><trkpt lat="44.8498617" lon="10.8282567"><ele>21.0</ele><time>2026-04-26T15:11:03.495Z</time></trkpt><trkpt lat="44.8499283" lon="10.828375"><ele>21.0</ele><time>2026-04-26T15:11:04.495Z</time></trkpt><trkpt lat="44.8499983" lon="10.828505"><ele>21.0</ele><time>2026-04-26T15:11:05.496Z</time></trkpt><trkpt lat="44.85007" lon="10.82864"><ele>21.0</ele><time>2026-04-26T15:11:06.495Z</time></trkpt><trkpt lat="44.850135" lon="10.8287833"><ele>21.0</ele><time>2026-04-26T15:11:07.496Z</time></trkpt><trkpt lat="44.8501983" lon="10.8289267"><ele>20.75</ele><time>2026-04-26T15:11:08.496Z</time></trkpt><trkpt lat="44.8502583" lon="10.8290767"><ele>20.5</ele><time>2026-04-26T15:11:09.496Z</time></trkpt><trkpt lat="44.850315" lon="10.82923"><ele>20.25</ele><time>2026-04-26T15:11:10.496Z</time></trkpt><trkpt lat="44.85038" lon="10.8293917"><ele>20.0</ele><time>2026-04-26T15:11:11.496Z</time></trkpt><trkpt lat="44.85045" lon="10.8295533"><ele>20.0</ele><time>2026-04-26T15:11:12.495Z</time></trkpt><trkpt lat="44.8505267" lon="10.829725"><ele>20.0</ele><time>2026-04-26T15:11:13.495Z</time></trkpt><trkpt lat="44.8506033" lon="10.8298867"><ele>20.0</ele><time>2026-04-26T15:11:14.496Z</time></trkpt><trkpt lat="44.8506867" lon="10.8300583"><ele>20.0</ele><time>2026-04-26T15:11:15.496Z</time></trkpt><trkpt lat="44.8507733" lon="10.8302283"><ele>19.75</ele><time>2026-04-26T15:11:16.496Z</time></trkpt><trkpt lat="44.8508583" lon="10.8303917"><ele>19.5</ele><time>2026-04-26T15:11:17.496Z</time></trkpt><trkpt lat="44.8509417" lon="10.8305483"><ele>19.25</ele><time>2026-04-26T15:11:18.496Z</time></trkpt><trkpt lat="44.851025" lon="10.8307017"><ele>19.0</ele><time>2026-04-26T15:11:19.495Z</time></trkpt><trkpt lat="44.8511133" lon="10.8308633"><ele>19.25</ele><time>2026-04-26T15:11:20.496Z</time></trkpt><trkpt lat="44.851195" lon="10.8310233"><ele>19.5</ele><time>2026-04-26T15:11:21.495Z</time></trkpt><trkpt lat="44.85128" lon="10.8311867"><ele>19.75</ele><time>2026-04-26T15:11:22.495Z</time></trkpt><trkpt lat="44.8513683" lon="10.8313533"><ele>20.0</ele><time>2026-04-26T15:11:23.496Z</time></trkpt><trkpt lat="44.8514517" lon="10.831515"><ele>20.0</ele><time>2026-04-26T15:11:24.495Z</time></trkpt><trkpt lat="44.8515383" lon="10.8316833"><ele>20.0</ele><time>2026-04-26T15:11:25.495Z</time></trkpt><trkpt lat="44.8516267" lon="10.83185"><ele>20.0</ele><time>2026-04-26T15:11:26.495Z</time></trkpt><trkpt lat="44.851715" lon="10.8320183"><ele>20.0</ele><time>2026-04-26T15:11:27.495Z</time></trkpt><trkpt lat="44.8518083" lon="10.8321867"><ele>19.75</ele><time>2026-04-26T15:11:28.495Z</time></trkpt><trkpt lat="44.8518967" lon="10.83235"><ele>19.5</ele><time>2026-04-26T15:11:29.495Z</time></trkpt><trkpt lat="44.851985" lon="10.8325167"><ele>19.25</ele><time>2026-04-26T15:11:30.495Z</time></trkpt><trkpt lat="44.852075" lon="10.8326833"><ele>19.0</ele><time>2026-04-26T15:11:31.495Z</time></trkpt><trkpt lat="44.8521633" lon="10.83285"><ele>18.666666666666664</ele><time>2026-04-26T15:11:32.496Z</time></trkpt><trkpt lat="44.8522517" lon="10.83302"><ele>18.333333333333332</ele><time>2026-04-26T15:11:33.495Z</time></trkpt><trkpt lat="44.8523417" lon="10.833195"><ele>18.0</ele><time>2026-04-26T15:11:34.496Z</time></trkpt><trkpt lat="44.8524317" lon="10.8333717"><ele>18.0</ele><time>2026-04-26T15:11:35.495Z</time></trkpt><trkpt lat="44.8525183" lon="10.833545"><ele>18.0</ele><time>2026-04-26T15:11:36.495Z</time></trkpt><trkpt lat="44.8526133" lon="10.8337217"><ele>18.0</ele><time>2026-04-26T15:11:37.495Z</time></trkpt><trkpt lat="44.852705" lon="10.8339"><ele>18.0</ele><time>2026-04-26T15:11:38.495Z</time></trkpt><trkpt lat="44.8527983" lon="10.8340783"><ele>18.0</ele><time>2026-04-26T15:11:39.496Z</time></trkpt><trkpt lat="44.8528917" lon="10.834255"><ele>18.0</ele><time>2026-04-26T15:11:40.495Z</time></trkpt><trkpt lat="44.8529817" lon="10.8344367"><ele>18.333333333333332</ele><time>2026-04-26T15:11:41.495Z</time></trkpt><trkpt lat="44.8530733" lon="10.8346167"><ele>18.666666666666664</ele><time>2026-04-26T15:11:42.496Z</time></trkpt><trkpt lat="44.853165" lon="10.834795"><ele>19.0</ele><time>2026-04-26T15:11:43.496Z</time></trkpt><trkpt lat="44.8532583" lon="10.8349783"><ele>19.25</ele><time>2026-04-26T15:11:44.496Z</time></trkpt><trkpt lat="44.8533417" lon="10.835155"><ele>19.5</ele><time>2026-04-26T15:11:45.496Z</time></trkpt><trkpt lat="44.853425" lon="10.8353233"><ele>19.75</ele><time>2026-04-26T15:11:46.495Z</time></trkpt><trkpt lat="44.85351" lon="10.835485"><ele>20.0</ele><time>2026-04-26T15:11:47.496Z</time></trkpt><trkpt lat="44.8535933" lon="10.83565"><ele>20.0</ele><time>2026-04-26T15:11:48.496Z</time></trkpt><trkpt lat="44.853675" lon="10.8358167"><ele>20.0</ele><time>2026-04-26T15:11:49.495Z</time></trkpt><trkpt lat="44.8537617" lon="10.8359883"><ele>20.0</ele><time>2026-04-26T15:11:50.496Z</time></trkpt><trkpt lat="44.8538433" lon="10.8361583"><ele>20.0</ele><time>2026-04-26T15:11:51.495Z</time></trkpt><trkpt lat="44.853925" lon="10.8363317"><ele>19.75</ele><time>2026-04-26T15:11:52.495Z</time></trkpt><trkpt lat="44.8540067" lon="10.8365067"><ele>19.5</ele><time>2026-04-26T15:11:53.496Z</time></trkpt><trkpt lat="44.8540917" lon="10.8366767"><ele>19.25</ele><time>2026-04-26T15:11:54.496Z</time></trkpt><trkpt lat="44.8541717" lon="10.8368333"><ele>19.0</ele><time>2026-04-26T15:11:55.496Z</time></trkpt><trkpt lat="44.854245" lon="10.8369867"><ele>18.75</ele><time>2026-04-26T15:11:56.495Z</time></trkpt><trkpt lat="44.8543167" lon="10.8371317"><ele>18.5</ele><time>2026-04-26T15:11:57.495Z</time></trkpt><trkpt lat="44.8543867" lon="10.83727"><ele>18.25</ele><time>2026-04-26T15:11:58.495Z</time></trkpt><trkpt lat="44.8544533" lon="10.83741"><ele>18.0</ele><time>2026-04-26T15:11:59.495Z</time></trkpt><trkpt lat="44.8545183" lon="10.8375383"><ele>18.25</ele><time>2026-04-26T15:12:00.496Z</time></trkpt><trkpt lat="44.85458" lon="10.83767"><ele>18.5</ele><time>2026-04-26T15:12:01.495Z</time></trkpt><trkpt lat="44.85464" lon="10.8377983"><ele>18.75</ele><time>2026-04-26T15:12:02.496Z</time></trkpt><trkpt lat="44.854705" lon="10.8379283"><ele>19.0</ele><time>2026-04-26T15:12:03.495Z</time></trkpt><trkpt lat="44.8547717" lon="10.8380667"><ele>19.0</ele><time>2026-04-26T15:12:04.495Z</time></trkpt><trkpt lat="44.85484" lon="10.838215"><ele>19.0</ele><time>2026-04-26T15:12:05.496Z</time></trkpt><trkpt lat="44.8549117" lon="10.8383617"><ele>19.0</ele><time>2026-04-26T15:12:06.495Z</time></trkpt><trkpt lat="44.854985" lon="10.8385117"><ele>19.0</ele><time>2026-04-26T15:12:07.495Z</time></trkpt><trkpt lat="44.8550633" lon="10.8386683"><ele>19.0</ele><time>2026-04-26T15:12:08.496Z</time></trkpt><trkpt lat="44.8551367" lon="10.83882"><ele>19.0</ele><time>2026-04-26T15:12:09.496Z</time></trkpt><trkpt lat="44.8552083" lon="10.8389617"><ele>19.0</ele><time>2026-04-26T15:12:10.496Z</time></trkpt><trkpt lat="44.85528" lon="10.8391067"><ele>19.0</ele><time>2026-04-26T15:12:11.495Z</time></trkpt><trkpt lat="44.8553483" lon="10.8392483"><ele>19.0</ele><time>2026-04-26T15:12:12.496Z</time></trkpt><trkpt lat="44.8554133" lon="10.8393767"><ele>19.0</ele><time>2026-04-26T15:12:13.495Z</time></trkpt><trkpt lat="44.8554717" lon="10.8394933"><ele>19.0</ele><time>2026-04-26T15:12:14.495Z</time></trkpt><trkpt lat="44.8555267" lon="10.8396017"><ele>19.0</ele><time>2026-04-26T15:12:15.496Z</time></trkpt><trkpt lat="44.8555783" lon="10.8397117"><ele>19.0</ele><time>2026-04-26T15:12:16.495Z</time></trkpt><trkpt lat="44.8556333" lon="10.8398133"><ele>19.0</ele><time>2026-04-26T15:12:17.495Z</time></trkpt><trkpt lat="44.855685" lon="10.8398933"><ele>19.0</ele><time>2026-04-26T15:12:18.496Z</time></trkpt><trkpt lat="44.8557683" lon="10.8399633"><ele>19.0</ele><time>2026-04-26T15:12:20.495Z</time></trkpt><trkpt lat="44.8558533" lon="10.839915"><ele>19.0</ele><time>2026-04-26T15:12:23.495Z</time></trkpt><trkpt lat="44.855925" lon="10.8398017"><ele>19.0</ele><time>2026-04-26T15:12:25.496Z</time></trkpt><trkpt lat="44.8559717" lon="10.83973"><ele>19.0</ele><time>2026-04-26T15:12:26.495Z</time></trkpt><trkpt lat="44.8560233" lon="10.8396533"><ele>19.0</ele><time>2026-04-26T15:12:27.496Z</time></trkpt><trkpt lat="44.85608" lon="10.8395683"><ele>19.0</ele><time>2026-04-26T15:12:28.496Z</time></trkpt><trkpt lat="44.8561433" lon="10.8394817"><ele>19.0</ele><time>2026-04-26T15:12:29.495Z</time></trkpt><trkpt lat="44.856205" lon="10.8393833"><ele>19.0</ele><time>2026-04-26T15:12:30.495Z</time></trkpt><trkpt lat="44.8562667" lon="10.8392817"><ele>19.0</ele><time>2026-04-26T15:12:31.496Z</time></trkpt><trkpt lat="44.8563283" lon="10.8391817"><ele>19.0</ele><time>2026-04-26T15:12:32.495Z</time></trkpt><trkpt lat="44.8563933" lon="10.8390817"><ele>19.0</ele><time>2026-04-26T15:12:33.495Z</time></trkpt><trkpt lat="44.8564617" lon="10.8389817"><ele>19.0</ele><time>2026-04-26T15:12:34.495Z</time></trkpt><trkpt lat="44.856525" lon="10.83888"><ele>19.0</ele><time>2026-04-26T15:12:35.496Z</time></trkpt><trkpt lat="44.8565883" lon="10.83878"><ele>19.0</ele><time>2026-04-26T15:12:36.496Z</time></trkpt><trkpt lat="44.856655" lon="10.8386817"><ele>19.0</ele><time>2026-04-26T15:12:37.496Z</time></trkpt><trkpt lat="44.8567283" lon="10.8385783"><ele>19.0</ele><time>2026-04-26T15:12:38.496Z</time></trkpt><trkpt lat="44.85679" lon="10.8384733"><ele>19.0</ele><time>2026-04-26T15:12:39.496Z</time></trkpt><trkpt lat="44.8568567" lon="10.8383683"><ele>19.0</ele><time>2026-04-26T15:12:40.495Z</time></trkpt><trkpt lat="44.8569217" lon="10.8382683"><ele>19.0</ele><time>2026-04-26T15:12:41.495Z</time></trkpt><trkpt lat="44.856975" lon="10.8381717"><ele>18.833333333333332</ele><time>2026-04-26T15:12:42.495Z</time></trkpt><trkpt lat="44.85703" lon="10.8380817"><ele>18.666666666666664</ele><time>2026-04-26T15:12:43.496Z</time></trkpt><trkpt lat="44.85709" lon="10.8379967"><ele>18.5</ele><time>2026-04-26T15:12:44.495Z</time></trkpt><trkpt lat="44.8571433" lon="10.8379133"><ele>18.333333333333332</ele><time>2026-04-26T15:12:45.495Z</time></trkpt><trkpt lat="44.85719" lon="10.837835"><ele>18.166666666666668</ele><time>2026-04-26T15:12:46.496Z</time></trkpt><trkpt lat="44.8572367" lon="10.8377617"><ele>18.0</ele><time>2026-04-26T15:12:47.496Z</time></trkpt><trkpt lat="44.857285" lon="10.837685"><ele>18.0</ele><time>2026-04-26T15:12:48.495Z</time></trkpt><trkpt lat="44.85734" lon="10.837605"><ele>18.0</ele><time>2026-04-26T15:12:49.496Z</time></trkpt><trkpt lat="44.8573983" lon="10.8375183"><ele>18.0</ele><time>2026-04-26T15:12:50.495Z</time></trkpt><trkpt lat="44.8574617" lon="10.837425"><ele>18.0</ele><time>2026-04-26T15:12:51.495Z</time></trkpt><trkpt lat="44.85752" lon="10.837335"><ele>18.0</ele><time>2026-04-26T15:12:52.495Z</time></trkpt><trkpt lat="44.85758" lon="10.8372467"><ele>18.0</ele><time>2026-04-26T15:12:53.495Z</time></trkpt><trkpt lat="44.85764" lon="10.83716"><ele>18.0</ele><time>2026-04-26T15:12:54.495Z</time></trkpt><trkpt lat="44.8576967" lon="10.83707"><ele>18.0</ele><time>2026-04-26T15:12:55.496Z</time></trkpt><trkpt lat="44.8577617" lon="10.8369833"><ele>18.0</ele><time>2026-04-26T15:12:56.496Z</time></trkpt><trkpt lat="44.8578183" lon="10.8369017"><ele>18.0</ele><time>2026-04-26T15:12:57.496Z</time></trkpt><trkpt lat="44.85787" lon="10.8368133"><ele>18.0</ele><time>2026-04-26T15:12:58.496Z</time></trkpt><trkpt lat="44.857925" lon="10.8367267"><ele>18.0</ele><time>2026-04-26T15:12:59.495Z</time></trkpt><trkpt lat="44.85798" lon="10.8366367"><ele>18.0</ele><time>2026-04-26T15:13:00.496Z</time></trkpt><trkpt lat="44.85804" lon="10.8365467"><ele>18.0</ele><time>2026-04-26T15:13:01.496Z</time></trkpt><trkpt lat="44.8580983" lon="10.8364533"><ele>18.0</ele><time>2026-04-26T15:13:02.495Z</time></trkpt><trkpt lat="44.858155" lon="10.83636"><ele>18.0</ele><time>2026-04-26T15:13:03.495Z</time></trkpt><trkpt lat="44.85821" lon="10.8362783"><ele>18.0</ele><time>2026-04-26T15:13:04.496Z</time></trkpt><trkpt lat="44.858265" lon="10.8361967"><ele>18.0</ele><time>2026-04-26T15:13:05.496Z</time></trkpt><trkpt lat="44.8583183" lon="10.836115"><ele>18.000000000000004</ele><time>2026-04-26T15:13:06.496Z</time></trkpt><trkpt lat="44.8583617" lon="10.8360433"><ele>18.0</ele><time>2026-04-26T15:13:07.496Z</time></trkpt><trkpt lat="44.8584083" lon="10.8359733"><ele>18.0</ele><time>2026-04-26T15:13:08.496Z</time></trkpt><trkpt lat="44.8584583" lon="10.8359"><ele>18.0</ele><time>2026-04-26T15:13:09.496Z</time></trkpt><trkpt lat="44.85851" lon="10.8358267"><ele>18.0</ele><time>2026-04-26T15:13:10.496Z</time></trkpt><trkpt lat="44.8585667" lon="10.8357467"><ele>18.000000000000004</ele><time>2026-04-26T15:13:11.495Z</time></trkpt><trkpt lat="44.8586283" lon="10.8356633"><ele>18.0</ele><time>2026-04-26T15:13:12.495Z</time></trkpt><trkpt lat="44.8586833" lon="10.8355767"><ele>18.0</ele><time>2026-04-26T15:13:13.496Z</time></trkpt><trkpt lat="44.8587433" lon="10.835485"><ele>18.0</ele><time>2026-04-26T15:13:14.496Z</time></trkpt><trkpt lat="44.8588" lon="10.8353933"><ele>18.0</ele><time>2026-04-26T15:13:15.496Z</time></trkpt><trkpt lat="44.8588533" lon="10.8353033"><ele>18.0</ele><time>2026-04-26T15:13:16.496Z</time></trkpt><trkpt lat="44.858905" lon="10.83521"><ele>18.0</ele><time>2026-04-26T15:13:17.495Z</time></trkpt><trkpt lat="44.858945" lon="10.8351183"><ele>18.0</ele><time>2026-04-26T15:13:18.496Z</time></trkpt><trkpt lat="44.8589833" lon="10.83502"><ele>18.0</ele><time>2026-04-26T15:13:19.495Z</time></trkpt><trkpt lat="44.85903" lon="10.8349167"><ele>18.0</ele><time>2026-04-26T15:13:20.495Z</time></trkpt><trkpt lat="44.8590717" lon="10.8348017"><ele>18.0</ele><time>2026-04-26T15:13:21.495Z</time></trkpt><trkpt lat="44.8591067" lon="10.834685"><ele>18.0</ele><time>2026-04-26T15:13:22.496Z</time></trkpt><trkpt lat="44.8591433" lon="10.8345717"><ele>18.0</ele><time>2026-04-26T15:13:23.495Z</time></trkpt><trkpt lat="44.8591783" lon="10.8344467"><ele>18.0</ele><time>2026-04-26T15:13:24.496Z</time></trkpt><trkpt lat="44.8592083" lon="10.8343283"><ele>18.0</ele><time>2026-04-26T15:13:25.495Z</time></trkpt><trkpt lat="44.8592383" lon="10.8342117"><ele>18.0</ele><time>2026-04-26T15:13:26.495Z</time></trkpt><trkpt lat="44.859265" lon="10.8340983"><ele>18.0</ele><time>2026-04-26T15:13:27.495Z</time></trkpt><trkpt lat="44.8592983" lon="10.8339867"><ele>18.0</ele><time>2026-04-26T15:13:28.495Z</time></trkpt><trkpt lat="44.8593333" lon="10.8338767"><ele>18.0</ele><time>2026-04-26T15:13:29.496Z</time></trkpt><trkpt lat="44.8593667" lon="10.833765"><ele>18.000000000000004</ele><time>2026-04-26T15:13:30.496Z</time></trkpt><trkpt lat="44.85939" lon="10.8336583"><ele>18.0</ele><time>2026-04-26T15:13:31.496Z</time></trkpt><trkpt lat="44.8594083" lon="10.83356"><ele>18.0</ele><time>2026-04-26T15:13:32.495Z</time></trkpt><trkpt lat="44.859435" lon="10.83346"><ele>18.0</ele><time>2026-04-26T15:13:33.495Z</time></trkpt><trkpt lat="44.8594633" lon="10.8333717"><ele>18.0</ele><time>2026-04-26T15:13:34.495Z</time></trkpt><trkpt lat="44.8594883" lon="10.8332783"><ele>18.000000000000004</ele><time>2026-04-26T15:13:35.495Z</time></trkpt><trkpt lat="44.85951" lon="10.8331883"><ele>18.0</ele><time>2026-04-26T15:13:36.495Z</time></trkpt><trkpt lat="44.8595333" lon="10.833105"><ele>18.0</ele><time>2026-04-26T15:13:37.496Z</time></trkpt><trkpt lat="44.8595817" lon="10.8329583"><ele>18.0</ele><time>2026-04-26T15:13:39.495Z</time></trkpt><trkpt lat="44.859625" lon="10.8328"><ele>18.0</ele><time>2026-04-26T15:13:41.495Z</time></trkpt><trkpt lat="44.8596483" lon="10.8327167"><ele>18.0</ele><time>2026-04-26T15:13:42.495Z</time></trkpt><trkpt lat="44.859695" lon="10.83255"><ele>18.0</ele><time>2026-04-26T15:13:44.495Z</time></trkpt><trkpt lat="44.859715" lon="10.832465"><ele>17.8</ele><time>2026-04-26T15:13:45.496Z</time></trkpt><trkpt lat="44.859755" lon="10.8323117"><ele>17.6</ele><time>2026-04-26T15:13:47.496Z</time></trkpt><trkpt lat="44.8597817" lon="10.83223"><ele>17.4</ele><time>2026-04-26T15:13:48.495Z</time></trkpt><trkpt lat="44.8598217" lon="10.8320933"><ele>17.2</ele><time>2026-04-26T15:13:50.496Z</time></trkpt><trkpt lat="44.8598533" lon="10.8319617"><ele>17.0</ele><time>2026-04-26T15:13:52.495Z</time></trkpt><trkpt lat="44.8598883" lon="10.83181"><ele>17.4</ele><time>2026-04-26T15:13:54.496Z</time></trkpt><trkpt lat="44.8599317" lon="10.83164"><ele>17.799999999999997</ele><time>2026-04-26T15:13:56.495Z</time></trkpt><trkpt lat="44.85995" lon="10.8315517"><ele>18.2</ele><time>2026-04-26T15:13:57.495Z</time></trkpt><trkpt lat="44.859995" lon="10.831395"><ele>18.599999999999998</ele><time>2026-04-26T15:13:59.494Z</time></trkpt><trkpt lat="44.86004" lon="10.8312267"><ele>19.0</ele><time>2026-04-26T15:14:01.494Z</time></trkpt><trkpt lat="44.8600717" lon="10.8311417"><ele>19.0</ele><time>2026-04-26T15:14:02.495Z</time></trkpt><trkpt lat="44.8601017" lon="10.8310483"><ele>19.0</ele><time>2026-04-26T15:14:03.495Z</time></trkpt><trkpt lat="44.8601267" lon="10.8309533"><ele>19.0</ele><time>2026-04-26T15:14:04.495Z</time></trkpt><trkpt lat="44.8601483" lon="10.8308617"><ele>19.0</ele><time>2026-04-26T15:14:05.495Z</time></trkpt><trkpt lat="44.8601883" lon="10.8307017"><ele>19.0</ele><time>2026-04-26T15:14:07.494Z</time></trkpt><trkpt lat="44.8602083" lon="10.8306167"><ele>19.0</ele><time>2026-04-26T15:14:08.494Z</time></trkpt><trkpt lat="44.8602483" lon="10.830475"><ele>19.0</ele><time>2026-04-26T15:14:10.494Z</time></trkpt><trkpt lat="44.860275" lon="10.8303917"><ele>19.0</ele><time>2026-04-26T15:14:11.495Z</time></trkpt><trkpt lat="44.860295" lon="10.8303067"><ele>19.0</ele><time>2026-04-26T15:14:12.494Z</time></trkpt><trkpt lat="44.8603133" lon="10.8302133"><ele>19.0</ele><time>2026-04-26T15:14:13.494Z</time></trkpt><trkpt lat="44.8603317" lon="10.830115"><ele>19.0</ele><time>2026-04-26T15:14:14.494Z</time></trkpt><trkpt lat="44.8603567" lon="10.8300183"><ele>19.0</ele><time>2026-04-26T15:14:15.495Z</time></trkpt><trkpt lat="44.8603833" lon="10.8299217"><ele>19.0</ele><time>2026-04-26T15:14:16.495Z</time></trkpt><trkpt lat="44.8604083" lon="10.82983"><ele>19.0</ele><time>2026-04-26T15:14:17.495Z</time></trkpt><trkpt lat="44.8604383" lon="10.8297367"><ele>19.0</ele><time>2026-04-26T15:14:18.494Z</time></trkpt><trkpt lat="44.8604617" lon="10.8296517"><ele>19.0</ele><time>2026-04-26T15:14:19.495Z</time></trkpt><trkpt lat="44.860505" lon="10.8295"><ele>19.0</ele><time>2026-04-26T15:14:21.495Z</time></trkpt><trkpt lat="44.8605433" lon="10.8293567"><ele>19.0</ele><time>2026-04-26T15:14:23.494Z</time></trkpt><trkpt lat="44.8605883" lon="10.8291917"><ele>19.2</ele><time>2026-04-26T15:14:25.494Z</time></trkpt><trkpt lat="44.86063" lon="10.8290417"><ele>19.4</ele><time>2026-04-26T15:14:27.495Z</time></trkpt><trkpt lat="44.8606817" lon="10.8289017"><ele>19.6</ele><time>2026-04-26T15:14:29.495Z</time></trkpt><trkpt lat="44.8607333" lon="10.8287783"><ele>19.8</ele><time>2026-04-26T15:14:31.494Z</time></trkpt><trkpt lat="44.860795" lon="10.8286667"><ele>20.0</ele><time>2026-04-26T15:14:33.495Z</time></trkpt><trkpt lat="44.86086" lon="10.82859"><ele>19.8</ele><time>2026-04-26T15:14:35.494Z</time></trkpt><trkpt lat="44.8609517" lon="10.828545"><ele>19.6</ele><time>2026-04-26T15:14:37.494Z</time></trkpt><trkpt lat="44.8610683" lon="10.8285333"><ele>19.4</ele><time>2026-04-26T15:14:39.494Z</time></trkpt><trkpt lat="44.8611717" lon="10.8285467"><ele>19.2</ele><time>2026-04-26T15:14:41.495Z</time></trkpt><trkpt lat="44.8612783" lon="10.8285783"><ele>19.0</ele><time>2026-04-26T15:14:43.494Z</time></trkpt><trkpt lat="44.8613983" lon="10.8286167"><ele>19.0</ele><time>2026-04-26T15:14:45.494Z</time></trkpt><trkpt lat="44.861465" lon="10.8286433"><ele>19.0</ele><time>2026-04-26T15:14:46.495Z</time></trkpt><trkpt lat="44.8615383" lon="10.8286733"><ele>19.0</ele><time>2026-04-26T15:14:47.494Z</time></trkpt><trkpt lat="44.861615" lon="10.8287"><ele>19.0</ele><time>2026-04-26T15:14:48.494Z</time></trkpt><trkpt lat="44.8616883" lon="10.82872"><ele>19.0</ele><time>2026-04-26T15:14:49.494Z</time></trkpt><trkpt lat="44.861765" lon="10.8287467"><ele>19.0</ele><time>2026-04-26T15:14:50.494Z</time></trkpt><trkpt lat="44.861845" lon="10.8287783"><ele>19.0</ele><time>2026-04-26T15:14:51.495Z</time></trkpt><trkpt lat="44.8619183" lon="10.8288017"><ele>19.0</ele><time>2026-04-26T15:14:52.495Z</time></trkpt><trkpt lat="44.8619867" lon="10.8288333"><ele>19.0</ele><time>2026-04-26T15:14:53.495Z</time></trkpt><trkpt lat="44.8620583" lon="10.82886"><ele>19.0</ele><time>2026-04-26T15:14:54.495Z</time></trkpt><trkpt lat="44.86212" lon="10.828895"><ele>19.0</ele><time>2026-04-26T15:14:55.495Z</time></trkpt><trkpt lat="44.8622367" lon="10.828935"><ele>19.0</ele><time>2026-04-26T15:14:57.494Z</time></trkpt><trkpt lat="44.8622967" lon="10.8289633"><ele>19.0</ele><time>2026-04-26T15:14:58.495Z</time></trkpt><trkpt lat="44.8623633" lon="10.8289833"><ele>19.0</ele><time>2026-04-26T15:14:59.494Z</time></trkpt><trkpt lat="44.862425" lon="10.829005"><ele>19.0</ele><time>2026-04-26T15:15:00.495Z</time></trkpt><trkpt lat="44.8624933" lon="10.8290283"><ele>19.0</ele><time>2026-04-26T15:15:01.495Z</time></trkpt><trkpt lat="44.8625567" lon="10.8290583"><ele>19.0</ele><time>2026-04-26T15:15:02.495Z</time></trkpt><trkpt lat="44.86262" lon="10.8290833"><ele>19.0</ele><time>2026-04-26T15:15:03.495Z</time></trkpt><trkpt lat="44.8626867" lon="10.82911"><ele>19.0</ele><time>2026-04-26T15:15:04.495Z</time></trkpt><trkpt lat="44.8627567" lon="10.829135"><ele>18.857142857142858</ele><time>2026-04-26T15:15:05.495Z</time></trkpt><trkpt lat="44.8628283" lon="10.8291633"><ele>18.714285714285715</ele><time>2026-04-26T15:15:06.494Z</time></trkpt><trkpt lat="44.8628967" lon="10.8291883"><ele>18.571428571428573</ele><time>2026-04-26T15:15:07.495Z</time></trkpt><trkpt lat="44.8629633" lon="10.8292117"><ele>18.42857142857143</ele><time>2026-04-26T15:15:08.495Z</time></trkpt><trkpt lat="44.8630267" lon="10.8292367"><ele>18.285714285714285</ele><time>2026-04-26T15:15:09.494Z</time></trkpt><trkpt lat="44.863095" lon="10.8292583"><ele>18.142857142857146</ele><time>2026-04-26T15:15:10.494Z</time></trkpt><trkpt lat="44.8631633" lon="10.8292783"><ele>18.0</ele><time>2026-04-26T15:15:11.495Z</time></trkpt><trkpt lat="44.863235" lon="10.829305"><ele>18.142857142857146</ele><time>2026-04-26T15:15:12.495Z</time></trkpt><trkpt lat="44.8633033" lon="10.82933"><ele>18.285714285714285</ele><time>2026-04-26T15:15:13.495Z</time></trkpt><trkpt lat="44.8633667" lon="10.829355"><ele>18.42857142857143</ele><time>2026-04-26T15:15:14.495Z</time></trkpt><trkpt lat="44.8634333" lon="10.829385"><ele>18.571428571428573</ele><time>2026-04-26T15:15:15.494Z</time></trkpt><trkpt lat="44.8635033" lon="10.8294117"><ele>18.714285714285715</ele><time>2026-04-26T15:15:16.495Z</time></trkpt><trkpt lat="44.8635817" lon="10.8294433"><ele>18.857142857142858</ele><time>2026-04-26T15:15:17.495Z</time></trkpt><trkpt lat="44.86366" lon="10.8294683"><ele>19.0</ele><time>2026-04-26T15:15:18.494Z</time></trkpt><trkpt lat="44.8637333" lon="10.8294967"><ele>19.333333333333332</ele><time>2026-04-26T15:15:19.495Z</time></trkpt><trkpt lat="44.8638083" lon="10.8295183"><ele>19.666666666666664</ele><time>2026-04-26T15:15:20.494Z</time></trkpt><trkpt lat="44.8638817" lon="10.82954"><ele>20.0</ele><time>2026-04-26T15:15:21.494Z</time></trkpt><trkpt lat="44.8639583" lon="10.8295717"><ele>20.333333333333332</ele><time>2026-04-26T15:15:22.495Z</time></trkpt><trkpt lat="44.8640383" lon="10.8295917"><ele>20.666666666666668</ele><time>2026-04-26T15:15:23.495Z</time></trkpt><trkpt lat="44.8641183" lon="10.829615"><ele>21.0</ele><time>2026-04-26T15:15:24.494Z</time></trkpt><trkpt lat="44.8642033" lon="10.82963"><ele>20.666666666666668</ele><time>2026-04-26T15:15:25.494Z</time></trkpt><trkpt lat="44.8642867" lon="10.8296417"><ele>20.333333333333332</ele><time>2026-04-26T15:15:26.494Z</time></trkpt><trkpt lat="44.8643683" lon="10.829655"><ele>20.0</ele><time>2026-04-26T15:15:27.495Z</time></trkpt><trkpt lat="44.8644517" lon="10.8296683"><ele>19.666666666666664</ele><time>2026-04-26T15:15:28.494Z</time></trkpt><trkpt lat="44.8645333" lon="10.82968"><ele>19.333333333333332</ele><time>2026-04-26T15:15:29.494Z</time></trkpt><trkpt lat="44.8646167" lon="10.82969"><ele>19.0</ele><time>2026-04-26T15:15:30.495Z</time></trkpt><trkpt lat="44.8646933" lon="10.8297017"><ele>19.0</ele><time>2026-04-26T15:15:31.494Z</time></trkpt><trkpt lat="44.8647767" lon="10.8297067"><ele>19.0</ele><time>2026-04-26T15:15:32.494Z</time></trkpt><trkpt lat="44.8648667" lon="10.8297167"><ele>19.0</ele><time>2026-04-26T15:15:33.495Z</time></trkpt><trkpt lat="44.8649567" lon="10.82972"><ele>19.0</ele><time>2026-04-26T15:15:34.494Z</time></trkpt><trkpt lat="44.8650533" lon="10.82972"><ele>19.0</ele><time>2026-04-26T15:15:35.494Z</time></trkpt><trkpt lat="44.865145" lon="10.8297267"><ele>19.166666666666664</ele><time>2026-04-26T15:15:36.494Z</time></trkpt><trkpt lat="44.8652367" lon="10.8297317"><ele>19.333333333333332</ele><time>2026-04-26T15:15:37.495Z</time></trkpt><trkpt lat="44.865325" lon="10.8297333"><ele>19.5</ele><time>2026-04-26T15:15:38.495Z</time></trkpt><trkpt lat="44.8654067" lon="10.829735"><ele>19.666666666666668</ele><time>2026-04-26T15:15:39.494Z</time></trkpt><trkpt lat="44.865485" lon="10.82974"><ele>19.833333333333336</ele><time>2026-04-26T15:15:40.495Z</time></trkpt><trkpt lat="44.8655583" lon="10.8297483"><ele>20.0</ele><time>2026-04-26T15:15:41.495Z</time></trkpt><trkpt lat="44.8656283" lon="10.82975"><ele>20.0</ele><time>2026-04-26T15:15:42.495Z</time></trkpt><trkpt lat="44.865695" lon="10.8297483"><ele>20.0</ele><time>2026-04-26T15:15:43.495Z</time></trkpt><trkpt lat="44.86577" lon="10.829755"><ele>20.0</ele><time>2026-04-26T15:15:44.495Z</time></trkpt><trkpt lat="44.86584" lon="10.8297517"><ele>20.0</ele><time>2026-04-26T15:15:45.495Z</time></trkpt><trkpt lat="44.8659083" lon="10.8297533"><ele>20.0</ele><time>2026-04-26T15:15:46.495Z</time></trkpt><trkpt lat="44.865975" lon="10.82975"><ele>20.0</ele><time>2026-04-26T15:15:47.494Z</time></trkpt><trkpt lat="44.8660467" lon="10.82976"><ele>20.0</ele><time>2026-04-26T15:15:48.494Z</time></trkpt><trkpt lat="44.866115" lon="10.82977"><ele>20.0</ele><time>2026-04-26T15:15:49.494Z</time></trkpt><trkpt lat="44.86618" lon="10.829775"><ele>20.0</ele><time>2026-04-26T15:15:50.494Z</time></trkpt><trkpt lat="44.8663" lon="10.829785"><ele>20.0</ele><time>2026-04-26T15:15:52.494Z</time></trkpt><trkpt lat="44.866365" lon="10.8297867"><ele>20.0</ele><time>2026-04-26T15:15:53.495Z</time></trkpt><trkpt lat="44.86643" lon="10.8297883"><ele>20.0</ele><time>2026-04-26T15:15:54.494Z</time></trkpt><trkpt lat="44.8664933" lon="10.8297917"><ele>20.0</ele><time>2026-04-26T15:15:55.495Z</time></trkpt><trkpt lat="44.8665583" lon="10.829795"><ele>20.0</ele><time>2026-04-26T15:15:56.494Z</time></trkpt><trkpt lat="44.8666717" lon="10.829795"><ele>20.0</ele><time>2026-04-26T15:15:58.494Z</time></trkpt><trkpt lat="44.8667633" lon="10.8297917"><ele>20.0</ele><time>2026-04-26T15:16:00.494Z</time></trkpt><trkpt lat="44.86683" lon="10.8297867"><ele>20.0</ele><time>2026-04-26T15:16:02.494Z</time></trkpt><trkpt lat="44.8668917" lon="10.8297283"><ele>20.0</ele><time>2026-04-26T15:16:05.495Z</time></trkpt><trkpt lat="44.866915" lon="10.8295933"><ele>20.0</ele><time>2026-04-26T15:16:07.495Z</time></trkpt><trkpt lat="44.8669233" lon="10.8294933"><ele>20.0</ele><time>2026-04-26T15:16:08.494Z</time></trkpt><trkpt lat="44.86693" lon="10.829395"><ele>20.0</ele><time>2026-04-26T15:16:09.494Z</time></trkpt><trkpt lat="44.86694" lon="10.8292917"><ele>20.0</ele><time>2026-04-26T15:16:10.494Z</time></trkpt><trkpt lat="44.86695" lon="10.8291717"><ele>20.0</ele><time>2026-04-26T15:16:11.494Z</time></trkpt><trkpt lat="44.8669633" lon="10.8290383"><ele>20.0</ele><time>2026-04-26T15:16:12.494Z</time></trkpt><trkpt lat="44.866975" lon="10.8289"><ele>20.0</ele><time>2026-04-26T15:16:13.495Z</time></trkpt><trkpt lat="44.866985" lon="10.8287533"><ele>20.0</ele><time>2026-04-26T15:16:14.495Z</time></trkpt><trkpt lat="44.8669983" lon="10.8285917"><ele>20.0</ele><time>2026-04-26T15:16:15.495Z</time></trkpt><trkpt lat="44.8670167" lon="10.8284217"><ele>20.0</ele><time>2026-04-26T15:16:16.495Z</time></trkpt><trkpt lat="44.867035" lon="10.8282583"><ele>20.0</ele><time>2026-04-26T15:16:17.495Z</time></trkpt><trkpt lat="44.8670483" lon="10.8281117"><ele>20.2</ele><time>2026-04-26T15:16:18.495Z</time></trkpt><trkpt lat="44.86706" lon="10.827975"><ele>20.4</ele><time>2026-04-26T15:16:19.494Z</time></trkpt><trkpt lat="44.8670733" lon="10.8278267"><ele>20.6</ele><time>2026-04-26T15:16:20.495Z</time></trkpt><trkpt lat="44.8670833" lon="10.8276683"><ele>20.8</ele><time>2026-04-26T15:16:21.495Z</time></trkpt><trkpt lat="44.8671017" lon="10.8275067"><ele>21.0</ele><time>2026-04-26T15:16:22.495Z</time></trkpt><trkpt lat="44.8671217" lon="10.8273367"><ele>21.0</ele><time>2026-04-26T15:16:23.494Z</time></trkpt><trkpt lat="44.8671483" lon="10.8271617"><ele>21.0</ele><time>2026-04-26T15:16:24.494Z</time></trkpt><trkpt lat="44.8671767" lon="10.8269783"><ele>21.0</ele><time>2026-04-26T15:16:25.494Z</time></trkpt><trkpt lat="44.8672067" lon="10.8267967"><ele>21.0</ele><time>2026-04-26T15:16:26.494Z</time></trkpt><trkpt lat="44.86723" lon="10.82662"><ele>20.75</ele><time>2026-04-26T15:16:27.495Z</time></trkpt><trkpt lat="44.867255" lon="10.8264417"><ele>20.5</ele><time>2026-04-26T15:16:28.494Z</time></trkpt><trkpt lat="44.8672783" lon="10.8262617"><ele>20.25</ele><time>2026-04-26T15:16:29.494Z</time></trkpt><trkpt lat="44.8673033" lon="10.82609"><ele>20.0</ele><time>2026-04-26T15:16:30.494Z</time></trkpt><trkpt lat="44.86733" lon="10.82593"><ele>20.0</ele><time>2026-04-26T15:16:31.495Z</time></trkpt><trkpt lat="44.8673583" lon="10.8257733"><ele>20.0</ele><time>2026-04-26T15:16:32.494Z</time></trkpt><trkpt lat="44.867385" lon="10.825625"><ele>20.0</ele><time>2026-04-26T15:16:33.494Z</time></trkpt><trkpt lat="44.8674067" lon="10.825475"><ele>20.0</ele><time>2026-04-26T15:16:34.494Z</time></trkpt><trkpt lat="44.867425" lon="10.8253233"><ele>20.0</ele><time>2026-04-26T15:16:35.494Z</time></trkpt><trkpt lat="44.8674517" lon="10.8251717"><ele>20.75</ele><time>2026-04-26T15:16:36.494Z</time></trkpt><trkpt lat="44.8674767" lon="10.825015"><ele>21.5</ele><time>2026-04-26T15:16:37.495Z</time></trkpt><trkpt lat="44.8675033" lon="10.8248483"><ele>22.25</ele><time>2026-04-26T15:16:38.494Z</time></trkpt><trkpt lat="44.867535" lon="10.8246767"><ele>23.0</ele><time>2026-04-26T15:16:39.494Z</time></trkpt><trkpt lat="44.867565" lon="10.824505"><ele>23.0</ele><time>2026-04-26T15:16:40.494Z</time></trkpt><trkpt lat="44.8676" lon="10.824335"><ele>23.0</ele><time>2026-04-26T15:16:41.495Z</time></trkpt><trkpt lat="44.8676367" lon="10.8241617"><ele>23.0</ele><time>2026-04-26T15:16:42.494Z</time></trkpt><trkpt lat="44.86767" lon="10.823985"><ele>23.0</ele><time>2026-04-26T15:16:43.495Z</time></trkpt><trkpt lat="44.8677017" lon="10.8238033"><ele>22.75</ele><time>2026-04-26T15:16:44.495Z</time></trkpt><trkpt lat="44.8677367" lon="10.82363"><ele>22.5</ele><time>2026-04-26T15:16:45.495Z</time></trkpt><trkpt lat="44.8677717" lon="10.823455"><ele>22.25</ele><time>2026-04-26T15:16:46.494Z</time></trkpt><trkpt lat="44.8678067" lon="10.823275"><ele>22.0</ele><time>2026-04-26T15:16:47.495Z</time></trkpt><trkpt lat="44.8678367" lon="10.82311"><ele>22.0</ele><time>2026-04-26T15:16:48.495Z</time></trkpt><trkpt lat="44.8678683" lon="10.82296"><ele>22.0</ele><time>2026-04-26T15:16:49.495Z</time></trkpt><trkpt lat="44.867895" lon="10.8228233"><ele>22.0</ele><time>2026-04-26T15:16:50.494Z</time></trkpt><trkpt lat="44.8679283" lon="10.8226933"><ele>22.0</ele><time>2026-04-26T15:16:51.495Z</time></trkpt><trkpt lat="44.8679517" lon="10.82257"><ele>22.0</ele><time>2026-04-26T15:16:52.494Z</time></trkpt><trkpt lat="44.8679733" lon="10.822455"><ele>21.8</ele><time>2026-04-26T15:16:53.495Z</time></trkpt><trkpt lat="44.8679967" lon="10.8223417"><ele>21.6</ele><time>2026-04-26T15:16:54.494Z</time></trkpt><trkpt lat="44.8680233" lon="10.822215"><ele>21.400000000000002</ele><time>2026-04-26T15:16:55.494Z</time></trkpt><trkpt lat="44.86805" lon="10.82209"><ele>21.200000000000003</ele><time>2026-04-26T15:16:56.494Z</time></trkpt><trkpt lat="44.868075" lon="10.8219617"><ele>21.0</ele><time>2026-04-26T15:16:57.494Z</time></trkpt><trkpt lat="44.8681017" lon="10.8218333"><ele>20.8</ele><time>2026-04-26T15:16:58.495Z</time></trkpt><trkpt lat="44.86813" lon="10.8217"><ele>20.6</ele><time>2026-04-26T15:16:59.495Z</time></trkpt><trkpt lat="44.8681583" lon="10.821575"><ele>20.4</ele><time>2026-04-26T15:17:00.494Z</time></trkpt><trkpt lat="44.8681867" lon="10.8214533"><ele>20.2</ele><time>2026-04-26T15:17:01.494Z</time></trkpt><trkpt lat="44.8682133" lon="10.821335"><ele>20.0</ele><time>2026-04-26T15:17:02.495Z</time></trkpt><trkpt lat="44.8682317" lon="10.8212217"><ele>20.0</ele><time>2026-04-26T15:17:03.494Z</time></trkpt><trkpt lat="44.8682567" lon="10.821105"><ele>20.0</ele><time>2026-04-26T15:17:04.494Z</time></trkpt><trkpt lat="44.8682833" lon="10.8209933"><ele>20.0</ele><time>2026-04-26T15:17:05.494Z</time></trkpt><trkpt lat="44.868305" lon="10.820885"><ele>20.0</ele><time>2026-04-26T15:17:06.495Z</time></trkpt><trkpt lat="44.868325" lon="10.8207767"><ele>20.0</ele><time>2026-04-26T15:17:07.495Z</time></trkpt><trkpt lat="44.8683483" lon="10.8206667"><ele>20.0</ele><time>2026-04-26T15:17:08.495Z</time></trkpt><trkpt lat="44.86837" lon="10.8205567"><ele>20.0</ele><time>2026-04-26T15:17:09.495Z</time></trkpt><trkpt lat="44.8683867" lon="10.8204517"><ele>20.0</ele><time>2026-04-26T15:17:10.494Z</time></trkpt><trkpt lat="44.8684083" lon="10.8203483"><ele>20.0</ele><time>2026-04-26T15:17:11.494Z</time></trkpt><trkpt lat="44.8684317" lon="10.8202417"><ele>20.0</ele><time>2026-04-26T15:17:12.494Z</time></trkpt><trkpt lat="44.8684583" lon="10.8201333"><ele>20.0</ele><time>2026-04-26T15:17:13.494Z</time></trkpt><trkpt lat="44.8684783" lon="10.82002"><ele>20.0</ele><time>2026-04-26T15:17:14.494Z</time></trkpt><trkpt lat="44.8685017" lon="10.8199017"><ele>20.0</ele><time>2026-04-26T15:17:15.494Z</time></trkpt><trkpt lat="44.8685267" lon="10.8197867"><ele>20.0</ele><time>2026-04-26T15:17:16.495Z</time></trkpt><trkpt lat="44.8685483" lon="10.8196733"><ele>20.0</ele><time>2026-04-26T15:17:17.495Z</time></trkpt><trkpt lat="44.86857" lon="10.8195633"><ele>20.0</ele><time>2026-04-26T15:17:18.495Z</time></trkpt><trkpt lat="44.8685867" lon="10.8194583"><ele>20.0</ele><time>2026-04-26T15:17:19.494Z</time></trkpt><trkpt lat="44.8686067" lon="10.81934"><ele>20.0</ele><time>2026-04-26T15:17:20.494Z</time></trkpt><trkpt lat="44.86863" lon="10.8192267"><ele>20.333333333333336</ele><time>2026-04-26T15:17:21.494Z</time></trkpt><trkpt lat="44.868655" lon="10.8191117"><ele>20.666666666666668</ele><time>2026-04-26T15:17:22.494Z</time></trkpt><trkpt lat="44.8686783" lon="10.8189933"><ele>21.0</ele><time>2026-04-26T15:17:23.494Z</time></trkpt><trkpt lat="44.8687033" lon="10.8188733"><ele>21.333333333333332</ele><time>2026-04-26T15:17:24.495Z</time></trkpt><trkpt lat="44.8687317" lon="10.8187483"><ele>21.666666666666664</ele><time>2026-04-26T15:17:25.494Z</time></trkpt><trkpt lat="44.8687517" lon="10.8186267"><ele>22.0</ele><time>2026-04-26T15:17:26.494Z</time></trkpt><trkpt lat="44.86878" lon="10.818505"><ele>22.0</ele><time>2026-04-26T15:17:27.494Z</time></trkpt><trkpt lat="44.8688017" lon="10.81839"><ele>22.0</ele><time>2026-04-26T15:17:28.495Z</time></trkpt><trkpt lat="44.8688233" lon="10.81827"><ele>22.0</ele><time>2026-04-26T15:17:29.494Z</time></trkpt><trkpt lat="44.86885" lon="10.8181517"><ele>22.0</ele><time>2026-04-26T15:17:30.494Z</time></trkpt><trkpt lat="44.8688733" lon="10.8180317"><ele>22.0</ele><time>2026-04-26T15:17:31.495Z</time></trkpt><trkpt lat="44.8688967" lon="10.81791"><ele>22.0</ele><time>2026-04-26T15:17:32.494Z</time></trkpt><trkpt lat="44.868915" lon="10.8177917"><ele>22.0</ele><time>2026-04-26T15:17:33.494Z</time></trkpt><trkpt lat="44.8689417" lon="10.8176733"><ele>22.0</ele><time>2026-04-26T15:17:34.494Z</time></trkpt><trkpt lat="44.8689717" lon="10.817555"><ele>22.0</ele><time>2026-04-26T15:17:35.495Z</time></trkpt><trkpt lat="44.8689967" lon="10.817435"><ele>22.0</ele><time>2026-04-26T15:17:36.495Z</time></trkpt><trkpt lat="44.8690233" lon="10.81733"><ele>22.0</ele><time>2026-04-26T15:17:37.495Z</time></trkpt><trkpt lat="44.86905" lon="10.8172233"><ele>22.0</ele><time>2026-04-26T15:17:38.495Z</time></trkpt><trkpt lat="44.8690783" lon="10.81712"><ele>22.0</ele><time>2026-04-26T15:17:39.494Z</time></trkpt><trkpt lat="44.86911" lon="10.8170067"><ele>22.0</ele><time>2026-04-26T15:17:40.495Z</time></trkpt><trkpt lat="44.8691383" lon="10.8169"><ele>22.0</ele><time>2026-04-26T15:17:41.494Z</time></trkpt><trkpt lat="44.8691633" lon="10.8168017"><ele>22.0</ele><time>2026-04-26T15:17:42.495Z</time></trkpt><trkpt lat="44.8691867" lon="10.8167117"><ele>22.0</ele><time>2026-04-26T15:17:43.494Z</time></trkpt><trkpt lat="44.8692167" lon="10.81663"><ele>22.0</ele><time>2026-04-26T15:17:44.495Z</time></trkpt><trkpt lat="44.8692467" lon="10.81655"><ele>22.0</ele><time>2026-04-26T15:17:45.495Z</time></trkpt><trkpt lat="44.8692767" lon="10.8164617"><ele>22.0</ele><time>2026-04-26T15:17:46.495Z</time></trkpt><trkpt lat="44.8693117" lon="10.816375"><ele>22.0</ele><time>2026-04-26T15:17:47.495Z</time></trkpt><trkpt lat="44.8693467" lon="10.8162917"><ele>22.0</ele><time>2026-04-26T15:17:48.495Z</time></trkpt><trkpt lat="44.869385" lon="10.8162033"><ele>22.0</ele><time>2026-04-26T15:17:49.494Z</time></trkpt><trkpt lat="44.86943" lon="10.8160967"><ele>22.0</ele><time>2026-04-26T15:17:50.495Z</time></trkpt><trkpt lat="44.8694833" lon="10.81596"><ele>22.0</ele><time>2026-04-26T15:17:51.494Z</time></trkpt><trkpt lat="44.86954" lon="10.8158067"><ele>22.25</ele><time>2026-04-26T15:17:52.495Z</time></trkpt><trkpt lat="44.8696067" lon="10.8156517"><ele>22.5</ele><time>2026-04-26T15:17:53.494Z</time></trkpt><trkpt lat="44.8696767" lon="10.8154733"><ele>22.75</ele><time>2026-04-26T15:17:54.494Z</time></trkpt><trkpt lat="44.8697467" lon="10.8152833"><ele>23.0</ele><time>2026-04-26T15:17:55.495Z</time></trkpt><trkpt lat="44.8698233" lon="10.8150983"><ele>23.5</ele><time>2026-04-26T15:17:56.495Z</time></trkpt><trkpt lat="44.8698933" lon="10.8149233"><ele>24.0</ele><time>2026-04-26T15:17:57.495Z</time></trkpt><trkpt lat="44.8699533" lon="10.8147567"><ele>24.5</ele><time>2026-04-26T15:17:58.495Z</time></trkpt><trkpt lat="44.8700167" lon="10.814605"><ele>25.0</ele><time>2026-04-26T15:17:59.494Z</time></trkpt><trkpt lat="44.8700633" lon="10.8144667"><ele>25.0</ele><time>2026-04-26T15:18:00.494Z</time></trkpt><trkpt lat="44.87011" lon="10.8143533"><ele>25.0</ele><time>2026-04-26T15:18:01.495Z</time></trkpt><trkpt lat="44.8701467" lon="10.8142383"><ele>25.0</ele><time>2026-04-26T15:18:02.494Z</time></trkpt><trkpt lat="44.8701683" lon="10.8141333"><ele>25.0</ele><time>2026-04-26T15:18:03.495Z</time></trkpt><trkpt lat="44.8702417" lon="10.81401"><ele>25.0</ele><time>2026-04-26T15:18:05.495Z</time></trkpt><trkpt lat="44.87034" lon="10.8139383"><ele>25.000000000000004</ele><time>2026-04-26T15:18:07.494Z</time></trkpt><trkpt lat="44.8704017" lon="10.8138033"><ele>25.0</ele><time>2026-04-26T15:18:09.494Z</time></trkpt><trkpt lat="44.8704033" lon="10.8137083"><ele>25.0</ele><time>2026-04-26T15:18:10.495Z</time></trkpt><trkpt lat="44.870395" lon="10.8136183"><ele>25.0</ele><time>2026-04-26T15:18:11.494Z</time></trkpt><trkpt lat="44.8703467" lon="10.813485"><ele>25.000000000000004</ele><time>2026-04-26T15:18:13.495Z</time></trkpt><trkpt lat="44.870265" lon="10.8134633"><ele>25.0</ele><time>2026-04-26T15:18:15.495Z</time></trkpt><trkpt lat="44.8701917" lon="10.813545"><ele>24.833333333333336</ele><time>2026-04-26T15:18:17.495Z</time></trkpt><trkpt lat="44.8701533" lon="10.8137167"><ele>24.666666666666668</ele><time>2026-04-26T15:18:19.495Z</time></trkpt><trkpt lat="44.87011" lon="10.8137883"><ele>24.5</ele><time>2026-04-26T15:18:20.494Z</time></trkpt><trkpt lat="44.8700517" lon="10.8138333"><ele>24.333333333333336</ele><time>2026-04-26T15:18:21.495Z</time></trkpt><trkpt lat="44.8699733" lon="10.8138517"><ele>24.166666666666668</ele><time>2026-04-26T15:18:22.495Z</time></trkpt><trkpt lat="44.869875" lon="10.813845"><ele>24.0</ele><time>2026-04-26T15:18:23.495Z</time></trkpt><trkpt lat="44.8697683" lon="10.8138267"><ele>24.0</ele><time>2026-04-26T15:18:24.494Z</time></trkpt><trkpt lat="44.86965" lon="10.8138233"><ele>24.0</ele><time>2026-04-26T15:18:25.495Z</time></trkpt><trkpt lat="44.86953" lon="10.8138283"><ele>24.0</ele><time>2026-04-26T15:18:26.494Z</time></trkpt><trkpt lat="44.869405" lon="10.813845"><ele>24.0</ele><time>2026-04-26T15:18:27.495Z</time></trkpt><trkpt lat="44.8692733" lon="10.813845"><ele>24.0</ele><time>2026-04-26T15:18:28.495Z</time></trkpt><trkpt lat="44.8691517" lon="10.8138517"><ele>24.0</ele><time>2026-04-26T15:18:29.494Z</time></trkpt><trkpt lat="44.86904" lon="10.813865"><ele>24.0</ele><time>2026-04-26T15:18:30.495Z</time></trkpt><trkpt lat="44.86894" lon="10.81386"><ele>24.0</ele><time>2026-04-26T15:18:31.494Z</time></trkpt><trkpt lat="44.86885" lon="10.81385"><ele>24.0</ele><time>2026-04-26T15:18:32.494Z</time></trkpt><trkpt lat="44.8687633" lon="10.8138517"><ele>24.0</ele><time>2026-04-26T15:18:33.494Z</time></trkpt><trkpt lat="44.8686867" lon="10.8138617"><ele>24.0</ele><time>2026-04-26T15:18:34.494Z</time></trkpt><trkpt lat="44.8686133" lon="10.813875"><ele>24.0</ele><time>2026-04-26T15:18:35.495Z</time></trkpt><trkpt lat="44.8685367" lon="10.81387"><ele>24.0</ele><time>2026-04-26T15:18:36.495Z</time></trkpt><trkpt lat="44.868455" lon="10.813845"><ele>24.0</ele><time>2026-04-26T15:18:37.494Z</time></trkpt><trkpt lat="44.8683683" lon="10.8137883"><ele>24.0</ele><time>2026-04-26T15:18:38.494Z</time></trkpt><trkpt lat="44.8682933" lon="10.8136933"><ele>23.6</ele><time>2026-04-26T15:18:39.495Z</time></trkpt><trkpt lat="44.86823" lon="10.81358"><ele>23.2</ele><time>2026-04-26T15:18:40.494Z</time></trkpt><trkpt lat="44.8681617" lon="10.81347"><ele>22.8</ele><time>2026-04-26T15:18:41.494Z</time></trkpt><trkpt lat="44.8681017" lon="10.813355"><ele>22.400000000000002</ele><time>2026-04-26T15:18:42.494Z</time></trkpt><trkpt lat="44.8680433" lon="10.8132583"><ele>22.0</ele><time>2026-04-26T15:18:43.495Z</time></trkpt><trkpt lat="44.867995" lon="10.8131683"><ele>22.0</ele><time>2026-04-26T15:18:44.494Z</time></trkpt><trkpt lat="44.86795" lon="10.813085"><ele>22.0</ele><time>2026-04-26T15:18:45.495Z</time></trkpt><trkpt lat="44.867905" lon="10.8130083"><ele>22.0</ele><time>2026-04-26T15:18:46.494Z</time></trkpt><trkpt lat="44.8678633" lon="10.8129267"><ele>22.0</ele><time>2026-04-26T15:18:47.495Z</time></trkpt><trkpt lat="44.86783" lon="10.8128483"><ele>22.0</ele><time>2026-04-26T15:18:48.494Z</time></trkpt><trkpt lat="44.86782" lon="10.8126817"><ele>22.0</ele><time>2026-04-26T15:18:50.494Z</time></trkpt><trkpt lat="44.867825" lon="10.8125833"><ele>22.333333333333332</ele><time>2026-04-26T15:18:51.494Z</time></trkpt><trkpt lat="44.867825" lon="10.8124817"><ele>22.666666666666664</ele><time>2026-04-26T15:18:52.494Z</time></trkpt><trkpt lat="44.8678267" lon="10.812375"><ele>23.0</ele><time>2026-04-26T15:18:53.495Z</time></trkpt><trkpt lat="44.8678217" lon="10.8122533"><ele>23.333333333333332</ele><time>2026-04-26T15:18:54.495Z</time></trkpt><trkpt lat="44.8678183" lon="10.8121267"><ele>23.666666666666668</ele><time>2026-04-26T15:18:55.495Z</time></trkpt><trkpt lat="44.86782" lon="10.8119933"><ele>24.0</ele><time>2026-04-26T15:18:56.494Z</time></trkpt><trkpt lat="44.8678183" lon="10.81185"><ele>24.0</ele><time>2026-04-26T15:18:57.494Z</time></trkpt><trkpt lat="44.8678167" lon="10.811695"><ele>24.0</ele><time>2026-04-26T15:18:58.494Z</time></trkpt><trkpt lat="44.86782" lon="10.8115417"><ele>24.0</ele><time>2026-04-26T15:18:59.494Z</time></trkpt><trkpt lat="44.867825" lon="10.811405"><ele>24.0</ele><time>2026-04-26T15:19:00.495Z</time></trkpt><trkpt lat="44.86782" lon="10.8112833"><ele>24.0</ele><time>2026-04-26T15:19:01.495Z</time></trkpt><trkpt lat="44.86782" lon="10.8111717"><ele>23.999999999999996</ele><time>2026-04-26T15:19:02.495Z</time></trkpt><trkpt lat="44.8678183" lon="10.8110717"><ele>24.0</ele><time>2026-04-26T15:19:03.495Z</time></trkpt><trkpt lat="44.8678233" lon="10.8109733"><ele>24.0</ele><time>2026-04-26T15:19:04.495Z</time></trkpt><trkpt lat="44.867825" lon="10.810875"><ele>24.0</ele><time>2026-04-26T15:19:05.494Z</time></trkpt><trkpt lat="44.8678267" lon="10.81077"><ele>24.0</ele><time>2026-04-26T15:19:06.494Z</time></trkpt><trkpt lat="44.867825" lon="10.8106633"><ele>23.999999999999996</ele><time>2026-04-26T15:19:07.495Z</time></trkpt><trkpt lat="44.8678267" lon="10.8105383"><ele>24.0</ele><time>2026-04-26T15:19:08.494Z</time></trkpt><trkpt lat="44.867825" lon="10.8104067"><ele>23.799999999999997</ele><time>2026-04-26T15:19:09.495Z</time></trkpt><trkpt lat="44.8678233" lon="10.8102783"><ele>23.599999999999998</ele><time>2026-04-26T15:19:10.494Z</time></trkpt><trkpt lat="44.8678233" lon="10.8101333"><ele>23.4</ele><time>2026-04-26T15:19:11.495Z</time></trkpt><trkpt lat="44.8678267" lon="10.8099883"><ele>23.2</ele><time>2026-04-26T15:19:12.495Z</time></trkpt><trkpt lat="44.8678283" lon="10.809845"><ele>23.0</ele><time>2026-04-26T15:19:13.495Z</time></trkpt><trkpt lat="44.86784" lon="10.809715"><ele>23.0</ele><time>2026-04-26T15:19:14.494Z</time></trkpt><trkpt lat="44.8678417" lon="10.8096017"><ele>23.0</ele><time>2026-04-26T15:19:15.494Z</time></trkpt><trkpt lat="44.8678367" lon="10.8094917"><ele>23.0</ele><time>2026-04-26T15:19:16.494Z</time></trkpt><trkpt lat="44.8678117" lon="10.8093867"><ele>23.0</ele><time>2026-04-26T15:19:17.494Z</time></trkpt><trkpt lat="44.86777" lon="10.8092917"><ele>23.0</ele><time>2026-04-26T15:19:18.495Z</time></trkpt><trkpt lat="44.8677117" lon="10.8091933"><ele>23.0</ele><time>2026-04-26T15:19:19.494Z</time></trkpt><trkpt lat="44.8676267" lon="10.8090783"><ele>22.75</ele><time>2026-04-26T15:19:20.495Z</time></trkpt><trkpt lat="44.8675117" lon="10.8089583"><ele>22.5</ele><time>2026-04-26T15:19:21.495Z</time></trkpt><trkpt lat="44.8674017" lon="10.808835"><ele>22.25</ele><time>2026-04-26T15:19:22.494Z</time></trkpt><trkpt lat="44.867285" lon="10.8087383"><ele>22.0</ele><time>2026-04-26T15:19:23.494Z</time></trkpt><trkpt lat="44.86719" lon="10.808655"><ele>22.0</ele><time>2026-04-26T15:19:24.494Z</time></trkpt><trkpt lat="44.8671117" lon="10.80857"><ele>22.0</ele><time>2026-04-26T15:19:25.494Z</time></trkpt><trkpt lat="44.8670333" lon="10.8085033"><ele>22.0</ele><time>2026-04-26T15:19:26.494Z</time></trkpt><trkpt lat="44.8669717" lon="10.8084417"><ele>22.0</ele><time>2026-04-26T15:19:27.495Z</time></trkpt><trkpt lat="44.8669283" lon="10.808375"><ele>22.0</ele><time>2026-04-26T15:19:28.495Z</time></trkpt><trkpt lat="44.8668683" lon="10.8082883"><ele>22.0</ele><time>2026-04-26T15:19:30.495Z</time></trkpt><trkpt lat="44.866785" lon="10.8083067"><ele>21.75</ele><time>2026-04-26T15:19:33.494Z</time></trkpt><trkpt lat="44.86674" lon="10.8083867"><ele>21.5</ele><time>2026-04-26T15:19:34.495Z</time></trkpt><trkpt lat="44.8666833" lon="10.8085133"><ele>21.25</ele><time>2026-04-26T15:19:35.494Z</time></trkpt><trkpt lat="44.8666117" lon="10.808675"><ele>21.0</ele><time>2026-04-26T15:19:36.495Z</time></trkpt><trkpt lat="44.8665217" lon="10.8088533"><ele>21.0</ele><time>2026-04-26T15:19:37.494Z</time></trkpt><trkpt lat="44.8664267" lon="10.8090383"><ele>21.0</ele><time>2026-04-26T15:19:38.494Z</time></trkpt><trkpt lat="44.8663267" lon="10.8092333"><ele>21.0</ele><time>2026-04-26T15:19:39.494Z</time></trkpt><trkpt lat="44.8662333" lon="10.80943"><ele>20.75</ele><time>2026-04-26T15:19:40.495Z</time></trkpt><trkpt lat="44.8661533" lon="10.8096133"><ele>20.5</ele><time>2026-04-26T15:19:41.494Z</time></trkpt><trkpt lat="44.86608" lon="10.8097833"><ele>20.25</ele><time>2026-04-26T15:19:42.495Z</time></trkpt><trkpt lat="44.8660117" lon="10.8099383"><ele>20.0</ele><time>2026-04-26T15:19:43.494Z</time></trkpt><trkpt lat="44.86596" lon="10.8100583"><ele>20.166666666666668</ele><time>2026-04-26T15:19:44.495Z</time></trkpt><trkpt lat="44.8659167" lon="10.8101483"><ele>20.333333333333336</ele><time>2026-04-26T15:19:45.494Z</time></trkpt><trkpt lat="44.865865" lon="10.810265"><ele>20.5</ele><time>2026-04-26T15:19:47.494Z</time></trkpt><trkpt lat="44.8658117" lon="10.8103367"><ele>20.666666666666668</ele><time>2026-04-26T15:19:50.495Z</time></trkpt><trkpt lat="44.8657233" lon="10.810315"><ele>20.833333333333332</ele><time>2026-04-26T15:19:52.494Z</time></trkpt><trkpt lat="44.865665" lon="10.8102633"><ele>21.0</ele><time>2026-04-26T15:19:53.495Z</time></trkpt><trkpt lat="44.8655883" lon="10.8101917"><ele>21.0</ele><time>2026-04-26T15:19:54.495Z</time></trkpt><trkpt lat="44.8654883" lon="10.8101083"><ele>21.0</ele><time>2026-04-26T15:19:55.494Z</time></trkpt><trkpt lat="44.8653783" lon="10.8100117"><ele>21.0</ele><time>2026-04-26T15:19:56.494Z</time></trkpt><trkpt lat="44.86525" lon="10.8099017"><ele>21.0</ele><time>2026-04-26T15:19:57.494Z</time></trkpt><trkpt lat="44.865105" lon="10.8097883"><ele>20.666666666666668</ele><time>2026-04-26T15:19:58.494Z</time></trkpt><trkpt lat="44.8649533" lon="10.8096633"><ele>20.333333333333336</ele><time>2026-04-26T15:19:59.494Z</time></trkpt><trkpt lat="44.8647883" lon="10.8095383"><ele>20.0</ele><time>2026-04-26T15:20:00.495Z</time></trkpt><trkpt lat="44.864615" lon="10.80939"><ele>20.0</ele><time>2026-04-26T15:20:01.495Z</time></trkpt><trkpt lat="44.86444" lon="10.8092433"><ele>20.0</ele><time>2026-04-26T15:20:02.494Z</time></trkpt><trkpt lat="44.86426" lon="10.8090883"><ele>20.0</ele><time>2026-04-26T15:20:03.494Z</time></trkpt><trkpt lat="44.86407" lon="10.8089317"><ele>20.0</ele><time>2026-04-26T15:20:04.494Z</time></trkpt><trkpt lat="44.8638833" lon="10.8087633"><ele>20.0</ele><time>2026-04-26T15:20:05.495Z</time></trkpt><trkpt lat="44.8637033" lon="10.8086117"><ele>20.0</ele><time>2026-04-26T15:20:06.494Z</time></trkpt><trkpt lat="44.86353" lon="10.808465"><ele>20.333333333333336</ele><time>2026-04-26T15:20:07.495Z</time></trkpt><trkpt lat="44.86335" lon="10.8083167"><ele>20.666666666666668</ele><time>2026-04-26T15:20:08.494Z</time></trkpt><trkpt lat="44.86317" lon="10.808165"><ele>21.0</ele><time>2026-04-26T15:20:09.495Z</time></trkpt><trkpt lat="44.8629917" lon="10.8080133"><ele>21.0</ele><time>2026-04-26T15:20:10.495Z</time></trkpt><trkpt lat="44.8628133" lon="10.8078633"><ele>21.0</ele><time>2026-04-26T15:20:11.495Z</time></trkpt><trkpt lat="44.8626317" lon="10.807715"><ele>21.0</ele><time>2026-04-26T15:20:12.494Z</time></trkpt><trkpt lat="44.8624483" lon="10.8075683"><ele>21.0</ele><time>2026-04-26T15:20:13.495Z</time></trkpt><trkpt lat="44.86226" lon="10.8074267"><ele>21.0</ele><time>2026-04-26T15:20:14.494Z</time></trkpt><trkpt lat="44.8620767" lon="10.8072833"><ele>21.0</ele><time>2026-04-26T15:20:15.494Z</time></trkpt><trkpt lat="44.8619017" lon="10.8071433"><ele>21.333333333333332</ele><time>2026-04-26T15:20:16.495Z</time></trkpt><trkpt lat="44.8617333" lon="10.807005"><ele>21.666666666666664</ele><time>2026-04-26T15:20:17.495Z</time></trkpt><trkpt lat="44.86157" lon="10.8068683"><ele>22.0</ele><time>2026-04-26T15:20:18.495Z</time></trkpt><trkpt lat="44.8614067" lon="10.80673"><ele>22.0</ele><time>2026-04-26T15:20:19.495Z</time></trkpt><trkpt lat="44.8612533" lon="10.80659"><ele>22.0</ele><time>2026-04-26T15:20:20.495Z</time></trkpt><trkpt lat="44.8610967" lon="10.8064533"><ele>22.0</ele><time>2026-04-26T15:20:21.494Z</time></trkpt><trkpt lat="44.8609383" lon="10.806325"><ele>22.0</ele><time>2026-04-26T15:20:22.494Z</time></trkpt><trkpt lat="44.8607633" lon="10.8062033"><ele>22.0</ele><time>2026-04-26T15:20:23.494Z</time></trkpt><trkpt lat="44.8606" lon="10.8060733"><ele>22.0</ele><time>2026-04-26T15:20:24.494Z</time></trkpt><trkpt lat="44.8604333" lon="10.8059567"><ele>22.0</ele><time>2026-04-26T15:20:25.495Z</time></trkpt><trkpt lat="44.860265" lon="10.805835"><ele>22.0</ele><time>2026-04-26T15:20:26.494Z</time></trkpt><trkpt lat="44.8600967" lon="10.8057067"><ele>22.0</ele><time>2026-04-26T15:20:27.494Z</time></trkpt><trkpt lat="44.8599367" lon="10.8055817"><ele>22.0</ele><time>2026-04-26T15:20:28.494Z</time></trkpt><trkpt lat="44.8597717" lon="10.8054633"><ele>22.0</ele><time>2026-04-26T15:20:29.495Z</time></trkpt><trkpt lat="44.8596033" lon="10.80534"><ele>22.0</ele><time>2026-04-26T15:20:30.495Z</time></trkpt><trkpt lat="44.8594333" lon="10.8052117"><ele>21.333333333333332</ele><time>2026-04-26T15:20:31.494Z</time></trkpt><trkpt lat="44.859265" lon="10.8050783"><ele>20.666666666666668</ele><time>2026-04-26T15:20:32.494Z</time></trkpt><trkpt lat="44.8590983" lon="10.8049533"><ele>20.0</ele><time>2026-04-26T15:20:33.494Z</time></trkpt><trkpt lat="44.858935" lon="10.8048267"><ele>20.0</ele><time>2026-04-26T15:20:34.495Z</time></trkpt><trkpt lat="44.858775" lon="10.8046983"><ele>20.0</ele><time>2026-04-26T15:20:35.495Z</time></trkpt><trkpt lat="44.8586167" lon="10.8045733"><ele>20.0</ele><time>2026-04-26T15:20:36.494Z</time></trkpt><trkpt lat="44.8584583" lon="10.8044517"><ele>21.0</ele><time>2026-04-26T15:20:37.494Z</time></trkpt><trkpt lat="44.8583033" lon="10.8043283"><ele>22.0</ele><time>2026-04-26T15:20:38.494Z</time></trkpt><trkpt lat="44.8581467" lon="10.8042033"><ele>23.0</ele><time>2026-04-26T15:20:39.495Z</time></trkpt><trkpt lat="44.85799" lon="10.8040867"><ele>23.0</ele><time>2026-04-26T15:20:40.495Z</time></trkpt><trkpt lat="44.8578267" lon="10.8039683"><ele>23.0</ele><time>2026-04-26T15:20:41.495Z</time></trkpt><trkpt lat="44.85766" lon="10.8038433"><ele>23.0</ele><time>2026-04-26T15:20:42.495Z</time></trkpt><trkpt lat="44.8574917" lon="10.8037267"><ele>22.333333333333336</ele><time>2026-04-26T15:20:43.494Z</time></trkpt><trkpt lat="44.8573233" lon="10.8036167"><ele>21.666666666666668</ele><time>2026-04-26T15:20:44.495Z</time></trkpt><trkpt lat="44.8571633" lon="10.80351"><ele>21.0</ele><time>2026-04-26T15:20:45.494Z</time></trkpt><trkpt lat="44.8570183" lon="10.8034183"><ele>21.0</ele><time>2026-04-26T15:20:46.494Z</time></trkpt><trkpt lat="44.85687" lon="10.8033367"><ele>21.0</ele><time>2026-04-26T15:20:47.494Z</time></trkpt><trkpt lat="44.8567217" lon="10.8032533"><ele>21.0</ele><time>2026-04-26T15:20:48.494Z</time></trkpt><trkpt lat="44.8565717" lon="10.80317"><ele>21.0</ele><time>2026-04-26T15:20:49.494Z</time></trkpt><trkpt lat="44.85642" lon="10.8030767"><ele>21.0</ele><time>2026-04-26T15:20:50.495Z</time></trkpt><trkpt lat="44.8562683" lon="10.8029733"><ele>21.0</ele><time>2026-04-26T15:20:51.494Z</time></trkpt><trkpt lat="44.856115" lon="10.802865"><ele>21.0</ele><time>2026-04-26T15:20:52.494Z</time></trkpt><trkpt lat="44.8559617" lon="10.8027467"><ele>21.0</ele><time>2026-04-26T15:20:53.494Z</time></trkpt><trkpt lat="44.8557967" lon="10.80262"><ele>21.0</ele><time>2026-04-26T15:20:54.493Z</time></trkpt><trkpt lat="44.855625" lon="10.802495"><ele>21.0</ele><time>2026-04-26T15:20:55.493Z</time></trkpt><trkpt lat="44.855455" lon="10.8023667"><ele>21.0</ele><time>2026-04-26T15:20:56.493Z</time></trkpt><trkpt lat="44.85528" lon="10.802235"><ele>21.0</ele><time>2026-04-26T15:20:57.494Z</time></trkpt><trkpt lat="44.8551017" lon="10.8021083"><ele>21.333333333333332</ele><time>2026-04-26T15:20:58.494Z</time></trkpt><trkpt lat="44.8549267" lon="10.80197"><ele>21.666666666666664</ele><time>2026-04-26T15:20:59.494Z</time></trkpt><trkpt lat="44.8547517" lon="10.8018367"><ele>22.0</ele><time>2026-04-26T15:21:00.493Z</time></trkpt><trkpt lat="44.8545817" lon="10.801705"><ele>22.0</ele><time>2026-04-26T15:21:01.494Z</time></trkpt><trkpt lat="44.8544083" lon="10.8015767"><ele>22.0</ele><time>2026-04-26T15:21:02.493Z</time></trkpt><trkpt lat="44.8542433" lon="10.8014483"><ele>22.0</ele><time>2026-04-26T15:21:03.493Z</time></trkpt><trkpt lat="44.85408" lon="10.8013183"><ele>21.666666666666664</ele><time>2026-04-26T15:21:04.494Z</time></trkpt><trkpt lat="44.8539217" lon="10.8011967"><ele>21.333333333333332</ele><time>2026-04-26T15:21:05.493Z</time></trkpt><trkpt lat="44.8537783" lon="10.80107"><ele>21.0</ele><time>2026-04-26T15:21:06.493Z</time></trkpt><trkpt lat="44.8536483" lon="10.8009533"><ele>20.75</ele><time>2026-04-26T15:21:07.493Z</time></trkpt><trkpt lat="44.8535267" lon="10.8008383"><ele>20.5</ele><time>2026-04-26T15:21:08.494Z</time></trkpt><trkpt lat="44.8534067" lon="10.800725"><ele>20.25</ele><time>2026-04-26T15:21:09.493Z</time></trkpt><trkpt lat="44.8532883" lon="10.8006033"><ele>20.0</ele><time>2026-04-26T15:21:10.493Z</time></trkpt><trkpt lat="44.8531683" lon="10.800485"><ele>20.0</ele><time>2026-04-26T15:21:11.493Z</time></trkpt><trkpt lat="44.8530467" lon="10.80035"><ele>20.0</ele><time>2026-04-26T15:21:12.494Z</time></trkpt><trkpt lat="44.8529117" lon="10.8002183"><ele>20.0</ele><time>2026-04-26T15:21:13.493Z</time></trkpt><trkpt lat="44.8527733" lon="10.8000833"><ele>20.0</ele><time>2026-04-26T15:21:14.493Z</time></trkpt><trkpt lat="44.852625" lon="10.79994"><ele>20.0</ele><time>2026-04-26T15:21:15.493Z</time></trkpt><trkpt lat="44.8524733" lon="10.79979"><ele>20.0</ele><time>2026-04-26T15:21:16.493Z</time></trkpt><trkpt lat="44.8523183" lon="10.79963"><ele>20.333333333333336</ele><time>2026-04-26T15:21:17.494Z</time></trkpt><trkpt lat="44.8521667" lon="10.7994767"><ele>20.666666666666668</ele><time>2026-04-26T15:21:18.494Z</time></trkpt><trkpt lat="44.85202" lon="10.79933"><ele>21.0</ele><time>2026-04-26T15:21:19.494Z</time></trkpt><trkpt lat="44.8518733" lon="10.7991883"><ele>21.0</ele><time>2026-04-26T15:21:20.493Z</time></trkpt><trkpt lat="44.851725" lon="10.7990483"><ele>21.0</ele><time>2026-04-26T15:21:21.494Z</time></trkpt><trkpt lat="44.85158" lon="10.7989033"><ele>21.0</ele><time>2026-04-26T15:21:22.493Z</time></trkpt><trkpt lat="44.8514283" lon="10.79875"><ele>21.0</ele><time>2026-04-26T15:21:23.493Z</time></trkpt><trkpt lat="44.8512717" lon="10.79859"><ele>21.0</ele><time>2026-04-26T15:21:24.493Z</time></trkpt><trkpt lat="44.8511033" lon="10.7984167"><ele>21.0</ele><time>2026-04-26T15:21:25.493Z</time></trkpt><trkpt lat="44.8509317" lon="10.798245"><ele>21.666666666666668</ele><time>2026-04-26T15:21:26.494Z</time></trkpt><trkpt lat="44.8507633" lon="10.7980767"><ele>22.333333333333336</ele><time>2026-04-26T15:21:27.494Z</time></trkpt><trkpt lat="44.850595" lon="10.7979133"><ele>23.0</ele><time>2026-04-26T15:21:28.493Z</time></trkpt><trkpt lat="44.8504367" lon="10.797765"><ele>22.333333333333336</ele><time>2026-04-26T15:21:29.493Z</time></trkpt><trkpt lat="44.8502867" lon="10.7976183"><ele>21.666666666666668</ele><time>2026-04-26T15:21:30.494Z</time></trkpt><trkpt lat="44.8501333" lon="10.7974717"><ele>21.0</ele><time>2026-04-26T15:21:31.493Z</time></trkpt><trkpt lat="44.849985" lon="10.7973283"><ele>21.0</ele><time>2026-04-26T15:21:32.493Z</time></trkpt><trkpt lat="44.8498333" lon="10.7971833"><ele>21.0</ele><time>2026-04-26T15:21:33.493Z</time></trkpt><trkpt lat="44.8496883" lon="10.7970517"><ele>21.0</ele><time>2026-04-26T15:21:34.493Z</time></trkpt><trkpt lat="44.8495483" lon="10.7969217"><ele>20.666666666666668</ele><time>2026-04-26T15:21:35.493Z</time></trkpt><trkpt lat="44.849405" lon="10.7967883"><ele>20.333333333333336</ele><time>2026-04-26T15:21:36.493Z</time></trkpt><trkpt lat="44.8492633" lon="10.79666"><ele>20.0</ele><time>2026-04-26T15:21:37.493Z</time></trkpt><trkpt lat="44.8491217" lon="10.7965267"><ele>20.666666666666668</ele><time>2026-04-26T15:21:38.493Z</time></trkpt><trkpt lat="44.8489783" lon="10.7963917"><ele>21.333333333333332</ele><time>2026-04-26T15:21:39.493Z</time></trkpt><trkpt lat="44.84883" lon="10.7962633"><ele>22.0</ele><time>2026-04-26T15:21:40.493Z</time></trkpt><trkpt lat="44.8486783" lon="10.7961283"><ele>21.666666666666664</ele><time>2026-04-26T15:21:41.493Z</time></trkpt><trkpt lat="44.8485317" lon="10.7959917"><ele>21.333333333333332</ele><time>2026-04-26T15:21:42.493Z</time></trkpt><trkpt lat="44.8483883" lon="10.7958583"><ele>21.0</ele><time>2026-04-26T15:21:43.493Z</time></trkpt><trkpt lat="44.8482483" lon="10.7957267"><ele>21.0</ele><time>2026-04-26T15:21:44.494Z</time></trkpt><trkpt lat="44.8481083" lon="10.795595"><ele>21.0</ele><time>2026-04-26T15:21:45.494Z</time></trkpt><trkpt lat="44.8479683" lon="10.7954667"><ele>21.0</ele><time>2026-04-26T15:21:46.494Z</time></trkpt><trkpt lat="44.84782" lon="10.7953383"><ele>21.0</ele><time>2026-04-26T15:21:47.493Z</time></trkpt><trkpt lat="44.8476767" lon="10.7952067"><ele>21.0</ele><time>2026-04-26T15:21:48.494Z</time></trkpt><trkpt lat="44.8475317" lon="10.7950767"><ele>21.0</ele><time>2026-04-26T15:21:49.494Z</time></trkpt><trkpt lat="44.8473867" lon="10.7949467"><ele>20.666666666666668</ele><time>2026-04-26T15:21:50.494Z</time></trkpt><trkpt lat="44.847235" lon="10.7948183"><ele>20.333333333333336</ele><time>2026-04-26T15:21:51.493Z</time></trkpt><trkpt lat="44.8470833" lon="10.7946833"><ele>20.0</ele><time>2026-04-26T15:21:52.494Z</time></trkpt><trkpt lat="44.846935" lon="10.794555"><ele>20.0</ele><time>2026-04-26T15:21:53.494Z</time></trkpt><trkpt lat="44.8467917" lon="10.7944267"><ele>20.0</ele><time>2026-04-26T15:21:54.494Z</time></trkpt><trkpt lat="44.8466533" lon="10.7942967"><ele>20.0</ele><time>2026-04-26T15:21:55.493Z</time></trkpt><trkpt lat="44.8465183" lon="10.7941667"><ele>20.0</ele><time>2026-04-26T15:21:56.493Z</time></trkpt><trkpt lat="44.8463817" lon="10.794035"><ele>20.0</ele><time>2026-04-26T15:21:57.494Z</time></trkpt><trkpt lat="44.8462467" lon="10.793905"><ele>20.0</ele><time>2026-04-26T15:21:58.494Z</time></trkpt><trkpt lat="44.84611" lon="10.7937733"><ele>20.0</ele><time>2026-04-26T15:21:59.493Z</time></trkpt><trkpt lat="44.8459733" lon="10.7936433"><ele>20.0</ele><time>2026-04-26T15:22:00.493Z</time></trkpt><trkpt lat="44.84584" lon="10.7935117"><ele>20.0</ele><time>2026-04-26T15:22:01.494Z</time></trkpt><trkpt lat="44.8457017" lon="10.7933783"><ele>20.333333333333336</ele><time>2026-04-26T15:22:02.494Z</time></trkpt><trkpt lat="44.8455733" lon="10.7932533"><ele>20.666666666666668</ele><time>2026-04-26T15:22:03.494Z</time></trkpt><trkpt lat="44.8454467" lon="10.7931283"><ele>21.0</ele><time>2026-04-26T15:22:04.493Z</time></trkpt><trkpt lat="44.84532" lon="10.7930033"><ele>21.0</ele><time>2026-04-26T15:22:05.493Z</time></trkpt><trkpt lat="44.8451883" lon="10.792875"><ele>21.0</ele><time>2026-04-26T15:22:06.494Z</time></trkpt><trkpt lat="44.845055" lon="10.7927417"><ele>21.0</ele><time>2026-04-26T15:22:07.493Z</time></trkpt><trkpt lat="44.8449167" lon="10.792615"><ele>21.333333333333332</ele><time>2026-04-26T15:22:08.494Z</time></trkpt><trkpt lat="44.844785" lon="10.7924917"><ele>21.666666666666664</ele><time>2026-04-26T15:22:09.493Z</time></trkpt><trkpt lat="44.8446517" lon="10.7923717"><ele>22.0</ele><time>2026-04-26T15:22:10.493Z</time></trkpt><trkpt lat="44.8445217" lon="10.792255"><ele>22.0</ele><time>2026-04-26T15:22:11.493Z</time></trkpt><trkpt lat="44.84439" lon="10.79214"><ele>22.0</ele><time>2026-04-26T15:22:12.494Z</time></trkpt><trkpt lat="44.844255" lon="10.792025"><ele>22.0</ele><time>2026-04-26T15:22:13.493Z</time></trkpt><trkpt lat="44.8441167" lon="10.7919083"><ele>22.666666666666664</ele><time>2026-04-26T15:22:14.493Z</time></trkpt><trkpt lat="44.8439833" lon="10.7917783"><ele>23.333333333333332</ele><time>2026-04-26T15:22:15.493Z</time></trkpt><trkpt lat="44.84385" lon="10.7916417"><ele>24.0</ele><time>2026-04-26T15:22:16.493Z</time></trkpt><trkpt lat="44.8437183" lon="10.7915083"><ele>24.0</ele><time>2026-04-26T15:22:17.494Z</time></trkpt><trkpt lat="44.8435883" lon="10.791375"><ele>24.0</ele><time>2026-04-26T15:22:18.494Z</time></trkpt><trkpt lat="44.84346" lon="10.7912367"><ele>24.0</ele><time>2026-04-26T15:22:19.494Z</time></trkpt><trkpt lat="44.8433283" lon="10.7910917"><ele>23.333333333333332</ele><time>2026-04-26T15:22:20.494Z</time></trkpt><trkpt lat="44.843195" lon="10.7909483"><ele>22.666666666666664</ele><time>2026-04-26T15:22:21.493Z</time></trkpt><trkpt lat="44.84306" lon="10.7907967"><ele>22.0</ele><time>2026-04-26T15:22:22.493Z</time></trkpt><trkpt lat="44.8429233" lon="10.7906517"><ele>22.0</ele><time>2026-04-26T15:22:23.493Z</time></trkpt><trkpt lat="44.8427883" lon="10.7905133"><ele>22.0</ele><time>2026-04-26T15:22:24.493Z</time></trkpt><trkpt lat="44.84265" lon="10.7903733"><ele>22.0</ele><time>2026-04-26T15:22:25.493Z</time></trkpt><trkpt lat="44.8425033" lon="10.7902267"><ele>22.0</ele><time>2026-04-26T15:22:26.494Z</time></trkpt><trkpt lat="44.8423433" lon="10.7900717"><ele>22.0</ele><time>2026-04-26T15:22:27.493Z</time></trkpt><trkpt lat="44.842195" lon="10.7899333"><ele>22.0</ele><time>2026-04-26T15:22:28.494Z</time></trkpt><trkpt lat="44.8420517" lon="10.7897983"><ele>22.0</ele><time>2026-04-26T15:22:29.494Z</time></trkpt><trkpt lat="44.841905" lon="10.7896533"><ele>22.0</ele><time>2026-04-26T15:22:30.493Z</time></trkpt><trkpt lat="44.8417617" lon="10.7895083"><ele>22.0</ele><time>2026-04-26T15:22:31.493Z</time></trkpt><trkpt lat="44.84162" lon="10.7893667"><ele>21.666666666666664</ele><time>2026-04-26T15:22:32.493Z</time></trkpt><trkpt lat="44.8414767" lon="10.7892233"><ele>21.333333333333332</ele><time>2026-04-26T15:22:33.494Z</time></trkpt><trkpt lat="44.8413367" lon="10.7890833"><ele>21.0</ele><time>2026-04-26T15:22:34.493Z</time></trkpt><trkpt lat="44.8411967" lon="10.7889433"><ele>21.0</ele><time>2026-04-26T15:22:35.493Z</time></trkpt><trkpt lat="44.8410617" lon="10.788805"><ele>21.0</ele><time>2026-04-26T15:22:36.494Z</time></trkpt><trkpt lat="44.840925" lon="10.788665"><ele>21.0</ele><time>2026-04-26T15:22:37.494Z</time></trkpt><trkpt lat="44.8407883" lon="10.788525"><ele>21.333333333333332</ele><time>2026-04-26T15:22:38.494Z</time></trkpt><trkpt lat="44.8406533" lon="10.7883883"><ele>21.666666666666664</ele><time>2026-04-26T15:22:39.494Z</time></trkpt><trkpt lat="44.8405233" lon="10.7882567"><ele>22.0</ele><time>2026-04-26T15:22:40.493Z</time></trkpt><trkpt lat="44.8404" lon="10.7881367"><ele>22.0</ele><time>2026-04-26T15:22:41.493Z</time></trkpt><trkpt lat="44.8402833" lon="10.7880133"><ele>22.0</ele><time>2026-04-26T15:22:42.493Z</time></trkpt><trkpt lat="44.8401733" lon="10.7878983"><ele>22.0</ele><time>2026-04-26T15:22:43.494Z</time></trkpt><trkpt lat="44.8400633" lon="10.7877783"><ele>22.0</ele><time>2026-04-26T15:22:44.494Z</time></trkpt><trkpt lat="44.8399567" lon="10.7876567"><ele>22.0</ele><time>2026-04-26T15:22:45.494Z</time></trkpt><trkpt lat="44.8398433" lon="10.78753"><ele>22.0</ele><time>2026-04-26T15:22:46.494Z</time></trkpt><trkpt lat="44.839605" lon="10.7872783"><ele>22.0</ele><time>2026-04-26T15:22:48.493Z</time></trkpt><trkpt lat="44.83948" lon="10.7871483"><ele>22.0</ele><time>2026-04-26T15:22:49.493Z</time></trkpt><trkpt lat="44.839355" lon="10.7870133"><ele>22.0</ele><time>2026-04-26T15:22:50.493Z</time></trkpt><trkpt lat="44.8392283" lon="10.786875"><ele>22.0</ele><time>2026-04-26T15:22:51.494Z</time></trkpt><trkpt lat="44.839105" lon="10.7867517"><ele>21.666666666666664</ele><time>2026-04-26T15:22:52.493Z</time></trkpt><trkpt lat="44.838985" lon="10.7866267"><ele>21.333333333333332</ele><time>2026-04-26T15:22:53.493Z</time></trkpt><trkpt lat="44.8388617" lon="10.786505"><ele>21.0</ele><time>2026-04-26T15:22:54.494Z</time></trkpt><trkpt lat="44.83874" lon="10.786375"><ele>21.0</ele><time>2026-04-26T15:22:55.493Z</time></trkpt><trkpt lat="44.8386133" lon="10.7862433"><ele>21.0</ele><time>2026-04-26T15:22:56.494Z</time></trkpt><trkpt lat="44.8384817" lon="10.7861083"><ele>21.0</ele><time>2026-04-26T15:22:57.494Z</time></trkpt><trkpt lat="44.838345" lon="10.7859717"><ele>21.666666666666668</ele><time>2026-04-26T15:22:58.494Z</time></trkpt><trkpt lat="44.8382117" lon="10.7858317"><ele>22.333333333333336</ele><time>2026-04-26T15:22:59.494Z</time></trkpt><trkpt lat="44.8380783" lon="10.785695"><ele>23.0</ele><time>2026-04-26T15:23:00.494Z</time></trkpt><trkpt lat="44.8379517" lon="10.7855633"><ele>23.0</ele><time>2026-04-26T15:23:01.493Z</time></trkpt><trkpt lat="44.837825" lon="10.7854467"><ele>23.0</ele><time>2026-04-26T15:23:02.493Z</time></trkpt><trkpt lat="44.8377067" lon="10.7853367"><ele>23.0</ele><time>2026-04-26T15:23:03.494Z</time></trkpt><trkpt lat="44.8376067" lon="10.785235"><ele>23.0</ele><time>2026-04-26T15:23:04.494Z</time></trkpt><trkpt lat="44.83751" lon="10.7851333"><ele>22.75</ele><time>2026-04-26T15:23:05.494Z</time></trkpt><trkpt lat="44.8374167" lon="10.7850383"><ele>22.5</ele><time>2026-04-26T15:23:06.493Z</time></trkpt><trkpt lat="44.83732" lon="10.78494"><ele>22.25</ele><time>2026-04-26T15:23:07.493Z</time></trkpt><trkpt lat="44.8372217" lon="10.7848367"><ele>22.0</ele><time>2026-04-26T15:23:08.493Z</time></trkpt><trkpt lat="44.8371183" lon="10.7847233"><ele>22.0</ele><time>2026-04-26T15:23:09.494Z</time></trkpt><trkpt lat="44.8370083" lon="10.78461"><ele>22.0</ele><time>2026-04-26T15:23:10.493Z</time></trkpt><trkpt lat="44.8368933" lon="10.7844933"><ele>22.0</ele><time>2026-04-26T15:23:11.491Z</time></trkpt><trkpt lat="44.83678" lon="10.7843767"><ele>22.0</ele><time>2026-04-26T15:23:12.494Z</time></trkpt><trkpt lat="44.83667" lon="10.7842517"><ele>22.0</ele><time>2026-04-26T15:23:13.494Z</time></trkpt><trkpt lat="44.8365517" lon="10.7841217"><ele>22.0</ele><time>2026-04-26T15:23:14.493Z</time></trkpt><trkpt lat="44.836425" lon="10.7839983"><ele>22.0</ele><time>2026-04-26T15:23:15.493Z</time></trkpt><trkpt lat="44.8362867" lon="10.7838633"><ele>22.0</ele><time>2026-04-26T15:23:16.493Z</time></trkpt><trkpt lat="44.8361417" lon="10.7837167"><ele>22.0</ele><time>2026-04-26T15:23:17.494Z</time></trkpt><trkpt lat="44.8359933" lon="10.7835767"><ele>22.0</ele><time>2026-04-26T15:23:18.493Z</time></trkpt><trkpt lat="44.835835" lon="10.7834317"><ele>23.0</ele><time>2026-04-26T15:23:19.494Z</time></trkpt><trkpt lat="44.83567" lon="10.7832833"><ele>24.0</ele><time>2026-04-26T15:23:20.494Z</time></trkpt><trkpt lat="44.8355" lon="10.7831217"><ele>25.0</ele><time>2026-04-26T15:23:21.494Z</time></trkpt><trkpt lat="44.8353267" lon="10.7829583"><ele>25.0</ele><time>2026-04-26T15:23:22.493Z</time></trkpt><trkpt lat="44.8351517" lon="10.7827867"><ele>25.0</ele><time>2026-04-26T15:23:23.493Z</time></trkpt><trkpt lat="44.8349667" lon="10.782615"><ele>25.0</ele><time>2026-04-26T15:23:24.494Z</time></trkpt><trkpt lat="44.8347717" lon="10.7824333"><ele>24.5</ele><time>2026-04-26T15:23:25.494Z</time></trkpt><trkpt lat="44.8345683" lon="10.78224"><ele>24.0</ele><time>2026-04-26T15:23:26.493Z</time></trkpt><trkpt lat="44.8343733" lon="10.7820433"><ele>24.333333333333336</ele><time>2026-04-26T15:23:27.493Z</time></trkpt><trkpt lat="44.8341883" lon="10.781865"><ele>24.666666666666668</ele><time>2026-04-26T15:23:28.493Z</time></trkpt><trkpt lat="44.834015" lon="10.7816967"><ele>25.0</ele><time>2026-04-26T15:23:29.493Z</time></trkpt><trkpt lat="44.8338583" lon="10.7815383"><ele>25.0</ele><time>2026-04-26T15:23:30.493Z</time></trkpt><trkpt lat="44.8337083" lon="10.781395"><ele>25.0</ele><time>2026-04-26T15:23:31.493Z</time></trkpt><trkpt lat="44.833565" lon="10.781255"><ele>25.0</ele><time>2026-04-26T15:23:32.494Z</time></trkpt><trkpt lat="44.8334333" lon="10.7811233"><ele>24.666666666666668</ele><time>2026-04-26T15:23:33.493Z</time></trkpt><trkpt lat="44.8333083" lon="10.780985"><ele>24.333333333333336</ele><time>2026-04-26T15:23:34.493Z</time></trkpt><trkpt lat="44.8331867" lon="10.7808417"><ele>24.0</ele><time>2026-04-26T15:23:35.494Z</time></trkpt><trkpt lat="44.8330717" lon="10.7807033"><ele>24.0</ele><time>2026-04-26T15:23:36.494Z</time></trkpt><trkpt lat="44.832965" lon="10.7805667"><ele>24.0</ele><time>2026-04-26T15:23:37.493Z</time></trkpt><trkpt lat="44.8328633" lon="10.780435"><ele>24.0</ele><time>2026-04-26T15:23:38.493Z</time></trkpt><trkpt lat="44.832765" lon="10.7803133"><ele>24.0</ele><time>2026-04-26T15:23:39.493Z</time></trkpt><trkpt lat="44.8326733" lon="10.7801933"><ele>24.4</ele><time>2026-04-26T15:23:40.494Z</time></trkpt><trkpt lat="44.8325833" lon="10.78009"><ele>24.799999999999997</ele><time>2026-04-26T15:23:41.494Z</time></trkpt><trkpt lat="44.8325033" lon="10.7799967"><ele>25.200000000000003</ele><time>2026-04-26T15:23:42.494Z</time></trkpt><trkpt lat="44.83242" lon="10.7799083"><ele>25.6</ele><time>2026-04-26T15:23:43.494Z</time></trkpt><trkpt lat="44.83235" lon="10.77984"><ele>26.0</ele><time>2026-04-26T15:23:44.493Z</time></trkpt><trkpt lat="44.8322667" lon="10.7797567"><ele>26.0</ele><time>2026-04-26T15:23:46.494Z</time></trkpt><trkpt lat="44.8322067" lon="10.7796717"><ele>26.0</ele><time>2026-04-26T15:23:55.493Z</time></trkpt><trkpt lat="44.832195" lon="10.779545"><ele>26.0</ele><time>2026-04-26T15:23:57.493Z</time></trkpt><trkpt lat="44.8321583" lon="10.7794217"><ele>26.0</ele><time>2026-04-26T15:23:59.493Z</time></trkpt><trkpt lat="44.832055" lon="10.7794383"><ele>26.0</ele><time>2026-04-26T15:24:01.493Z</time></trkpt><trkpt lat="44.8319867" lon="10.7795083"><ele>26.0</ele><time>2026-04-26T15:24:02.494Z</time></trkpt><trkpt lat="44.8318933" lon="10.7795683"><ele>26.0</ele><time>2026-04-26T15:24:03.493Z</time></trkpt><trkpt lat="44.831785" lon="10.7796033"><ele>26.0</ele><time>2026-04-26T15:24:04.493Z</time></trkpt><trkpt lat="44.8316683" lon="10.7796367"><ele>26.0</ele><time>2026-04-26T15:24:05.493Z</time></trkpt><trkpt lat="44.8315367" lon="10.7796767"><ele>25.25</ele><time>2026-04-26T15:24:06.493Z</time></trkpt><trkpt lat="44.8314117" lon="10.7797183"><ele>24.5</ele><time>2026-04-26T15:24:07.494Z</time></trkpt><trkpt lat="44.8312733" lon="10.7797517"><ele>23.75</ele><time>2026-04-26T15:24:08.493Z</time></trkpt><trkpt lat="44.8311317" lon="10.7797917"><ele>23.0</ele><time>2026-04-26T15:24:09.493Z</time></trkpt><trkpt lat="44.8309933" lon="10.779855"><ele>22.5</ele><time>2026-04-26T15:24:10.493Z</time></trkpt><trkpt lat="44.830855" lon="10.7799217"><ele>22.0</ele><time>2026-04-26T15:24:11.493Z</time></trkpt><trkpt lat="44.8307233" lon="10.779995"><ele>21.5</ele><time>2026-04-26T15:24:12.494Z</time></trkpt><trkpt lat="44.8305933" lon="10.7800767"><ele>21.0</ele><time>2026-04-26T15:24:13.493Z</time></trkpt><trkpt lat="44.830465" lon="10.7801667"><ele>21.666666666666668</ele><time>2026-04-26T15:24:14.494Z</time></trkpt><trkpt lat="44.83033" lon="10.7802533"><ele>22.333333333333336</ele><time>2026-04-26T15:24:15.493Z</time></trkpt><trkpt lat="44.83019" lon="10.7803483"><ele>23.0</ele><time>2026-04-26T15:24:16.493Z</time></trkpt><trkpt lat="44.8300467" lon="10.7804433"><ele>23.333333333333336</ele><time>2026-04-26T15:24:17.494Z</time></trkpt><trkpt lat="44.8299017" lon="10.7805467"><ele>23.666666666666668</ele><time>2026-04-26T15:24:18.493Z</time></trkpt><trkpt lat="44.82976" lon="10.780645"><ele>24.0</ele><time>2026-04-26T15:24:19.493Z</time></trkpt><trkpt lat="44.8296183" lon="10.78075"><ele>24.0</ele><time>2026-04-26T15:24:20.493Z</time></trkpt><trkpt lat="44.8294667" lon="10.7808567"><ele>24.0</ele><time>2026-04-26T15:24:21.494Z</time></trkpt><trkpt lat="44.8293183" lon="10.7809617"><ele>24.0</ele><time>2026-04-26T15:24:22.493Z</time></trkpt><trkpt lat="44.8291733" lon="10.7810583"><ele>23.333333333333332</ele><time>2026-04-26T15:24:23.493Z</time></trkpt><trkpt lat="44.8290317" lon="10.7811567"><ele>22.666666666666664</ele><time>2026-04-26T15:24:24.493Z</time></trkpt><trkpt lat="44.8288967" lon="10.7812567"><ele>22.0</ele><time>2026-04-26T15:24:25.493Z</time></trkpt><trkpt lat="44.8287583" lon="10.7813583"><ele>22.0</ele><time>2026-04-26T15:24:26.493Z</time></trkpt><trkpt lat="44.8286117" lon="10.7814567"><ele>22.0</ele><time>2026-04-26T15:24:27.494Z</time></trkpt><trkpt lat="44.828465" lon="10.7815533"><ele>22.0</ele><time>2026-04-26T15:24:28.494Z</time></trkpt><trkpt lat="44.8283233" lon="10.7816517"><ele>22.333333333333332</ele><time>2026-04-26T15:24:29.493Z</time></trkpt><trkpt lat="44.8281767" lon="10.7817517"><ele>22.666666666666668</ele><time>2026-04-26T15:24:30.494Z</time></trkpt><trkpt lat="44.8280333" lon="10.7818533"><ele>23.0</ele><time>2026-04-26T15:24:31.494Z</time></trkpt><trkpt lat="44.82789" lon="10.7819483"><ele>23.0</ele><time>2026-04-26T15:24:32.494Z</time></trkpt><trkpt lat="44.8277367" lon="10.7820417"><ele>23.0</ele><time>2026-04-26T15:24:33.493Z</time></trkpt><trkpt lat="44.8275867" lon="10.7821133"><ele>23.0</ele><time>2026-04-26T15:24:34.493Z</time></trkpt><trkpt lat="44.8274383" lon="10.7821717"><ele>23.0</ele><time>2026-04-26T15:24:35.494Z</time></trkpt><trkpt lat="44.8272967" lon="10.7822217"><ele>23.0</ele><time>2026-04-26T15:24:36.494Z</time></trkpt><trkpt lat="44.8271483" lon="10.7822767"><ele>23.0</ele><time>2026-04-26T15:24:37.493Z</time></trkpt><trkpt lat="44.8270083" lon="10.7823267"><ele>23.0</ele><time>2026-04-26T15:24:38.493Z</time></trkpt><trkpt lat="44.8268683" lon="10.782375"><ele>23.25</ele><time>2026-04-26T15:24:39.494Z</time></trkpt><trkpt lat="44.826735" lon="10.7824217"><ele>23.5</ele><time>2026-04-26T15:24:40.493Z</time></trkpt><trkpt lat="44.8266017" lon="10.7824717"><ele>23.75</ele><time>2026-04-26T15:24:41.494Z</time></trkpt><trkpt lat="44.8264683" lon="10.782515"><ele>24.0</ele><time>2026-04-26T15:24:42.494Z</time></trkpt><trkpt lat="44.8263283" lon="10.7825633"><ele>24.0</ele><time>2026-04-26T15:24:43.493Z</time></trkpt><trkpt lat="44.826185" lon="10.7826083"><ele>24.0</ele><time>2026-04-26T15:24:44.493Z</time></trkpt><trkpt lat="44.82604" lon="10.78266"><ele>24.0</ele><time>2026-04-26T15:24:45.494Z</time></trkpt><trkpt lat="44.825895" lon="10.7827133"><ele>24.0</ele><time>2026-04-26T15:24:46.493Z</time></trkpt><trkpt lat="44.82575" lon="10.7827683"><ele>24.0</ele><time>2026-04-26T15:24:47.494Z</time></trkpt><trkpt lat="44.8256033" lon="10.7828183"><ele>24.0</ele><time>2026-04-26T15:24:48.494Z</time></trkpt><trkpt lat="44.8254567" lon="10.782875"><ele>24.0</ele><time>2026-04-26T15:24:49.493Z</time></trkpt><trkpt lat="44.8253067" lon="10.7829433"><ele>24.0</ele><time>2026-04-26T15:24:50.493Z</time></trkpt><trkpt lat="44.8251617" lon="10.78302"><ele>24.0</ele><time>2026-04-26T15:24:51.494Z</time></trkpt><trkpt lat="44.8250233" lon="10.7831183"><ele>24.0</ele><time>2026-04-26T15:24:52.493Z</time></trkpt><trkpt lat="44.8248917" lon="10.7832433"><ele>23.666666666666668</ele><time>2026-04-26T15:24:53.493Z</time></trkpt><trkpt lat="44.82477" lon="10.78338"><ele>23.333333333333336</ele><time>2026-04-26T15:24:54.493Z</time></trkpt><trkpt lat="44.82465" lon="10.7835183"><ele>23.0</ele><time>2026-04-26T15:24:55.493Z</time></trkpt><trkpt lat="44.82454" lon="10.7836733"><ele>22.666666666666668</ele><time>2026-04-26T15:24:56.493Z</time></trkpt><trkpt lat="44.824435" lon="10.78384"><ele>22.333333333333332</ele><time>2026-04-26T15:24:57.494Z</time></trkpt><trkpt lat="44.8243417" lon="10.7840167"><ele>22.0</ele><time>2026-04-26T15:24:58.493Z</time></trkpt><trkpt lat="44.824255" lon="10.7841983"><ele>22.333333333333332</ele><time>2026-04-26T15:24:59.494Z</time></trkpt><trkpt lat="44.82417" lon="10.7843783"><ele>22.666666666666668</ele><time>2026-04-26T15:25:00.493Z</time></trkpt><trkpt lat="44.8240833" lon="10.7845567"><ele>23.0</ele><time>2026-04-26T15:25:01.493Z</time></trkpt><trkpt lat="44.8239967" lon="10.7847367"><ele>23.0</ele><time>2026-04-26T15:25:02.493Z</time></trkpt><trkpt lat="44.82391" lon="10.7849167"><ele>23.0</ele><time>2026-04-26T15:25:03.494Z</time></trkpt><trkpt lat="44.8238233" lon="10.785095"><ele>23.0</ele><time>2026-04-26T15:25:04.493Z</time></trkpt><trkpt lat="44.8237383" lon="10.7852783"><ele>23.0</ele><time>2026-04-26T15:25:05.493Z</time></trkpt><trkpt lat="44.8236567" lon="10.7854533"><ele>23.0</ele><time>2026-04-26T15:25:06.493Z</time></trkpt><trkpt lat="44.8235733" lon="10.7856317"><ele>23.0</ele><time>2026-04-26T15:25:07.494Z</time></trkpt><trkpt lat="44.82349" lon="10.7857967"><ele>23.0</ele><time>2026-04-26T15:25:08.494Z</time></trkpt><trkpt lat="44.8234117" lon="10.7859633"><ele>22.75</ele><time>2026-04-26T15:25:09.493Z</time></trkpt><trkpt lat="44.823335" lon="10.78614"><ele>22.5</ele><time>2026-04-26T15:25:10.493Z</time></trkpt><trkpt lat="44.8232533" lon="10.78631"><ele>22.25</ele><time>2026-04-26T15:25:11.493Z</time></trkpt><trkpt lat="44.8231717" lon="10.7864717"><ele>22.0</ele><time>2026-04-26T15:25:12.494Z</time></trkpt><trkpt lat="44.8230883" lon="10.7866433"><ele>22.0</ele><time>2026-04-26T15:25:13.493Z</time></trkpt><trkpt lat="44.8230033" lon="10.786815"><ele>22.0</ele><time>2026-04-26T15:25:14.494Z</time></trkpt><trkpt lat="44.8229167" lon="10.7869833"><ele>22.0</ele><time>2026-04-26T15:25:15.494Z</time></trkpt><trkpt lat="44.822835" lon="10.7871517"><ele>22.0</ele><time>2026-04-26T15:25:16.494Z</time></trkpt><trkpt lat="44.8227533" lon="10.7873267"><ele>22.0</ele><time>2026-04-26T15:25:17.494Z</time></trkpt><trkpt lat="44.8226717" lon="10.7875033"><ele>22.0</ele><time>2026-04-26T15:25:18.494Z</time></trkpt><trkpt lat="44.8225933" lon="10.7876817"><ele>22.0</ele><time>2026-04-26T15:25:19.494Z</time></trkpt><trkpt lat="44.82251" lon="10.7878533"><ele>22.0</ele><time>2026-04-26T15:25:20.494Z</time></trkpt><trkpt lat="44.8224267" lon="10.78803"><ele>22.0</ele><time>2026-04-26T15:25:21.494Z</time></trkpt><trkpt lat="44.8223483" lon="10.7882"><ele>22.0</ele><time>2026-04-26T15:25:22.494Z</time></trkpt><trkpt lat="44.8222667" lon="10.788375"><ele>22.0</ele><time>2026-04-26T15:25:23.493Z</time></trkpt><trkpt lat="44.8221867" lon="10.7885433"><ele>22.0</ele><time>2026-04-26T15:25:24.493Z</time></trkpt><trkpt lat="44.8221067" lon="10.7887167"><ele>22.0</ele><time>2026-04-26T15:25:25.493Z</time></trkpt><trkpt lat="44.822025" lon="10.7888883"><ele>22.0</ele><time>2026-04-26T15:25:26.494Z</time></trkpt><trkpt lat="44.8219417" lon="10.7890617"><ele>22.0</ele><time>2026-04-26T15:25:27.494Z</time></trkpt><trkpt lat="44.82186" lon="10.789225"><ele>22.0</ele><time>2026-04-26T15:25:28.494Z</time></trkpt><trkpt lat="44.821785" lon="10.78938"><ele>22.25</ele><time>2026-04-26T15:25:29.494Z</time></trkpt><trkpt lat="44.821715" lon="10.789535"><ele>22.5</ele><time>2026-04-26T15:25:30.493Z</time></trkpt><trkpt lat="44.8216467" lon="10.7896783"><ele>22.75</ele><time>2026-04-26T15:25:31.493Z</time></trkpt><trkpt lat="44.821585" lon="10.7897967"><ele>23.0</ele><time>2026-04-26T15:25:32.493Z</time></trkpt><trkpt lat="44.8215067" lon="10.7898783"><ele>23.0</ele><time>2026-04-26T15:25:33.493Z</time></trkpt><trkpt lat="44.821415" lon="10.7899417"><ele>23.0</ele><time>2026-04-26T15:25:34.494Z</time></trkpt><trkpt lat="44.8213333" lon="10.79002"><ele>23.0</ele><time>2026-04-26T15:25:35.493Z</time></trkpt><trkpt lat="44.8212683" lon="10.7901367"><ele>23.0</ele><time>2026-04-26T15:25:36.494Z</time></trkpt><trkpt lat="44.82123" lon="10.7902783"><ele>23.0</ele><time>2026-04-26T15:25:37.494Z</time></trkpt><trkpt lat="44.8212167" lon="10.7904433"><ele>23.25</ele><time>2026-04-26T15:25:38.493Z</time></trkpt><trkpt lat="44.8212117" lon="10.7906133"><ele>23.5</ele><time>2026-04-26T15:25:39.493Z</time></trkpt><trkpt lat="44.8211833" lon="10.7907933"><ele>23.75</ele><time>2026-04-26T15:25:40.493Z</time></trkpt><trkpt lat="44.8211383" lon="10.7909667"><ele>24.0</ele><time>2026-04-26T15:25:41.494Z</time></trkpt><trkpt lat="44.8210867" lon="10.79113"><ele>24.0</ele><time>2026-04-26T15:25:42.493Z</time></trkpt><trkpt lat="44.8210383" lon="10.791295"><ele>24.0</ele><time>2026-04-26T15:25:43.493Z</time></trkpt><trkpt lat="44.8209933" lon="10.79146"><ele>24.0</ele><time>2026-04-26T15:25:44.493Z</time></trkpt><trkpt lat="44.8209533" lon="10.7916317"><ele>24.0</ele><time>2026-04-26T15:25:45.494Z</time></trkpt><trkpt lat="44.820915" lon="10.791805"><ele>23.75</ele><time>2026-04-26T15:25:46.493Z</time></trkpt><trkpt lat="44.8208767" lon="10.79198"><ele>23.5</ele><time>2026-04-26T15:25:47.493Z</time></trkpt><trkpt lat="44.8208317" lon="10.7921633"><ele>23.25</ele><time>2026-04-26T15:25:48.493Z</time></trkpt><trkpt lat="44.8207933" lon="10.792345"><ele>23.0</ele><time>2026-04-26T15:25:49.494Z</time></trkpt><trkpt lat="44.820755" lon="10.7925317"><ele>23.0</ele><time>2026-04-26T15:25:50.494Z</time></trkpt><trkpt lat="44.8207117" lon="10.7927183"><ele>23.0</ele><time>2026-04-26T15:25:51.494Z</time></trkpt><trkpt lat="44.8206683" lon="10.7929117"><ele>23.0</ele><time>2026-04-26T15:25:52.494Z</time></trkpt><trkpt lat="44.82062" lon="10.793105"><ele>23.0</ele><time>2026-04-26T15:25:53.494Z</time></trkpt><trkpt lat="44.820575" lon="10.7933"><ele>23.0</ele><time>2026-04-26T15:25:54.493Z</time></trkpt><trkpt lat="44.8205333" lon="10.7934933"><ele>23.0</ele><time>2026-04-26T15:25:55.493Z</time></trkpt><trkpt lat="44.8204917" lon="10.7936817"><ele>23.0</ele><time>2026-04-26T15:25:56.494Z</time></trkpt><trkpt lat="44.8204483" lon="10.793875"><ele>23.0</ele><time>2026-04-26T15:25:57.493Z</time></trkpt><trkpt lat="44.8204067" lon="10.7940667"><ele>22.75</ele><time>2026-04-26T15:25:58.493Z</time></trkpt><trkpt lat="44.820365" lon="10.794255"><ele>22.5</ele><time>2026-04-26T15:25:59.493Z</time></trkpt><trkpt lat="44.8203233" lon="10.7944367"><ele>22.25</ele><time>2026-04-26T15:26:00.493Z</time></trkpt><trkpt lat="44.820285" lon="10.7946267"><ele>22.0</ele><time>2026-04-26T15:26:01.493Z</time></trkpt><trkpt lat="44.8202467" lon="10.7948183"><ele>22.0</ele><time>2026-04-26T15:26:02.494Z</time></trkpt><trkpt lat="44.820205" lon="10.795"><ele>22.0</ele><time>2026-04-26T15:26:03.494Z</time></trkpt><trkpt lat="44.820165" lon="10.79518"><ele>22.0</ele><time>2026-04-26T15:26:04.493Z</time></trkpt><trkpt lat="44.820125" lon="10.7953483"><ele>22.0</ele><time>2026-04-26T15:26:05.493Z</time></trkpt><trkpt lat="44.82009" lon="10.795515"><ele>22.0</ele><time>2026-04-26T15:26:06.494Z</time></trkpt><trkpt lat="44.82005" lon="10.795675"><ele>22.0</ele><time>2026-04-26T15:26:07.493Z</time></trkpt><trkpt lat="44.8200133" lon="10.795845"><ele>22.0</ele><time>2026-04-26T15:26:08.493Z</time></trkpt><trkpt lat="44.8199733" lon="10.7960233"><ele>22.0</ele><time>2026-04-26T15:26:09.493Z</time></trkpt><trkpt lat="44.8199267" lon="10.7962067"><ele>21.75</ele><time>2026-04-26T15:26:10.493Z</time></trkpt><trkpt lat="44.8198883" lon="10.7963967"><ele>21.5</ele><time>2026-04-26T15:26:11.493Z</time></trkpt><trkpt lat="44.8198467" lon="10.7965933"><ele>21.25</ele><time>2026-04-26T15:26:12.493Z</time></trkpt><trkpt lat="44.8198" lon="10.7967917"><ele>21.0</ele><time>2026-04-26T15:26:13.493Z</time></trkpt><trkpt lat="44.819755" lon="10.7969883"><ele>21.5</ele><time>2026-04-26T15:26:14.494Z</time></trkpt><trkpt lat="44.819715" lon="10.797175"><ele>22.0</ele><time>2026-04-26T15:26:15.494Z</time></trkpt><trkpt lat="44.8196767" lon="10.7973583"><ele>22.5</ele><time>2026-04-26T15:26:16.494Z</time></trkpt><trkpt lat="44.8196367" lon="10.797535"><ele>23.0</ele><time>2026-04-26T15:26:17.494Z</time></trkpt><trkpt lat="44.8195967" lon="10.7977133"><ele>23.0</ele><time>2026-04-26T15:26:18.493Z</time></trkpt><trkpt lat="44.8195567" lon="10.7979017"><ele>23.0</ele><time>2026-04-26T15:26:19.494Z</time></trkpt><trkpt lat="44.8195117" lon="10.7980933"><ele>23.0</ele><time>2026-04-26T15:26:20.493Z</time></trkpt><trkpt lat="44.8194683" lon="10.7982817"><ele>23.0</ele><time>2026-04-26T15:26:21.494Z</time></trkpt><trkpt lat="44.8194267" lon="10.7984767"><ele>22.75</ele><time>2026-04-26T15:26:22.493Z</time></trkpt><trkpt lat="44.8193833" lon="10.7986633"><ele>22.5</ele><time>2026-04-26T15:26:23.494Z</time></trkpt><trkpt lat="44.81934" lon="10.7988567"><ele>22.25</ele><time>2026-04-26T15:26:24.493Z</time></trkpt><trkpt lat="44.8193" lon="10.7990533"><ele>22.0</ele><time>2026-04-26T15:26:25.493Z</time></trkpt><trkpt lat="44.8192617" lon="10.79925"><ele>22.0</ele><time>2026-04-26T15:26:26.493Z</time></trkpt><trkpt lat="44.8192233" lon="10.79943"><ele>22.0</ele><time>2026-04-26T15:26:27.493Z</time></trkpt><trkpt lat="44.8191833" lon="10.7996083"><ele>22.0</ele><time>2026-04-26T15:26:28.493Z</time></trkpt><trkpt lat="44.8191417" lon="10.7997883"><ele>22.0</ele><time>2026-04-26T15:26:29.494Z</time></trkpt><trkpt lat="44.8191033" lon="10.7999667"><ele>22.0</ele><time>2026-04-26T15:26:30.493Z</time></trkpt><trkpt lat="44.8190683" lon="10.8001433"><ele>22.0</ele><time>2026-04-26T15:26:31.494Z</time></trkpt><trkpt lat="44.8190283" lon="10.8003083"><ele>22.0</ele><time>2026-04-26T15:26:32.494Z</time></trkpt><trkpt lat="44.8189883" lon="10.8004933"><ele>22.0</ele><time>2026-04-26T15:26:33.494Z</time></trkpt><trkpt lat="44.81895" lon="10.8006633"><ele>22.0</ele><time>2026-04-26T15:26:34.494Z</time></trkpt><trkpt lat="44.8189133" lon="10.8008333"><ele>22.0</ele><time>2026-04-26T15:26:35.494Z</time></trkpt><trkpt lat="44.818875" lon="10.801"><ele>22.0</ele><time>2026-04-26T15:26:36.494Z</time></trkpt><trkpt lat="44.8188333" lon="10.8011617"><ele>22.0</ele><time>2026-04-26T15:26:37.494Z</time></trkpt><trkpt lat="44.8187933" lon="10.801325"><ele>21.75</ele><time>2026-04-26T15:26:38.494Z</time></trkpt><trkpt lat="44.8187533" lon="10.8014883"><ele>21.5</ele><time>2026-04-26T15:26:39.494Z</time></trkpt><trkpt lat="44.81872" lon="10.8016617"><ele>21.25</ele><time>2026-04-26T15:26:40.493Z</time></trkpt><trkpt lat="44.8186833" lon="10.80183"><ele>21.0</ele><time>2026-04-26T15:26:41.493Z</time></trkpt><trkpt lat="44.8186417" lon="10.8020017"><ele>21.0</ele><time>2026-04-26T15:26:42.493Z</time></trkpt><trkpt lat="44.8185983" lon="10.80217"><ele>21.0</ele><time>2026-04-26T15:26:43.493Z</time></trkpt><trkpt lat="44.8185533" lon="10.80234"><ele>21.0</ele><time>2026-04-26T15:26:44.493Z</time></trkpt><trkpt lat="44.81852" lon="10.80253"><ele>21.0</ele><time>2026-04-26T15:26:45.494Z</time></trkpt><trkpt lat="44.8184817" lon="10.8027117"><ele>20.75</ele><time>2026-04-26T15:26:46.493Z</time></trkpt><trkpt lat="44.8184417" lon="10.8028983"><ele>20.5</ele><time>2026-04-26T15:26:47.494Z</time></trkpt><trkpt lat="44.8184033" lon="10.803085"><ele>20.25</ele><time>2026-04-26T15:26:48.494Z</time></trkpt><trkpt lat="44.8183633" lon="10.8032767"><ele>20.0</ele><time>2026-04-26T15:26:49.494Z</time></trkpt><trkpt lat="44.8183233" lon="10.80347"><ele>20.0</ele><time>2026-04-26T15:26:50.494Z</time></trkpt><trkpt lat="44.8182783" lon="10.8036617"><ele>20.0</ele><time>2026-04-26T15:26:51.493Z</time></trkpt><trkpt lat="44.818235" lon="10.803855"><ele>20.0</ele><time>2026-04-26T15:26:52.493Z</time></trkpt><trkpt lat="44.81819" lon="10.80405"><ele>20.0</ele><time>2026-04-26T15:26:53.493Z</time></trkpt><trkpt lat="44.8181483" lon="10.8042483"><ele>20.5</ele><time>2026-04-26T15:26:54.493Z</time></trkpt><trkpt lat="44.8181033" lon="10.8044417"><ele>21.0</ele><time>2026-04-26T15:26:55.493Z</time></trkpt><trkpt lat="44.8180583" lon="10.8046383"><ele>21.5</ele><time>2026-04-26T15:26:56.494Z</time></trkpt><trkpt lat="44.8180133" lon="10.804825"><ele>22.0</ele><time>2026-04-26T15:26:57.494Z</time></trkpt><trkpt lat="44.8179717" lon="10.8050167"><ele>22.25</ele><time>2026-04-26T15:26:58.493Z</time></trkpt><trkpt lat="44.8179283" lon="10.8052033"><ele>22.5</ele><time>2026-04-26T15:26:59.493Z</time></trkpt><trkpt lat="44.8178967" lon="10.8053817"><ele>22.75</ele><time>2026-04-26T15:27:00.493Z</time></trkpt><trkpt lat="44.8178633" lon="10.8055433"><ele>23.0</ele><time>2026-04-26T15:27:01.494Z</time></trkpt><trkpt lat="44.8178317" lon="10.8056933"><ele>23.0</ele><time>2026-04-26T15:27:02.493Z</time></trkpt><trkpt lat="44.8178" lon="10.8058283"><ele>23.0</ele><time>2026-04-26T15:27:03.493Z</time></trkpt><trkpt lat="44.8177633" lon="10.805945"><ele>23.0</ele><time>2026-04-26T15:27:04.493Z</time></trkpt><trkpt lat="44.817715" lon="10.806065"><ele>23.0</ele><time>2026-04-26T15:27:05.493Z</time></trkpt><trkpt lat="44.8176733" lon="10.8061833"><ele>23.0</ele><time>2026-04-26T15:27:06.494Z</time></trkpt><trkpt lat="44.8176383" lon="10.8063167"><ele>22.75</ele><time>2026-04-26T15:27:07.494Z</time></trkpt><trkpt lat="44.8176267" lon="10.806465"><ele>22.5</ele><time>2026-04-26T15:27:08.493Z</time></trkpt><trkpt lat="44.8176067" lon="10.806615"><ele>22.25</ele><time>2026-04-26T15:27:09.494Z</time></trkpt><trkpt lat="44.817575" lon="10.8067683"><ele>22.0</ele><time>2026-04-26T15:27:10.494Z</time></trkpt><trkpt lat="44.8175283" lon="10.8069317"><ele>22.0</ele><time>2026-04-26T15:27:11.493Z</time></trkpt><trkpt lat="44.8174733" lon="10.8070883"><ele>22.0</ele><time>2026-04-26T15:27:12.494Z</time></trkpt><trkpt lat="44.817405" lon="10.807255"><ele>22.0</ele><time>2026-04-26T15:27:13.494Z</time></trkpt><trkpt lat="44.81733" lon="10.8074217"><ele>22.0</ele><time>2026-04-26T15:27:14.493Z</time></trkpt><trkpt lat="44.817255" lon="10.8075783"><ele>22.0</ele><time>2026-04-26T15:27:15.494Z</time></trkpt><trkpt lat="44.8171717" lon="10.807735"><ele>22.0</ele><time>2026-04-26T15:27:16.493Z</time></trkpt><trkpt lat="44.8170817" lon="10.8078867"><ele>22.0</ele><time>2026-04-26T15:27:17.494Z</time></trkpt><trkpt lat="44.8169767" lon="10.8080383"><ele>22.0</ele><time>2026-04-26T15:27:18.494Z</time></trkpt><trkpt lat="44.81687" lon="10.8081867"><ele>22.0</ele><time>2026-04-26T15:27:19.494Z</time></trkpt><trkpt lat="44.8167633" lon="10.8083283"><ele>22.0</ele><time>2026-04-26T15:27:20.494Z</time></trkpt><trkpt lat="44.8166617" lon="10.8084733"><ele>22.0</ele><time>2026-04-26T15:27:21.494Z</time></trkpt><trkpt lat="44.8165567" lon="10.80861"><ele>22.0</ele><time>2026-04-26T15:27:22.493Z</time></trkpt><trkpt lat="44.8164567" lon="10.8087433"><ele>22.0</ele><time>2026-04-26T15:27:23.493Z</time></trkpt><trkpt lat="44.81636" lon="10.8088683"><ele>22.0</ele><time>2026-04-26T15:27:24.493Z</time></trkpt><trkpt lat="44.8162633" lon="10.8089917"><ele>22.0</ele><time>2026-04-26T15:27:25.494Z</time></trkpt><trkpt lat="44.81617" lon="10.809125"><ele>22.0</ele><time>2026-04-26T15:27:26.494Z</time></trkpt><trkpt lat="44.8160783" lon="10.8092483"><ele>22.0</ele><time>2026-04-26T15:27:27.493Z</time></trkpt><trkpt lat="44.8159867" lon="10.8093717"><ele>22.0</ele><time>2026-04-26T15:27:28.494Z</time></trkpt><trkpt lat="44.8158933" lon="10.8094967"><ele>22.0</ele><time>2026-04-26T15:27:29.493Z</time></trkpt><trkpt lat="44.8158" lon="10.80963"><ele>22.0</ele><time>2026-04-26T15:27:30.494Z</time></trkpt><trkpt lat="44.8157017" lon="10.8097633"><ele>22.0</ele><time>2026-04-26T15:27:31.493Z</time></trkpt><trkpt lat="44.8156" lon="10.8098967"><ele>22.0</ele><time>2026-04-26T15:27:32.494Z</time></trkpt><trkpt lat="44.8154983" lon="10.8100317"><ele>22.0</ele><time>2026-04-26T15:27:33.494Z</time></trkpt><trkpt lat="44.8153983" lon="10.8101733"><ele>22.0</ele><time>2026-04-26T15:27:34.494Z</time></trkpt><trkpt lat="44.815295" lon="10.8103183"><ele>22.0</ele><time>2026-04-26T15:27:35.494Z</time></trkpt><trkpt lat="44.815185" lon="10.8104583"><ele>22.0</ele><time>2026-04-26T15:27:36.494Z</time></trkpt><trkpt lat="44.8150767" lon="10.8105983"><ele>22.0</ele><time>2026-04-26T15:27:37.493Z</time></trkpt><trkpt lat="44.8149683" lon="10.8107433"><ele>22.0</ele><time>2026-04-26T15:27:38.493Z</time></trkpt><trkpt lat="44.8148583" lon="10.8108917"><ele>21.75</ele><time>2026-04-26T15:27:39.494Z</time></trkpt><trkpt lat="44.8147467" lon="10.8110383"><ele>21.5</ele><time>2026-04-26T15:27:40.494Z</time></trkpt><trkpt lat="44.8146433" lon="10.8111833"><ele>21.25</ele><time>2026-04-26T15:27:41.494Z</time></trkpt><trkpt lat="44.814535" lon="10.81133"><ele>21.0</ele><time>2026-04-26T15:27:42.493Z</time></trkpt><trkpt lat="44.8144267" lon="10.8114767"><ele>21.25</ele><time>2026-04-26T15:27:43.493Z</time></trkpt><trkpt lat="44.81432" lon="10.8116267"><ele>21.5</ele><time>2026-04-26T15:27:44.493Z</time></trkpt><trkpt lat="44.814215" lon="10.81177"><ele>21.75</ele><time>2026-04-26T15:27:45.494Z</time></trkpt><trkpt lat="44.81411" lon="10.811915"><ele>22.0</ele><time>2026-04-26T15:27:46.493Z</time></trkpt><trkpt lat="44.8139983" lon="10.8120533"><ele>22.333333333333332</ele><time>2026-04-26T15:27:47.493Z</time></trkpt><trkpt lat="44.8138883" lon="10.8121917"><ele>22.666666666666668</ele><time>2026-04-26T15:27:48.493Z</time></trkpt><trkpt lat="44.8137767" lon="10.8123417"><ele>23.0</ele><time>2026-04-26T15:27:49.493Z</time></trkpt><trkpt lat="44.81367" lon="10.8124917"><ele>23.0</ele><time>2026-04-26T15:27:50.494Z</time></trkpt><trkpt lat="44.8135617" lon="10.8126417"><ele>23.0</ele><time>2026-04-26T15:27:51.493Z</time></trkpt><trkpt lat="44.8134533" lon="10.8127933"><ele>23.0</ele><time>2026-04-26T15:27:52.494Z</time></trkpt><trkpt lat="44.813345" lon="10.8129417"><ele>22.75</ele><time>2026-04-26T15:27:53.494Z</time></trkpt><trkpt lat="44.8132417" lon="10.8130833"><ele>22.5</ele><time>2026-04-26T15:27:54.493Z</time></trkpt><trkpt lat="44.8131417" lon="10.81322"><ele>22.25</ele><time>2026-04-26T15:27:55.494Z</time></trkpt><trkpt lat="44.813045" lon="10.81335"><ele>22.0</ele><time>2026-04-26T15:27:56.493Z</time></trkpt><trkpt lat="44.8129483" lon="10.8134767"><ele>21.75</ele><time>2026-04-26T15:27:57.494Z</time></trkpt><trkpt lat="44.8128533" lon="10.81361"><ele>21.5</ele><time>2026-04-26T15:27:58.494Z</time></trkpt><trkpt lat="44.8127583" lon="10.813735"><ele>21.25</ele><time>2026-04-26T15:27:59.493Z</time></trkpt><trkpt lat="44.812665" lon="10.8138567"><ele>21.0</ele><time>2026-04-26T15:28:00.494Z</time></trkpt><trkpt lat="44.812575" lon="10.8139783"><ele>21.25</ele><time>2026-04-26T15:28:01.492Z</time></trkpt><trkpt lat="44.81248" lon="10.8141083"><ele>21.5</ele><time>2026-04-26T15:28:02.492Z</time></trkpt><trkpt lat="44.812385" lon="10.81423"><ele>21.75</ele><time>2026-04-26T15:28:03.492Z</time></trkpt><trkpt lat="44.8123" lon="10.81435"><ele>22.0</ele><time>2026-04-26T15:28:04.493Z</time></trkpt><trkpt lat="44.812215" lon="10.8144717"><ele>22.0</ele><time>2026-04-26T15:28:05.492Z</time></trkpt><trkpt lat="44.812125" lon="10.8145867"><ele>22.0</ele><time>2026-04-26T15:28:06.492Z</time></trkpt><trkpt lat="44.8120433" lon="10.8147183"><ele>22.0</ele><time>2026-04-26T15:28:07.492Z</time></trkpt><trkpt lat="44.8119617" lon="10.8148533"><ele>22.0</ele><time>2026-04-26T15:28:08.492Z</time></trkpt><trkpt lat="44.8118783" lon="10.81501"><ele>21.75</ele><time>2026-04-26T15:28:09.493Z</time></trkpt><trkpt lat="44.8117967" lon="10.8151733"><ele>21.5</ele><time>2026-04-26T15:28:10.492Z</time></trkpt><trkpt lat="44.8117217" lon="10.8153367"><ele>21.25</ele><time>2026-04-26T15:28:11.492Z</time></trkpt><trkpt lat="44.8116483" lon="10.8155117"><ele>21.0</ele><time>2026-04-26T15:28:12.493Z</time></trkpt><trkpt lat="44.81158" lon="10.8156817"><ele>21.0</ele><time>2026-04-26T15:28:13.493Z</time></trkpt><trkpt lat="44.8115133" lon="10.815845"><ele>21.0</ele><time>2026-04-26T15:28:14.493Z</time></trkpt><trkpt lat="44.8114617" lon="10.816005"><ele>21.0</ele><time>2026-04-26T15:28:15.492Z</time></trkpt><trkpt lat="44.8114133" lon="10.816155"><ele>21.0</ele><time>2026-04-26T15:28:16.493Z</time></trkpt><trkpt lat="44.8113717" lon="10.816305"><ele>21.4</ele><time>2026-04-26T15:28:17.492Z</time></trkpt><trkpt lat="44.8113367" lon="10.816445"><ele>21.8</ele><time>2026-04-26T15:28:18.492Z</time></trkpt><trkpt lat="44.8113083" lon="10.816585"><ele>22.2</ele><time>2026-04-26T15:28:19.493Z</time></trkpt><trkpt lat="44.81128" lon="10.8167167"><ele>22.599999999999998</ele><time>2026-04-26T15:28:20.493Z</time></trkpt><trkpt lat="44.81125" lon="10.8168433"><ele>23.0</ele><time>2026-04-26T15:28:21.492Z</time></trkpt><trkpt lat="44.8112167" lon="10.8169517"><ele>23.166666666666668</ele><time>2026-04-26T15:28:22.493Z</time></trkpt><trkpt lat="44.8111783" lon="10.8170333"><ele>23.333333333333336</ele><time>2026-04-26T15:28:23.493Z</time></trkpt><trkpt lat="44.8111267" lon="10.8170883"><ele>23.5</ele><time>2026-04-26T15:28:24.493Z</time></trkpt><trkpt lat="44.8110533" lon="10.8171017"><ele>23.666666666666668</ele><time>2026-04-26T15:28:25.492Z</time></trkpt><trkpt lat="44.810955" lon="10.8170767"><ele>23.833333333333332</ele><time>2026-04-26T15:28:26.492Z</time></trkpt><trkpt lat="44.81083" lon="10.8170183"><ele>24.0</ele><time>2026-04-26T15:28:27.492Z</time></trkpt><trkpt lat="44.8107" lon="10.8169433"><ele>23.75</ele><time>2026-04-26T15:28:28.492Z</time></trkpt><trkpt lat="44.810585" lon="10.8168817"><ele>23.5</ele><time>2026-04-26T15:28:29.493Z</time></trkpt><trkpt lat="44.8104717" lon="10.8168217"><ele>23.25</ele><time>2026-04-26T15:28:30.493Z</time></trkpt><trkpt lat="44.8103683" lon="10.8167667"><ele>23.0</ele><time>2026-04-26T15:28:31.493Z</time></trkpt><trkpt lat="44.81027" lon="10.8167133"><ele>23.0</ele><time>2026-04-26T15:28:32.492Z</time></trkpt><trkpt lat="44.81017" lon="10.8166583"><ele>23.0</ele><time>2026-04-26T15:28:33.492Z</time></trkpt><trkpt lat="44.8100633" lon="10.8166083"><ele>23.0</ele><time>2026-04-26T15:28:34.493Z</time></trkpt><trkpt lat="44.8099483" lon="10.8165533"><ele>23.0</ele><time>2026-04-26T15:28:35.493Z</time></trkpt><trkpt lat="44.8098283" lon="10.816495"><ele>23.0</ele><time>2026-04-26T15:28:36.492Z</time></trkpt><trkpt lat="44.8097033" lon="10.8164183"><ele>23.0</ele><time>2026-04-26T15:28:37.493Z</time></trkpt><trkpt lat="44.80957" lon="10.8163367"><ele>23.0</ele><time>2026-04-26T15:28:38.493Z</time></trkpt><trkpt lat="44.809445" lon="10.8162583"><ele>23.0</ele><time>2026-04-26T15:28:39.492Z</time></trkpt><trkpt lat="44.8093233" lon="10.8161933"><ele>23.0</ele><time>2026-04-26T15:28:40.492Z</time></trkpt><trkpt lat="44.8092067" lon="10.816125"><ele>23.0</ele><time>2026-04-26T15:28:41.492Z</time></trkpt><trkpt lat="44.8091017" lon="10.81606"><ele>23.0</ele><time>2026-04-26T15:28:42.493Z</time></trkpt><trkpt lat="44.8090067" lon="10.8160017"><ele>23.0</ele><time>2026-04-26T15:28:43.493Z</time></trkpt><trkpt lat="44.80891" lon="10.8159467"><ele>23.0</ele><time>2026-04-26T15:28:44.492Z</time></trkpt><trkpt lat="44.8088117" lon="10.815885"><ele>23.0</ele><time>2026-04-26T15:28:45.492Z</time></trkpt><trkpt lat="44.8087183" lon="10.8158217"><ele>23.0</ele><time>2026-04-26T15:28:46.492Z</time></trkpt><trkpt lat="44.8086267" lon="10.815765"><ele>23.0</ele><time>2026-04-26T15:28:47.492Z</time></trkpt><trkpt lat="44.8085283" lon="10.81571"><ele>23.0</ele><time>2026-04-26T15:28:48.493Z</time></trkpt><trkpt lat="44.80843" lon="10.8156633"><ele>23.0</ele><time>2026-04-26T15:28:49.492Z</time></trkpt><trkpt lat="44.8083317" lon="10.8156083"><ele>23.0</ele><time>2026-04-26T15:28:50.493Z</time></trkpt><trkpt lat="44.80824" lon="10.8155533"><ele>23.0</ele><time>2026-04-26T15:28:51.492Z</time></trkpt><trkpt lat="44.808155" lon="10.8155067"><ele>23.0</ele><time>2026-04-26T15:28:52.493Z</time></trkpt><trkpt lat="44.8080767" lon="10.81546"><ele>23.0</ele><time>2026-04-26T15:28:53.492Z</time></trkpt><trkpt lat="44.8080083" lon="10.8154183"><ele>23.0</ele><time>2026-04-26T15:28:54.492Z</time></trkpt><trkpt lat="44.807945" lon="10.8153717"><ele>23.0</ele><time>2026-04-26T15:28:55.493Z</time></trkpt><trkpt lat="44.8078767" lon="10.8153283"><ele>23.0</ele><time>2026-04-26T15:28:56.493Z</time></trkpt><trkpt lat="44.8078083" lon="10.8152833"><ele>23.0</ele><time>2026-04-26T15:28:57.492Z</time></trkpt><trkpt lat="44.8077333" lon="10.8152417"><ele>23.0</ele><time>2026-04-26T15:28:58.492Z</time></trkpt><trkpt lat="44.80764" lon="10.8152017"><ele>23.0</ele><time>2026-04-26T15:28:59.492Z</time></trkpt><trkpt lat="44.807535" lon="10.8151567"><ele>23.0</ele><time>2026-04-26T15:29:00.492Z</time></trkpt><trkpt lat="44.8074283" lon="10.815095"><ele>23.0</ele><time>2026-04-26T15:29:01.492Z</time></trkpt><trkpt lat="44.8073117" lon="10.8150183"><ele>23.0</ele><time>2026-04-26T15:29:02.493Z</time></trkpt><trkpt lat="44.8071867" lon="10.8149567"><ele>23.0</ele><time>2026-04-26T15:29:03.492Z</time></trkpt><trkpt lat="44.8070617" lon="10.8148933"><ele>23.0</ele><time>2026-04-26T15:29:04.493Z</time></trkpt><trkpt lat="44.8069467" lon="10.814825"><ele>24.0</ele><time>2026-04-26T15:29:05.493Z</time></trkpt><trkpt lat="44.8068267" lon="10.814745"><ele>25.0</ele><time>2026-04-26T15:29:06.492Z</time></trkpt><trkpt lat="44.806695" lon="10.81466"><ele>26.0</ele><time>2026-04-26T15:29:07.493Z</time></trkpt><trkpt lat="44.8065583" lon="10.8145783"><ele>27.0</ele><time>2026-04-26T15:29:08.493Z</time></trkpt><trkpt lat="44.8064167" lon="10.8145"><ele>27.0</ele><time>2026-04-26T15:29:09.492Z</time></trkpt><trkpt lat="44.8062817" lon="10.8144117"><ele>27.0</ele><time>2026-04-26T15:29:10.492Z</time></trkpt><trkpt lat="44.8061467" lon="10.8143433"><ele>27.0</ele><time>2026-04-26T15:29:11.493Z</time></trkpt><trkpt lat="44.8060017" lon="10.8142517"><ele>26.0</ele><time>2026-04-26T15:29:12.492Z</time></trkpt><trkpt lat="44.805845" lon="10.8141533"><ele>25.0</ele><time>2026-04-26T15:29:13.492Z</time></trkpt><trkpt lat="44.8056817" lon="10.81405"><ele>24.0</ele><time>2026-04-26T15:29:14.493Z</time></trkpt><trkpt lat="44.8055167" lon="10.8139467"><ele>24.0</ele><time>2026-04-26T15:29:15.492Z</time></trkpt><trkpt lat="44.8053433" lon="10.8138483"><ele>24.0</ele><time>2026-04-26T15:29:16.492Z</time></trkpt><trkpt lat="44.80518" lon="10.8137567"><ele>24.0</ele><time>2026-04-26T15:29:17.492Z</time></trkpt><trkpt lat="44.8050183" lon="10.81365"><ele>23.666666666666668</ele><time>2026-04-26T15:29:18.493Z</time></trkpt><trkpt lat="44.8048517" lon="10.8135467"><ele>23.333333333333336</ele><time>2026-04-26T15:29:19.492Z</time></trkpt><trkpt lat="44.8046833" lon="10.8134467"><ele>23.0</ele><time>2026-04-26T15:29:20.493Z</time></trkpt><trkpt lat="44.8045167" lon="10.8133483"><ele>23.0</ele><time>2026-04-26T15:29:21.493Z</time></trkpt><trkpt lat="44.8043517" lon="10.8132517"><ele>23.0</ele><time>2026-04-26T15:29:22.493Z</time></trkpt><trkpt lat="44.8041883" lon="10.8131417"><ele>23.0</ele><time>2026-04-26T15:29:23.493Z</time></trkpt><trkpt lat="44.8040167" lon="10.8130383"><ele>22.666666666666668</ele><time>2026-04-26T15:29:24.492Z</time></trkpt><trkpt lat="44.8038433" lon="10.8129317"><ele>22.333333333333332</ele><time>2026-04-26T15:29:25.493Z</time></trkpt><trkpt lat="44.8036617" lon="10.81282"><ele>22.0</ele><time>2026-04-26T15:29:26.493Z</time></trkpt><trkpt lat="44.80347" lon="10.8126967"><ele>22.0</ele><time>2026-04-26T15:29:27.492Z</time></trkpt><trkpt lat="44.8032733" lon="10.8125733"><ele>22.0</ele><time>2026-04-26T15:29:28.493Z</time></trkpt><trkpt lat="44.803075" lon="10.8124517"><ele>22.0</ele><time>2026-04-26T15:29:29.493Z</time></trkpt><trkpt lat="44.8028883" lon="10.8123417"><ele>22.0</ele><time>2026-04-26T15:29:30.493Z</time></trkpt><trkpt lat="44.8027117" lon="10.8122317"><ele>22.0</ele><time>2026-04-26T15:29:31.492Z</time></trkpt><trkpt lat="44.80253" lon="10.812115"><ele>22.0</ele><time>2026-04-26T15:29:32.492Z</time></trkpt><trkpt lat="44.8023467" lon="10.8119983"><ele>22.0</ele><time>2026-04-26T15:29:33.493Z</time></trkpt><trkpt lat="44.8021667" lon="10.8118867"><ele>22.0</ele><time>2026-04-26T15:29:34.493Z</time></trkpt><trkpt lat="44.801995" lon="10.8117833"><ele>22.0</ele><time>2026-04-26T15:29:35.492Z</time></trkpt><trkpt lat="44.8018217" lon="10.8116767"><ele>22.666666666666664</ele><time>2026-04-26T15:29:36.493Z</time></trkpt><trkpt lat="44.801655" lon="10.8115717"><ele>23.333333333333332</ele><time>2026-04-26T15:29:37.493Z</time></trkpt><trkpt lat="44.8014833" lon="10.8114733"><ele>24.0</ele><time>2026-04-26T15:29:38.492Z</time></trkpt><trkpt lat="44.8013083" lon="10.8113917"><ele>24.0</ele><time>2026-04-26T15:29:39.493Z</time></trkpt><trkpt lat="44.8011267" lon="10.81132"><ele>24.0</ele><time>2026-04-26T15:29:40.493Z</time></trkpt><trkpt lat="44.8009417" lon="10.81125"><ele>24.0</ele><time>2026-04-26T15:29:41.492Z</time></trkpt><trkpt lat="44.8007683" lon="10.8111883"><ele>24.0</ele><time>2026-04-26T15:29:42.492Z</time></trkpt><trkpt lat="44.8006017" lon="10.8111367"><ele>24.0</ele><time>2026-04-26T15:29:43.492Z</time></trkpt><trkpt lat="44.8004483" lon="10.8110717"><ele>24.0</ele><time>2026-04-26T15:29:44.493Z</time></trkpt><trkpt lat="44.8003117" lon="10.8109733"><ele>24.0</ele><time>2026-04-26T15:29:45.492Z</time></trkpt><trkpt lat="44.8001883" lon="10.8108633"><ele>24.0</ele><time>2026-04-26T15:29:46.493Z</time></trkpt><trkpt lat="44.800085" lon="10.8107517"><ele>24.0</ele><time>2026-04-26T15:29:47.492Z</time></trkpt><trkpt lat="44.7999933" lon="10.8106367"><ele>24.0</ele><time>2026-04-26T15:29:48.492Z</time></trkpt><trkpt lat="44.7999067" lon="10.8105267"><ele>24.0</ele><time>2026-04-26T15:29:49.492Z</time></trkpt><trkpt lat="44.7998267" lon="10.810415"><ele>24.0</ele><time>2026-04-26T15:29:50.492Z</time></trkpt><trkpt lat="44.7997483" lon="10.81031"><ele>24.0</ele><time>2026-04-26T15:29:51.492Z</time></trkpt><trkpt lat="44.7996733" lon="10.8102017"><ele>24.0</ele><time>2026-04-26T15:29:52.493Z</time></trkpt><trkpt lat="44.7996017" lon="10.8100983"><ele>24.0</ele><time>2026-04-26T15:29:53.492Z</time></trkpt><trkpt lat="44.79953" lon="10.8099983"><ele>23.799999999999997</ele><time>2026-04-26T15:29:54.493Z</time></trkpt><trkpt lat="44.7994617" lon="10.8098917"><ele>23.599999999999998</ele><time>2026-04-26T15:29:55.492Z</time></trkpt><trkpt lat="44.7993883" lon="10.8097733"><ele>23.4</ele><time>2026-04-26T15:29:56.492Z</time></trkpt><trkpt lat="44.7993117" lon="10.80965"><ele>23.2</ele><time>2026-04-26T15:29:57.492Z</time></trkpt><trkpt lat="44.799235" lon="10.809525"><ele>23.0</ele><time>2026-04-26T15:29:58.493Z</time></trkpt><trkpt lat="44.7991633" lon="10.809395"><ele>23.2</ele><time>2026-04-26T15:29:59.492Z</time></trkpt><trkpt lat="44.79909" lon="10.8092667"><ele>23.4</ele><time>2026-04-26T15:30:00.492Z</time></trkpt><trkpt lat="44.79902" lon="10.80915"><ele>23.599999999999998</ele><time>2026-04-26T15:30:01.493Z</time></trkpt><trkpt lat="44.7989467" lon="10.80904"><ele>23.799999999999997</ele><time>2026-04-26T15:30:02.493Z</time></trkpt><trkpt lat="44.7988667" lon="10.8089267"><ele>24.0</ele><time>2026-04-26T15:30:03.492Z</time></trkpt><trkpt lat="44.7987767" lon="10.808815"><ele>24.0</ele><time>2026-04-26T15:30:04.492Z</time></trkpt><trkpt lat="44.7986767" lon="10.80872"><ele>24.0</ele><time>2026-04-26T15:30:05.493Z</time></trkpt><trkpt lat="44.7985667" lon="10.8086417"><ele>24.0</ele><time>2026-04-26T15:30:06.493Z</time></trkpt><trkpt lat="44.7984533" lon="10.8085683"><ele>24.0</ele><time>2026-04-26T15:30:07.492Z</time></trkpt><trkpt lat="44.7983483" lon="10.8085083"><ele>23.799999999999997</ele><time>2026-04-26T15:30:08.493Z</time></trkpt><trkpt lat="44.798255" lon="10.80845"><ele>23.599999999999998</ele><time>2026-04-26T15:30:09.492Z</time></trkpt><trkpt lat="44.7981633" lon="10.8083967"><ele>23.4</ele><time>2026-04-26T15:30:10.492Z</time></trkpt><trkpt lat="44.798075" lon="10.8083483"><ele>23.2</ele><time>2026-04-26T15:30:11.492Z</time></trkpt><trkpt lat="44.7979767" lon="10.8082933"><ele>23.0</ele><time>2026-04-26T15:30:12.493Z</time></trkpt><trkpt lat="44.7978817" lon="10.80824"><ele>23.0</ele><time>2026-04-26T15:30:13.492Z</time></trkpt><trkpt lat="44.7977983" lon="10.8081833"><ele>23.0</ele><time>2026-04-26T15:30:14.492Z</time></trkpt><trkpt lat="44.797705" lon="10.80813"><ele>23.0</ele><time>2026-04-26T15:30:15.493Z</time></trkpt><trkpt lat="44.7976167" lon="10.8080783"><ele>23.0</ele><time>2026-04-26T15:30:16.493Z</time></trkpt><trkpt lat="44.797515" lon="10.8080183"><ele>23.0</ele><time>2026-04-26T15:30:17.493Z</time></trkpt><trkpt lat="44.79742" lon="10.8079633"><ele>23.599999999999998</ele><time>2026-04-26T15:30:18.492Z</time></trkpt><trkpt lat="44.7973317" lon="10.8079133"><ele>24.2</ele><time>2026-04-26T15:30:19.492Z</time></trkpt><trkpt lat="44.7972483" lon="10.8078733"><ele>24.8</ele><time>2026-04-26T15:30:20.492Z</time></trkpt><trkpt lat="44.797165" lon="10.8078283"><ele>25.4</ele><time>2026-04-26T15:30:21.493Z</time></trkpt><trkpt lat="44.79708" lon="10.8077883"><ele>26.0</ele><time>2026-04-26T15:30:22.493Z</time></trkpt><trkpt lat="44.796985" lon="10.807765"><ele>26.0</ele><time>2026-04-26T15:30:23.493Z</time></trkpt><trkpt lat="44.7968717" lon="10.80777"><ele>26.0</ele><time>2026-04-26T15:30:24.492Z</time></trkpt><trkpt lat="44.79674" lon="10.80777"><ele>26.0</ele><time>2026-04-26T15:30:25.492Z</time></trkpt><trkpt lat="44.7966083" lon="10.8077767"><ele>26.0</ele><time>2026-04-26T15:30:26.493Z</time></trkpt><trkpt lat="44.79646" lon="10.8077783"><ele>26.0</ele><time>2026-04-26T15:30:27.493Z</time></trkpt><trkpt lat="44.7962917" lon="10.80777"><ele>26.0</ele><time>2026-04-26T15:30:28.492Z</time></trkpt><trkpt lat="44.7961333" lon="10.8077483"><ele>26.0</ele><time>2026-04-26T15:30:29.492Z</time></trkpt><trkpt lat="44.7959817" lon="10.80771"><ele>25.75</ele><time>2026-04-26T15:30:30.492Z</time></trkpt><trkpt lat="44.7958383" lon="10.807665"><ele>25.5</ele><time>2026-04-26T15:30:31.493Z</time></trkpt><trkpt lat="44.795705" lon="10.8076267"><ele>25.25</ele><time>2026-04-26T15:30:32.492Z</time></trkpt><trkpt lat="44.7955867" lon="10.80759"><ele>25.0</ele><time>2026-04-26T15:30:33.493Z</time></trkpt><trkpt lat="44.7954767" lon="10.8075517"><ele>25.0</ele><time>2026-04-26T15:30:34.492Z</time></trkpt><trkpt lat="44.7953717" lon="10.8075183"><ele>25.0</ele><time>2026-04-26T15:30:35.492Z</time></trkpt><trkpt lat="44.7952683" lon="10.8074683"><ele>25.0</ele><time>2026-04-26T15:30:36.492Z</time></trkpt><trkpt lat="44.7951683" lon="10.8074183"><ele>25.0</ele><time>2026-04-26T15:30:37.493Z</time></trkpt><trkpt lat="44.795075" lon="10.8073683"><ele>25.0</ele><time>2026-04-26T15:30:38.493Z</time></trkpt><trkpt lat="44.7949817" lon="10.80732"><ele>25.2</ele><time>2026-04-26T15:30:39.492Z</time></trkpt><trkpt lat="44.794895" lon="10.80727"><ele>25.4</ele><time>2026-04-26T15:30:40.492Z</time></trkpt><trkpt lat="44.794805" lon="10.807215"><ele>25.6</ele><time>2026-04-26T15:30:41.493Z</time></trkpt><trkpt lat="44.7947217" lon="10.8071683"><ele>25.8</ele><time>2026-04-26T15:30:42.492Z</time></trkpt><trkpt lat="44.7946433" lon="10.807125"><ele>26.0</ele><time>2026-04-26T15:30:43.493Z</time></trkpt><trkpt lat="44.79456" lon="10.8070867"><ele>25.999999999999996</ele><time>2026-04-26T15:30:44.493Z</time></trkpt><trkpt lat="44.794475" lon="10.8070633"><ele>26.0</ele><time>2026-04-26T15:30:45.493Z</time></trkpt><trkpt lat="44.7943933" lon="10.807045"><ele>26.0</ele><time>2026-04-26T15:30:46.493Z</time></trkpt><trkpt lat="44.79432" lon="10.8070267"><ele>26.0</ele><time>2026-04-26T15:30:47.493Z</time></trkpt><trkpt lat="44.79424" lon="10.807005"><ele>25.999999999999996</ele><time>2026-04-26T15:30:48.493Z</time></trkpt><trkpt lat="44.7941617" lon="10.8069767"><ele>26.0</ele><time>2026-04-26T15:30:49.492Z</time></trkpt><trkpt lat="44.794085" lon="10.8069317"><ele>26.333333333333332</ele><time>2026-04-26T15:30:50.492Z</time></trkpt><trkpt lat="44.794015" lon="10.8068867"><ele>26.666666666666664</ele><time>2026-04-26T15:30:51.493Z</time></trkpt><trkpt lat="44.793955" lon="10.8068483"><ele>27.0</ele><time>2026-04-26T15:30:52.493Z</time></trkpt><trkpt lat="44.7938517" lon="10.806775"><ele>27.333333333333336</ele><time>2026-04-26T15:30:54.492Z</time></trkpt><trkpt lat="44.7937917" lon="10.8067333"><ele>27.666666666666668</ele><time>2026-04-26T15:30:55.492Z</time></trkpt><trkpt lat="44.7937333" lon="10.806685"><ele>28.0</ele><time>2026-04-26T15:30:56.492Z</time></trkpt><trkpt lat="44.7936717" lon="10.8066417"><ele>27.857142857142858</ele><time>2026-04-26T15:30:57.492Z</time></trkpt><trkpt lat="44.7936033" lon="10.8065883"><ele>27.714285714285715</ele><time>2026-04-26T15:30:58.492Z</time></trkpt><trkpt lat="44.7935367" lon="10.806545"><ele>27.57142857142857</ele><time>2026-04-26T15:30:59.492Z</time></trkpt><trkpt lat="44.793475" lon="10.8064983"><ele>27.42857142857143</ele><time>2026-04-26T15:31:00.492Z</time></trkpt><trkpt lat="44.79341" lon="10.806445"><ele>27.285714285714285</ele><time>2026-04-26T15:31:01.493Z</time></trkpt><trkpt lat="44.7933467" lon="10.8064017"><ele>27.142857142857142</ele><time>2026-04-26T15:31:02.492Z</time></trkpt><trkpt lat="44.7932717" lon="10.8063617"><ele>27.0</ele><time>2026-04-26T15:31:03.493Z</time></trkpt><trkpt lat="44.793195" lon="10.80632"><ele>27.0</ele><time>2026-04-26T15:31:04.493Z</time></trkpt><trkpt lat="44.793115" lon="10.806285"><ele>27.0</ele><time>2026-04-26T15:31:05.493Z</time></trkpt><trkpt lat="44.793045" lon="10.8062333"><ele>27.0</ele><time>2026-04-26T15:31:06.492Z</time></trkpt><trkpt lat="44.7929783" lon="10.8061983"><ele>27.0</ele><time>2026-04-26T15:31:07.492Z</time></trkpt><trkpt lat="44.7929083" lon="10.8061633"><ele>27.0</ele><time>2026-04-26T15:31:08.493Z</time></trkpt><trkpt lat="44.7928383" lon="10.8061283"><ele>27.0</ele><time>2026-04-26T15:31:09.492Z</time></trkpt><trkpt lat="44.7927267" lon="10.80607"><ele>27.5</ele><time>2026-04-26T15:31:11.492Z</time></trkpt><trkpt lat="44.79262" lon="10.806065"><ele>28.0</ele><time>2026-04-26T15:31:13.492Z</time></trkpt><trkpt lat="44.79252" lon="10.8062067"><ele>28.5</ele><time>2026-04-26T15:31:15.493Z</time></trkpt><trkpt lat="44.7924733" lon="10.80636"><ele>29.0</ele><time>2026-04-26T15:31:16.493Z</time></trkpt><trkpt lat="44.7924217" lon="10.8065333"><ele>29.0</ele><time>2026-04-26T15:31:17.492Z</time></trkpt><trkpt lat="44.7923617" lon="10.8067183"><ele>29.0</ele><time>2026-04-26T15:31:18.493Z</time></trkpt><trkpt lat="44.792305" lon="10.806905"><ele>29.0</ele><time>2026-04-26T15:31:19.492Z</time></trkpt><trkpt lat="44.792245" lon="10.8070717"><ele>29.0</ele><time>2026-04-26T15:31:20.493Z</time></trkpt><trkpt lat="44.7921817" lon="10.8072333"><ele>29.0</ele><time>2026-04-26T15:31:21.493Z</time></trkpt><trkpt lat="44.7921217" lon="10.807405"><ele>29.0</ele><time>2026-04-26T15:31:22.492Z</time></trkpt><trkpt lat="44.792075" lon="10.8075867"><ele>29.0</ele><time>2026-04-26T15:31:23.492Z</time></trkpt><trkpt lat="44.7920117" lon="10.807755"><ele>29.0</ele><time>2026-04-26T15:31:24.493Z</time></trkpt><trkpt lat="44.791945" lon="10.807925"><ele>28.5</ele><time>2026-04-26T15:31:25.492Z</time></trkpt><trkpt lat="44.7918783" lon="10.8080983"><ele>28.0</ele><time>2026-04-26T15:31:26.492Z</time></trkpt><trkpt lat="44.791815" lon="10.8082567"><ele>27.5</ele><time>2026-04-26T15:31:27.493Z</time></trkpt><trkpt lat="44.7917667" lon="10.808405"><ele>27.0</ele><time>2026-04-26T15:31:28.493Z</time></trkpt><trkpt lat="44.7917117" lon="10.8085667"><ele>27.0</ele><time>2026-04-26T15:31:29.493Z</time></trkpt><trkpt lat="44.7916483" lon="10.8087383"><ele>27.0</ele><time>2026-04-26T15:31:30.492Z</time></trkpt><trkpt lat="44.7915883" lon="10.8089117"><ele>27.0</ele><time>2026-04-26T15:31:31.492Z</time></trkpt><trkpt lat="44.79152" lon="10.80908"><ele>27.0</ele><time>2026-04-26T15:31:32.492Z</time></trkpt><trkpt lat="44.7914483" lon="10.8092633"><ele>27.0</ele><time>2026-04-26T15:31:33.492Z</time></trkpt><trkpt lat="44.7913817" lon="10.8094567"><ele>27.0</ele><time>2026-04-26T15:31:34.492Z</time></trkpt><trkpt lat="44.7913167" lon="10.80965"><ele>27.0</ele><time>2026-04-26T15:31:35.492Z</time></trkpt><trkpt lat="44.79125" lon="10.8098483"><ele>27.0</ele><time>2026-04-26T15:31:36.492Z</time></trkpt><trkpt lat="44.7911817" lon="10.81006"><ele>27.0</ele><time>2026-04-26T15:31:37.492Z</time></trkpt><trkpt lat="44.791115" lon="10.8102633"><ele>27.0</ele><time>2026-04-26T15:31:38.492Z</time></trkpt><trkpt lat="44.791055" lon="10.8104817"><ele>26.666666666666664</ele><time>2026-04-26T15:31:39.493Z</time></trkpt><trkpt lat="44.790995" lon="10.8107"><ele>26.333333333333332</ele><time>2026-04-26T15:31:40.492Z</time></trkpt><trkpt lat="44.7909283" lon="10.81092"><ele>26.0</ele><time>2026-04-26T15:31:41.493Z</time></trkpt><trkpt lat="44.79087" lon="10.8111517"><ele>26.0</ele><time>2026-04-26T15:31:42.492Z</time></trkpt><trkpt lat="44.79082" lon="10.8113833"><ele>26.0</ele><time>2026-04-26T15:31:43.493Z</time></trkpt><trkpt lat="44.7907617" lon="10.811615"><ele>26.0</ele><time>2026-04-26T15:31:44.493Z</time></trkpt><trkpt lat="44.790705" lon="10.8118483"><ele>26.0</ele><time>2026-04-26T15:31:45.492Z</time></trkpt><trkpt lat="44.7906517" lon="10.8120767"><ele>26.0</ele><time>2026-04-26T15:31:46.492Z</time></trkpt><trkpt lat="44.7906033" lon="10.8123067"><ele>26.0</ele><time>2026-04-26T15:31:47.492Z</time></trkpt><trkpt lat="44.7905567" lon="10.8125233"><ele>25.75</ele><time>2026-04-26T15:31:48.493Z</time></trkpt><trkpt lat="44.79051" lon="10.8127233"><ele>25.5</ele><time>2026-04-26T15:31:49.493Z</time></trkpt><trkpt lat="44.790465" lon="10.8129167"><ele>25.25</ele><time>2026-04-26T15:31:50.492Z</time></trkpt><trkpt lat="44.7904267" lon="10.813105"><ele>25.0</ele><time>2026-04-26T15:31:51.493Z</time></trkpt><trkpt lat="44.79038" lon="10.8132917"><ele>25.333333333333336</ele><time>2026-04-26T15:31:52.493Z</time></trkpt><trkpt lat="44.790335" lon="10.813495"><ele>25.666666666666664</ele><time>2026-04-26T15:31:53.493Z</time></trkpt><trkpt lat="44.7902867" lon="10.8137117"><ele>26.0</ele><time>2026-04-26T15:31:54.493Z</time></trkpt><trkpt lat="44.790235" lon="10.8139467"><ele>26.0</ele><time>2026-04-26T15:31:55.492Z</time></trkpt><trkpt lat="44.7901783" lon="10.81417"><ele>26.0</ele><time>2026-04-26T15:31:56.492Z</time></trkpt><trkpt lat="44.7901317" lon="10.8144017"><ele>26.0</ele><time>2026-04-26T15:31:57.492Z</time></trkpt><trkpt lat="44.790085" lon="10.8146333"><ele>26.333333333333332</ele><time>2026-04-26T15:31:58.493Z</time></trkpt><trkpt lat="44.7900417" lon="10.8148667"><ele>26.666666666666664</ele><time>2026-04-26T15:31:59.492Z</time></trkpt><trkpt lat="44.7899967" lon="10.8150833"><ele>27.0</ele><time>2026-04-26T15:32:00.492Z</time></trkpt><trkpt lat="44.7899533" lon="10.8152967"><ele>27.0</ele><time>2026-04-26T15:32:01.493Z</time></trkpt><trkpt lat="44.7899033" lon="10.8155"><ele>27.0</ele><time>2026-04-26T15:32:02.493Z</time></trkpt><trkpt lat="44.78985" lon="10.8157"><ele>27.0</ele><time>2026-04-26T15:32:03.492Z</time></trkpt><trkpt lat="44.7897883" lon="10.8158867"><ele>26.75</ele><time>2026-04-26T15:32:04.493Z</time></trkpt><trkpt lat="44.7897383" lon="10.8160767"><ele>26.5</ele><time>2026-04-26T15:32:05.492Z</time></trkpt><trkpt lat="44.7896883" lon="10.81624"><ele>26.25</ele><time>2026-04-26T15:32:06.492Z</time></trkpt><trkpt lat="44.7896417" lon="10.8163917"><ele>26.0</ele><time>2026-04-26T15:32:07.493Z</time></trkpt><trkpt lat="44.7895917" lon="10.8165517"><ele>26.0</ele><time>2026-04-26T15:32:08.492Z</time></trkpt><trkpt lat="44.7895433" lon="10.8167217"><ele>26.0</ele><time>2026-04-26T15:32:09.492Z</time></trkpt><trkpt lat="44.7894867" lon="10.816905"><ele>26.0</ele><time>2026-04-26T15:32:10.492Z</time></trkpt><trkpt lat="44.789425" lon="10.8170917"><ele>26.0</ele><time>2026-04-26T15:32:11.493Z</time></trkpt><trkpt lat="44.7893517" lon="10.8172967"><ele>26.333333333333332</ele><time>2026-04-26T15:32:12.493Z</time></trkpt><trkpt lat="44.7892733" lon="10.8175067"><ele>26.666666666666664</ele><time>2026-04-26T15:32:13.493Z</time></trkpt><trkpt lat="44.7891917" lon="10.8177167"><ele>27.0</ele><time>2026-04-26T15:32:14.492Z</time></trkpt><trkpt lat="44.789115" lon="10.8179033"><ele>27.0</ele><time>2026-04-26T15:32:15.493Z</time></trkpt><trkpt lat="44.7890417" lon="10.8180983"><ele>27.0</ele><time>2026-04-26T15:32:16.493Z</time></trkpt><trkpt lat="44.7889633" lon="10.8182983"><ele>27.0</ele><time>2026-04-26T15:32:17.493Z</time></trkpt><trkpt lat="44.7888833" lon="10.8185017"><ele>27.0</ele><time>2026-04-26T15:32:18.493Z</time></trkpt><trkpt lat="44.7887933" lon="10.81872"><ele>27.0</ele><time>2026-04-26T15:32:19.492Z</time></trkpt><trkpt lat="44.788705" lon="10.8189267"><ele>27.0</ele><time>2026-04-26T15:32:20.493Z</time></trkpt><trkpt lat="44.7886217" lon="10.8191167"><ele>27.0</ele><time>2026-04-26T15:32:21.493Z</time></trkpt><trkpt lat="44.7885433" lon="10.819295"><ele>27.0</ele><time>2026-04-26T15:32:22.493Z</time></trkpt><trkpt lat="44.7884533" lon="10.8194717"><ele>27.0</ele><time>2026-04-26T15:32:23.493Z</time></trkpt><trkpt lat="44.7883767" lon="10.8196367"><ele>27.0</ele><time>2026-04-26T15:32:24.493Z</time></trkpt><trkpt lat="44.7883017" lon="10.8197933"><ele>27.0</ele><time>2026-04-26T15:32:25.493Z</time></trkpt><trkpt lat="44.7882383" lon="10.8199317"><ele>27.000000000000004</ele><time>2026-04-26T15:32:26.492Z</time></trkpt><trkpt lat="44.7881867" lon="10.8200517"><ele>27.000000000000004</ele><time>2026-04-26T15:32:27.493Z</time></trkpt><trkpt lat="44.7881417" lon="10.8201517"><ele>27.0</ele><time>2026-04-26T15:32:28.492Z</time></trkpt><trkpt lat="44.7880483" lon="10.8202633"><ele>27.0</ele><time>2026-04-26T15:32:30.492Z</time></trkpt><trkpt lat="44.787915" lon="10.820235"><ele>27.0</ele><time>2026-04-26T15:32:32.492Z</time></trkpt><trkpt lat="44.78783" lon="10.82016"><ele>27.0</ele><time>2026-04-26T15:32:33.493Z</time></trkpt><trkpt lat="44.7877267" lon="10.820065"><ele>27.0</ele><time>2026-04-26T15:32:34.493Z</time></trkpt><trkpt lat="44.7876167" lon="10.8199633"><ele>27.0</ele><time>2026-04-26T15:32:35.492Z</time></trkpt><trkpt lat="44.7874883" lon="10.8198517"><ele>27.333333333333336</ele><time>2026-04-26T15:32:36.493Z</time></trkpt><trkpt lat="44.787355" lon="10.8197267"><ele>27.666666666666668</ele><time>2026-04-26T15:32:37.492Z</time></trkpt><trkpt lat="44.7872117" lon="10.819595"><ele>28.0</ele><time>2026-04-26T15:32:38.493Z</time></trkpt><trkpt lat="44.7870617" lon="10.81945"><ele>28.333333333333336</ele><time>2026-04-26T15:32:39.492Z</time></trkpt><trkpt lat="44.78691" lon="10.8193033"><ele>28.666666666666664</ele><time>2026-04-26T15:32:40.493Z</time></trkpt><trkpt lat="44.7867483" lon="10.8191567"><ele>29.0</ele><time>2026-04-26T15:32:41.492Z</time></trkpt><trkpt lat="44.78658" lon="10.8190067"><ele>29.0</ele><time>2026-04-26T15:32:42.493Z</time></trkpt><trkpt lat="44.7864233" lon="10.81886"><ele>29.0</ele><time>2026-04-26T15:32:43.493Z</time></trkpt><trkpt lat="44.7862783" lon="10.8187183"><ele>29.0</ele><time>2026-04-26T15:32:44.492Z</time></trkpt><trkpt lat="44.786145" lon="10.8185817"><ele>28.75</ele><time>2026-04-26T15:32:45.493Z</time></trkpt><trkpt lat="44.7860167" lon="10.8184567"><ele>28.5</ele><time>2026-04-26T15:32:46.493Z</time></trkpt><trkpt lat="44.785895" lon="10.818345"><ele>28.25</ele><time>2026-04-26T15:32:47.492Z</time></trkpt><trkpt lat="44.7857567" lon="10.81828"><ele>28.0</ele><time>2026-04-26T15:32:48.492Z</time></trkpt><trkpt lat="44.7856033" lon="10.8182533"><ele>27.666666666666668</ele><time>2026-04-26T15:32:49.492Z</time></trkpt><trkpt lat="44.7854433" lon="10.81823"><ele>27.333333333333336</ele><time>2026-04-26T15:32:50.493Z</time></trkpt><trkpt lat="44.7853017" lon="10.8181717"><ele>27.0</ele><time>2026-04-26T15:32:51.492Z</time></trkpt><trkpt lat="44.7851617" lon="10.8180783"><ele>27.0</ele><time>2026-04-26T15:32:52.492Z</time></trkpt><trkpt lat="44.7850183" lon="10.8179783"><ele>27.0</ele><time>2026-04-26T15:32:53.492Z</time></trkpt><trkpt lat="44.784875" lon="10.8178783"><ele>27.0</ele><time>2026-04-26T15:32:54.493Z</time></trkpt><trkpt lat="44.7847233" lon="10.81779"><ele>27.0</ele><time>2026-04-26T15:32:55.493Z</time></trkpt><trkpt lat="44.7845783" lon="10.8177"><ele>27.0</ele><time>2026-04-26T15:32:56.493Z</time></trkpt><trkpt lat="44.784455" lon="10.8176333"><ele>27.0</ele><time>2026-04-26T15:32:57.492Z</time></trkpt><trkpt lat="44.784315" lon="10.8175733"><ele>27.0</ele><time>2026-04-26T15:32:58.492Z</time></trkpt><trkpt lat="44.7841733" lon="10.817515"><ele>27.25</ele><time>2026-04-26T15:32:59.493Z</time></trkpt><trkpt lat="44.7840333" lon="10.817475"><ele>27.5</ele><time>2026-04-26T15:33:00.492Z</time></trkpt><trkpt lat="44.7839083" lon="10.817445"><ele>27.75</ele><time>2026-04-26T15:33:01.493Z</time></trkpt><trkpt lat="44.7837917" lon="10.81743"><ele>28.0</ele><time>2026-04-26T15:33:02.493Z</time></trkpt><trkpt lat="44.7836883" lon="10.8173983"><ele>28.0</ele><time>2026-04-26T15:33:03.492Z</time></trkpt><trkpt lat="44.7835883" lon="10.8173467"><ele>27.999999999999996</ele><time>2026-04-26T15:33:04.492Z</time></trkpt><trkpt lat="44.7834933" lon="10.8172833"><ele>27.999999999999996</ele><time>2026-04-26T15:33:05.492Z</time></trkpt><trkpt lat="44.7834" lon="10.81725"><ele>28.0</ele><time>2026-04-26T15:33:06.492Z</time></trkpt><trkpt lat="44.7833133" lon="10.81727"><ele>28.0</ele><time>2026-04-26T15:33:07.492Z</time></trkpt><trkpt lat="44.7832233" lon="10.817345"><ele>27.75</ele><time>2026-04-26T15:33:08.493Z</time></trkpt><trkpt lat="44.7831183" lon="10.8174367"><ele>27.5</ele><time>2026-04-26T15:33:09.492Z</time></trkpt><trkpt lat="44.7829867" lon="10.8175133"><ele>27.25</ele><time>2026-04-26T15:33:10.493Z</time></trkpt><trkpt lat="44.7828367" lon="10.8175833"><ele>27.0</ele><time>2026-04-26T15:33:11.493Z</time></trkpt><trkpt lat="44.7826667" lon="10.8176383"><ele>26.666666666666664</ele><time>2026-04-26T15:33:12.492Z</time></trkpt><trkpt lat="44.782485" lon="10.8176867"><ele>26.333333333333332</ele><time>2026-04-26T15:33:13.492Z</time></trkpt><trkpt lat="44.7822833" lon="10.8177233"><ele>26.0</ele><time>2026-04-26T15:33:14.493Z</time></trkpt><trkpt lat="44.7820833" lon="10.8177533"><ele>26.0</ele><time>2026-04-26T15:33:15.492Z</time></trkpt><trkpt lat="44.7818717" lon="10.81776"><ele>26.0</ele><time>2026-04-26T15:33:16.492Z</time></trkpt><trkpt lat="44.7816517" lon="10.8177483"><ele>26.0</ele><time>2026-04-26T15:33:17.492Z</time></trkpt><trkpt lat="44.78143" lon="10.8177133"><ele>26.0</ele><time>2026-04-26T15:33:18.493Z</time></trkpt><trkpt lat="44.7812083" lon="10.8176583"><ele>26.0</ele><time>2026-04-26T15:33:19.492Z</time></trkpt><trkpt lat="44.7809883" lon="10.8175867"><ele>26.5</ele><time>2026-04-26T15:33:20.493Z</time></trkpt><trkpt lat="44.7807667" lon="10.8175083"><ele>27.0</ele><time>2026-04-26T15:33:21.492Z</time></trkpt><trkpt lat="44.78054" lon="10.8174367"><ele>27.0</ele><time>2026-04-26T15:33:22.492Z</time></trkpt><trkpt lat="44.78031" lon="10.8173617"><ele>27.0</ele><time>2026-04-26T15:33:23.492Z</time></trkpt><trkpt lat="44.7800883" lon="10.8172917"><ele>27.0</ele><time>2026-04-26T15:33:24.493Z</time></trkpt><trkpt lat="44.7798817" lon="10.817215"><ele>27.0</ele><time>2026-04-26T15:33:25.493Z</time></trkpt><trkpt lat="44.77969" lon="10.8171433"><ele>27.0</ele><time>2026-04-26T15:33:26.492Z</time></trkpt><trkpt lat="44.77951" lon="10.817075"><ele>27.333333333333336</ele><time>2026-04-26T15:33:27.492Z</time></trkpt><trkpt lat="44.7793467" lon="10.8170117"><ele>27.666666666666668</ele><time>2026-04-26T15:33:28.492Z</time></trkpt><trkpt lat="44.7792017" lon="10.8169617"><ele>28.0</ele><time>2026-04-26T15:33:29.492Z</time></trkpt><trkpt lat="44.7790717" lon="10.8169033"><ele>28.0</ele><time>2026-04-26T15:33:30.493Z</time></trkpt><trkpt lat="44.77896" lon="10.8168417"><ele>28.0</ele><time>2026-04-26T15:33:31.493Z</time></trkpt><trkpt lat="44.7788633" lon="10.8167733"><ele>28.0</ele><time>2026-04-26T15:33:32.492Z</time></trkpt><trkpt lat="44.7787667" lon="10.8166917"><ele>28.0</ele><time>2026-04-26T15:33:33.492Z</time></trkpt><trkpt lat="44.77866" lon="10.81663"><ele>28.0</ele><time>2026-04-26T15:33:34.492Z</time></trkpt><trkpt lat="44.7785417" lon="10.816615"><ele>28.0</ele><time>2026-04-26T15:33:35.493Z</time></trkpt><trkpt lat="44.778405" lon="10.8166217"><ele>28.0</ele><time>2026-04-26T15:33:36.493Z</time></trkpt><trkpt lat="44.7782533" lon="10.8166033"><ele>28.0</ele><time>2026-04-26T15:33:37.492Z</time></trkpt><trkpt lat="44.778095" lon="10.8165733"><ele>28.0</ele><time>2026-04-26T15:33:38.492Z</time></trkpt><trkpt lat="44.777925" lon="10.8165333"><ele>28.0</ele><time>2026-04-26T15:33:39.493Z</time></trkpt><trkpt lat="44.7777283" lon="10.81647"><ele>28.0</ele><time>2026-04-26T15:33:40.493Z</time></trkpt><trkpt lat="44.7775233" lon="10.8164117"><ele>27.666666666666668</ele><time>2026-04-26T15:33:41.492Z</time></trkpt><trkpt lat="44.7773117" lon="10.816355"><ele>27.333333333333336</ele><time>2026-04-26T15:33:42.492Z</time></trkpt><trkpt lat="44.7771017" lon="10.81629"><ele>27.0</ele><time>2026-04-26T15:33:43.493Z</time></trkpt><trkpt lat="44.7768783" lon="10.8162183"><ele>27.0</ele><time>2026-04-26T15:33:44.492Z</time></trkpt><trkpt lat="44.7766517" lon="10.8161433"><ele>27.0</ele><time>2026-04-26T15:33:45.492Z</time></trkpt><trkpt lat="44.77643" lon="10.8160667"><ele>27.0</ele><time>2026-04-26T15:33:46.492Z</time></trkpt><trkpt lat="44.7762133" lon="10.815995"><ele>27.0</ele><time>2026-04-26T15:33:47.492Z</time></trkpt><trkpt lat="44.7760083" lon="10.81593"><ele>27.0</ele><time>2026-04-26T15:33:48.493Z</time></trkpt><trkpt lat="44.7758117" lon="10.81587"><ele>27.0</ele><time>2026-04-26T15:33:49.493Z</time></trkpt><trkpt lat="44.7756217" lon="10.8158033"><ele>27.0</ele><time>2026-04-26T15:33:50.492Z</time></trkpt><trkpt lat="44.7754483" lon="10.815725"><ele>27.0</ele><time>2026-04-26T15:33:51.493Z</time></trkpt><trkpt lat="44.7752783" lon="10.8156417"><ele>27.0</ele><time>2026-04-26T15:33:52.493Z</time></trkpt><trkpt lat="44.7751167" lon="10.8155567"><ele>27.0</ele><time>2026-04-26T15:33:53.492Z</time></trkpt><trkpt lat="44.774945" lon="10.8154617"><ele>27.0</ele><time>2026-04-26T15:33:54.492Z</time></trkpt><trkpt lat="44.7747733" lon="10.8153517"><ele>27.0</ele><time>2026-04-26T15:33:55.492Z</time></trkpt><trkpt lat="44.7745983" lon="10.8152467"><ele>27.0</ele><time>2026-04-26T15:33:56.492Z</time></trkpt><trkpt lat="44.7744133" lon="10.81514"><ele>27.0</ele><time>2026-04-26T15:33:57.493Z</time></trkpt><trkpt lat="44.7742267" lon="10.8150267"><ele>27.0</ele><time>2026-04-26T15:33:58.492Z</time></trkpt><trkpt lat="44.77403" lon="10.81491"><ele>27.0</ele><time>2026-04-26T15:33:59.492Z</time></trkpt><trkpt lat="44.7738383" lon="10.8148"><ele>27.0</ele><time>2026-04-26T15:34:00.493Z</time></trkpt><trkpt lat="44.7736533" lon="10.8146833"><ele>27.333333333333336</ele><time>2026-04-26T15:34:01.492Z</time></trkpt><trkpt lat="44.7734667" lon="10.8145733"><ele>27.666666666666668</ele><time>2026-04-26T15:34:02.493Z</time></trkpt><trkpt lat="44.773305" lon="10.8144783"><ele>28.0</ele><time>2026-04-26T15:34:03.492Z</time></trkpt><trkpt lat="44.7731517" lon="10.814385"><ele>28.333333333333336</ele><time>2026-04-26T15:34:04.492Z</time></trkpt><trkpt lat="44.7730017" lon="10.8142883"><ele>28.666666666666664</ele><time>2026-04-26T15:34:05.493Z</time></trkpt><trkpt lat="44.7728517" lon="10.8141933"><ele>29.0</ele><time>2026-04-26T15:34:06.493Z</time></trkpt><trkpt lat="44.7727117" lon="10.8141117"><ele>28.75</ele><time>2026-04-26T15:34:07.493Z</time></trkpt><trkpt lat="44.7725883" lon="10.8140367"><ele>28.5</ele><time>2026-04-26T15:34:08.492Z</time></trkpt><trkpt lat="44.772475" lon="10.8139733"><ele>28.25</ele><time>2026-04-26T15:34:09.493Z</time></trkpt><trkpt lat="44.7723717" lon="10.813915"><ele>28.0</ele><time>2026-04-26T15:34:10.493Z</time></trkpt><trkpt lat="44.77221" lon="10.8137583"><ele>28.0</ele><time>2026-04-26T15:34:12.493Z</time></trkpt><trkpt lat="44.7721483" lon="10.8136517"><ele>27.999999999999996</ele><time>2026-04-26T15:34:13.492Z</time></trkpt><trkpt lat="44.7720833" lon="10.813525"><ele>27.999999999999996</ele><time>2026-04-26T15:34:14.492Z</time></trkpt><trkpt lat="44.7719867" lon="10.81344"><ele>28.0</ele><time>2026-04-26T15:34:15.492Z</time></trkpt><trkpt lat="44.7718783" lon="10.813425"><ele>28.0</ele><time>2026-04-26T15:34:16.493Z</time></trkpt><trkpt lat="44.7717517" lon="10.813445"><ele>28.333333333333336</ele><time>2026-04-26T15:34:17.492Z</time></trkpt><trkpt lat="44.7716117" lon="10.8134267"><ele>28.666666666666664</ele><time>2026-04-26T15:34:18.492Z</time></trkpt><trkpt lat="44.7714617" lon="10.8133633"><ele>29.0</ele><time>2026-04-26T15:34:19.493Z</time></trkpt><trkpt lat="44.7712967" lon="10.81327"><ele>29.0</ele><time>2026-04-26T15:34:20.493Z</time></trkpt><trkpt lat="44.7711267" lon="10.81316"><ele>29.0</ele><time>2026-04-26T15:34:21.493Z</time></trkpt><trkpt lat="44.7709467" lon="10.8130383"><ele>29.0</ele><time>2026-04-26T15:34:22.493Z</time></trkpt><trkpt lat="44.77076" lon="10.8129183"><ele>29.0</ele><time>2026-04-26T15:34:23.492Z</time></trkpt><trkpt lat="44.7705717" lon="10.8127967"><ele>29.0</ele><time>2026-04-26T15:34:24.492Z</time></trkpt><trkpt lat="44.7703833" lon="10.812675"><ele>29.0</ele><time>2026-04-26T15:34:25.493Z</time></trkpt><trkpt lat="44.7702083" lon="10.8125633"><ele>29.0</ele><time>2026-04-26T15:34:26.492Z</time></trkpt><trkpt lat="44.7700467" lon="10.8124617"><ele>29.0</ele><time>2026-04-26T15:34:27.493Z</time></trkpt><trkpt lat="44.769895" lon="10.81236"><ele>29.0</ele><time>2026-04-26T15:34:28.492Z</time></trkpt><trkpt lat="44.7697517" lon="10.81227"><ele>29.0</ele><time>2026-04-26T15:34:29.492Z</time></trkpt><trkpt lat="44.769615" lon="10.8121833"><ele>29.0</ele><time>2026-04-26T15:34:30.493Z</time></trkpt><trkpt lat="44.7694733" lon="10.812095"><ele>29.0</ele><time>2026-04-26T15:34:31.492Z</time></trkpt><trkpt lat="44.7693317" lon="10.81201"><ele>28.666666666666664</ele><time>2026-04-26T15:34:32.492Z</time></trkpt><trkpt lat="44.76919" lon="10.8119233"><ele>28.333333333333336</ele><time>2026-04-26T15:34:33.493Z</time></trkpt><trkpt lat="44.7690417" lon="10.811835"><ele>28.0</ele><time>2026-04-26T15:34:34.492Z</time></trkpt><trkpt lat="44.7688917" lon="10.8117517"><ele>28.0</ele><time>2026-04-26T15:34:35.493Z</time></trkpt><trkpt lat="44.76874" lon="10.8116817"><ele>28.0</ele><time>2026-04-26T15:34:36.492Z</time></trkpt><trkpt lat="44.7685733" lon="10.811625"><ele>28.0</ele><time>2026-04-26T15:34:37.493Z</time></trkpt><trkpt lat="44.7684067" lon="10.8115783"><ele>28.333333333333336</ele><time>2026-04-26T15:34:38.492Z</time></trkpt><trkpt lat="44.768245" lon="10.8115417"><ele>28.666666666666664</ele><time>2026-04-26T15:34:39.493Z</time></trkpt><trkpt lat="44.7680883" lon="10.8115183"><ele>29.0</ele><time>2026-04-26T15:34:40.492Z</time></trkpt><trkpt lat="44.7679317" lon="10.8115083"><ele>29.0</ele><time>2026-04-26T15:34:41.492Z</time></trkpt><trkpt lat="44.7677767" lon="10.81152"><ele>29.0</ele><time>2026-04-26T15:34:42.493Z</time></trkpt><trkpt lat="44.7676267" lon="10.8115417"><ele>29.0</ele><time>2026-04-26T15:34:43.493Z</time></trkpt><trkpt lat="44.7674867" lon="10.8115733"><ele>29.0</ele><time>2026-04-26T15:34:44.492Z</time></trkpt><trkpt lat="44.7673533" lon="10.8116083"><ele>29.25</ele><time>2026-04-26T15:34:45.492Z</time></trkpt><trkpt lat="44.7672317" lon="10.8116483"><ele>29.5</ele><time>2026-04-26T15:34:46.493Z</time></trkpt><trkpt lat="44.7671167" lon="10.8117067"><ele>29.75</ele><time>2026-04-26T15:34:47.492Z</time></trkpt><trkpt lat="44.767" lon="10.81177"><ele>30.0</ele><time>2026-04-26T15:34:48.492Z</time></trkpt><trkpt lat="44.7669" lon="10.8118333"><ele>29.666666666666668</ele><time>2026-04-26T15:34:49.493Z</time></trkpt><trkpt lat="44.766815" lon="10.81188"><ele>29.333333333333336</ele><time>2026-04-26T15:34:50.493Z</time></trkpt><trkpt lat="44.766745" lon="10.8119217"><ele>29.0</ele><time>2026-04-26T15:34:51.493Z</time></trkpt><trkpt lat="44.7666583" lon="10.8119717"><ele>28.666666666666668</ele><time>2026-04-26T15:34:53.492Z</time></trkpt><trkpt lat="44.7665767" lon="10.8119917"><ele>28.333333333333336</ele><time>2026-04-26T15:35:01.493Z</time></trkpt><trkpt lat="44.7664967" lon="10.81198"><ele>28.0</ele><time>2026-04-26T15:35:03.492Z</time></trkpt><trkpt lat="44.7663617" lon="10.8119183"><ele>28.0</ele><time>2026-04-26T15:35:05.492Z</time></trkpt><trkpt lat="44.7662733" lon="10.81189"><ele>27.999999999999996</ele><time>2026-04-26T15:35:06.492Z</time></trkpt><trkpt lat="44.7661817" lon="10.8118817"><ele>27.999999999999996</ele><time>2026-04-26T15:35:07.492Z</time></trkpt><trkpt lat="44.7660967" lon="10.811905"><ele>28.0</ele><time>2026-04-26T15:35:08.491Z</time></trkpt><trkpt lat="44.7660117" lon="10.8119383"><ele>28.0</ele><time>2026-04-26T15:35:09.492Z</time></trkpt><trkpt lat="44.7659183" lon="10.811985"><ele>28.0</ele><time>2026-04-26T15:35:10.491Z</time></trkpt><trkpt lat="44.76582" lon="10.8120233"><ele>27.999999999999996</ele><time>2026-04-26T15:35:11.491Z</time></trkpt><trkpt lat="44.7657333" lon="10.8120283"><ele>27.999999999999996</ele><time>2026-04-26T15:35:12.492Z</time></trkpt><trkpt lat="44.7656433" lon="10.8120033"><ele>28.0</ele><time>2026-04-26T15:35:13.491Z</time></trkpt><trkpt lat="44.76555" lon="10.8119583"><ele>28.0</ele><time>2026-04-26T15:35:14.491Z</time></trkpt><trkpt lat="44.7654467" lon="10.811905"><ele>28.0</ele><time>2026-04-26T15:35:15.491Z</time></trkpt><trkpt lat="44.765345" lon="10.8118517"><ele>27.999999999999996</ele><time>2026-04-26T15:35:16.492Z</time></trkpt><trkpt lat="44.7652483" lon="10.8117933"><ele>27.999999999999996</ele><time>2026-04-26T15:35:17.491Z</time></trkpt><trkpt lat="44.7651433" lon="10.8117417"><ele>28.0</ele><time>2026-04-26T15:35:18.491Z</time></trkpt><trkpt lat="44.7650333" lon="10.8116917"><ele>28.0</ele><time>2026-04-26T15:35:19.491Z</time></trkpt><trkpt lat="44.7649217" lon="10.8116417"><ele>28.0</ele><time>2026-04-26T15:35:20.491Z</time></trkpt><trkpt lat="44.7648083" lon="10.81159"><ele>28.0</ele><time>2026-04-26T15:35:21.491Z</time></trkpt><trkpt lat="44.7646883" lon="10.8115233"><ele>28.0</ele><time>2026-04-26T15:35:22.491Z</time></trkpt><trkpt lat="44.76457" lon="10.8114533"><ele>28.0</ele><time>2026-04-26T15:35:23.491Z</time></trkpt><trkpt lat="44.76445" lon="10.8113883"><ele>27.75</ele><time>2026-04-26T15:35:24.491Z</time></trkpt><trkpt lat="44.7643317" lon="10.8113183"><ele>27.5</ele><time>2026-04-26T15:35:25.491Z</time></trkpt><trkpt lat="44.7642083" lon="10.8112417"><ele>27.25</ele><time>2026-04-26T15:35:26.492Z</time></trkpt><trkpt lat="44.76408" lon="10.8111533"><ele>27.0</ele><time>2026-04-26T15:35:27.491Z</time></trkpt><trkpt lat="44.76395" lon="10.8110717"><ele>27.0</ele><time>2026-04-26T15:35:28.491Z</time></trkpt><trkpt lat="44.76383" lon="10.8109733"><ele>27.0</ele><time>2026-04-26T15:35:29.491Z</time></trkpt><trkpt lat="44.7637117" lon="10.8108733"><ele>27.0</ele><time>2026-04-26T15:35:30.491Z</time></trkpt><trkpt lat="44.7635867" lon="10.81077"><ele>27.0</ele><time>2026-04-26T15:35:31.491Z</time></trkpt><trkpt lat="44.76347" lon="10.8106683"><ele>27.25</ele><time>2026-04-26T15:35:32.492Z</time></trkpt><trkpt lat="44.7633567" lon="10.810565"><ele>27.5</ele><time>2026-04-26T15:35:33.492Z</time></trkpt><trkpt lat="44.7632383" lon="10.8104633"><ele>27.75</ele><time>2026-04-26T15:35:34.492Z</time></trkpt><trkpt lat="44.76312" lon="10.8103867"><ele>28.0</ele><time>2026-04-26T15:35:35.492Z</time></trkpt><trkpt lat="44.763005" lon="10.8102983"><ele>28.0</ele><time>2026-04-26T15:35:36.491Z</time></trkpt><trkpt lat="44.7628933" lon="10.810205"><ele>28.0</ele><time>2026-04-26T15:35:37.491Z</time></trkpt><trkpt lat="44.76277" lon="10.810105"><ele>28.0</ele><time>2026-04-26T15:35:38.492Z</time></trkpt><trkpt lat="44.762665" lon="10.8100133"><ele>28.0</ele><time>2026-04-26T15:35:39.492Z</time></trkpt><trkpt lat="44.7625783" lon="10.8099317"><ele>28.166666666666668</ele><time>2026-04-26T15:35:40.491Z</time></trkpt><trkpt lat="44.7625067" lon="10.8098733"><ele>28.333333333333336</ele><time>2026-04-26T15:35:41.492Z</time></trkpt><trkpt lat="44.762445" lon="10.8098167"><ele>28.5</ele><time>2026-04-26T15:35:42.491Z</time></trkpt><trkpt lat="44.7623883" lon="10.8097633"><ele>28.666666666666664</ele><time>2026-04-26T15:35:43.491Z</time></trkpt><trkpt lat="44.7623083" lon="10.8096583"><ele>28.833333333333332</ele><time>2026-04-26T15:35:45.491Z</time></trkpt><trkpt lat="44.76227" lon="10.809535"><ele>29.0</ele><time>2026-04-26T15:35:47.492Z</time></trkpt><trkpt lat="44.7622883" lon="10.8094133"><ele>29.000000000000004</ele><time>2026-04-26T15:35:49.491Z</time></trkpt><trkpt lat="44.7623217" lon="10.8093067"><ele>29.0</ele><time>2026-04-26T15:35:51.491Z</time></trkpt><trkpt lat="44.7623367" lon="10.80922"><ele>29.000000000000004</ele><time>2026-04-26T15:35:53.491Z</time></trkpt><trkpt lat="44.762335" lon="10.8091183"><ele>29.000000000000004</ele><time>2026-04-26T15:35:55.492Z</time></trkpt><trkpt lat="44.7623217" lon="10.8090133"><ele>29.0</ele><time>2026-04-26T15:35:57.492Z</time></trkpt><trkpt lat="44.762285" lon="10.8089217"><ele>29.000000000000004</ele><time>2026-04-26T15:35:59.492Z</time></trkpt><trkpt lat="44.7622333" lon="10.808855"><ele>29.000000000000004</ele><time>2026-04-26T15:36:01.492Z</time></trkpt><trkpt lat="44.7621783" lon="10.8087717"><ele>29.000000000000004</ele><time>2026-04-26T15:36:04.492Z</time></trkpt><trkpt lat="44.76213" lon="10.80871"><ele>29.0</ele><time>2026-04-26T15:36:18.491Z</time></trkpt><trkpt lat="44.762045" lon="10.8087033"><ele>29.000000000000004</ele><time>2026-04-26T15:36:20.492Z</time></trkpt><trkpt lat="44.7619817" lon="10.8087233"><ele>29.000000000000004</ele><time>2026-04-26T15:36:21.492Z</time></trkpt><trkpt lat="44.7619183" lon="10.8087683"><ele>29.0</ele><time>2026-04-26T15:36:22.492Z</time></trkpt><trkpt lat="44.761855" lon="10.8088217"><ele>29.000000000000004</ele><time>2026-04-26T15:36:23.491Z</time></trkpt><trkpt lat="44.7618017" lon="10.8089"><ele>29.000000000000004</ele><time>2026-04-26T15:36:24.491Z</time></trkpt><trkpt lat="44.76176" lon="10.808975"><ele>29.0</ele><time>2026-04-26T15:36:25.492Z</time></trkpt><trkpt lat="44.761705" lon="10.809065"><ele>29.0</ele><time>2026-04-26T15:36:27.491Z</time></trkpt><trkpt lat="44.7616267" lon="10.80905"><ele>29.0</ele><time>2026-04-26T15:36:30.491Z</time></trkpt><trkpt lat="44.7615383" lon="10.808985"><ele>29.0</ele><time>2026-04-26T15:36:32.491Z</time></trkpt><trkpt lat="44.7614633" lon="10.8089367"><ele>29.0</ele><time>2026-04-26T15:36:33.491Z</time></trkpt><trkpt lat="44.7613633" lon="10.8088583"><ele>29.0</ele><time>2026-04-26T15:36:34.491Z</time></trkpt><trkpt lat="44.761235" lon="10.80873"><ele>29.0</ele><time>2026-04-26T15:36:35.491Z</time></trkpt><trkpt lat="44.761085" lon="10.8085833"><ele>29.0</ele><time>2026-04-26T15:36:36.491Z</time></trkpt><trkpt lat="44.7609233" lon="10.8083967"><ele>30.333333333333332</ele><time>2026-04-26T15:36:37.491Z</time></trkpt><trkpt lat="44.7607667" lon="10.8081767"><ele>31.666666666666664</ele><time>2026-04-26T15:36:38.492Z</time></trkpt><trkpt lat="44.76062" lon="10.8079333"><ele>33.0</ele><time>2026-04-26T15:36:39.491Z</time></trkpt><trkpt lat="44.7604767" lon="10.8076633"><ele>33.0</ele><time>2026-04-26T15:36:40.491Z</time></trkpt><trkpt lat="44.7603367" lon="10.80737"><ele>33.0</ele><time>2026-04-26T15:36:41.491Z</time></trkpt><trkpt lat="44.76022" lon="10.80704"><ele>32.5</ele><time>2026-04-26T15:36:42.492Z</time></trkpt><trkpt lat="44.76014" lon="10.8067233"><ele>32.0</ele><time>2026-04-26T15:36:43.492Z</time></trkpt><trkpt lat="44.7600783" lon="10.8063967"><ele>32.0</ele><time>2026-04-26T15:36:44.492Z</time></trkpt><trkpt lat="44.760045" lon="10.8060417"><ele>32.0</ele><time>2026-04-26T15:36:45.492Z</time></trkpt><trkpt lat="44.760045" lon="10.8056917"><ele>32.0</ele><time>2026-04-26T15:36:46.491Z</time></trkpt><trkpt lat="44.7600817" lon="10.8053383"><ele>32.0</ele><time>2026-04-26T15:36:47.492Z</time></trkpt><trkpt lat="44.7601333" lon="10.8049833"><ele>32.5</ele><time>2026-04-26T15:36:48.492Z</time></trkpt><trkpt lat="44.7602033" lon="10.8046267"><ele>33.0</ele><time>2026-04-26T15:36:49.492Z</time></trkpt><trkpt lat="44.7602883" lon="10.8042583"><ele>32.0</ele><time>2026-04-26T15:36:50.491Z</time></trkpt><trkpt lat="44.7603733" lon="10.8038783"><ele>31.0</ele><time>2026-04-26T15:36:51.492Z</time></trkpt><trkpt lat="44.7604583" lon="10.803505"><ele>30.5</ele><time>2026-04-26T15:36:52.491Z</time></trkpt><trkpt lat="44.7605367" lon="10.8031533"><ele>30.0</ele><time>2026-04-26T15:36:53.492Z</time></trkpt><trkpt lat="44.7606117" lon="10.80282"><ele>30.0</ele><time>2026-04-26T15:36:54.492Z</time></trkpt><trkpt lat="44.76069" lon="10.8024867"><ele>30.0</ele><time>2026-04-26T15:36:55.491Z</time></trkpt><trkpt lat="44.7607617" lon="10.8021583"><ele>29.5</ele><time>2026-04-26T15:36:56.492Z</time></trkpt><trkpt lat="44.7608383" lon="10.801825"><ele>29.0</ele><time>2026-04-26T15:36:57.492Z</time></trkpt><trkpt lat="44.7609117" lon="10.8014883"><ele>29.0</ele><time>2026-04-26T15:36:58.492Z</time></trkpt><trkpt lat="44.7609967" lon="10.8011317"><ele>29.0</ele><time>2026-04-26T15:36:59.491Z</time></trkpt><trkpt lat="44.7610767" lon="10.800755"><ele>28.5</ele><time>2026-04-26T15:37:00.491Z</time></trkpt><trkpt lat="44.7611583" lon="10.8003633"><ele>28.0</ele><time>2026-04-26T15:37:01.491Z</time></trkpt><trkpt lat="44.7612433" lon="10.799975"><ele>28.0</ele><time>2026-04-26T15:37:02.491Z</time></trkpt><trkpt lat="44.76132" lon="10.7995933"><ele>28.0</ele><time>2026-04-26T15:37:03.492Z</time></trkpt><trkpt lat="44.7613983" lon="10.7992367"><ele>28.0</ele><time>2026-04-26T15:37:04.491Z</time></trkpt><trkpt lat="44.7614717" lon="10.798895"><ele>28.0</ele><time>2026-04-26T15:37:05.491Z</time></trkpt><trkpt lat="44.761535" lon="10.7985583"><ele>28.0</ele><time>2026-04-26T15:37:06.491Z</time></trkpt><trkpt lat="44.7615817" lon="10.7982133"><ele>28.0</ele><time>2026-04-26T15:37:07.492Z</time></trkpt><trkpt lat="44.7616017" lon="10.79786"><ele>28.0</ele><time>2026-04-26T15:37:08.491Z</time></trkpt><trkpt lat="44.7616" lon="10.7975117"><ele>28.0</ele><time>2026-04-26T15:37:09.491Z</time></trkpt><trkpt lat="44.7615667" lon="10.7971633"><ele>27.5</ele><time>2026-04-26T15:37:10.492Z</time></trkpt><trkpt lat="44.7615" lon="10.796825"><ele>27.0</ele><time>2026-04-26T15:37:11.492Z</time></trkpt><trkpt lat="44.76142" lon="10.796505"><ele>27.0</ele><time>2026-04-26T15:37:12.492Z</time></trkpt><trkpt lat="44.7613117" lon="10.7961967"><ele>27.0</ele><time>2026-04-26T15:37:13.491Z</time></trkpt><trkpt lat="44.7611667" lon="10.7958983"><ele>27.0</ele><time>2026-04-26T15:37:14.491Z</time></trkpt><trkpt lat="44.761005" lon="10.7956217"><ele>27.0</ele><time>2026-04-26T15:37:15.492Z</time></trkpt><trkpt lat="44.7608183" lon="10.7953517"><ele>28.5</ele><time>2026-04-26T15:37:16.491Z</time></trkpt><trkpt lat="44.7606183" lon="10.7951117"><ele>30.0</ele><time>2026-04-26T15:37:17.492Z</time></trkpt><trkpt lat="44.76042" lon="10.7949083"><ele>30.0</ele><time>2026-04-26T15:37:18.491Z</time></trkpt><trkpt lat="44.7602333" lon="10.7947283"><ele>30.0</ele><time>2026-04-26T15:37:19.491Z</time></trkpt><trkpt lat="44.7600533" lon="10.7945683"><ele>30.0</ele><time>2026-04-26T15:37:20.491Z</time></trkpt><trkpt lat="44.7598883" lon="10.794415"><ele>29.0</ele><time>2026-04-26T15:37:21.492Z</time></trkpt><trkpt lat="44.7597367" lon="10.7942817"><ele>28.0</ele><time>2026-04-26T15:37:22.492Z</time></trkpt><trkpt lat="44.7595917" lon="10.7941567"><ele>27.0</ele><time>2026-04-26T15:37:23.491Z</time></trkpt><trkpt lat="44.7594733" lon="10.7940333"><ele>27.0</ele><time>2026-04-26T15:37:24.492Z</time></trkpt><trkpt lat="44.7593767" lon="10.7938833"><ele>27.0</ele><time>2026-04-26T15:37:25.491Z</time></trkpt><trkpt lat="44.7593017" lon="10.79371"><ele>27.0</ele><time>2026-04-26T15:37:26.492Z</time></trkpt><trkpt lat="44.7592467" lon="10.7935133"><ele>27.0</ele><time>2026-04-26T15:37:27.492Z</time></trkpt><trkpt lat="44.7592067" lon="10.793325"><ele>27.5</ele><time>2026-04-26T15:37:28.491Z</time></trkpt><trkpt lat="44.75919" lon="10.7931517"><ele>28.0</ele><time>2026-04-26T15:37:29.491Z</time></trkpt><trkpt lat="44.7592117" lon="10.7929633"><ele>28.5</ele><time>2026-04-26T15:37:30.492Z</time></trkpt><trkpt lat="44.75928" lon="10.79276"><ele>29.0</ele><time>2026-04-26T15:37:31.491Z</time></trkpt><trkpt lat="44.7593533" lon="10.7925317"><ele>28.666666666666664</ele><time>2026-04-26T15:37:32.492Z</time></trkpt><trkpt lat="44.7594217" lon="10.7922917"><ele>28.333333333333336</ele><time>2026-04-26T15:37:33.491Z</time></trkpt><trkpt lat="44.7594817" lon="10.792065"><ele>28.0</ele><time>2026-04-26T15:37:34.491Z</time></trkpt><trkpt lat="44.75955" lon="10.7918717"><ele>28.25</ele><time>2026-04-26T15:37:35.491Z</time></trkpt><trkpt lat="44.7596133" lon="10.7917"><ele>28.5</ele><time>2026-04-26T15:37:36.492Z</time></trkpt><trkpt lat="44.7596733" lon="10.7915267"><ele>28.75</ele><time>2026-04-26T15:37:37.491Z</time></trkpt><trkpt lat="44.7597317" lon="10.7913533"><ele>29.0</ele><time>2026-04-26T15:37:38.492Z</time></trkpt><trkpt lat="44.7597883" lon="10.7911833"><ele>29.0</ele><time>2026-04-26T15:37:39.491Z</time></trkpt><trkpt lat="44.7598417" lon="10.791015"><ele>29.0</ele><time>2026-04-26T15:37:40.492Z</time></trkpt><trkpt lat="44.7598883" lon="10.790855"><ele>29.0</ele><time>2026-04-26T15:37:41.491Z</time></trkpt><trkpt lat="44.75994" lon="10.790715"><ele>29.0</ele><time>2026-04-26T15:37:42.491Z</time></trkpt><trkpt lat="44.7599867" lon="10.790575"><ele>29.25</ele><time>2026-04-26T15:37:43.492Z</time></trkpt><trkpt lat="44.760035" lon="10.790435"><ele>29.5</ele><time>2026-04-26T15:37:44.491Z</time></trkpt><trkpt lat="44.7600867" lon="10.7902867"><ele>29.75</ele><time>2026-04-26T15:37:45.491Z</time></trkpt><trkpt lat="44.7601333" lon="10.7901367"><ele>30.0</ele><time>2026-04-26T15:37:46.492Z</time></trkpt><trkpt lat="44.760185" lon="10.789985"><ele>30.25</ele><time>2026-04-26T15:37:47.491Z</time></trkpt><trkpt lat="44.76023" lon="10.789835"><ele>30.5</ele><time>2026-04-26T15:37:48.492Z</time></trkpt><trkpt lat="44.76028" lon="10.78969"><ele>30.75</ele><time>2026-04-26T15:37:49.492Z</time></trkpt><trkpt lat="44.76033" lon="10.78955"><ele>31.0</ele><time>2026-04-26T15:37:50.492Z</time></trkpt><trkpt lat="44.7603717" lon="10.7894017"><ele>31.0</ele><time>2026-04-26T15:37:51.491Z</time></trkpt><trkpt lat="44.7604117" lon="10.7892617"><ele>31.0</ele><time>2026-04-26T15:37:52.491Z</time></trkpt><trkpt lat="44.760455" lon="10.7891183"><ele>31.0</ele><time>2026-04-26T15:37:53.492Z</time></trkpt><trkpt lat="44.7605033" lon="10.7889633"><ele>31.0</ele><time>2026-04-26T15:37:54.491Z</time></trkpt><trkpt lat="44.7605583" lon="10.7888"><ele>31.0</ele><time>2026-04-26T15:37:55.491Z</time></trkpt><trkpt lat="44.7606133" lon="10.7886333"><ele>31.0</ele><time>2026-04-26T15:37:56.492Z</time></trkpt><trkpt lat="44.7606683" lon="10.7884567"><ele>31.0</ele><time>2026-04-26T15:37:57.491Z</time></trkpt><trkpt lat="44.760725" lon="10.7882817"><ele>31.0</ele><time>2026-04-26T15:37:58.492Z</time></trkpt><trkpt lat="44.7607767" lon="10.7881217"><ele>31.0</ele><time>2026-04-26T15:37:59.491Z</time></trkpt><trkpt lat="44.76082" lon="10.7879783"><ele>31.0</ele><time>2026-04-26T15:38:00.491Z</time></trkpt><trkpt lat="44.76086" lon="10.78785"><ele>31.0</ele><time>2026-04-26T15:38:01.491Z</time></trkpt><trkpt lat="44.7609017" lon="10.7877383"><ele>31.0</ele><time>2026-04-26T15:38:02.492Z</time></trkpt><trkpt lat="44.7609567" lon="10.78765"><ele>31.0</ele><time>2026-04-26T15:38:03.492Z</time></trkpt><trkpt lat="44.76102" lon="10.7875767"><ele>31.000000000000004</ele><time>2026-04-26T15:38:04.492Z</time></trkpt><trkpt lat="44.761075" lon="10.7874917"><ele>31.0</ele><time>2026-04-26T15:38:05.491Z</time></trkpt><trkpt lat="44.7611067" lon="10.7873933"><ele>31.0</ele><time>2026-04-26T15:38:06.492Z</time></trkpt><trkpt lat="44.7611083" lon="10.78729"><ele>31.0</ele><time>2026-04-26T15:38:07.491Z</time></trkpt><trkpt lat="44.76111" lon="10.7871633"><ele>31.000000000000004</ele><time>2026-04-26T15:38:08.491Z</time></trkpt><trkpt lat="44.7611267" lon="10.787015"><ele>31.0</ele><time>2026-04-26T15:38:09.491Z</time></trkpt><trkpt lat="44.7611617" lon="10.786865"><ele>30.75</ele><time>2026-04-26T15:38:10.491Z</time></trkpt><trkpt lat="44.7612067" lon="10.78671"><ele>30.5</ele><time>2026-04-26T15:38:11.492Z</time></trkpt><trkpt lat="44.7612567" lon="10.7865333"><ele>30.25</ele><time>2026-04-26T15:38:12.492Z</time></trkpt><trkpt lat="44.7613117" lon="10.78634"><ele>30.0</ele><time>2026-04-26T15:38:13.492Z</time></trkpt><trkpt lat="44.76137" lon="10.7861467"><ele>30.666666666666664</ele><time>2026-04-26T15:38:14.491Z</time></trkpt><trkpt lat="44.761445" lon="10.7859283"><ele>31.333333333333332</ele><time>2026-04-26T15:38:15.491Z</time></trkpt><trkpt lat="44.7615033" lon="10.7857283"><ele>32.0</ele><time>2026-04-26T15:38:16.492Z</time></trkpt><trkpt lat="44.7615583" lon="10.78554"><ele>32.0</ele><time>2026-04-26T15:38:17.492Z</time></trkpt><trkpt lat="44.7616217" lon="10.78537"><ele>32.0</ele><time>2026-04-26T15:38:18.492Z</time></trkpt><trkpt lat="44.761675" lon="10.785215"><ele>32.0</ele><time>2026-04-26T15:38:19.492Z</time></trkpt><trkpt lat="44.7617217" lon="10.7850617"><ele>32.0</ele><time>2026-04-26T15:38:20.492Z</time></trkpt><trkpt lat="44.7617717" lon="10.7849"><ele>31.75</ele><time>2026-04-26T15:38:21.492Z</time></trkpt><trkpt lat="44.76182" lon="10.78474"><ele>31.5</ele><time>2026-04-26T15:38:22.491Z</time></trkpt><trkpt lat="44.7618833" lon="10.7845817"><ele>31.25</ele><time>2026-04-26T15:38:23.491Z</time></trkpt><trkpt lat="44.761935" lon="10.7844117"><ele>31.0</ele><time>2026-04-26T15:38:24.492Z</time></trkpt><trkpt lat="44.76199" lon="10.7842417"><ele>30.75</ele><time>2026-04-26T15:38:25.492Z</time></trkpt><trkpt lat="44.7620467" lon="10.7840783"><ele>30.5</ele><time>2026-04-26T15:38:26.491Z</time></trkpt><trkpt lat="44.7621" lon="10.7839067"><ele>30.25</ele><time>2026-04-26T15:38:27.492Z</time></trkpt><trkpt lat="44.7621433" lon="10.7837267"><ele>30.0</ele><time>2026-04-26T15:38:28.492Z</time></trkpt><trkpt lat="44.7622" lon="10.7835483"><ele>30.4</ele><time>2026-04-26T15:38:29.491Z</time></trkpt><trkpt lat="44.7622583" lon="10.7834133"><ele>30.8</ele><time>2026-04-26T15:38:30.491Z</time></trkpt><trkpt lat="44.7622933" lon="10.7832983"><ele>31.200000000000003</ele><time>2026-04-26T15:38:31.492Z</time></trkpt><trkpt lat="44.7623317" lon="10.78321"><ele>31.6</ele><time>2026-04-26T15:38:32.492Z</time></trkpt><trkpt lat="44.7623717" lon="10.7831283"><ele>32.0</ele><time>2026-04-26T15:38:33.492Z</time></trkpt><trkpt lat="44.7624333" lon="10.783"><ele>32.0</ele><time>2026-04-26T15:38:35.492Z</time></trkpt><trkpt lat="44.7624333" lon="10.7828717"><ele>32.0</ele><time>2026-04-26T15:38:37.491Z</time></trkpt><trkpt lat="44.762325" lon="10.78278"><ele>32.0</ele><time>2026-04-26T15:38:39.492Z</time></trkpt><trkpt lat="44.762235" lon="10.7827417"><ele>32.0</ele><time>2026-04-26T15:38:40.491Z</time></trkpt><trkpt lat="44.76212" lon="10.78269"><ele>32.0</ele><time>2026-04-26T15:38:41.491Z</time></trkpt><trkpt lat="44.7619983" lon="10.7826217"><ele>32.0</ele><time>2026-04-26T15:38:42.491Z</time></trkpt><trkpt lat="44.7618833" lon="10.7825483"><ele>32.0</ele><time>2026-04-26T15:38:43.492Z</time></trkpt><trkpt lat="44.7617633" lon="10.7824683"><ele>32.0</ele><time>2026-04-26T15:38:44.492Z</time></trkpt><trkpt lat="44.761645" lon="10.7823767"><ele>32.0</ele><time>2026-04-26T15:38:45.492Z</time></trkpt><trkpt lat="44.761515" lon="10.78229"><ele>32.0</ele><time>2026-04-26T15:38:46.492Z</time></trkpt><trkpt lat="44.7613867" lon="10.7822067"><ele>32.0</ele><time>2026-04-26T15:38:47.491Z</time></trkpt><trkpt lat="44.76127" lon="10.7821283"><ele>32.0</ele><time>2026-04-26T15:38:48.491Z</time></trkpt><trkpt lat="44.761155" lon="10.7820417"><ele>32.0</ele><time>2026-04-26T15:38:49.491Z</time></trkpt><trkpt lat="44.7610367" lon="10.781955"><ele>31.75</ele><time>2026-04-26T15:38:50.492Z</time></trkpt><trkpt lat="44.76092" lon="10.7818683"><ele>31.5</ele><time>2026-04-26T15:38:51.492Z</time></trkpt><trkpt lat="44.760815" lon="10.7817867"><ele>31.25</ele><time>2026-04-26T15:38:52.491Z</time></trkpt><trkpt lat="44.7607183" lon="10.781725"><ele>31.0</ele><time>2026-04-26T15:38:53.492Z</time></trkpt><trkpt lat="44.760635" lon="10.7816517"><ele>31.4</ele><time>2026-04-26T15:38:54.491Z</time></trkpt><trkpt lat="44.7605433" lon="10.781585"><ele>31.8</ele><time>2026-04-26T15:38:55.492Z</time></trkpt><trkpt lat="44.7604567" lon="10.78153"><ele>32.199999999999996</ele><time>2026-04-26T15:38:56.492Z</time></trkpt><trkpt lat="44.7603733" lon="10.78148"><ele>32.6</ele><time>2026-04-26T15:38:57.491Z</time></trkpt><trkpt lat="44.7602917" lon="10.7814133"><ele>33.0</ele><time>2026-04-26T15:38:58.491Z</time></trkpt><trkpt lat="44.7602" lon="10.7813517"><ele>33.0</ele><time>2026-04-26T15:38:59.491Z</time></trkpt><trkpt lat="44.760105" lon="10.7812883"><ele>33.0</ele><time>2026-04-26T15:39:00.491Z</time></trkpt><trkpt lat="44.7600133" lon="10.7812183"><ele>33.0</ele><time>2026-04-26T15:39:01.492Z</time></trkpt><trkpt lat="44.75992" lon="10.7811483"><ele>33.0</ele><time>2026-04-26T15:39:02.492Z</time></trkpt><trkpt lat="44.7598217" lon="10.781075"><ele>33.0</ele><time>2026-04-26T15:39:03.492Z</time></trkpt><trkpt lat="44.7597217" lon="10.7810167"><ele>33.0</ele><time>2026-04-26T15:39:04.491Z</time></trkpt><trkpt lat="44.759615" lon="10.78094"><ele>33.0</ele><time>2026-04-26T15:39:05.491Z</time></trkpt><trkpt lat="44.759505" lon="10.7808667"><ele>33.0</ele><time>2026-04-26T15:39:06.492Z</time></trkpt><trkpt lat="44.7594017" lon="10.780795"><ele>33.0</ele><time>2026-04-26T15:39:07.491Z</time></trkpt><trkpt lat="44.7592983" lon="10.7807233"><ele>33.0</ele><time>2026-04-26T15:39:08.492Z</time></trkpt><trkpt lat="44.759195" lon="10.7806433"><ele>33.0</ele><time>2026-04-26T15:39:09.491Z</time></trkpt><trkpt lat="44.759085" lon="10.780585"><ele>33.0</ele><time>2026-04-26T15:39:10.491Z</time></trkpt><trkpt lat="44.75898" lon="10.7805183"><ele>33.0</ele><time>2026-04-26T15:39:11.491Z</time></trkpt><trkpt lat="44.7588767" lon="10.78045"><ele>33.0</ele><time>2026-04-26T15:39:12.492Z</time></trkpt><trkpt lat="44.7587717" lon="10.7803817"><ele>33.0</ele><time>2026-04-26T15:39:13.491Z</time></trkpt><trkpt lat="44.7586517" lon="10.7802933"><ele>33.0</ele><time>2026-04-26T15:39:14.492Z</time></trkpt><trkpt lat="44.7585533" lon="10.7801883"><ele>33.0</ele><time>2026-04-26T15:39:15.491Z</time></trkpt><trkpt lat="44.75846" lon="10.7800867"><ele>33.0</ele><time>2026-04-26T15:39:16.492Z</time></trkpt><trkpt lat="44.75839" lon="10.779995"><ele>33.0</ele><time>2026-04-26T15:39:17.491Z</time></trkpt><trkpt lat="44.7583383" lon="10.7799117"><ele>33.0</ele><time>2026-04-26T15:39:18.492Z</time></trkpt><trkpt lat="44.75829" lon="10.7797867"><ele>33.0</ele><time>2026-04-26T15:39:19.492Z</time></trkpt><trkpt lat="44.7582367" lon="10.7796683"><ele>33.0</ele><time>2026-04-26T15:39:20.491Z</time></trkpt><trkpt lat="44.758185" lon="10.7795383"><ele>33.0</ele><time>2026-04-26T15:39:21.492Z</time></trkpt><trkpt lat="44.758155" lon="10.7793883"><ele>33.0</ele><time>2026-04-26T15:39:22.492Z</time></trkpt><trkpt lat="44.75812" lon="10.779215"><ele>33.0</ele><time>2026-04-26T15:39:23.492Z</time></trkpt><trkpt lat="44.7581017" lon="10.7790367"><ele>33.0</ele><time>2026-04-26T15:39:24.492Z</time></trkpt><trkpt lat="44.7580883" lon="10.77887"><ele>32.75</ele><time>2026-04-26T15:39:25.491Z</time></trkpt><trkpt lat="44.7580817" lon="10.7787"><ele>32.5</ele><time>2026-04-26T15:39:26.492Z</time></trkpt><trkpt lat="44.7580817" lon="10.778525"><ele>32.25</ele><time>2026-04-26T15:39:27.491Z</time></trkpt><trkpt lat="44.758085" lon="10.7783483"><ele>32.0</ele><time>2026-04-26T15:39:28.492Z</time></trkpt><trkpt lat="44.7581083" lon="10.77818"><ele>31.75</ele><time>2026-04-26T15:39:29.492Z</time></trkpt><trkpt lat="44.75814" lon="10.7780083"><ele>31.5</ele><time>2026-04-26T15:39:30.491Z</time></trkpt><trkpt lat="44.7581867" lon="10.777855"><ele>31.25</ele><time>2026-04-26T15:39:31.492Z</time></trkpt><trkpt lat="44.758235" lon="10.7777167"><ele>31.0</ele><time>2026-04-26T15:39:32.491Z</time></trkpt><trkpt lat="44.7582817" lon="10.7775833"><ele>31.0</ele><time>2026-04-26T15:39:33.492Z</time></trkpt><trkpt lat="44.75833" lon="10.7774567"><ele>31.0</ele><time>2026-04-26T15:39:34.491Z</time></trkpt><trkpt lat="44.758385" lon="10.7773267"><ele>31.0</ele><time>2026-04-26T15:39:35.491Z</time></trkpt><trkpt lat="44.7584283" lon="10.777185"><ele>31.0</ele><time>2026-04-26T15:39:36.492Z</time></trkpt><trkpt lat="44.7584667" lon="10.7770417"><ele>31.0</ele><time>2026-04-26T15:39:37.492Z</time></trkpt><trkpt lat="44.7585117" lon="10.7769067"><ele>31.0</ele><time>2026-04-26T15:39:38.491Z</time></trkpt><trkpt lat="44.75856" lon="10.7767783"><ele>31.0</ele><time>2026-04-26T15:39:39.491Z</time></trkpt><trkpt lat="44.758605" lon="10.7766467"><ele>31.0</ele><time>2026-04-26T15:39:40.492Z</time></trkpt><trkpt lat="44.7586667" lon="10.776515"><ele>31.0</ele><time>2026-04-26T15:39:41.492Z</time></trkpt><trkpt lat="44.758735" lon="10.776395"><ele>31.0</ele><time>2026-04-26T15:39:42.492Z</time></trkpt><trkpt lat="44.7588167" lon="10.7762967"><ele>31.0</ele><time>2026-04-26T15:39:43.492Z</time></trkpt><trkpt lat="44.7589" lon="10.7762133"><ele>31.0</ele><time>2026-04-26T15:39:44.491Z</time></trkpt><trkpt lat="44.7589933" lon="10.7761433"><ele>31.0</ele><time>2026-04-26T15:39:45.491Z</time></trkpt><trkpt lat="44.7590917" lon="10.7760767"><ele>31.0</ele><time>2026-04-26T15:39:46.492Z</time></trkpt><trkpt lat="44.759195" lon="10.77603"><ele>31.0</ele><time>2026-04-26T15:39:47.491Z</time></trkpt><trkpt lat="44.7593" lon="10.7759967"><ele>31.200000000000003</ele><time>2026-04-26T15:39:48.492Z</time></trkpt><trkpt lat="44.7594067" lon="10.775975"><ele>31.400000000000002</ele><time>2026-04-26T15:39:49.491Z</time></trkpt><trkpt lat="44.75951" lon="10.77596"><ele>31.6</ele><time>2026-04-26T15:39:50.491Z</time></trkpt><trkpt lat="44.75961" lon="10.775935"><ele>31.8</ele><time>2026-04-26T15:39:51.491Z</time></trkpt><trkpt lat="44.7597233" lon="10.775885"><ele>32.0</ele><time>2026-04-26T15:39:52.491Z</time></trkpt><trkpt lat="44.759825" lon="10.7758183"><ele>32.0</ele><time>2026-04-26T15:39:53.492Z</time></trkpt><trkpt lat="44.759925" lon="10.7757367"><ele>32.0</ele><time>2026-04-26T15:39:54.492Z</time></trkpt><trkpt lat="44.7600117" lon="10.7756567"><ele>32.0</ele><time>2026-04-26T15:39:55.492Z</time></trkpt><trkpt lat="44.7600883" lon="10.77556"><ele>32.0</ele><time>2026-04-26T15:39:56.491Z</time></trkpt><trkpt lat="44.7601633" lon="10.7754533"><ele>32.0</ele><time>2026-04-26T15:39:57.492Z</time></trkpt><trkpt lat="44.76024" lon="10.7753283"><ele>32.0</ele><time>2026-04-26T15:39:58.491Z</time></trkpt><trkpt lat="44.7603067" lon="10.7751967"><ele>32.0</ele><time>2026-04-26T15:39:59.491Z</time></trkpt><trkpt lat="44.7603617" lon="10.7750383"><ele>32.0</ele><time>2026-04-26T15:40:00.492Z</time></trkpt><trkpt lat="44.760425" lon="10.77489"><ele>32.0</ele><time>2026-04-26T15:40:01.491Z</time></trkpt><trkpt lat="44.7604833" lon="10.7747417"><ele>32.0</ele><time>2026-04-26T15:40:02.491Z</time></trkpt><trkpt lat="44.760545" lon="10.7746033"><ele>32.0</ele><time>2026-04-26T15:40:03.491Z</time></trkpt><trkpt lat="44.76061" lon="10.7744633"><ele>32.0</ele><time>2026-04-26T15:40:04.491Z</time></trkpt><trkpt lat="44.7606717" lon="10.7743083"><ele>32.0</ele><time>2026-04-26T15:40:05.491Z</time></trkpt><trkpt lat="44.7607367" lon="10.7741467"><ele>32.25</ele><time>2026-04-26T15:40:06.492Z</time></trkpt><trkpt lat="44.7608067" lon="10.773985"><ele>32.5</ele><time>2026-04-26T15:40:07.491Z</time></trkpt><trkpt lat="44.7608667" lon="10.7738283"><ele>32.75</ele><time>2026-04-26T15:40:08.492Z</time></trkpt><trkpt lat="44.760925" lon="10.7736783"><ele>33.0</ele><time>2026-04-26T15:40:09.491Z</time></trkpt><trkpt lat="44.7609867" lon="10.7735383"><ele>33.0</ele><time>2026-04-26T15:40:10.491Z</time></trkpt><trkpt lat="44.7610483" lon="10.7733783"><ele>33.0</ele><time>2026-04-26T15:40:11.492Z</time></trkpt><trkpt lat="44.76111" lon="10.7732283"><ele>33.0</ele><time>2026-04-26T15:40:12.492Z</time></trkpt><trkpt lat="44.7611717" lon="10.7730883"><ele>33.0</ele><time>2026-04-26T15:40:13.491Z</time></trkpt><trkpt lat="44.7612333" lon="10.772945"><ele>33.0</ele><time>2026-04-26T15:40:14.491Z</time></trkpt><trkpt lat="44.7612917" lon="10.7728017"><ele>33.0</ele><time>2026-04-26T15:40:15.492Z</time></trkpt><trkpt lat="44.761345" lon="10.77267"><ele>33.0</ele><time>2026-04-26T15:40:16.491Z</time></trkpt><trkpt lat="44.7614033" lon="10.7725483"><ele>33.0</ele><time>2026-04-26T15:40:17.492Z</time></trkpt><trkpt lat="44.7614567" lon="10.7724267"><ele>33.0</ele><time>2026-04-26T15:40:18.492Z</time></trkpt><trkpt lat="44.761495" lon="10.7723117"><ele>33.166666666666664</ele><time>2026-04-26T15:40:19.491Z</time></trkpt><trkpt lat="44.7615317" lon="10.77221"><ele>33.333333333333336</ele><time>2026-04-26T15:40:20.492Z</time></trkpt><trkpt lat="44.76156" lon="10.7721133"><ele>33.5</ele><time>2026-04-26T15:40:21.492Z</time></trkpt><trkpt lat="44.7616217" lon="10.7719617"><ele>33.66666666666667</ele><time>2026-04-26T15:40:23.492Z</time></trkpt><trkpt lat="44.7616683" lon="10.7718917"><ele>33.833333333333336</ele><time>2026-04-26T15:40:24.491Z</time></trkpt><trkpt lat="44.7617317" lon="10.7718583"><ele>34.0</ele><time>2026-04-26T15:40:25.491Z</time></trkpt><trkpt lat="44.76181" lon="10.7718583"><ele>33.25</ele><time>2026-04-26T15:40:26.492Z</time></trkpt><trkpt lat="44.7619083" lon="10.77188"><ele>32.5</ele><time>2026-04-26T15:40:27.492Z</time></trkpt><trkpt lat="44.76201" lon="10.7719017"><ele>31.75</ele><time>2026-04-26T15:40:28.491Z</time></trkpt><trkpt lat="44.7621283" lon="10.7719267"><ele>31.0</ele><time>2026-04-26T15:40:29.491Z</time></trkpt><trkpt lat="44.76226" lon="10.7719383"><ele>31.0</ele><time>2026-04-26T15:40:30.492Z</time></trkpt><trkpt lat="44.7623983" lon="10.771945"><ele>31.0</ele><time>2026-04-26T15:40:31.491Z</time></trkpt><trkpt lat="44.7625267" lon="10.7719467"><ele>31.0</ele><time>2026-04-26T15:40:32.491Z</time></trkpt><trkpt lat="44.7626683" lon="10.7719567"><ele>31.0</ele><time>2026-04-26T15:40:33.492Z</time></trkpt><trkpt lat="44.762815" lon="10.7719733"><ele>31.0</ele><time>2026-04-26T15:40:34.491Z</time></trkpt><trkpt lat="44.7629633" lon="10.7719883"><ele>31.0</ele><time>2026-04-26T15:40:35.492Z</time></trkpt><trkpt lat="44.7631067" lon="10.7720067"><ele>31.0</ele><time>2026-04-26T15:40:36.491Z</time></trkpt><trkpt lat="44.7632467" lon="10.7720267"><ele>31.0</ele><time>2026-04-26T15:40:37.492Z</time></trkpt><trkpt lat="44.7633717" lon="10.77205"><ele>31.0</ele><time>2026-04-26T15:40:38.491Z</time></trkpt><trkpt lat="44.76349" lon="10.772065"><ele>31.0</ele><time>2026-04-26T15:40:39.491Z</time></trkpt><trkpt lat="44.7636133" lon="10.77208"><ele>31.0</ele><time>2026-04-26T15:40:40.491Z</time></trkpt><trkpt lat="44.7637333" lon="10.7720983"><ele>31.0</ele><time>2026-04-26T15:40:41.491Z</time></trkpt><trkpt lat="44.7638533" lon="10.772115"><ele>30.75</ele><time>2026-04-26T15:40:42.491Z</time></trkpt><trkpt lat="44.7639733" lon="10.7721183"><ele>30.5</ele><time>2026-04-26T15:40:43.492Z</time></trkpt><trkpt lat="44.7641017" lon="10.772115"><ele>30.25</ele><time>2026-04-26T15:40:44.491Z</time></trkpt><trkpt lat="44.764225" lon="10.772135"><ele>30.0</ele><time>2026-04-26T15:40:45.492Z</time></trkpt><trkpt lat="44.764355" lon="10.772145"><ele>30.0</ele><time>2026-04-26T15:40:46.491Z</time></trkpt><trkpt lat="44.76448" lon="10.7721633"><ele>30.0</ele><time>2026-04-26T15:40:47.491Z</time></trkpt><trkpt lat="44.764605" lon="10.7721767"><ele>30.0</ele><time>2026-04-26T15:40:48.492Z</time></trkpt><trkpt lat="44.7647317" lon="10.7721867"><ele>30.0</ele><time>2026-04-26T15:40:49.492Z</time></trkpt><trkpt lat="44.7648567" lon="10.7722017"><ele>30.0</ele><time>2026-04-26T15:40:50.492Z</time></trkpt><trkpt lat="44.76498" lon="10.772215"><ele>30.0</ele><time>2026-04-26T15:40:51.491Z</time></trkpt><trkpt lat="44.765095" lon="10.772235"><ele>30.0</ele><time>2026-04-26T15:40:52.492Z</time></trkpt><trkpt lat="44.76521" lon="10.7722633"><ele>30.0</ele><time>2026-04-26T15:40:53.491Z</time></trkpt><trkpt lat="44.7653183" lon="10.772305"><ele>30.25</ele><time>2026-04-26T15:40:54.492Z</time></trkpt><trkpt lat="44.7654217" lon="10.772365"><ele>30.5</ele><time>2026-04-26T15:40:55.491Z</time></trkpt><trkpt lat="44.765535" lon="10.772445"><ele>30.75</ele><time>2026-04-26T15:40:56.492Z</time></trkpt><trkpt lat="44.7656417" lon="10.77252"><ele>31.0</ele><time>2026-04-26T15:40:57.491Z</time></trkpt><trkpt lat="44.7657433" lon="10.7725933"><ele>31.0</ele><time>2026-04-26T15:40:58.491Z</time></trkpt><trkpt lat="44.7658417" lon="10.77267"><ele>31.0</ele><time>2026-04-26T15:40:59.492Z</time></trkpt><trkpt lat="44.7659383" lon="10.7727583"><ele>31.0</ele><time>2026-04-26T15:41:00.491Z</time></trkpt><trkpt lat="44.766035" lon="10.7728267"><ele>31.0</ele><time>2026-04-26T15:41:01.491Z</time></trkpt><trkpt lat="44.7661267" lon="10.7728867"><ele>31.0</ele><time>2026-04-26T15:41:02.492Z</time></trkpt><trkpt lat="44.76622" lon="10.7729617"><ele>31.0</ele><time>2026-04-26T15:41:03.491Z</time></trkpt><trkpt lat="44.7663117" lon="10.7730183"><ele>31.0</ele><time>2026-04-26T15:41:04.492Z</time></trkpt><trkpt lat="44.7664133" lon="10.7730733"><ele>31.0</ele><time>2026-04-26T15:41:05.491Z</time></trkpt><trkpt lat="44.7665183" lon="10.7731433"><ele>31.0</ele><time>2026-04-26T15:41:06.492Z</time></trkpt><trkpt lat="44.7666317" lon="10.7732233"><ele>31.0</ele><time>2026-04-26T15:41:07.491Z</time></trkpt><trkpt lat="44.7667567" lon="10.7733267"><ele>31.0</ele><time>2026-04-26T15:41:08.492Z</time></trkpt><trkpt lat="44.7668883" lon="10.7734267"><ele>31.0</ele><time>2026-04-26T15:41:09.491Z</time></trkpt><trkpt lat="44.767025" lon="10.7735233"><ele>31.0</ele><time>2026-04-26T15:41:10.492Z</time></trkpt><trkpt lat="44.767155" lon="10.7736183"><ele>31.0</ele><time>2026-04-26T15:41:11.491Z</time></trkpt><trkpt lat="44.76727" lon="10.7737117"><ele>31.0</ele><time>2026-04-26T15:41:12.492Z</time></trkpt><trkpt lat="44.7673783" lon="10.773805"><ele>31.0</ele><time>2026-04-26T15:41:13.491Z</time></trkpt><trkpt lat="44.7674783" lon="10.7738567"><ele>31.0</ele><time>2026-04-26T15:41:14.491Z</time></trkpt><trkpt lat="44.76757" lon="10.773875"><ele>31.75</ele><time>2026-04-26T15:41:15.492Z</time></trkpt><trkpt lat="44.7676967" lon="10.7738883"><ele>32.5</ele><time>2026-04-26T15:41:16.492Z</time></trkpt><trkpt lat="44.76782" lon="10.773885"><ele>33.25</ele><time>2026-04-26T15:41:17.492Z</time></trkpt><trkpt lat="44.7679467" lon="10.773865"><ele>34.0</ele><time>2026-04-26T15:41:18.492Z</time></trkpt><trkpt lat="44.7680667" lon="10.7738617"><ele>34.0</ele><time>2026-04-26T15:41:19.491Z</time></trkpt><trkpt lat="44.7681767" lon="10.7738683"><ele>34.0</ele><time>2026-04-26T15:41:20.491Z</time></trkpt><trkpt lat="44.7682867" lon="10.77389"><ele>34.0</ele><time>2026-04-26T15:41:21.491Z</time></trkpt><trkpt lat="44.768395" lon="10.773935"><ele>34.0</ele><time>2026-04-26T15:41:22.492Z</time></trkpt><trkpt lat="44.7685033" lon="10.7740117"><ele>33.75</ele><time>2026-04-26T15:41:23.491Z</time></trkpt><trkpt lat="44.7686183" lon="10.774095"><ele>33.5</ele><time>2026-04-26T15:41:24.491Z</time></trkpt><trkpt lat="44.76872" lon="10.774175"><ele>33.25</ele><time>2026-04-26T15:41:25.492Z</time></trkpt><trkpt lat="44.7688133" lon="10.77425"><ele>33.0</ele><time>2026-04-26T15:41:26.492Z</time></trkpt><trkpt lat="44.7689067" lon="10.7743133"><ele>33.0</ele><time>2026-04-26T15:41:27.492Z</time></trkpt><trkpt lat="44.7689783" lon="10.7743683"><ele>33.0</ele><time>2026-04-26T15:41:28.491Z</time></trkpt><trkpt lat="44.769035" lon="10.77442"><ele>33.0</ele><time>2026-04-26T15:41:29.491Z</time></trkpt><trkpt lat="44.7691183" lon="10.7745383"><ele>33.0</ele><time>2026-04-26T15:41:31.492Z</time></trkpt><trkpt lat="44.76919" lon="10.7746367"><ele>33.0</ele><time>2026-04-26T15:41:33.491Z</time></trkpt><trkpt lat="44.7692983" lon="10.7746183"><ele>33.0</ele><time>2026-04-26T15:41:35.491Z</time></trkpt><trkpt lat="44.7693433" lon="10.7745467"><ele>33.0</ele><time>2026-04-26T15:41:36.491Z</time></trkpt><trkpt lat="44.7693717" lon="10.7744367"><ele>33.0</ele><time>2026-04-26T15:41:37.492Z</time></trkpt><trkpt lat="44.7693867" lon="10.774315"><ele>33.0</ele><time>2026-04-26T15:41:38.491Z</time></trkpt><trkpt lat="44.7694183" lon="10.7741767"><ele>33.0</ele><time>2026-04-26T15:41:39.491Z</time></trkpt><trkpt lat="44.7694567" lon="10.7740267"><ele>33.0</ele><time>2026-04-26T15:41:40.491Z</time></trkpt><trkpt lat="44.7694967" lon="10.7738717"><ele>33.0</ele><time>2026-04-26T15:41:41.491Z</time></trkpt><trkpt lat="44.7695433" lon="10.773715"><ele>33.0</ele><time>2026-04-26T15:41:42.492Z</time></trkpt><trkpt lat="44.7695983" lon="10.77355"><ele>33.0</ele><time>2026-04-26T15:41:43.491Z</time></trkpt><trkpt lat="44.76965" lon="10.77338"><ele>33.0</ele><time>2026-04-26T15:41:44.491Z</time></trkpt><trkpt lat="44.769705" lon="10.7732083"><ele>33.0</ele><time>2026-04-26T15:41:45.491Z</time></trkpt><trkpt lat="44.76976" lon="10.773035"><ele>33.0</ele><time>2026-04-26T15:41:46.492Z</time></trkpt><trkpt lat="44.7698217" lon="10.772845"><ele>33.0</ele><time>2026-04-26T15:41:47.492Z</time></trkpt><trkpt lat="44.7698833" lon="10.7726733"><ele>32.75</ele><time>2026-04-26T15:41:48.491Z</time></trkpt><trkpt lat="44.769945" lon="10.7724967"><ele>32.5</ele><time>2026-04-26T15:41:49.491Z</time></trkpt><trkpt lat="44.770005" lon="10.7723333"><ele>32.25</ele><time>2026-04-26T15:41:50.491Z</time></trkpt><trkpt lat="44.7700617" lon="10.7721667"><ele>32.0</ele><time>2026-04-26T15:41:51.492Z</time></trkpt><trkpt lat="44.7701133" lon="10.7720067"><ele>32.0</ele><time>2026-04-26T15:41:52.492Z</time></trkpt><trkpt lat="44.770165" lon="10.7718517"><ele>32.0</ele><time>2026-04-26T15:41:53.492Z</time></trkpt><trkpt lat="44.7702133" lon="10.7717"><ele>32.0</ele><time>2026-04-26T15:41:54.492Z</time></trkpt><trkpt lat="44.7702617" lon="10.7715433"><ele>32.0</ele><time>2026-04-26T15:41:55.492Z</time></trkpt><trkpt lat="44.7703117" lon="10.771385"><ele>32.5</ele><time>2026-04-26T15:41:56.492Z</time></trkpt><trkpt lat="44.770365" lon="10.77123"><ele>33.0</ele><time>2026-04-26T15:41:57.492Z</time></trkpt><trkpt lat="44.7704083" lon="10.7710817"><ele>33.5</ele><time>2026-04-26T15:41:58.492Z</time></trkpt><trkpt lat="44.77045" lon="10.77092"><ele>34.0</ele><time>2026-04-26T15:41:59.491Z</time></trkpt><trkpt lat="44.7705083" lon="10.7707533"><ele>34.0</ele><time>2026-04-26T15:42:00.492Z</time></trkpt><trkpt lat="44.7705633" lon="10.77059"><ele>34.0</ele><time>2026-04-26T15:42:01.491Z</time></trkpt><trkpt lat="44.77061" lon="10.7704233"><ele>34.0</ele><time>2026-04-26T15:42:02.491Z</time></trkpt><trkpt lat="44.7706667" lon="10.7702517"><ele>34.0</ele><time>2026-04-26T15:42:03.491Z</time></trkpt><trkpt lat="44.7707183" lon="10.7700733"><ele>33.5</ele><time>2026-04-26T15:42:04.492Z</time></trkpt><trkpt lat="44.77076" lon="10.7698933"><ele>33.0</ele><time>2026-04-26T15:42:05.492Z</time></trkpt><trkpt lat="44.7708167" lon="10.76972"><ele>32.5</ele><time>2026-04-26T15:42:06.491Z</time></trkpt><trkpt lat="44.7708667" lon="10.769555"><ele>32.0</ele><time>2026-04-26T15:42:07.491Z</time></trkpt><trkpt lat="44.7709167" lon="10.769385"><ele>32.0</ele><time>2026-04-26T15:42:08.492Z</time></trkpt><trkpt lat="44.7709667" lon="10.7692233"><ele>32.0</ele><time>2026-04-26T15:42:09.491Z</time></trkpt><trkpt lat="44.771015" lon="10.76906"><ele>32.0</ele><time>2026-04-26T15:42:10.491Z</time></trkpt><trkpt lat="44.77106" lon="10.768895"><ele>32.0</ele><time>2026-04-26T15:42:11.491Z</time></trkpt><trkpt lat="44.7711033" lon="10.7687317"><ele>31.999999999999996</ele><time>2026-04-26T15:42:12.491Z</time></trkpt><trkpt lat="44.7711517" lon="10.7685833"><ele>32.0</ele><time>2026-04-26T15:42:13.492Z</time></trkpt><trkpt lat="44.7711933" lon="10.7684517"><ele>32.0</ele><time>2026-04-26T15:42:14.491Z</time></trkpt><trkpt lat="44.7712233" lon="10.7683367"><ele>32.0</ele><time>2026-04-26T15:42:15.492Z</time></trkpt><trkpt lat="44.771255" lon="10.768245"><ele>31.999999999999996</ele><time>2026-04-26T15:42:16.492Z</time></trkpt><trkpt lat="44.7712917" lon="10.7681583"><ele>32.0</ele><time>2026-04-26T15:42:17.492Z</time></trkpt><trkpt lat="44.77132" lon="10.7680717"><ele>32.0</ele><time>2026-04-26T15:42:18.492Z</time></trkpt><trkpt lat="44.7713117" lon="10.7679117"><ele>32.0</ele><time>2026-04-26T15:42:20.491Z</time></trkpt><trkpt lat="44.77123" lon="10.7678367"><ele>32.0</ele><time>2026-04-26T15:42:22.491Z</time></trkpt><trkpt lat="44.7711267" lon="10.7678833"><ele>32.0</ele><time>2026-04-26T15:42:24.492Z</time></trkpt><trkpt lat="44.771065" lon="10.76793"><ele>32.0</ele><time>2026-04-26T15:42:25.492Z</time></trkpt><trkpt lat="44.7709917" lon="10.7679717"><ele>31.833333333333332</ele><time>2026-04-26T15:42:26.492Z</time></trkpt><trkpt lat="44.7709183" lon="10.7679917"><ele>31.666666666666664</ele><time>2026-04-26T15:42:27.49Z</time></trkpt><trkpt lat="44.77085" lon="10.7679833"><ele>31.5</ele><time>2026-04-26T15:42:28.49Z</time></trkpt><trkpt lat="44.7707783" lon="10.7679417"><ele>31.333333333333336</ele><time>2026-04-26T15:42:29.49Z</time></trkpt><trkpt lat="44.77071" lon="10.7679017"><ele>31.166666666666668</ele><time>2026-04-26T15:42:30.491Z</time></trkpt><trkpt lat="44.770645" lon="10.7678883"><ele>31.0</ele><time>2026-04-26T15:42:31.49Z</time></trkpt><trkpt lat="44.7705417" lon="10.767935"><ele>31.000000000000004</ele><time>2026-04-26T15:42:33.49Z</time></trkpt><trkpt lat="44.7704817" lon="10.76809"><ele>31.0</ele><time>2026-04-26T15:42:35.49Z</time></trkpt><trkpt lat="44.7704567" lon="10.768185"><ele>31.0</ele><time>2026-04-26T15:42:36.491Z</time></trkpt><trkpt lat="44.7704283" lon="10.7682867"><ele>31.0</ele><time>2026-04-26T15:42:37.49Z</time></trkpt><trkpt lat="44.7704" lon="10.7683917"><ele>31.000000000000004</ele><time>2026-04-26T15:42:38.49Z</time></trkpt><trkpt lat="44.77037" lon="10.76849"><ele>31.0</ele><time>2026-04-26T15:42:39.49Z</time></trkpt><trkpt lat="44.7703433" lon="10.7685783"><ele>31.200000000000003</ele><time>2026-04-26T15:42:40.491Z</time></trkpt><trkpt lat="44.7703" lon="10.7687317"><ele>31.400000000000002</ele><time>2026-04-26T15:42:42.491Z</time></trkpt><trkpt lat="44.7702583" lon="10.76886"><ele>31.6</ele><time>2026-04-26T15:42:44.49Z</time></trkpt><trkpt lat="44.770245" lon="10.7689783"><ele>31.8</ele><time>2026-04-26T15:42:46.49Z</time></trkpt><trkpt lat="44.7702867" lon="10.7690683"><ele>32.0</ele><time>2026-04-26T15:42:48.491Z</time></trkpt><trkpt lat="44.77037" lon="10.76914"><ele>32.0</ele><time>2026-04-26T15:42:50.491Z</time></trkpt><trkpt lat="44.770475" lon="10.76919"><ele>32.0</ele><time>2026-04-26T15:42:52.49Z</time></trkpt><trkpt lat="44.770585" lon="10.7692633"><ele>32.0</ele><time>2026-04-26T15:42:54.49Z</time></trkpt><trkpt lat="44.7706783" lon="10.7692917"><ele>32.0</ele><time>2026-04-26T15:42:56.49Z</time></trkpt><trkpt lat="44.7707633" lon="10.7692517"><ele>32.0</ele><time>2026-04-26T15:42:58.491Z</time></trkpt><trkpt lat="44.7707833" lon="10.7691517"><ele>32.0</ele><time>2026-04-26T15:43:00.49Z</time></trkpt><trkpt lat="44.77072" lon="10.7690633"><ele>32.0</ele><time>2026-04-26T15:43:02.49Z</time></trkpt><trkpt lat="44.770625" lon="10.7689967"><ele>32.0</ele><time>2026-04-26T15:43:04.49Z</time></trkpt><trkpt lat="44.7705183" lon="10.7689333"><ele>32.0</ele><time>2026-04-26T15:43:06.49Z</time></trkpt><trkpt lat="44.7704233" lon="10.7688833"><ele>32.0</ele><time>2026-04-26T15:43:08.49Z</time></trkpt><trkpt lat="44.770345" lon="10.7688433"><ele>32.0</ele><time>2026-04-26T15:43:10.491Z</time></trkpt><trkpt lat="44.770275" lon="10.7688117"><ele>31.999999999999996</ele><time>2026-04-26T15:43:12.49Z</time></trkpt><trkpt lat="44.7701967" lon="10.768825"><ele>32.0</ele><time>2026-04-26T15:43:14.491Z</time></trkpt><trkpt lat="44.7701333" lon="10.7688633"><ele>32.0</ele><time>2026-04-26T15:43:16.49Z</time></trkpt><trkpt lat="44.7700717" lon="10.7688367"><ele>31.999999999999996</ele><time>2026-04-26T15:43:18.491Z</time></trkpt><trkpt lat="44.770025" lon="10.768775"><ele>32.0</ele><time>2026-04-26T15:43:20.49Z</time></trkpt><trkpt lat="44.7699733" lon="10.7687083"><ele>32.0</ele><time>2026-04-26T15:43:22.491Z</time></trkpt><trkpt lat="44.7699167" lon="10.7686517"><ele>31.499999999999996</ele><time>2026-04-26T15:43:24.49Z</time></trkpt><trkpt lat="44.7698567" lon="10.7685933"><ele>31.0</ele><time>2026-04-26T15:43:26.491Z</time></trkpt><trkpt lat="44.7697917" lon="10.7686083"><ele>30.5</ele><time>2026-04-26T15:43:28.491Z</time></trkpt><trkpt lat="44.7697567" lon="10.7687083"><ele>30.0</ele><time>2026-04-26T15:43:30.49Z</time></trkpt><trkpt lat="44.7698067" lon="10.768805"><ele>29.499999999999996</ele><time>2026-04-26T15:43:32.49Z</time></trkpt><trkpt lat="44.7698867" lon="10.7688233"><ele>29.0</ele><time>2026-04-26T15:43:34.49Z</time></trkpt><trkpt lat="44.76996" lon="10.7688017"><ele>28.999999999999996</ele><time>2026-04-26T15:43:36.49Z</time></trkpt><trkpt lat="44.7700383" lon="10.7688067"><ele>29.0</ele><time>2026-04-26T15:43:39.491Z</time></trkpt><trkpt lat="44.7700883" lon="10.7688633"><ele>29.0</ele><time>2026-04-26T15:43:41.49Z</time></trkpt><trkpt lat="44.7701617" lon="10.7688667"><ele>29.0</ele><time>2026-04-26T15:43:44.49Z</time></trkpt><trkpt lat="44.770195" lon="10.768965"><ele>28.999999999999996</ele><time>2026-04-26T15:43:47.49Z</time></trkpt><trkpt lat="44.7702683" lon="10.7689883"><ele>29.0</ele><time>2026-04-26T15:43:50.491Z</time></trkpt><trkpt lat="44.7703067" lon="10.7688833"><ele>29.5</ele><time>2026-04-26T15:43:52.49Z</time></trkpt><trkpt lat="44.77035" lon="10.7687333"><ele>30.0</ele><time>2026-04-26T15:43:54.49Z</time></trkpt><trkpt lat="44.7703917" lon="10.7685767"><ele>30.5</ele><time>2026-04-26T15:43:56.49Z</time></trkpt><trkpt lat="44.77043" lon="10.7684133"><ele>31.0</ele><time>2026-04-26T15:43:58.491Z</time></trkpt><trkpt lat="44.7704683" lon="10.76828"><ele>31.000000000000004</ele><time>2026-04-26T15:44:00.49Z</time></trkpt><trkpt lat="44.7705083" lon="10.7681533"><ele>31.0</ele><time>2026-04-26T15:44:02.491Z</time></trkpt><trkpt lat="44.7705483" lon="10.7680533"><ele>31.0</ele><time>2026-04-26T15:44:04.49Z</time></trkpt><trkpt lat="44.7705733" lon="10.7679483"><ele>31.0</ele><time>2026-04-26T15:44:06.491Z</time></trkpt><trkpt lat="44.7705317" lon="10.7678133"><ele>31.000000000000004</ele><time>2026-04-26T15:44:08.491Z</time></trkpt><trkpt lat="44.7704733" lon="10.767765"><ele>31.0</ele><time>2026-04-26T15:44:09.491Z</time></trkpt><trkpt lat="44.7703633" lon="10.76771"><ele>31.200000000000003</ele><time>2026-04-26T15:44:11.491Z</time></trkpt><trkpt lat="44.7702633" lon="10.7676533"><ele>31.400000000000002</ele><time>2026-04-26T15:44:13.491Z</time></trkpt><trkpt lat="44.7701683" lon="10.7676017"><ele>31.6</ele><time>2026-04-26T15:44:15.49Z</time></trkpt><trkpt lat="44.7701033" lon="10.7675233"><ele>31.8</ele><time>2026-04-26T15:44:17.49Z</time></trkpt><trkpt lat="44.7700883" lon="10.7673733"><ele>32.0</ele><time>2026-04-26T15:44:19.491Z</time></trkpt><trkpt lat="44.7700867" lon="10.7672783"><ele>31.999999999999996</ele><time>2026-04-26T15:44:20.491Z</time></trkpt><trkpt lat="44.7700683" lon="10.7671883"><ele>32.0</ele><time>2026-04-26T15:44:21.491Z</time></trkpt><trkpt lat="44.7700217" lon="10.76711"><ele>32.0</ele><time>2026-04-26T15:44:22.491Z</time></trkpt><trkpt lat="44.7699533" lon="10.7670433"><ele>32.0</ele><time>2026-04-26T15:44:23.49Z</time></trkpt><trkpt lat="44.7698767" lon="10.7669933"><ele>31.999999999999996</ele><time>2026-04-26T15:44:24.491Z</time></trkpt><trkpt lat="44.7697917" lon="10.766965"><ele>32.0</ele><time>2026-04-26T15:44:25.49Z</time></trkpt><trkpt lat="44.76971" lon="10.7669433"><ele>31.999999999999996</ele><time>2026-04-26T15:44:26.491Z</time></trkpt><trkpt lat="44.7696367" lon="10.7669317"><ele>32.0</ele><time>2026-04-26T15:44:27.491Z</time></trkpt><trkpt lat="44.7695583" lon="10.76696"><ele>32.0</ele><time>2026-04-26T15:44:28.49Z</time></trkpt><trkpt lat="44.7694867" lon="10.7670283"><ele>32.0</ele><time>2026-04-26T15:44:29.491Z</time></trkpt><trkpt lat="44.7694333" lon="10.76713"><ele>31.999999999999996</ele><time>2026-04-26T15:44:30.49Z</time></trkpt><trkpt lat="44.7693967" lon="10.7672483"><ele>32.0</ele><time>2026-04-26T15:44:31.491Z</time></trkpt><trkpt lat="44.769375" lon="10.7673483"><ele>32.0</ele><time>2026-04-26T15:44:32.491Z</time></trkpt><trkpt lat="44.7693033" lon="10.7674617"><ele>32.0</ele><time>2026-04-26T15:44:34.491Z</time></trkpt><trkpt lat="44.7691833" lon="10.7674617"><ele>32.0</ele><time>2026-04-26T15:44:36.491Z</time></trkpt><trkpt lat="44.7691117" lon="10.767425"><ele>32.0</ele><time>2026-04-26T15:44:37.491Z</time></trkpt><trkpt lat="44.76904" lon="10.7673767"><ele>32.0</ele><time>2026-04-26T15:44:38.49Z</time></trkpt><trkpt lat="44.7689667" lon="10.7673367"><ele>31.999999999999996</ele><time>2026-04-26T15:44:39.49Z</time></trkpt><trkpt lat="44.7688733" lon="10.7673167"><ele>32.0</ele><time>2026-04-26T15:44:41.491Z</time></trkpt><trkpt lat="44.7688067" lon="10.7673483"><ele>32.0</ele><time>2026-04-26T15:44:43.49Z</time></trkpt><trkpt lat="44.7687733" lon="10.767465"><ele>32.0</ele><time>2026-04-26T15:44:45.49Z</time></trkpt><trkpt lat="44.7687417" lon="10.7676417"><ele>31.999999999999996</ele><time>2026-04-26T15:44:47.49Z</time></trkpt><trkpt lat="44.7687283" lon="10.76773"><ele>32.0</ele><time>2026-04-26T15:44:48.491Z</time></trkpt><trkpt lat="44.7687083" lon="10.7678267"><ele>32.0</ele><time>2026-04-26T15:44:49.49Z</time></trkpt><trkpt lat="44.7686917" lon="10.767915"><ele>32.0</ele><time>2026-04-26T15:44:50.491Z</time></trkpt><trkpt lat="44.7686617" lon="10.7680783"><ele>32.0</ele><time>2026-04-26T15:44:52.49Z</time></trkpt><trkpt lat="44.768635" lon="10.7682233"><ele>32.0</ele><time>2026-04-26T15:44:54.49Z</time></trkpt><trkpt lat="44.7685983" lon="10.7683817"><ele>32.0</ele><time>2026-04-26T15:44:56.491Z</time></trkpt><trkpt lat="44.7685767" lon="10.7685133"><ele>31.833333333333332</ele><time>2026-04-26T15:44:58.491Z</time></trkpt><trkpt lat="44.7685617" lon="10.768665"><ele>31.666666666666664</ele><time>2026-04-26T15:45:00.49Z</time></trkpt><trkpt lat="44.7685483" lon="10.7688167"><ele>31.5</ele><time>2026-04-26T15:45:02.49Z</time></trkpt><trkpt lat="44.76854" lon="10.768915"><ele>31.333333333333336</ele><time>2026-04-26T15:45:03.491Z</time></trkpt><trkpt lat="44.7685333" lon="10.769005"><ele>31.166666666666668</ele><time>2026-04-26T15:45:04.491Z</time></trkpt><trkpt lat="44.768515" lon="10.769105"><ele>31.0</ele><time>2026-04-26T15:45:05.49Z</time></trkpt><trkpt lat="44.7685067" lon="10.7692117"><ele>31.333333333333336</ele><time>2026-04-26T15:45:06.49Z</time></trkpt><trkpt lat="44.7685067" lon="10.7693183"><ele>31.666666666666668</ele><time>2026-04-26T15:45:07.49Z</time></trkpt><trkpt lat="44.7685" lon="10.7694167"><ele>32.0</ele><time>2026-04-26T15:45:08.491Z</time></trkpt><trkpt lat="44.7684883" lon="10.76952"><ele>32.333333333333336</ele><time>2026-04-26T15:45:09.49Z</time></trkpt><trkpt lat="44.76847" lon="10.769625"><ele>32.666666666666664</ele><time>2026-04-26T15:45:10.49Z</time></trkpt><trkpt lat="44.768445" lon="10.769745"><ele>33.0</ele><time>2026-04-26T15:45:11.49Z</time></trkpt><trkpt lat="44.7684267" lon="10.7698683"><ele>33.0</ele><time>2026-04-26T15:45:12.49Z</time></trkpt><trkpt lat="44.7684183" lon="10.76999"><ele>33.0</ele><time>2026-04-26T15:45:13.49Z</time></trkpt><trkpt lat="44.7684067" lon="10.7701033"><ele>33.0</ele><time>2026-04-26T15:45:14.49Z</time></trkpt><trkpt lat="44.7683933" lon="10.7701983"><ele>33.0</ele><time>2026-04-26T15:45:15.491Z</time></trkpt><trkpt lat="44.7683683" lon="10.7703517"><ele>33.0</ele><time>2026-04-26T15:45:17.49Z</time></trkpt><trkpt lat="44.7683967" lon="10.770465"><ele>33.0</ele><time>2026-04-26T15:45:19.491Z</time></trkpt><trkpt lat="44.76848" lon="10.770515"><ele>32.666666666666664</ele><time>2026-04-26T15:45:21.491Z</time></trkpt><trkpt lat="44.7685933" lon="10.7705867"><ele>32.333333333333336</ele><time>2026-04-26T15:45:23.49Z</time></trkpt><trkpt lat="44.76866" lon="10.7706267"><ele>32.0</ele><time>2026-04-26T15:45:24.491Z</time></trkpt><trkpt lat="44.7687233" lon="10.7706683"><ele>31.666666666666668</ele><time>2026-04-26T15:45:25.491Z</time></trkpt><trkpt lat="44.7687883" lon="10.7707067"><ele>31.333333333333336</ele><time>2026-04-26T15:45:26.49Z</time></trkpt><trkpt lat="44.7688567" lon="10.7707617"><ele>31.0</ele><time>2026-04-26T15:45:27.49Z</time></trkpt><trkpt lat="44.7689283" lon="10.7708133"><ele>31.000000000000004</ele><time>2026-04-26T15:45:28.49Z</time></trkpt><trkpt lat="44.7690067" lon="10.7708767"><ele>31.0</ele><time>2026-04-26T15:45:29.49Z</time></trkpt><trkpt lat="44.7690967" lon="10.770925"><ele>31.0</ele><time>2026-04-26T15:45:30.49Z</time></trkpt><trkpt lat="44.7691833" lon="10.7709867"><ele>31.0</ele><time>2026-04-26T15:45:31.491Z</time></trkpt><trkpt lat="44.76926" lon="10.7710417"><ele>31.000000000000004</ele><time>2026-04-26T15:45:32.491Z</time></trkpt><trkpt lat="44.76932" lon="10.7710867"><ele>31.0</ele><time>2026-04-26T15:45:33.491Z</time></trkpt><trkpt lat="44.769385" lon="10.77113"><ele>31.200000000000003</ele><time>2026-04-26T15:45:34.49Z</time></trkpt><trkpt lat="44.7694917" lon="10.7712"><ele>31.400000000000002</ele><time>2026-04-26T15:45:36.491Z</time></trkpt><trkpt lat="44.7695617" lon="10.7712433"><ele>31.6</ele><time>2026-04-26T15:45:38.491Z</time></trkpt><trkpt lat="44.76964" lon="10.7711433"><ele>31.8</ele><time>2026-04-26T15:45:41.49Z</time></trkpt><trkpt lat="44.7696717" lon="10.7710467"><ele>32.0</ele><time>2026-04-26T15:45:42.49Z</time></trkpt><trkpt lat="44.7697117" lon="10.770935"><ele>31.666666666666664</ele><time>2026-04-26T15:45:43.49Z</time></trkpt><trkpt lat="44.7697483" lon="10.7708217"><ele>31.333333333333332</ele><time>2026-04-26T15:45:44.491Z</time></trkpt><trkpt lat="44.7697933" lon="10.770715"><ele>31.0</ele><time>2026-04-26T15:45:45.49Z</time></trkpt><trkpt lat="44.769825" lon="10.7706117"><ele>30.666666666666664</ele><time>2026-04-26T15:45:46.491Z</time></trkpt><trkpt lat="44.7698533" lon="10.7705317"><ele>30.333333333333332</ele><time>2026-04-26T15:45:47.49Z</time></trkpt><trkpt lat="44.76989" lon="10.7704517"><ele>30.0</ele><time>2026-04-26T15:45:48.491Z</time></trkpt><trkpt lat="44.7699217" lon="10.770365"><ele>30.0</ele><time>2026-04-26T15:45:49.491Z</time></trkpt><trkpt lat="44.769955" lon="10.77027"><ele>30.0</ele><time>2026-04-26T15:45:50.49Z</time></trkpt><trkpt lat="44.7699883" lon="10.7701783"><ele>30.0</ele><time>2026-04-26T15:45:51.49Z</time></trkpt><trkpt lat="44.7700183" lon="10.770085"><ele>30.0</ele><time>2026-04-26T15:45:52.49Z</time></trkpt><trkpt lat="44.7700683" lon="10.7699283"><ele>30.0</ele><time>2026-04-26T15:45:54.49Z</time></trkpt><trkpt lat="44.77012" lon="10.7698033"><ele>30.0</ele><time>2026-04-26T15:45:56.49Z</time></trkpt><trkpt lat="44.7701433" lon="10.7696883"><ele>30.0</ele><time>2026-04-26T15:45:58.491Z</time></trkpt><trkpt lat="44.7701067" lon="10.76961"><ele>30.0</ele><time>2026-04-26T15:46:00.491Z</time></trkpt><trkpt lat="44.77006" lon="10.76955"><ele>30.0</ele><time>2026-04-26T15:46:02.49Z</time></trkpt></trkseg></trk></gpx>